# Wetter Temperatur Luftdruck Luftfeuchtigkeit Sichtweite Windgeschwindigkeit Windrichtung Zeit
1 Clouds 23 1009 56 10000 1 120 06:24 11.07.2020
2 Clouds 22 1009 60 10000 1 160 05:54 11.07.2020
3 Clouds 20 1010 68 10000 1 220 05:19 11.07.2020
4 Clouds 19 1010 68 10000 3 90 04:39 11.07.2020
5 Clouds 19 1010 68 10000 3 90 04:19 11.07.2020
6 Clouds 17 1010 77 10000 3 100 02:53 11.07.2020
7 Clouds 15 1010 82 10000 3 110 01:57 11.07.2020
8 Clouds 15 1010 82 10000 3 110 01:22 11.07.2020
9 Clouds 15 1010 87 10000 3 100 00:55 11.07.2020
10 Clouds 15 1010 82 10000 3 100 00:36 11.07.2020
11 Clouds 15 1010 82 10000 3 100 00:18 11.07.2020
12 Clouds 15 1010 82 10000 2 150 23:44 10.07.2020
13 Clouds 15 1010 82 10000 3 110 23:26 10.07.2020
14 Clouds 15 1009 82 10000 3 110 22:55 10.07.2020
15 Clouds 15 1009 82 10000 3 100 22:36 10.07.2020
16 Clouds 15 1009 82 10000 3 100 22:18 10.07.2020
17 Clouds 15 1009 82 10000 3 100 21:38 10.07.2020
18 Clouds 15 1009 82 10000 3 100 21:20 10.07.2020
19 Clouds 15 1009 82 10000 3 100 20:56 10.07.2020
20 Clouds 15 1009 82 10000 2 110 20:37 10.07.2020
21 Clouds 15 1009 82 10000 2 110 20:19 10.07.2020
22 Clouds 15 1009 82 10000 3 100 19:56 10.07.2020
23 Clouds 15 1009 82 10000 2 110 19:38 10.07.2020
24 Clouds 15 1009 82 10000 2 110 19:18 10.07.2020
25 Clouds 15 1009 82 10000 2 90 18:41 10.07.2020
26 Clouds 15 1009 82 10000 2 90 18:19 10.07.2020
27 Clouds 15 1008 82 10000 2 100 17:55 10.07.2020
28 Clouds 15 1008 82 10000 2 100 17:37 10.07.2020
29 Clouds 15 1008 82 10000 2 100 17:18 10.07.2020
30 Clouds 16 1008 77 10000 2 140 16:41 10.07.2020
31 Clouds 16 1008 77 10000 2 140 16:20 10.07.2020
32 Clouds 16 1008 77 10000 3 160 15:44 10.07.2020
33 Clouds 17 1008 72 10000 4 160 15:22 10.07.2020
34 Clouds 18 1008 72 10000 3 170 14:55 10.07.2020
35 Clouds 19 1008 68 10000 3 180 14:37 10.07.2020
36 Clouds 19 1008 68 10000 3 180 14:18 10.07.2020
37 Clouds 20 1008 64 10000 3 170 13:56 10.07.2020
38 Clouds 20 1008 60 10000 3 160 13:37 10.07.2020
39 Clouds 21 1007 60 10000 4 160 13:19 10.07.2020
40 Clouds 21 1007 60 10000 4 160 12:43 10.07.2020
41 Clouds 21 1007 60 10000 4 160 12:24 10.07.2020
42 Clouds 22 1007 56 10000 4 160 11:59 10.07.2020
43 Clouds 22 1007 56 10000 4 160 11:38 10.07.2020
44 Clouds 22 1007 56 10000 4 150 11:19 10.07.2020
45 Clouds 22 1007 56 10000 3 150 10:54 10.07.2020
46 Clouds 22 1007 56 10000 5 110 10:36 10.07.2020
47 Clouds 22 1007 56 10000 5 110 10:18 10.07.2020
48 Clouds 23 1006 49 10000 5 120 09:37 10.07.2020
49 Clouds 23 1006 49 10000 5 120 09:19 10.07.2020
50 Clouds 22 1006 56 10000 4 140 08:56 10.07.2020
51 Clouds 22 1006 60 10000 4 100 08:38 10.07.2020
52 Clouds 22 1006 56 10000 4 70 08:20 10.07.2020
53 Clouds 20 1006 64 10000 3 90 07:42 10.07.2020
54 Clouds 20 1006 64 10000 3 90 07:22 10.07.2020
55 Clouds 18 1006 72 10000 5 100 06:49 10.07.2020
56 Clouds 18 1007 72 10000 6 100 05:58 10.07.2020
57 Clouds 19 1005 63 10000 5 100 04:39 10.07.2020
58 Clouds 21 1005 56 10000 5 110 03:38 10.07.2020
59 Clouds 21 1005 56 10000 4 100 02:52 10.07.2020
60 Clouds 20 1004 56 10000 4 90 01:50 10.07.2020
61 Clouds 20 1004 56 10000 4 90 00:48 10.07.2020
62 Clouds 20 1004 56 10000 4 90 00:20 10.07.2020
63 Clouds 19 1004 59 10000 4 80 23:46 09.07.2020
64 Clouds 19 1004 59 10000 3 80 23:23 09.07.2020
65 Clouds 19 1003 59 10000 3 70 22:59 09.07.2020
66 Clouds 18 1003 63 10000 3 70 22:41 09.07.2020
67 Clouds 18 1003 63 10000 3 70 22:21 09.07.2020
68 Clouds 18 1003 63 10000 2 60 21:56 09.07.2020
69 Clouds 17 1003 67 10000 2 40 21:38 09.07.2020
70 Clouds 17 1003 67 10000 2 40 21:38 09.07.2020
71 Clouds 17 1003 67 10000 2 40 21:19 09.07.2020
72 Clouds 17 1003 67 10000 2 70 20:45 09.07.2020
73 Clouds 18 1003 68 10000 3 90 20:26 09.07.2020
74 Clouds 18 1003 63 10000 4 100 19:59 09.07.2020
75 Clouds 19 1003 63 10000 4 100 19:41 09.07.2020
76 Clouds 19 1003 63 10000 4 100 19:21 09.07.2020
77 Clouds 19 1003 63 10000 4 90 18:43 09.07.2020
78 Clouds 19 1003 63 10000 4 90 18:24 09.07.2020
79 Clouds 19 1003 63 10000 3 80 17:56 09.07.2020
80 Clouds 20 1003 60 10000 4 90 17:38 09.07.2020
81 Clouds 20 1003 60 10000 4 90 17:19 09.07.2020
82 Clouds 20 1003 60 10000 5 80 16:56 09.07.2020
83 Clouds 21 1003 52 10000 5 80 16:37 09.07.2020
84 Clouds 21 1003 52 10000 5 80 16:19 09.07.2020
85 Clouds 21 1003 52 10000 4 70 15:55 09.07.2020
86 Clouds 21 1003 56 10000 3 60 15:36 09.07.2020
87 Clouds 21 1003 56 10000 3 60 15:18 09.07.2020
88 Clouds 21 1003 56 10000 3 60 14:57 09.07.2020
89 Clouds 21 1003 56 10000 3 60 14:39 09.07.2020
90 Clouds 21 1003 56 10000 3 60 14:19 09.07.2020
91 Clouds 22 1003 53 10000 3 60 13:55 09.07.2020
92 Clouds 23 1003 46 10000 3 80 13:36 09.07.2020
93 Clouds 23 1003 46 10000 3 80 13:18 09.07.2020
94 Clouds 25 1003 38 10000 4 80 12:40 09.07.2020
95 Clouds 25 1003 38 10000 4 80 12:21 09.07.2020
96 Clouds 25 1003 38 10000 4 80 11:56 09.07.2020
97 Clouds 26 1003 34 10000 3 70 11:37 09.07.2020
98 Clouds 26 1003 34 10000 3 70 11:18 09.07.2020
99 Clouds 25 1003 36 10000 3 80 10:55 09.07.2020
100 Clouds 27 1003 28 10000 3 100 10:37 09.07.2020
101 Clouds 27 1003 28 10000 3 100 10:18 09.07.2020
102 Clouds 27 1003 28 10000 3 80 09:41 09.07.2020
103 Clouds 27 1003 28 10000 3 80 09:22 09.07.2020
104 Clouds 26 1003 27 10000 3 90 08:49 09.07.2020
105 Clouds 26 1003 29 10000 4 60 08:26 09.07.2020
106 Clouds 26 1003 29 10000 2 70 07:50 09.07.2020
107 Clear 26 1003 29 10000 3 90 07:26 09.07.2020
108 Clear 26 1004 29 10000 3 70 06:57 09.07.2020
109 Clear 25 1004 29 10000 2 60 06:20 09.07.2020
110 Clear 25 1004 31 10000 2 80 05:46 09.07.2020
111 Clear 24 1004 36 10000 3 70 04:28 09.07.2020
112 Clear 21 1005 56 10000 3 40 02:37 09.07.2020
113 Clear 18 1005 63 10000 2 70 01:40 09.07.2020
114 Clear 17 1005 72 10000 2 40 00:56 09.07.2020
115 Clear 16 1005 77 10000 2 50 00:37 09.07.2020
116 Clear 16 1005 77 10000 2 50 00:18 09.07.2020
117 Clear 15 1005 77 10000 2 40 23:43 08.07.2020
118 Clear 15 1005 77 10000 2 60 23:24 08.07.2020
119 Clear 14 1005 76 10000 1 360 22:54 08.07.2020
120 Clear 12 1005 81 10000 2 340 22:36 08.07.2020
121 Clear 12 1005 81 10000 2 340 22:18 08.07.2020
122 Clear 10 1005 87 10000 2 310 21:39 08.07.2020
123 Clear 10 1005 87 10000 2 310 21:21 08.07.2020
124 Clear 10 1005 87 10000 2 330 20:58 08.07.2020
125 Clear 10 1005 87 10000 2 330 20:58 08.07.2020
126 Clear 10 1005 87 10000 2 320 20:40 08.07.2020
127 Clouds 10 1005 87 10000 2 320 20:22 08.07.2020
128 Clouds 11 1005 87 10000 2 340 19:43 08.07.2020
129 Clouds 11 1005 87 10000 2 340 19:25 08.07.2020
130 Clouds 12 1005 81 10000 2 330 18:58 08.07.2020
131 Clouds 12 1005 87 10000 2 350 18:40 08.07.2020
132 Clouds 12 1005 87 10000 2 350 18:21 08.07.2020
133 Clouds 14 1004 82 10000 2 110 17:56 08.07.2020
134 Clouds 14 1004 82 10000 2 70 17:38 08.07.2020
135 Clouds 14 1004 82 10000 2 70 17:20 08.07.2020
136 Clouds 14 1004 82 10000 1 88 16:55 08.07.2020
137 Clouds 14 1004 82 10000 1 100 16:36 08.07.2020
138 Clouds 14 1004 82 10000 1 100 16:18 08.07.2020
139 Clouds 17 1004 67 10000 1 70 15:56 08.07.2020
140 Clouds 19 1004 59 10000 2 90 15:37 08.07.2020
141 Clouds 19 1004 59 10000 2 90 15:18 08.07.2020
142 Clouds 19 1004 55 10000 4 90 14:42 08.07.2020
143 Clouds 20 1004 49 10000 3 50 14:20 08.07.2020
144 Clouds 21 1004 52 10000 2 40 13:46 08.07.2020
145 Clouds 22 1004 43 10000 1 70 13:27 08.07.2020
146 Clouds 22 1004 43 10000 3 80 12:58 08.07.2020
147 Clouds 23 1003 43 10000 3 70 12:40 08.07.2020
148 Clouds 23 1003 43 10000 3 70 12:19 08.07.2020
149 Clouds 24 1003 31 10000 2 10 11:39 08.07.2020
150 Clouds 24 1003 31 10000 2 10 11:20 08.07.2020
151 Clouds 24 1003 29 10000 2 80 10:56 08.07.2020
152 Clouds 24 1003 31 10000 2 60 10:38 08.07.2020
153 Clouds 24 1003 31 10000 2 60 10:19 08.07.2020
154 Clouds 24 1003 33 10000 2 70 09:43 08.07.2020
155 Clouds 24 1003 33 10000 2 70 09:24 08.07.2020
156 Clouds 23 1003 35 10000 3 70 08:44 08.07.2020
157 Clouds 24 1004 38 10000 3 60 08:25 08.07.2020
158 Clouds 24 1004 31 10000 2 80 07:48 08.07.2020
159 Clouds 24 1004 31 10000 2 80 07:48 08.07.2020
160 Clouds 23 1004 33 10000 3 80 07:24 08.07.2020
161 Clouds 24 1004 36 10000 4 70 06:57 08.07.2020
162 Clouds 23 1004 35 10000 4 80 06:37 08.07.2020
163 Clouds 23 1004 35 10000 4 80 06:19 08.07.2020
164 Clouds 24 1004 36 10000 2 90 05:38 08.07.2020
165 Clouds 23 1005 40 10000 1 90 04:38 08.07.2020
166 Rain 20 1005 60 10000 2 70 02:55 08.07.2020
167 Clouds 19 1005 63 10000 2 70 01:57 08.07.2020
168 Clouds 18 1005 63 10000 2 20 01:37 08.07.2020
169 Clouds 16 1005 77 10000 1 20 00:39 08.07.2020
170 Clouds 16 1005 77 10000 1 20 00:19 08.07.2020
171 Clouds 13 1005 76 10000 1 320 23:41 07.07.2020
172 Clouds 13 1005 76 10000 1 320 23:21 07.07.2020
173 Clouds 12 1005 81 10000 2 340 22:54 07.07.2020
174 Clouds 9 1005 87 10000 2 300 22:36 07.07.2020
175 Clouds 9 1005 87 10000 2 300 22:18 07.07.2020
176 Clouds 8 1005 87 10000 2 300 21:41 07.07.2020
177 Clouds 8 1005 87 10000 2 300 21:22 07.07.2020
178 Clouds 8 1005 87 10000 2 300 21:22 07.07.2020
179 Clouds 8 1005 87 10000 2 300 20:58 07.07.2020
180 Clouds 8 1005 93 10000 2 300 20:40 07.07.2020
181 Clouds 8 1005 93 10000 2 300 20:22 07.07.2020
182 Clouds 9 1005 87 10000 2 290 19:55 07.07.2020
183 Clouds 9 1005 87 10000 2 310 19:36 07.07.2020
184 Clouds 10 1005 87 10000 2 320 19:18 07.07.2020
185 Clouds 10 1005 87 10000 2 320 18:54 07.07.2020
186 Clouds 10 1005 87 10000 2 320 18:36 07.07.2020
187 Clouds 10 1005 87 10000 2 320 18:18 07.07.2020
188 Clouds 11 1005 87 10000 2 330 17:43 07.07.2020
189 Clouds 12 1005 81 10000 3 320 17:23 07.07.2020
190 Clouds 13 1005 76 10000 2 310 16:58 07.07.2020
191 Smoke 13 1005 82 5000 1 320 16:40 07.07.2020
192 Smoke 13 1005 82 5000 1 320 16:21 07.07.2020
193 Clouds 14 1005 82 10000 1 320 15:54 07.07.2020
194 Clouds 15 1005 77 10000 1 360 15:36 07.07.2020
195 Clouds 15 1005 77 10000 1 360 15:18 07.07.2020
196 Clouds 18 1005 63 10000 1.66 348 14:42 07.07.2020
197 Clouds 18 1005 63 10000 1.32 27 14:22 07.07.2020
198 Clouds 20 1005 52 10000 2 90 13:40 07.07.2020
199 Clouds 20 1005 52 10000 2 90 13:19 07.07.2020
200 Clouds 22 1005 40 10000 3 100 12:43 07.07.2020
201 Clouds 22 1005 40 10000 3 100 12:25 07.07.2020
202 Clouds 22 1005 40 10000 3 100 11:58 07.07.2020
203 Clouds 22 1005 40 10000 4 100 11:40 07.07.2020
204 Clouds 22 1005 40 10000 4 100 11:20 07.07.2020
205 Clouds 22 1005 40 10000 4 100 10:57 07.07.2020
206 Clouds 22 1005 43 10000 5 100 10:38 07.07.2020
207 Clouds 22 1005 43 10000 5 100 10:19 07.07.2020
208 Clouds 23 1004 33 10000 2 90 09:41 07.07.2020
209 Clouds 23 1004 33 10000 2 90 09:21 07.07.2020
210 Clouds 23 1005 33 10000 1 100 08:42 07.07.2020
211 Clouds 23 1005 35 10000 2 90 08:24 07.07.2020
212 Clouds 22 1005 37 10000 2 100 07:49 07.07.2020
213 Clouds 22 1005 40 10000 2 130 07:27 07.07.2020
214 Clouds 21 1006 40 10000 2 120 06:50 07.07.2020
215 Clouds 21 1006 40 10000 2 120 06:32 07.07.2020
216 Clouds 22 1006 35 10000 2 120 05:58 07.07.2020
217 Clouds 22 1006 40 10000 2 130 05:24 07.07.2020
218 Clouds 21 1006 43 10000 2 130 04:43 07.07.2020
219 Clouds 18 1007 52 10000 2 120 03:42 07.07.2020
220 Clouds 17 1007 67 10000 2 90 02:41 07.07.2020
221 Clouds 16 1007 67 10000 1 130 01:33 07.07.2020
222 Clouds 15 1007 72 10000 1 80 00:58 07.07.2020
223 Clouds 14 1007 71 10000 1 50 00:39 07.07.2020
224 Clouds 11 1007 76 10000 1 310 00:19 07.07.2020
225 Clouds 10 1007 76 10000 2 310 23:42 06.07.2020
226 Clouds 10 1007 76 10000 2 310 23:24 06.07.2020
227 Clouds 9 1006 76 10000 2 310 22:56 06.07.2020
228 Clouds 8 1006 81 10000 2 290 22:38 06.07.2020
229 Clouds 8 1006 81 10000 2 290 22:18 06.07.2020
230 Clouds 8 1006 81 10000 3 300 21:56 06.07.2020
231 Clouds 7 1006 87 10000 2 290 21:36 06.07.2020
232 Clouds 7 1006 87 10000 2 290 21:18 06.07.2020
233 Clouds 8 1006 81 10000 2 290 20:40 06.07.2020
234 Clouds 8 1006 81 10000 2 290 20:20 06.07.2020
235 Clouds 8 1006 81 10000 2 290 19:58 06.07.2020
236 Clouds 10 1006 71 10000 2 320 19:39 06.07.2020
237 Clouds 10 1006 71 10000 2 320 19:21 06.07.2020
238 Clouds 10 1006 76 10000 3 300 18:57 06.07.2020
239 Clouds 10 1006 76 10000 4 300 18:39 06.07.2020
240 Clouds 10 1006 76 10000 4 300 18:21 06.07.2020
241 Clouds 11 1006 71 10000 3 290 17:44 06.07.2020
242 Clouds 12 1006 71 10000 2 240 17:24 06.07.2020
243 Clouds 13 1006 71 10000 1 190 16:59 06.07.2020
244 Clouds 13 1005 76 10000 2 250 16:41 06.07.2020
245 Clouds 13 1005 76 10000 2 250 16:21 06.07.2020
246 Clouds 14 1005 71 10000 2 210 15:43 06.07.2020
247 Clouds 14 1005 71 10000 2 190 15:25 06.07.2020
248 Clouds 16 1005 67 10000 1 110 14:57 06.07.2020
249 Clouds 17 1005 59 10000 1 220 14:38 06.07.2020
250 Clouds 17 1005 59 10000 1 220 14:20 06.07.2020
251 Clouds 18 1005 55 10000 2 200 13:56 06.07.2020
252 Clouds 18 1005 52 10000 2 170 13:38 06.07.2020
253 Clouds 18 1005 52 10000 2 170 13:19 06.07.2020
254 Clouds 19 1004 52 10000 2 130 12:42 06.07.2020
255 Clouds 19 1004 52 10000 2 130 12:19 06.07.2020
256 Clouds 19 1004 52 10000 2 130 12:19 06.07.2020
257 Clouds 19 1004 52 10000 4 140 11:58 06.07.2020
258 Clouds 20 1004 45 10000 3 120 11:38 06.07.2020
259 Clouds 20 1004 45 10000 3 120 11:20 06.07.2020
260 Clouds 20 1004 49 10000 3 110 10:56 06.07.2020
261 Clouds 20 1004 42 10000 3 110 10:37 06.07.2020
262 Clouds 20 1004 42 10000 3 110 10:18 06.07.2020
263 Clouds 21 1004 37 10000 2 160 09:41 06.07.2020
264 Clouds 21 1004 37 10000 2 160 09:21 06.07.2020
265 Clouds 20 1004 37 10000 2 230 08:56 06.07.2020
266 Clouds 20 1004 37 10000 2 290 08:38 06.07.2020
267 Clouds 20 1004 37 10000 2 290 08:19 06.07.2020
268 Clouds 20 1004 42 10000 2 240 07:46 06.07.2020
269 Clouds 19 1004 45 10000 3 250 07:24 06.07.2020
270 Clouds 20 1004 40 10000 3 150 06:42 06.07.2020
271 Clouds 20 1004 40 10000 3 150 06:42 06.07.2020
272 Clouds 20 1004 40 10000 3 150 06:23 06.07.2020
273 Clouds 18 1004 45 10000 2 150 05:41 06.07.2020
274 Clouds 20 1004 40 10000 2 130 04:55 06.07.2020
275 Clouds 18 1004 48 10000 2 120 03:44 06.07.2020
276 Clouds 18 1003 55 10000 2 90 02:24 06.07.2020
277 Clouds 17 1003 51 10000 1 330 01:39 06.07.2020
278 Clouds 15 1003 54 10000 2 300 00:39 06.07.2020
279 Clouds 15 1003 54 10000 2 300 00:20 06.07.2020
280 Clouds 14 1003 62 10000 2 310 23:44 05.07.2020
281 Clouds 13 1002 66 10000 2 310 23:25 05.07.2020
282 Clouds 12 1002 71 10000 2 310 22:59 05.07.2020
283 Clouds 11 1002 76 10000 3 300 22:40 05.07.2020
284 Clouds 11 1002 76 10000 3 300 22:20 05.07.2020
285 Clouds 11 1002 76 10000 3 300 22:20 05.07.2020
286 Clouds 10 1002 81 10000 4 300 21:57 05.07.2020
287 Clouds 11 1002 76 10000 4 300 21:39 05.07.2020
288 Clouds 11 1002 76 10000 4 300 21:18 05.07.2020
289 Clouds 11 1002 81 10000 3 300 20:58 05.07.2020
290 Clouds 11 1002 81 10000 3 300 20:39 05.07.2020
291 Clouds 11 1002 81 10000 3 300 20:20 05.07.2020
292 Clouds 11 1001 81 10000 4 300 19:43 05.07.2020
293 Clouds 11 1001 81 10000 4 300 19:21 05.07.2020
294 Clouds 11 1001 81 10000 3 300 18:58 05.07.2020
295 Clouds 11 1001 81 10000 3 300 18:58 05.07.2020
296 Clouds 12 1001 76 10000 3 290 18:39 05.07.2020
297 Clouds 12 1001 76 10000 3 290 18:20 05.07.2020
298 Clouds 12 1001 76 10000 3 290 17:54 05.07.2020
299 Clouds 12 1001 76 10000 2 280 17:36 05.07.2020
300 Clouds 12 1001 76 10000 2 280 17:18 05.07.2020
301 Clouds 12 1001 76 10000 3 290 16:41 05.07.2020
302 Clouds 12 1001 76 10000 3 290 16:23 05.07.2020
303 Clouds 13 1001 71 10000 2 280 15:41 05.07.2020
304 Clouds 13 1001 71 10000 2 280 15:41 05.07.2020
305 Clouds 13 1001 71 10000 2 280 15:20 05.07.2020
306 Clouds 14 1001 67 10000 2 270 14:59 05.07.2020
307 Clouds 14 1001 67 10000 2 270 14:40 05.07.2020
308 Clouds 14 1001 67 10000 2 270 14:20 05.07.2020
309 Clouds 15 1000 62 10000 2 270 13:41 05.07.2020
310 Clouds 15 1000 62 10000 2 270 13:23 05.07.2020
311 Clouds 14 1000 67 10000 2 280 12:47 05.07.2020
312 Clouds 15 1000 62 10000 3 290 12:26 05.07.2020
313 Clouds 15 1000 62 10000 2 290 11:58 05.07.2020
314 Clouds 15 1000 62 10000 2 290 11:40 05.07.2020
315 Clouds 15 1000 62 10000 2 290 11:21 05.07.2020
316 Clouds 15 999 62 10000 3 300 10:58 05.07.2020
317 Clouds 15 999 62 10000 3 300 10:39 05.07.2020
318 Clouds 15 999 62 10000 3 300 10:19 05.07.2020
319 Clouds 15 999 67 10000 2 290 09:56 05.07.2020
320 Clouds 15 999 67 10000 1 300 09:37 05.07.2020
321 Clouds 15 999 67 10000 1 300 09:19 05.07.2020
322 Rain 15 999 62 10000 3 340 08:46 05.07.2020
323 Rain 15 999 62 10000 3 340 08:46 05.07.2020
324 Clouds 17 999 48 10000 3 40 08:27 05.07.2020
325 Clouds 17 999 48 10000 3 40 07:48 05.07.2020
326 Clouds 17 999 48 10000 3 40 07:29 05.07.2020
327 Clouds 18 998 45 10000 3 20 06:51 05.07.2020
328 Clouds 17 998 55 10000 2 80 05:41 05.07.2020
329 Clouds 16 998 59 10000 2 80 03:32 05.07.2020
330 Clouds 15 998 62 10000 2 80 02:43 05.07.2020
331 Clouds 15 998 58 10000 2 70 02:25 05.07.2020
332 Clouds 14 998 58 10000 3 30 01:33 05.07.2020
333 Clouds 13 998 66 10000 3 40 00:59 05.07.2020
334 Clouds 13 998 71 10000 2 10 00:40 05.07.2020
335 Clouds 13 998 71 10000 2 10 00:20 05.07.2020
336 Clouds 12 997 71 10000 2 360 23:47 04.07.2020
337 Clouds 13 997 66 10000 3 360 23:28 04.07.2020
338 Clouds 13 997 66 10000 3 350 22:57 04.07.2020
339 Clouds 13 997 66 10000 2 340 22:37 04.07.2020
340 Clouds 13 997 66 10000 2 340 22:19 04.07.2020
341 Clouds 13 997 62 10000 3 340 21:42 04.07.2020
342 Clouds 13 997 62 10000 3 340 21:23 04.07.2020
343 Clouds 13 997 66 10000 3 330 20:58 04.07.2020
344 Clouds 14 997 58 10000 3 340 20:40 04.07.2020
345 Clouds 14 997 58 10000 3 340 20:20 04.07.2020
346 Clouds 14 997 62 10000 3 330 19:45 04.07.2020
347 Smoke 14 997 62 5000 3 330 19:22 04.07.2020
348 Smoke 15 997 58 5000 3 320 18:57 04.07.2020
349 Smoke 15 997 58 5000 3 320 18:39 04.07.2020
350 Smoke 15 997 62 5000 3 320 18:21 04.07.2020
351 Smoke 15 997 58 5000 4 320 17:42 04.07.2020
352 Smoke 15 997 58 5000 4 320 17:24 04.07.2020
353 Smoke 16 997 59 5000 3 320 16:57 04.07.2020
354 Smoke 16 997 59 5000 3 330 16:38 04.07.2020
355 Smoke 16 997 59 5000 3 330 16:20 04.07.2020
356 Smoke 16 997 59 5000 3 330 15:46 04.07.2020
357 Smoke 16 997 59 5000 3 320 15:28 04.07.2020
358 Smoke 16 997 59 5000 3 320 14:59 04.07.2020
359 Smoke 17 997 55 5000 3 330 14:38 04.07.2020
360 Smoke 17 997 55 5000 3 330 14:19 04.07.2020
361 Smoke 17 997 55 5000 3 330 13:58 04.07.2020
362 Smoke 17 996 55 5000 3 340 13:40 04.07.2020
363 Smoke 17 996 55 5000 3 340 13:18 04.07.2020
364 Smoke 18 996 52 5000 3 20 12:42 04.07.2020
365 Smoke 18 996 52 5000 3 20 12:21 04.07.2020
366 Smoke 19 996 48 5000 4 360 11:56 04.07.2020
367 Smoke 18 996 52 5000 5 360 11:38 04.07.2020
368 Smoke 18 996 52 5000 5 360 11:19 04.07.2020
369 Smoke 19 996 52 5000 4 10 10:42 04.07.2020
370 Smoke 19 996 52 5000 4 10 10:22 04.07.2020
371 Smoke 19 996 52 5000 5 30 09:59 04.07.2020
372 Clouds 18 996 55 10000 4 20 09:38 04.07.2020
373 Clouds 18 996 55 10000 4 20 09:20 04.07.2020
374 Clouds 18 996 63 10000 1 70 08:48 04.07.2020
375 Clouds 18 996 63 10000 2 60 08:30 04.07.2020
376 Clouds 18 996 63 10000 2 60 08:30 04.07.2020
377 Clouds 18 996 68 10000 2 50 07:50 04.07.2020
378 Clouds 18 995 63 10000 2 340 07:31 04.07.2020
379 Rain 16 996 77 5000 1 210 06:56 04.07.2020
380 Rain 18 995 63 10000 3 100 06:23 04.07.2020
381 Clouds 18 996 59 10000 2 290 05:40 04.07.2020
382 Clouds 18 996 59 10000 3 310 04:55 04.07.2020
383 Clouds 16 996 67 10000 4 300 03:34 04.07.2020
384 Smoke 16 996 67 5000 4 300 02:35 04.07.2020
385 Smoke 15 996 72 5000 4 290 01:37 04.07.2020
386 Smoke 14 996 76 5000 4 290 00:47 04.07.2020
387 Smoke 14 996 76 5000 4 290 00:29 04.07.2020
388 Smoke 14 996 76 5000 4 300 23:41 03.07.2020
389 Smoke 14 996 76 5000 4 300 23:19 03.07.2020
390 Smoke 13 996 82 5000 4 300 22:59 03.07.2020
391 Smoke 13 996 82 5000 4 310 22:39 03.07.2020
392 Smoke 13 996 82 5000 4 310 22:39 03.07.2020
393 Smoke 13 996 82 5000 4 310 22:21 03.07.2020
394 Smoke 14 996 76 5000 4 300 21:56 03.07.2020
395 Smoke 14 996 71 5000 5 300 21:37 03.07.2020
396 Smoke 14 996 71 5000 5 300 21:18 03.07.2020
397 Smoke 14 996 76 5000 5 300 20:42 03.07.2020
398 Smoke 14 996 76 5000 5 300 20:24 03.07.2020
399 Clouds 14 996 76 10000 5 300 19:42 03.07.2020
400 Clouds 14 996 76 10000 5 300 19:21 03.07.2020
401 Clouds 14 996 76 10000 5 300 18:58 03.07.2020
402 Clouds 14 996 76 10000 4 290 18:40 03.07.2020
403 Clouds 15 996 72 10000 4 300 18:22 03.07.2020
404 Clouds 15 996 72 10000 5 300 17:45 03.07.2020
405 Clouds 15 996 72 10000 5 300 17:23 03.07.2020
406 Clouds 15 997 72 10000 5 300 16:58 03.07.2020
407 Clouds 15 997 67 10000 5 300 16:39 03.07.2020
408 Clouds 15 997 67 10000 5 300 16:19 03.07.2020
409 Clouds 16 997 63 10000 7 300 15:39 03.07.2020
410 Clouds 16 997 63 10000 7 300 15:20 03.07.2020
411 Clouds 17 997 59 10000 6 300 14:55 03.07.2020
412 Clouds 17 996 59 10000 6 300 14:36 03.07.2020
413 Clouds 17 996 59 10000 6 300 14:36 03.07.2020
414 Clouds 17 996 59 10000 6 300 14:18 03.07.2020
415 Clouds 19 996 52 10000 6 310 13:41 03.07.2020
416 Clouds 19 996 52 10000 6 310 13:22 03.07.2020
417 Clouds 19 996 55 10000 5 310 12:43 03.07.2020
418 Clouds 19 996 55 10000 5 310 12:22 03.07.2020
419 Rain 17 996 67 10000 5 350 11:54 03.07.2020
420 Clouds 20 996 52 10000 6 330 11:36 03.07.2020
421 Clouds 20 996 52 10000 6 330 11:18 03.07.2020
422 Clouds 19 996 52 10000 8 300 10:42 03.07.2020
423 Clouds 19 996 52 10000 8 300 10:21 03.07.2020
424 Clouds 21 996 46 10000 7 320 09:59 03.07.2020
425 Clouds 20 996 56 10000 5 330 09:39 03.07.2020
426 Clouds 20 996 56 10000 5 330 09:20 03.07.2020
427 Clouds 21 995 46 10000 5 310 08:56 03.07.2020
428 Clouds 21 995 43 10000 8 310 08:37 03.07.2020
429 Clouds 21 995 43 10000 8 310 08:18 03.07.2020
430 Clouds 20 996 52 10000 7 300 07:43 03.07.2020
431 Clouds 20 996 52 10000 7 300 07:21 03.07.2020
432 Clouds 19 996 59 10000 6 280 06:37 03.07.2020
433 Clouds 19 996 55 10000 9 300 05:53 03.07.2020
434 Clouds 21 996 46 10000 8 300 03:59 03.07.2020
435 Clouds 20 996 45 10000 9 300 02:56 03.07.2020
436 Clouds 20 996 49 10000 6 290 02:31 03.07.2020
437 Clouds 20 997 45 10000 7 310 01:41 03.07.2020
438 Clouds 20 997 45 10000 7 310 01:20 03.07.2020
439 Clouds 19 997 52 10000 7 280 00:41 03.07.2020
440 Clouds 19 997 48 10000 5 290 23:58 02.07.2020
441 Clouds 18 997 52 10000 4 280 23:39 02.07.2020
442 Clouds 18 997 52 10000 4 280 23:19 02.07.2020
443 Clouds 17 998 55 10000 4 280 22:55 02.07.2020
444 Clouds 17 997 55 10000 5 290 22:37 02.07.2020
445 Clouds 17 997 55 10000 5 290 22:19 02.07.2020
446 Smoke 17 997 51 5000 5 290 21:42 02.07.2020
447 Smoke 17 997 51 5000 5 290 21:20 02.07.2020
448 Smoke 17 998 51 5000 6 280 20:59 02.07.2020
449 Smoke 18 998 48 3200 6 280 20:41 02.07.2020
450 Smoke 18 998 48 3200 6 280 20:20 02.07.2020
451 Smoke 19 998 45 3200 6 290 19:45 02.07.2020
452 Smoke 19 998 45 3200 6 290 19:26 02.07.2020
453 Smoke 19 998 45 5000 6 290 18:59 02.07.2020
454 Smoke 20 998 42 5000 7 280 18:41 02.07.2020
455 Smoke 20 998 42 5000 7 280 18:22 02.07.2020
456 Smoke 20 998 42 5000 7 290 17:58 02.07.2020
457 Smoke 21 998 43 5000 5 290 17:39 02.07.2020
458 Smoke 21 998 43 5000 5 290 17:19 02.07.2020
459 Smoke 21 998 43 5000 6 280 16:54 02.07.2020
460 Clouds 22 999 43 10000 5 280 16:36 02.07.2020
461 Clouds 22 999 43 10000 5 280 16:18 02.07.2020
462 Clouds 22 999 43 10000 5 290 15:39 02.07.2020
463 Clouds 22 999 43 10000 5 290 15:21 02.07.2020
464 Clouds 23 999 40 10000 4 300 14:46 02.07.2020
465 Clouds 22 999 60 10000 2 270 14:28 02.07.2020
466 Smoke 22 999 68 5000 1 270 13:58 02.07.2020
467 Smoke 23 999 64 5000 1 310 13:40 02.07.2020
468 Smoke 23 999 64 5000 1 310 13:20 02.07.2020
469 Smoke 23 999 64 5000 2 50 12:58 02.07.2020
470 Smoke 23 999 69 5000 2 60 12:39 02.07.2020
471 Smoke 23 999 69 5000 2 60 12:21 02.07.2020
472 Smoke 23 999 69 5000 3 50 11:44 02.07.2020
473 Smoke 23 999 69 5000 2 60 11:25 02.07.2020
474 Smoke 23 999 69 5000 3 40 10:48 02.07.2020
475 Smoke 24 1000 64 5000 3 40 10:28 02.07.2020
476 Smoke 24 1000 64 5000 3 40 10:28 02.07.2020
477 Smoke 24 1000 64 5000 3 40 10:28 02.07.2020
478 Smoke 24 1000 64 5000 5 50 09:59 02.07.2020
479 Smoke 25 999 61 5000 2 70 09:40 02.07.2020
480 Smoke 25 999 61 5000 2 70 09:20 02.07.2020
481 Smoke 24 999 64 5000 1 90 08:55 02.07.2020
482 Smoke 23 1000 69 5000 2 110 08:37 02.07.2020
483 Smoke 23 1000 69 5000 2 110 08:18 02.07.2020
484 Thunderstorm 24 1000 64 10000 3 150 07:40 02.07.2020
485 Thunderstorm 24 1000 64 10000 3 150 07:19 02.07.2020
486 Thunderstorm 21 1001 73 10000 4 140 06:40 02.07.2020
487 Thunderstorm 21 1001 73 10000 4 140 06:20 02.07.2020
488 Clouds 22 1001 68 10000 5 140 05:44 02.07.2020
489 Clouds 21 1002 68 10000 3 170 03:57 02.07.2020
490 Clouds 20 1003 72 10000 4 150 03:31 02.07.2020
491 Clouds 19 1005 77 10000 2 70 01:23 02.07.2020
492 Clouds 19 1004 72 10000 2 190 00:25 02.07.2020
493 Clouds 19 1004 72 10000 2 170 23:51 01.07.2020
494 Clouds 19 1005 68 10000 1 170 23:30 01.07.2020
495 Clouds 18 1005 72 10000 3 200 22:57 01.07.2020
496 Clouds 18 1006 72 10000 5 210 22:38 01.07.2020
497 Clouds 18 1006 72 10000 5 210 22:19 01.07.2020
498 Clouds 18 1006 72 10000 5 210 21:58 01.07.2020
499 Clouds 17 1006 77 10000 4 210 21:40 01.07.2020
500 Clouds 17 1006 77 10000 4 210 21:22 01.07.2020
501 Clouds 18 1006 72 10000 4 210 20:57 01.07.2020
502 Clouds 18 1006 72 10000 6 210 20:39 01.07.2020
503 Clouds 18 1006 72 10000 6 210 20:20 01.07.2020
504 Clouds 18 1007 77 10000 6 220 19:54 01.07.2020
505 Clouds 19 1007 68 10000 5 200 19:36 01.07.2020
506 Clouds 19 1007 68 10000 5 200 19:18 01.07.2020
507 Thunderstorm 18 1007 82 10000 4 160 18:42 01.07.2020
508 Thunderstorm 18 1007 82 10000 4 160 18:21 01.07.2020
509 Thunderstorm 18 1007 82 10000 4 160 18:21 01.07.2020
510 Thunderstorm 18 1008 77 10000 4 160 17:58 01.07.2020
511 Thunderstorm 19 1009 72 10000 3 150 17:38 01.07.2020
512 Thunderstorm 19 1009 72 10000 3 150 17:19 01.07.2020
513 Thunderstorm 19 1009 72 10000 3 150 17:19 01.07.2020
514 Thunderstorm 19 1010 77 10000 2 100 16:46 01.07.2020
515 Thunderstorm 18 1008 82 10000 3 190 16:27 01.07.2020
516 Thunderstorm 19 1008 77 10000 3 180 15:55 01.07.2020
517 Thunderstorm 19 1008 77 10000 3 170 15:37 01.07.2020
518 Thunderstorm 19 1008 77 10000 3 170 15:19 01.07.2020
519 Thunderstorm 18 1008 82 10000 3 120 14:44 01.07.2020
520 Thunderstorm 24 1008 44 10000 6 100 14:21 01.07.2020
521 Thunderstorm 25 1007 50 10000 3 100 13:57 01.07.2020
522 Clouds 27 1007 34 10000 2 180 13:38 01.07.2020
523 Clouds 27 1007 34 10000 2 180 13:20 01.07.2020
524 Clouds 28 1007 32 10000 3 180 12:57 01.07.2020
525 Clouds 27 1007 36 10000 2 180 12:38 01.07.2020
526 Clouds 27 1007 36 10000 2 180 12:20 01.07.2020
527 Clouds 29 1008 28 10000 2 120 11:40 01.07.2020
528 Clouds 29 1008 28 10000 2 120 11:22 01.07.2020
529 Smoke 29 1008 30 5000 2 110 10:58 01.07.2020
530 Smoke 29 1008 28 5000 2 70 10:39 01.07.2020
531 Smoke 29 1008 28 5000 2 70 10:21 01.07.2020
532 Smoke 29 1009 28 5000 4 40 09:40 01.07.2020
533 Smoke 29 1009 28 5000 4 40 09:20 01.07.2020
534 Smoke 30 1009 27 5000 3 40 08:59 01.07.2020
535 Smoke 30 1009 25 5000 4 30 08:40 01.07.2020
536 Smoke 30 1009 25 5000 4 30 08:20 01.07.2020
537 Smoke 30 1010 27 5000 3 350 07:44 01.07.2020
538 Smoke 30 1010 27 5000 3 350 07:25 01.07.2020
539 Smoke 29 1010 26 5000 3 10 06:59 01.07.2020
540 Smoke 28 1010 30 5000 2 50 06:40 01.07.2020
541 Smoke 28 1010 30 5000 2 50 06:20 01.07.2020
542 Smoke 26 1010 27 5000 3 130 04:30 01.07.2020
543 Smoke 26 1010 24 5000 3 140 03:44 01.07.2020
544 Smoke 25 1011 29 5000 2 140 03:22 01.07.2020
545 Smoke 23 1011 40 5000 2 130 02:33 01.07.2020
546 Smoke 23 1011 43 5000 1 80 01:25 01.07.2020
547 Clear 21 1011 43 10000 1 330 00:38 01.07.2020
548 Clear 21 1011 43 10000 1 330 00:20 01.07.2020
549 Clear 20 1011 42 10000 2 330 23:40 30.06.2020
550 Clear 20 1011 42 10000 2 330 23:40 30.06.2020
551 Clear 20 1011 42 10000 2 330 23:20 30.06.2020
552 Clear 18 1011 48 10000 3 350 22:42 30.06.2020
553 Clear 18 1011 48 10000 3 350 22:19 30.06.2020
554 Clear 17 1011 55 10000 3 340 21:55 30.06.2020
555 Clear 17 1011 51 10000 4 340 21:37 30.06.2020
556 Clear 17 1011 51 10000 4 340 21:18 30.06.2020
557 Clear 18 1010 48 10000 3 340 20:42 30.06.2020
558 Clear 18 1010 48 10000 3 340 20:21 30.06.2020
559 Clear 18 1010 48 10000 3 340 19:44 30.06.2020
560 Clear 18 1010 48 10000 3 340 19:21 30.06.2020
561 Clear 17 1010 55 10000 3 350 18:58 30.06.2020
562 Clear 19 1009 45 10000 2 350 18:40 30.06.2020
563 Clear 19 1009 45 10000 2 350 18:20 30.06.2020
564 Clear 19 1009 45 10000 3 310 17:40 30.06.2020
565 Clear 19 1009 45 10000 3 310 17:21 30.06.2020
566 Clear 20 1009 42 10000 3 320 16:58 30.06.2020
567 Clear 20 1009 42 10000 3 320 16:58 30.06.2020
568 Clear 21 1009 40 10000 3 300 16:40 30.06.2020
569 Clear 21 1009 40 10000 3 300 16:21 30.06.2020
570 Clear 22 1009 37 10000 3 320 15:56 30.06.2020
571 Clear 23 1008 35 10000 3 330 15:38 30.06.2020
572 Clear 23 1008 35 10000 3 330 15:19 30.06.2020
573 Clear 24 1008 33 10000 3 350 14:43 30.06.2020
574 Clear 25 1008 29 10000 2 330 14:21 30.06.2020
575 Clear 26 1008 29 10000 3 360 13:57 30.06.2020
576 Clear 27 1008 32 10000 3 10 13:37 30.06.2020
577 Clear 27 1008 32 10000 3 10 13:37 30.06.2020
578 Clear 27 1008 32 10000 3 10 13:19 30.06.2020
579 Clear 28 1008 28 10000 4 30 12:55 30.06.2020
580 Clear 30 1008 19 10000 6 360 12:37 30.06.2020
581 Clear 30 1008 19 10000 6 360 12:18 30.06.2020
582 Clear 30 1008 19 10000 6 360 12:18 30.06.2020
583 Clear 30 1008 19 10000 5 350 11:56 30.06.2020
584 Clear 30 1008 20 10000 6 360 11:37 30.06.2020
585 Clear 30 1008 20 10000 6 360 11:18 30.06.2020
586 Clouds 21 1006 60 10000 2 300 16:47 28.06.2020
587 Clouds 22 1006 56 10000 2 300 16:28 28.06.2020
588 Clouds 22 1006 60 10000 1 310 15:59 28.06.2020
589 Clouds 22 1006 60 10000 1 310 15:59 28.06.2020
590 Clouds 22 1006 60 10000 1 20 15:40 28.06.2020
591 Clouds 22 1006 60 10000 1 20 15:20 28.06.2020
592 Clouds 25 1005 44 10000 1 60 14:58 28.06.2020
593 Clouds 27 1005 36 10000 2 50 14:39 28.06.2020
594 Clouds 27 1005 36 10000 2 50 14:21 28.06.2020
595 Clouds 28 1005 32 10000 1 20 13:40 28.06.2020
596 Clouds 28 1005 32 10000 1 20 13:21 28.06.2020
597 Clouds 30 1005 23 10000 1 90 12:58 28.06.2020
598 Clouds 30 1005 25 10000 1 90 12:38 28.06.2020
599 Clouds 30 1005 25 10000 1 90 12:19 28.06.2020
600 Clouds 30 1004 23 10000 1 80 11:58 28.06.2020
601 Clouds 31 1004 20 10000 2 70 11:40 28.06.2020
602 Clouds 31 1004 20 10000 2 70 11:20 28.06.2020
603 Clouds 31 1004 20 10000 2 70 10:58 28.06.2020
604 Clouds 31 1004 20 10000 2 70 10:39 28.06.2020
605 Clouds 31 1004 20 10000 2 70 10:21 28.06.2020
606 Clouds 32 1005 21 10000 2 110 09:41 28.06.2020
607 Clouds 32 1005 21 10000 2 110 09:22 28.06.2020
608 Clouds 33 1005 18 10000 2 100 08:53 28.06.2020
609 Clouds 32 1005 21 10000 3 100 08:34 28.06.2020
610 Clouds 30 1005 23 10000 3 100 07:55 28.06.2020
611 Clouds 32 1005 21 10000 3 100 07:31 28.06.2020
612 Clouds 31 1005 19 10000 3 130 06:55 28.06.2020
613 Clouds 31 1005 20 10000 2 100 06:32 28.06.2020
614 Clouds 31 1006 19 10000 1 120 05:30 28.06.2020
615 Clouds 28 1006 32 10000 1 110 03:52 28.06.2020
616 Clouds 24 1006 41 10000 2 80 02:51 28.06.2020
617 Clouds 25 1006 38 10000 1 240 02:19 28.06.2020
618 Clouds 23 1006 53 10000 1 340 01:27 28.06.2020
619 Clouds 21 1006 64 10000 1 180 00:51 28.06.2020
620 Clouds 20 1006 60 10000 1 331 00:27 28.06.2020
621 Clouds 19 1006 55 10000 1 331 23:43 27.06.2020
622 Clouds 19 1006 55 10000 1 270 23:24 27.06.2020
623 Clouds 19 1006 59 10000 0.6 274 22:59 27.06.2020
624 Clouds 18 1005 59 10000 1 240 22:41 27.06.2020
625 Clouds 18 1005 59 10000 1 240 22:23 27.06.2020
626 Clouds 17 1005 63 10000 3 290 21:57 27.06.2020
627 Clouds 16 1005 67 10000 2 290 21:38 27.06.2020
628 Clouds 16 1005 67 10000 2 290 21:20 27.06.2020
629 Clouds 16 1005 67 10000 2 290 21:20 27.06.2020
630 Clouds 16 1005 67 10000 2 300 20:45 27.06.2020
631 Clouds 16 1005 67 10000 0.99 230 20:19 27.06.2020
632 Clouds 16 1005 67 10000 0.99 230 20:19 27.06.2020
633 Clouds 16 1005 67 10000 2 290 19:56 27.06.2020
634 Clouds 17 1005 67 10000 1 290 19:37 27.06.2020
635 Clouds 17 1005 67 10000 1 290 19:18 27.06.2020
636 Clouds 17 1004 67 10000 2 270 18:47 27.06.2020
637 Clouds 17 1004 67 10000 2 270 18:28 27.06.2020
638 Clouds 16 1005 72 10000 1.12 317 17:59 27.06.2020
639 Clouds 16 1005 72 10000 1.12 317 17:59 27.06.2020
640 Clouds 18 1004 63 10000 2 340 17:39 27.06.2020
641 Clouds 18 1004 63 10000 2 340 17:19 27.06.2020
642 Clouds 18 1004 63 10000 3 300 16:48 27.06.2020
643 Clouds 19 1004 59 10000 2 290 16:30 27.06.2020
644 Clouds 20 1006 46 0 2.73 284 15:59 27.06.2020
645 Clouds 20 1006 46 0 2.73 284 15:41 27.06.2020
646 Clouds 21 1005 41 0 2.46 263 15:21 27.06.2020
647 Clouds 21 1005 41 0 2.46 263 14:43 27.06.2020
648 Clouds 25 1004 36 10000 2 10 14:25 27.06.2020
649 Clouds 25 1004 36 10000 2 10 13:59 27.06.2020
650 Clouds 25 1004 36 10000 2 10 13:38 27.06.2020
651 Clouds 25 1004 36 10000 2 10 13:38 27.06.2020
652 Clouds 27 1003 30 10000 3 30 13:19 27.06.2020
653 Clouds 27 1003 30 10000 3 30 12:57 27.06.2020
654 Clouds 28 1003 28 10000 3 30 12:39 27.06.2020
655 Clouds 28 1003 28 10000 3 30 12:21 27.06.2020
656 Clouds 28 1003 26 10000 4 30 11:54 27.06.2020
657 Clouds 28 1003 30 10000 2 50 11:36 27.06.2020
658 Clouds 28 1003 30 10000 2 50 11:18 27.06.2020
659 Clouds 29 1003 28 10000 2 60 10:38 27.06.2020
660 Clouds 29 1003 28 10000 2 60 10:19 27.06.2020
661 Clouds 30 1003 22 10000 3 70 09:41 27.06.2020
662 Clouds 30 1003 22 10000 3 70 09:22 27.06.2020
663 Clouds 30 1003 23 10000 2 70 08:57 27.06.2020
664 Clouds 30 1003 22 10000 2 80 08:39 27.06.2020
665 Clouds 30 1003 22 10000 2 80 08:20 27.06.2020
666 Clouds 31 1004 19 10000 3 110 07:41 27.06.2020
667 Clouds 31 1004 19 10000 3 110 07:23 27.06.2020
668 Clouds 31 1004 19 10000 2 100 06:38 27.06.2020
669 Clouds 30 1004 23 10000 2 90 06:19 27.06.2020
670 Clouds 29 1005 23 10000 2 90 04:22 27.06.2020
671 Clouds 28 1005 32 10000 2 100 03:51 27.06.2020
672 Clouds 27 1005 30 10000 1 90 02:49 27.06.2020
673 Clouds 26 1005 31 10000 1 90 02:30 27.06.2020
674 Clouds 24 1005 47 10000 1 80 01:42 27.06.2020
675 Clouds 22 1005 46 10000 1 300 00:56 27.06.2020
676 Clouds 20 1005 49 10000 2 290 00:28 27.06.2020
677 Clouds 19 1005 52 10000 1 260 23:44 26.06.2020
678 Clouds 17 1005 63 10000 1 260 23:25 26.06.2020
679 Clouds 16 1005 63 10000 1 270 22:56 26.06.2020
680 Clouds 14 1005 67 10000 1 290 22:38 26.06.2020
681 Clouds 14 1005 67 10000 1 290 22:19 26.06.2020
682 Clouds 14 1005 62 10000 2 250 21:57 26.06.2020
683 Clouds 14 1005 67 10000 2 280 21:37 26.06.2020
684 Clear 14 1005 67 10000 2 280 21:19 26.06.2020
685 Clear 14 1005 67 10000 2 280 21:19 26.06.2020
686 Clear 13 1005 66 10000 4 290 20:43 26.06.2020
687 Clear 14 1004 67 10000 2 300 20:20 26.06.2020
688 Clear 15 1004 67 10000 3 280 19:44 26.06.2020
689 Clear 15 1004 67 10000 3 280 19:23 26.06.2020
690 Clear 15 1004 72 10000 2 310 18:57 26.06.2020
691 Clear 16 1004 67 10000 2 340 18:37 26.06.2020
692 Clear 16 1004 67 10000 2 340 18:18 26.06.2020
693 Clear 17 1004 63 10000 2 280 17:43 26.06.2020
694 Clear 17 1004 67 10000 3 290 17:24 26.06.2020
695 Clear 18 1004 63 10000 2 290 16:49 26.06.2020
696 Clear 19 1004 59 10000 1 310 16:26 26.06.2020
697 Clear 20 1004 56 10000 2 290 15:55 26.06.2020
698 Clear 19 1004 63 10000 1.62 291 15:37 26.06.2020
699 Clear 19 1004 63 10000 1.51 267 15:18 26.06.2020
700 Clear 22 1004 46 10000 1.51 267 14:56 26.06.2020
701 Clear 24 1004 44 10000 1 200 14:37 26.06.2020
702 Clouds 24 1004 44 10000 1 200 14:19 26.06.2020
703 Clear 27 1004 24 10000 1 90 13:43 26.06.2020
704 Clear 27 1004 24 10000 1 90 13:19 26.06.2020
705 Clear 28 1003 23 10000 1 80 12:42 26.06.2020
706 Clear 28 1003 23 10000 1 80 12:24 26.06.2020
707 Clear 28 1003 26 10000 1 70 11:59 26.06.2020
708 Clear 29 1003 18 10000 2 80 11:41 26.06.2020
709 Clear 29 1003 18 10000 2 80 11:22 26.06.2020
710 Clear 30 1003 16 10000 1 100 10:58 26.06.2020
711 Clear 30 1003 16 10000 1 100 10:58 26.06.2020
712 Clear 31 1003 15 10000 1 220 10:40 26.06.2020
713 Clear 31 1003 15 10000 1 220 10:19 26.06.2020
714 Clear 30 1003 17 10000 1 110 09:54 26.06.2020
715 Clear 30 1003 19 10000 2 90 09:36 26.06.2020
716 Clear 30 1003 19 10000 2 90 09:18 26.06.2020
717 Clear 30 1004 16 10000 2 220 08:43 26.06.2020
718 Clear 30 1004 16 10000 2 220 08:25 26.06.2020
719 Clear 30 1005 17 10000 2 120 07:45 26.06.2020
720 Clear 30 1005 17 10000 2 120 07:23 26.06.2020
721 Clear 29 1005 18 10000 1 80 06:48 26.06.2020
722 -273 0 0 0 0 0 06:29 26.06.2020
723 Clear 29 1005 20 10000 2 130 05:51 26.06.2020
724 Clear 29 1006 21 10000 2 130 04:44 26.06.2020
725 Clear 22 1006 49 10000 2 120 02:27 26.06.2020
726 Clear 21 1006 52 10000 2 90 01:26 26.06.2020
727 Clear 20 1006 56 10000 1 0 00:42 26.06.2020
728 Clear 20 1006 56 10000 1 0 00:22 26.06.2020
729 Clear 18 1006 59 10000 1.21 137 23:46 25.06.2020
730 Clear 17 1006 59 10000 0.89 155 23:22 25.06.2020
731 Clear 16 1006 63 10000 1 290 22:57 25.06.2020
732 Clear 13 1006 71 10000 2 300 22:38 25.06.2020
733 Clouds 13 1006 71 10000 2 300 22:20 25.06.2020
734 Clouds 13 1006 76 10000 2 290 21:57 25.06.2020
735 Clouds 12 1006 81 10000 2 310 21:39 25.06.2020
736 Clear 12 1006 81 10000 2 310 21:20 25.06.2020
737 Clear 12 1006 81 10000 2 310 20:56 25.06.2020
738 Clear 12 1005 81 10000 2 320 20:37 25.06.2020
739 Clear 12 1005 81 10000 2 320 20:19 25.06.2020
740 Clear 12 1005 81 10000 3 300 19:41 25.06.2020
741 Clouds 14 1005 76 10000 2 310 19:20 25.06.2020
742 Clouds 14 1005 76 10000 2 310 18:59 25.06.2020
743 Clouds 14 1005 76 10000 3 300 18:39 25.06.2020
744 Clouds 14 1005 76 10000 3 300 18:20 25.06.2020
745 Clouds 15 1006 72 10000 2 300 17:44 25.06.2020
746 Clouds 15 1006 72 10000 2 300 17:44 25.06.2020
747 Clouds 16 1005 72 10000 1 320 17:20 25.06.2020
748 Clouds 17 1005 67 10000 2 300 16:58 25.06.2020
749 Clouds 17 1005 67 10000 2 300 16:37 25.06.2020
750 Clouds 17 1005 67 10000 2 300 16:19 25.06.2020
751 Clouds 19 1005 59 10000 1 10 15:42 25.06.2020
752 Clouds 19 1005 59 10000 1 70 15:22 25.06.2020
753 Clouds 21 1005 43 10000 1 50 14:46 25.06.2020
754 Clouds 23 1005 38 10000 1 70 14:25 25.06.2020
755 Clouds 25 1005 31 10000 1 70 13:59 25.06.2020
756 Clouds 26 1005 27 10000 1 70 13:41 25.06.2020
757 Clouds 26 1005 27 10000 1 70 13:20 25.06.2020
758 Clouds 26 1005 29 10000 1 70 12:57 25.06.2020
759 Clouds 27 1005 26 10000 2 80 12:39 25.06.2020
760 Clouds 28 1005 23 10000 2 100 12:19 25.06.2020
761 Clouds 28 1005 24 10000 2 100 11:42 25.06.2020
762 Clouds 28 1005 24 10000 2 100 11:21 25.06.2020
763 Clouds 28 1005 23 10000 1 140 10:44 25.06.2020
764 Clouds 28 1005 23 10000 2 140 10:26 25.06.2020
765 Clouds 28 1005 24 10000 2 170 09:58 25.06.2020
766 Clouds 28 1005 26 10000 3 150 09:40 25.06.2020
767 Clouds 28 1005 26 10000 3 150 09:18 25.06.2020
768 Clouds 28 1006 24 10000 2 150 08:43 25.06.2020
769 Clouds 28 1006 24 10000 2 150 08:19 25.06.2020
770 Clouds 27 1007 28 10000 3 160 07:44 25.06.2020
771 Clouds 27 1007 28 10000 3 160 07:26 25.06.2020
772 Clouds 27 1007 26 10000 3 160 06:45 25.06.2020
773 Clouds 27 1007 26 10000 3 160 06:25 25.06.2020
774 Clouds 26 1008 31 10000 3 140 05:40 25.06.2020
775 Clear 24 1009 38 10000 1 70 03:55 25.06.2020
776 Clear 24 1009 38 10000 2 100 03:25 25.06.2020
777 Clear 22 1009 46 10000 2 70 02:41 25.06.2020
778 Clear 20 1010 52 10000 1 70 01:46 25.06.2020
779 Clear 19 1010 55 10000 1 70 01:19 25.06.2020
780 Clear 19 1010 55 10000 1 70 01:19 25.06.2020
781 Clear 17 1010 63 10000 2 70 00:40 25.06.2020
782 Clear 18 1010 63 10000 1 70 00:18 25.06.2020
783 Clear 16 1010 67 10000 1 20 23:42 24.06.2020
784 Clear 16 1010 67 10000 1 20 23:42 24.06.2020
785 Clear 16 1010 67 10000 1 20 23:23 24.06.2020
786 Clear 15 1010 77 10000 2 40 22:57 24.06.2020
787 Clear 14 1010 76 10000 1 350 22:38 24.06.2020
788 Clear 14 1010 76 10000 1 350 22:19 24.06.2020
789 Clear 13 1010 76 10000 1 330 21:55 24.06.2020
790 Clear 11 1010 87 10000 1 310 21:36 24.06.2020
791 Clear 11 1010 87 10000 1 310 21:18 24.06.2020
792 Clear 11 1010 81 10000 1 300 20:56 24.06.2020
793 Clear 11 1010 81 10000 2 330 20:38 24.06.2020
794 Clear 11 1010 81 10000 2 330 20:19 24.06.2020
795 Clear 11 1010 81 10000 1 330 19:55 24.06.2020
796 Clear 11 1010 87 10000 2 310 19:36 24.06.2020
797 Clear 11 1010 87 10000 2 310 19:18 24.06.2020
798 Clear 12 1010 81 10000 2 320 18:56 24.06.2020
799 Clear 13 1010 76 10000 2 310 18:37 24.06.2020
800 Clear 13 1010 82 10000 2 310 18:19 24.06.2020
801 Clear 14 1010 82 10000 1 210 17:43 24.06.2020
802 Clear 14 1010 82 10000 1 210 17:19 24.06.2020
803 Clear 15 1010 82 10000 1 190 16:58 24.06.2020
804 Clear 13 1010 82 10000 1 150 16:39 24.06.2020
805 Clear 13 1010 82 10000 1 150 16:21 24.06.2020
806 Clear 15 1010 72 10000 1 150 15:57 24.06.2020
807 Clear 18 1010 59 10000 2 160 15:39 24.06.2020
808 Clear 18 1010 59 10000 2 160 15:20 24.06.2020
809 Clear 21 1010 46 10000 2 160 14:54 24.06.2020
810 Clear 22 1010 40 10000 2 120 14:36 24.06.2020
811 Clouds 22 1010 40 10000 2 120 14:18 24.06.2020
812 Clouds 24 1009 33 10000 4 120 13:41 24.06.2020
813 Clouds 24 1009 31 10000 4 120 13:19 24.06.2020
814 Clouds 24 1009 33 10000 4 130 12:41 24.06.2020
815 Clouds 24 1009 33 10000 4 130 12:20 24.06.2020
816 Clouds 25 1009 29 10000 4 120 11:56 24.06.2020
817 Clouds 26 1009 26 10000 4 110 11:38 24.06.2020
818 Clouds 26 1009 26 10000 4 110 11:19 24.06.2020
819 Clouds 27 1009 39 10000 3 320 10:43 24.06.2020
820 Clouds 27 1009 39 10000 3 320 10:19 24.06.2020
821 Clouds 26 1009 44 10000 2 290 09:44 24.06.2020
822 Clouds 26 1009 44 10000 2 290 09:23 24.06.2020
823 Thunderstorm 21 1009 64 10000 5 240 08:45 24.06.2020
824 Thunderstorm 21 1009 64 10000 5 240 08:26 24.06.2020
825 Thunderstorm 22 1009 60 10000 2 320 07:58 24.06.2020
826 Thunderstorm 26 1009 36 10000 6 20 07:40 24.06.2020
827 Thunderstorm 26 1010 36 10000 6 20 07:18 24.06.2020
828 Thunderstorm 28 1010 30 10000 7 20 06:40 24.06.2020
829 Clouds 27 1011 34 10000 6 20 06:21 24.06.2020
830 Clouds 26 1011 34 10000 5 30 05:32 24.06.2020
831 Clouds 25 1011 44 10000 2 70 04:37 24.06.2020
832 Rain 23 1012 49 10000 2 70 03:37 24.06.2020
833 Rain 24 1012 38 10000 2 330 02:52 24.06.2020
834 Clouds 20 1012 56 10000 2 110 01:46 24.06.2020
835 Clouds 18 1012 55 10000 2 300 00:50 24.06.2020
836 Clouds 18 1012 55 10000 2 300 00:31 24.06.2020
837 Clouds 17 1012 59 10000 1 300 23:47 23.06.2020
838 Clouds 14 1013 67 10000 2 280 23:21 23.06.2020
839 Clouds 13 1013 71 10000 2 300 22:57 23.06.2020
840 Clouds 12 1013 71 10000 2 300 22:39 23.06.2020
841 Clouds 12 1013 71 10000 2 300 22:18 23.06.2020
842 Clouds 12 1013 71 10000 3 300 21:42 23.06.2020
843 Clouds 12 1013 71 10000 3 300 21:20 23.06.2020
844 Clouds 11 1013 76 10000 2 300 20:56 23.06.2020
845 Clouds 12 1013 76 10000 1 310 20:38 23.06.2020
846 Clouds 12 1013 76 10000 3 300 20:19 23.06.2020
847 Clouds 13 1013 71 10000 2 300 19:57 23.06.2020
848 Clouds 13 1013 71 10000 2 300 19:38 23.06.2020
849 Clouds 13 1013 76 10000 3 300 19:20 23.06.2020
850 Clouds 14 1013 71 10000 3 300 18:38 23.06.2020
851 Clouds 15 1013 72 10000 2 310 18:18 23.06.2020
852 Clouds 16 1013 67 10000 3 310 17:42 23.06.2020
853 Clouds 16 1013 67 10000 3 310 17:23 23.06.2020
854 Clouds 16 1013 72 10000 2 310 16:57 23.06.2020
855 Clouds 17 1013 67 10000 2 300 16:38 23.06.2020
856 Clouds 17 1013 67 10000 2 300 16:20 23.06.2020
857 Clouds 19 1013 55 10000 1 10 15:57 23.06.2020
858 Clouds 19 1012 63 10000 1 100 15:38 23.06.2020
859 Clouds 20 1012 56 10000 1 70 15:18 23.06.2020
860 Clouds 22 1012 46 10000 1 40 14:42 23.06.2020
861 Clouds 23 1012 38 10000 1 50 14:19 23.06.2020
862 Clouds 23 1012 38 10000 1 50 13:56 23.06.2020
863 Clouds 26 1012 29 10000 1 140 13:38 23.06.2020
864 Clear 26 1012 26 10000 1 140 13:20 23.06.2020
865 Clear 27 1012 22 10000 2 150 12:42 23.06.2020
866 Clear 27 1012 22 10000 2 150 12:22 23.06.2020
867 Clear 27 1012 22 10000 1 120 11:58 23.06.2020
868 Clear 27 1012 24 10000 1 70 11:39 23.06.2020
869 Clear 27 1012 24 10000 1 70 11:19 23.06.2020
870 Clear 27 1012 22 10000 2 90 10:55 23.06.2020
871 Clear 27 1013 24 10000 1 80 10:37 23.06.2020
872 Clear 27 1013 24 10000 1 80 10:19 23.06.2020
873 Clear 27 1013 24 10000 1 80 09:41 23.06.2020
874 Clear 27 1013 24 10000 1 80 09:20 23.06.2020
875 Clear 26 1013 26 10000 2 60 08:57 23.06.2020
876 Clear 26 1013 24 10000 2 100 08:38 23.06.2020
877 Clear 26 1013 24 10000 2 100 08:19 23.06.2020
878 Clear 26 1014 26 10000 2 110 07:40 23.06.2020
879 Clear 25 1014 27 10000 2 130 07:21 23.06.2020
880 Clear 25 1014 27 10000 2 130 06:49 23.06.2020
881 Clear 25 1014 27 10000 2 130 06:30 23.06.2020
882 Clear 24 1015 29 10000 2 140 05:39 23.06.2020
883 Clear 22 1015 33 10000 1 170 03:39 23.06.2020
884 Clouds 22 1015 33 10000 1 150 02:56 23.06.2020
885 Clouds 21 1015 40 10000 2 110 02:36 23.06.2020
886 Clouds 19 1016 48 10000 2 130 01:51 23.06.2020
887 Clouds 19 1016 48 10000 2 130 01:32 23.06.2020
888 Clouds 18 1016 52 10000 1 110 00:56 23.06.2020
889 Clouds 18 1016 55 10000 1 110 00:24 23.06.2020
890 Clouds 17 1016 63 10000 1 110 23:56 22.06.2020
891 Clouds 16 1016 72 10000 1 110 23:38 22.06.2020
892 Clouds 16 1016 72 10000 1 110 23:19 22.06.2020
893 Clouds 16 1016 67 10000 1.39 155 22:56 22.06.2020
894 Clouds 13 1016 76 10000 1 280 22:37 22.06.2020
895 Clouds 13 1016 76 10000 1 280 22:19 22.06.2020
896 Clouds 11 1016 81 10000 1 260 21:57 22.06.2020
897 Clouds 10 1016 81 10000 1 280 21:38 22.06.2020
898 Clouds 10 1016 81 10000 1 280 21:20 22.06.2020
899 Clouds 11 1015 76 10000 1 300 20:41 22.06.2020
900 Clouds 11 1015 76 10000 1 300 20:22 22.06.2020
901 Clouds 12 1015 76 10000 1 320 19:45 22.06.2020
902 Clouds 12 1015 76 10000 1 320 19:21 22.06.2020
903 Clouds 14 1015 71 10000 0.73 49 18:59 22.06.2020
904 Clouds 14 1015 71 10000 0.73 49 18:40 22.06.2020
905 Clouds 14 1015 71 10000 0.65 66 18:21 22.06.2020
906 Clouds 14 1015 67 10000 2 180 17:57 22.06.2020
907 Clouds 17 1015 59 10000 2 150 17:38 22.06.2020
908 Rain 17 1015 59 10000 2 150 17:19 22.06.2020
909 Rain 18 1015 52 10000 2 160 16:55 22.06.2020
910 Rain 18 1014 48 10000 3 170 16:37 22.06.2020
911 Clouds 19 1014 45 10000 3 170 16:18 22.06.2020
912 Clouds 20 1014 42 10000 3 170 15:42 22.06.2020
913 Clouds 20 1014 42 10000 3 170 15:24 22.06.2020
914 Clouds 21 1014 40 10000 3 160 14:56 22.06.2020
915 Clouds 21 1014 40 10000 4 170 14:36 22.06.2020
916 Clouds 23 1014 35 10000 4 170 14:18 22.06.2020
917 Clouds 23 1013 33 10000 3 160 13:39 22.06.2020
918 Clouds 23 1013 33 10000 3 160 13:39 22.06.2020
919 Clouds 23 1013 33 10000 3 160 13:21 22.06.2020
920 Clouds 23 1013 38 10000 3 140 12:57 22.06.2020
921 Clouds 24 1013 36 10000 3 130 12:39 22.06.2020
922 Clouds 24 1013 36 10000 3 130 12:39 22.06.2020
923 Clouds 24 1013 36 10000 3 130 12:21 22.06.2020
924 Clouds 25 1013 29 10000 3 110 11:37 22.06.2020
925 Clouds 25 1013 29 10000 3 110 11:19 22.06.2020
926 Clouds 25 1013 27 10000 3 130 10:57 22.06.2020
927 Clouds 25 1013 27 10000 2 150 10:38 22.06.2020
928 Clouds 25 1013 27 10000 2 140 10:19 22.06.2020
929 Clouds 25 1013 27 10000 2 140 09:56 22.06.2020
930 Clouds 26 1013 27 10000 1 120 09:38 22.06.2020
931 Clouds 25 1013 31 10000 2 110 09:18 22.06.2020
932 Clouds 25 1013 31 10000 2 110 08:54 22.06.2020
933 Clouds 25 1013 29 10000 1 150 08:36 22.06.2020
934 Clouds 25 1014 29 10000 1 190 08:18 22.06.2020
935 Clouds 24 1014 31 10000 1 50 07:45 22.06.2020
936 Clouds 24 1014 31 10000 1 50 07:24 22.06.2020
937 Clouds 24 1014 31 10000 2 90 06:38 22.06.2020
938 Clouds 24 1014 31 10000 2 90 06:19 22.06.2020
939 Clouds 23 1015 31 10000 2 40 05:41 22.06.2020
940 Clouds 21 1016 35 10000 1 90 03:22 22.06.2020
941 Clouds 19 1016 45 10000 1 80 01:48 22.06.2020
942 Clouds 19 1016 45 10000 1 90 00:54 22.06.2020
943 Clear 18 1016 52 10000 1 90 00:29 22.06.2020
944 Clear 17 1016 51 10000 1 80 23:56 21.06.2020
945 Clear 17 1015 51 10000 1 110 23:37 21.06.2020
946 Clouds 17 1015 51 10000 1 110 23:19 21.06.2020
947 Clouds 16 1015 55 10000 2 140 22:55 21.06.2020
948 Clouds 15 1015 58 10000 2 140 22:36 21.06.2020
949 Clouds 15 1015 58 10000 2 130 22:18 21.06.2020
950 Clouds 15 1015 58 10000 2 130 21:55 21.06.2020
951 Clouds 14 1015 67 10000 3 110 21:37 21.06.2020
952 Clouds 14 1015 67 10000 2 110 21:18 21.06.2020
953 Clouds 14 1015 67 10000 2 110 20:54 21.06.2020
954 Clouds 14 1014 67 10000 2 130 20:36 21.06.2020
955 Clouds 15 1014 67 10000 2 120 20:18 21.06.2020
956 Clouds 16 1014 67 10000 2 130 19:41 21.06.2020
957 Clouds 16 1014 67 10000 2 130 19:20 21.06.2020
958 Clouds 17 1014 63 10000 2 160 18:56 21.06.2020
959 Clouds 18 1014 55 10000 3 160 18:38 21.06.2020
960 Clouds 18 1014 55 10000 3 160 18:19 21.06.2020
961 Clouds 19 1013 52 10000 3 140 17:41 21.06.2020
962 Clouds 19 1013 52 10000 3 140 17:22 21.06.2020
963 Clouds 19 1013 55 10000 3 100 16:57 21.06.2020
964 Clouds 18 1013 63 10000 2 70 16:39 21.06.2020
965 Clouds 18 1013 63 10000 2 70 16:21 21.06.2020
966 Clouds 20 1013 52 10000 2 90 15:41 21.06.2020
967 Clouds 20 1013 52 10000 2 90 15:23 21.06.2020
968 Clouds 21 1013 49 10000 3 100 14:59 21.06.2020
969 Clouds 21 1012 46 10000 2 100 14:37 21.06.2020
970 Clouds 21 1012 46 10000 2 100 14:19 21.06.2020
971 Clouds 22 1012 40 10000 3 110 13:55 21.06.2020
972 Clouds 22 1012 43 10000 2 70 13:36 21.06.2020
973 Clouds 23 1011 38 10000 2 80 13:18 21.06.2020
974 Clouds 23 1011 35 10000 2 120 12:43 21.06.2020
975 Clouds 23 1011 35 10000 2 120 12:24 21.06.2020
976 Clouds 23 1011 38 10000 3 150 11:43 21.06.2020
977 Clouds 23 1011 38 10000 3 150 11:43 21.06.2020
978 Clouds 23 1011 38 10000 3 150 11:25 21.06.2020
979 Clouds 23 1012 43 10000 3 150 10:59 21.06.2020
980 Clouds 23 1012 46 10000 3 160 10:41 21.06.2020
981 Clouds 23 1012 46 10000 3 160 10:22 21.06.2020
982 Clouds 22 1012 53 10000 3 150 09:58 21.06.2020
983 Clouds 23 1012 46 10000 2 110 09:36 21.06.2020
984 Clouds 22 1012 53 10000 2 100 09:18 21.06.2020
985 Clouds 22 1012 53 10000 2 100 08:55 21.06.2020
986 Clouds 22 1012 49 10000 2 140 08:36 21.06.2020
987 Clouds 20 1012 60 10000 2 130 08:18 21.06.2020
988 Clouds 20 1012 60 10000 2 120 07:41 21.06.2020
989 Clouds 20 1012 60 10000 2 120 07:21 21.06.2020
990 Clouds 22 1012 46 10000 4 130 06:48 21.06.2020
991 Clouds 22 1012 49 10000 4 130 05:59 21.06.2020
992 Clouds 21 1012 52 10000 4 140 05:25 21.06.2020
993 Clouds 21 1012 56 10000 3 110 03:21 21.06.2020
994 Clouds 21 1012 56 10000 3 110 02:54 21.06.2020
995 Clouds 21 1011 68 10000 2 30 01:54 21.06.2020
996 Clouds 20 1011 72 10000 3 30 01:21 21.06.2020
997 Clouds 20 1011 72 10000 3 30 00:56 21.06.2020
998 Clouds 20 1011 68 10000 3 10 00:38 21.06.2020
999 Clouds 19 1011 72 10000 3 10 00:18 21.06.2020
1000 Clouds 18 1011 77 10000 2 20 23:43 20.06.2020
1001 Clouds 18 1011 77 10000 2 20 23:21 20.06.2020
1002 Clouds 18 1011 82 10000 3 40 22:55 20.06.2020
1003 Clouds 18 1010 82 10000 1 90 22:37 20.06.2020
1004 Clouds 17 1010 88 10000 2 100 22:18 20.06.2020
1005 Clouds 17 1010 88 10000 2 100 22:18 20.06.2020
1006 Clouds 17 1010 88 10000 2 100 21:56 20.06.2020
1007 Clouds 17 1010 88 10000 2 320 21:37 20.06.2020
1008 Clouds 17 1010 88 10000 2 320 21:19 20.06.2020
1009 Clouds 17 1010 88 10000 3 320 20:55 20.06.2020
1010 Clouds 16 1011 93 10000 1 330 20:37 20.06.2020
1011 Clouds 16 1010 87 10000 1 40 20:19 20.06.2020
1012 Rain 18 1010 77 10000 3 40 19:43 20.06.2020
1013 Rain 18 1010 77 10000 3 40 19:22 20.06.2020
1014 Clouds 19 1010 63 10000 5 50 18:55 20.06.2020
1015 Clouds 18 1010 72 10000 3 60 18:37 20.06.2020
1016 Clouds 19 1009 68 10000 2 150 18:18 20.06.2020
1017 Clouds 19 1009 68 10000 2 150 17:55 20.06.2020
1018 Clouds 19 1009 68 10000 2 150 17:37 20.06.2020
1019 Rain 19 1009 72 10000 2 150 17:18 20.06.2020
1020 Rain 21 1009 52 10000 2 200 16:39 20.06.2020
1021 Clear 22 1009 49 10000 3 190 16:18 20.06.2020
1022 Clear 22 1009 49 10000 3 190 15:55 20.06.2020
1023 Clear 21 1009 60 10000 2 190 15:37 20.06.2020
1024 Clear 23 1009 56 10000 2 160 15:18 20.06.2020
1025 Clear 24 1009 50 10000 2 160 14:42 20.06.2020
1026 Clouds 24 1009 50 10000 2 160 14:19 20.06.2020
1027 Clouds 25 1008 44 10000 2 140 13:41 20.06.2020
1028 Clouds 25 1008 44 10000 2 140 13:20 20.06.2020
1029 Clouds 27 1008 34 10000 2 190 12:56 20.06.2020
1030 Clouds 28 1008 28 10000 2 120 12:38 20.06.2020
1031 Clouds 28 1008 28 10000 2 150 12:18 20.06.2020
1032 Clouds 29 1008 26 10000 1 150 11:39 20.06.2020
1033 Clouds 29 1008 26 10000 1 150 11:20 20.06.2020
1034 Clouds 29 1008 26 10000 2 190 10:57 20.06.2020
1035 Clouds 28 1008 30 10000 4 180 10:39 20.06.2020
1036 Clouds 28 1008 32 10000 3 150 10:18 20.06.2020
1037 Clouds 28 1008 30 10000 2 120 09:42 20.06.2020
1038 Clouds 28 1008 30 10000 2 120 09:24 20.06.2020
1039 Clouds 28 1009 30 10000 2 80 08:58 20.06.2020
1040 Clouds 28 1009 28 10000 1 100 08:39 20.06.2020
1041 Clouds 28 1009 28 10000 1 100 08:21 20.06.2020
1042 Clouds 28 1009 30 10000 1 100 07:50 20.06.2020
1043 Clouds 27 1010 30 10000 2 130 07:25 20.06.2020
1044 Clouds 28 1010 26 10000 2 90 06:44 20.06.2020
1045 Clouds 28 1010 26 10000 2 90 06:20 20.06.2020
1046 Clouds 27 1011 34 10000 2 120 05:47 20.06.2020
1047 Clouds 25 1012 36 10000 4 170 03:53 20.06.2020
1048 Clouds 23 1012 43 10000 1 130 01:54 20.06.2020
1049 Clouds 20 1012 56 10000 1 70 01:36 20.06.2020
1050 Clouds 20 1012 52 10000 1 70 00:45 20.06.2020
1051 Clouds 20 1012 52 10000 1 70 00:20 20.06.2020
1052 Clouds 19 1011 59 10000 2 50 23:41 19.06.2020
1053 Clouds 19 1011 59 10000 2 50 23:20 19.06.2020
1054 Clouds 18 1011 63 10000 1 10 22:56 19.06.2020
1055 Clouds 17 1011 63 10000 1 350 22:37 19.06.2020
1056 Clouds 17 1011 63 10000 1 350 22:19 19.06.2020
1057 Clouds 15 1011 72 10000 2 360 21:55 19.06.2020
1058 Clouds 13 1011 76 10000 2 320 21:37 19.06.2020
1059 Clouds 13 1011 76 10000 2 340 21:18 19.06.2020
1060 Clouds 13 1011 76 10000 2 340 20:56 19.06.2020
1061 Clouds 12 1011 81 10000 2 310 20:38 19.06.2020
1062 Clouds 12 1011 81 10000 2 310 20:20 19.06.2020
1063 Clouds 13 1011 76 10000 2 320 19:54 19.06.2020
1064 Clouds 14 1011 71 10000 2 310 19:36 19.06.2020
1065 Clouds 14 1011 76 10000 2 320 19:18 19.06.2020
1066 Clouds 15 1010 72 10000 2 310 18:40 19.06.2020
1067 Clouds 15 1010 72 10000 2 310 18:21 19.06.2020
1068 Clouds 17 1010 67 10000 1 10 17:43 19.06.2020
1069 Clear 17 1010 67 10000 1 10 17:23 19.06.2020
1070 Clear 18 1010 63 10000 1 20 16:59 19.06.2020
1071 Clear 17 1010 63 10000 2 70 16:41 19.06.2020
1072 Clear 17 1010 63 10000 2 70 16:22 19.06.2020
1073 Clear 18 1010 63 10000 1 90 15:49 19.06.2020
1074 Clear 21 1010 46 10000 2 110 15:27 19.06.2020
1075 Clear 23 1009 38 10000 2 120 14:59 19.06.2020
1076 Clear 24 1009 38 10000 2 140 14:40 19.06.2020
1077 Clear 24 1009 38 10000 2 140 14:21 19.06.2020
1078 Clear 25 1009 33 10000 2 110 13:59 19.06.2020
1079 Clear 26 1009 29 10000 2 120 13:40 19.06.2020
1080 Clear 26 1009 29 10000 2 120 13:22 19.06.2020
1081 Clear 27 1009 26 10000 4 110 12:45 19.06.2020
1082 Clear 27 1009 26 10000 4 110 12:22 19.06.2020
1083 Clear 27 1009 28 10000 3 120 11:57 19.06.2020
1084 Clear 28 1008 26 10000 4 130 11:36 19.06.2020
1085 Clear 28 1008 26 10000 4 140 11:18 19.06.2020
1086 Clear 28 1008 24 10000 4 110 10:43 19.06.2020
1087 Clear 28 1008 24 10000 4 110 10:25 19.06.2020
1088 Clear 28 1008 26 10000 4 120 09:57 19.06.2020
1089 Clear 27 1009 28 10000 3 120 09:39 19.06.2020
1090 Clear 27 1009 28 10000 3 120 09:19 19.06.2020
1091 Clear 28 1009 26 10000 4 130 08:41 19.06.2020
1092 Clear 28 1009 26 10000 4 130 08:23 19.06.2020
1093 Clear 28 1009 24 10000 4 130 07:55 19.06.2020
1094 Clear 28 1009 23 10000 4 120 07:36 19.06.2020
1095 Clear 27 1010 24 10000 4 150 07:18 19.06.2020
1096 Clear 27 1010 26 10000 4 130 06:23 19.06.2020
1097 Clear 27 1010 28 10000 2 130 05:41 19.06.2020
1098 Clear 25 1010 36 10000 2 80 04:23 19.06.2020
1099 Clouds 22 1010 37 10000 1 100 02:27 19.06.2020
1100 Clouds 19 1011 52 10000 1 70 00:47 19.06.2020
1101 Clouds 19 1011 52 10000 1 70 00:22 19.06.2020
1102 Clouds 18 1011 55 10000 1 40 23:58 18.06.2020
1103 Clouds 17 1010 59 10000 1.97 143 23:40 18.06.2020
1104 Clouds 17 1010 59 10000 1.45 137 23:22 18.06.2020
1105 Clouds 14 1010 67 10000 1 290 22:57 18.06.2020
1106 Clouds 13 1010 71 10000 1 300 22:36 18.06.2020
1107 Clear 12 1010 71 10000 2 310 22:18 18.06.2020
1108 Clear 11 1010 76 10000 2 320 21:38 18.06.2020
1109 Clear 11 1010 76 10000 2 320 21:19 18.06.2020
1110 Clear 11 1010 76 10000 1 310 20:55 18.06.2020
1111 Clear 11 1010 76 10000 2 300 20:36 18.06.2020
1112 Clouds 11 1010 76 10000 2 300 20:18 18.06.2020
1113 Clouds 11 1009 76 10000 2 300 19:42 18.06.2020
1114 Clouds 11 1009 76 10000 2 300 19:20 18.06.2020
1115 Clouds 12 1010 76 10000 2 310 18:57 18.06.2020
1116 Clouds 12 1010 76 10000 2 320 18:36 18.06.2020
1117 Clouds 13 1010 71 10000 2 310 18:18 18.06.2020
1118 Clouds 15 1009 67 10000 3 330 17:43 18.06.2020
1119 Clear 15 1009 67 10000 3 330 17:25 18.06.2020
1120 Clear 15 1009 72 10000 2 330 16:55 18.06.2020
1121 Clear 16 1009 67 10000 1 350 16:37 18.06.2020
1122 Clear 17 1009 63 10000 2 320 16:18 18.06.2020
1123 Clear 18 1009 63 10000 1 320 15:40 18.06.2020
1124 Clouds 18 1009 63 10000 1 320 15:21 18.06.2020
1125 Clouds 19 1009 55 10000 1 10 14:58 18.06.2020
1126 Clouds 19 1009 55 10000 1 10 14:58 18.06.2020
1127 Clouds 20 1009 56 10000 1 60 14:40 18.06.2020
1128 Clear 20 1009 56 10000 1 60 14:21 18.06.2020
1129 Clear 21 1009 43 10000 2 40 13:56 18.06.2020
1130 Clear 22 1009 40 10000 1 90 13:38 18.06.2020
1131 Clear 22 1009 40 10000 1 90 13:19 18.06.2020
1132 Clear 24 1008 31 10000 2 90 12:55 18.06.2020
1133 Clear 25 1008 25 10000 3 110 12:36 18.06.2020
1134 Clear 26 1008 22 10000 4 110 12:18 18.06.2020
1135 Clear 27 1008 21 10000 4 110 11:44 18.06.2020
1136 Clear 27 1008 21 10000 4 110 11:21 18.06.2020
1137 Clear 28 1008 18 10000 4 110 10:41 18.06.2020
1138 Clear 28 1008 18 10000 4 110 10:20 18.06.2020
1139 Clear 28 1008 21 10000 4 110 09:58 18.06.2020
1140 Clear 28 1008 20 10000 3 110 09:40 18.06.2020
1141 Clear 28 1008 20 10000 3 110 09:21 18.06.2020
1142 Clear 27 1009 19 10000 3 150 08:41 18.06.2020
1143 Clear 27 1009 19 10000 3 150 08:22 18.06.2020
1144 Clear 28 1009 17 10000 4 150 07:57 18.06.2020
1145 Clear 27 1009 18 10000 5 140 07:37 18.06.2020
1146 Clear 27 1009 18 10000 5 140 07:37 18.06.2020
1147 Clear 27 1009 18 10000 5 140 07:19 18.06.2020
1148 Clear 28 1009 18 10000 5 160 06:22 18.06.2020
1149 Clear 27 1010 22 10000 3 140 04:26 18.06.2020
1150 Clear 25 1010 29 10000 2 140 03:18 18.06.2020
1151 Clear 21 1009 40 10000 1 70 01:30 18.06.2020
1152 Clear 21 1009 40 10000 1 90 00:59 18.06.2020
1153 Clear 21 1009 40 10000 1 120 00:39 18.06.2020
1154 Clear 21 1009 40 10000 1 120 00:21 18.06.2020
1155 Clear 18 1009 55 10000 1 130 23:45 17.06.2020
1156 Clear 18 1009 55 10000 1 130 23:22 17.06.2020
1157 Clear 17 1009 63 10000 1 70 22:58 17.06.2020
1158 Clear 15 1009 72 10000 2 50 22:40 17.06.2020
1159 Clear 15 1009 72 10000 2 50 22:21 17.06.2020
1160 Clear 15 1009 72 10000 2 50 22:21 17.06.2020
1161 Clear 15 1009 72 10000 2 50 22:21 17.06.2020
1162 Clear 14 1008 71 10000 1 330 21:55 17.06.2020
1163 Clear 13 1008 76 10000 1 330 21:37 17.06.2020
1164 Clear 13 1008 71 10000 2 320 21:19 17.06.2020
1165 Clear 13 1008 76 10000 2 330 20:38 17.06.2020
1166 Clear 13 1008 76 10000 2 330 20:38 17.06.2020
1167 Clear 13 1008 76 10000 2 330 20:20 17.06.2020
1168 Clear 12 1008 81 10000 2 320 19:57 17.06.2020
1169 Clear 13 1008 76 10000 2 320 19:39 17.06.2020
1170 Clouds 14 1008 71 10000 2 330 19:19 17.06.2020
1171 Clouds 15 1008 67 10000 2 310 18:45 17.06.2020
1172 Clouds 15 1008 67 10000 2 310 18:27 17.06.2020
1173 Clouds 15 1008 72 10000 1 320 17:46 17.06.2020
1174 Clouds 15 1008 72 10000 1 320 17:23 17.06.2020
1175 Clouds 16 1007 72 10000 1 350 16:58 17.06.2020
1176 Clouds 16 1007 72 10000 1 20 16:39 17.06.2020
1177 Clear 16 1007 72 10000 1 20 16:21 17.06.2020
1178 Clear 18 1007 59 10000 1 60 15:58 17.06.2020
1179 Clear 19 1007 48 10000 1.29 123 15:39 17.06.2020
1180 Clear 19 1007 48 10000 1.26 151 15:20 17.06.2020
1181 Clear 21 1007 43 10000 2 110 14:58 17.06.2020
1182 Clear 23 1007 35 10000 1 130 14:39 17.06.2020
1183 Clear 24 1007 33 10000 2 140 14:19 17.06.2020
1184 Clear 24 1007 33 10000 2 140 13:56 17.06.2020
1185 Clear 24 1007 31 10000 2 140 13:37 17.06.2020
1186 Clear 24 1007 31 10000 2 140 13:19 17.06.2020
1187 Clear 26 1007 26 10000 3 150 12:42 17.06.2020
1188 Clear 26 1007 26 10000 3 150 12:23 17.06.2020
1189 Clear 26 1007 26 10000 3 140 11:57 17.06.2020
1190 Clear 26 1007 26 10000 3 140 11:57 17.06.2020
1191 Clear 26 1006 26 10000 3 130 11:38 17.06.2020
1192 Clear 26 1006 26 10000 3 130 11:20 17.06.2020
1193 Clear 27 1007 22 10000 4 150 10:38 17.06.2020
1194 Clear 27 1007 22 10000 4 150 10:19 17.06.2020
1195 Clear 27 1007 22 10000 3 160 09:58 17.06.2020
1196 Clear 27 1007 21 10000 4 160 09:40 17.06.2020
1197 Clear 27 1007 21 10000 4 160 09:20 17.06.2020
1198 Clouds 27 1007 21 10000 4 160 08:45 17.06.2020
1199 Clear 27 1007 21 10000 4 160 08:21 17.06.2020
1200 Clear 27 1007 21 10000 4 150 07:56 17.06.2020
1201 Clear 27 1007 22 10000 4 150 07:37 17.06.2020
1202 Clear 27 1007 21 10000 5 180 07:19 17.06.2020
1203 Clear 27 1007 21 10000 5 180 06:55 17.06.2020
1204 Clear 27 1008 22 10000 5 170 06:37 17.06.2020
1205 Clear 27 1008 24 10000 4 160 06:19 17.06.2020
1206 Clear 26 1008 34 10000 2 160 04:53 17.06.2020
1207 Clear 24 1009 41 10000 2 160 02:49 17.06.2020
1208 Clear 20 1009 56 10000 2 140 01:29 17.06.2020
1209 Clear 18 1009 68 10000 1 70 00:38 17.06.2020
1210 Clear 18 1009 68 10000 1 70 00:20 17.06.2020
1211 Clear 17 1009 72 10000 1 100 23:56 16.06.2020
1212 Clear 17 1009 72 10000 1 80 23:37 16.06.2020
1213 Clear 15 1009 82 10000 1 40 23:19 16.06.2020
1214 Clear 15 1009 82 10000 1 40 22:54 16.06.2020
1215 Clear 14 1009 82 10000 1 340 22:36 16.06.2020
1216 Clear 12 1009 87 10000 1 320 22:18 16.06.2020
1217 Clear 11 1009 93 10000 1 320 21:44 16.06.2020
1218 Clear 11 1009 93 10000 1 320 21:23 16.06.2020
1219 Clear 11 1009 87 10000 1 290 20:57 16.06.2020
1220 Clear 11 1008 87 10000 1 340 20:39 16.06.2020
1221 Clouds 11 1008 87 10000 2 300 20:19 16.06.2020
1222 Clouds 11 1008 87 10000 2 300 19:56 16.06.2020
1223 Clouds 12 1008 87 10000 1 300 19:38 16.06.2020
1224 Clouds 12 1008 87 10000 1 10 19:19 16.06.2020
1225 Clouds 13 1008 87 10000 2 300 18:45 16.06.2020
1226 Clouds 13 1008 87 10000 2 300 18:45 16.06.2020
1227 Clouds 13 1008 87 10000 2 300 18:22 16.06.2020
1228 Clouds 13 1008 87 10000 1.78 144 17:58 16.06.2020
1229 Clouds 14 1008 87 10000 2 180 17:39 16.06.2020
1230 Clouds 14 1008 87 10000 2 180 17:21 16.06.2020
1231 Clouds 14 1007 82 10000 1 170 16:59 16.06.2020
1232 Clouds 15 1007 82 10000 1.98 150 16:40 16.06.2020
1233 Clouds 15 1007 82 10000 1.99 153 16:20 16.06.2020
1234 Clouds 16 1007 77 10000 1 120 15:57 16.06.2020
1235 Clouds 17 1007 72 10000 1 130 15:39 16.06.2020
1236 Clouds 17 1007 72 10000 1 130 15:21 16.06.2020
1237 Clouds 20 1007 56 10000 1 120 14:56 16.06.2020
1238 Clouds 22 1007 46 10000 1 130 14:38 16.06.2020
1239 Clouds 22 1007 46 10000 1 130 14:19 16.06.2020
1240 Clouds 23 1006 40 10000 1 120 13:45 16.06.2020
1241 Clouds 23 1006 40 10000 1 120 13:25 16.06.2020
1242 Clouds 24 1006 36 10000 2 130 12:43 16.06.2020
1243 Clouds 24 1006 36 10000 2 130 12:23 16.06.2020
1244 Clouds 24 1006 36 10000 2 130 11:59 16.06.2020
1245 Clouds 24 1006 36 10000 3 130 11:40 16.06.2020
1246 Clouds 24 1006 36 10000 3 130 11:22 16.06.2020
1247 Clouds 24 1006 36 10000 4 160 10:59 16.06.2020
1248 Clouds 24 1006 36 10000 3 140 10:40 16.06.2020
1249 Clouds 24 1006 36 10000 3 140 10:20 16.06.2020
1250 Clouds 24 1006 36 10000 4 180 09:45 16.06.2020
1251 Clear 24 1006 36 10000 4 180 09:24 16.06.2020
1252 Clear 25 1006 33 10000 4 170 08:58 16.06.2020
1253 Clear 24 1006 33 10000 4 170 08:40 16.06.2020
1254 Clouds 24 1006 33 10000 4 170 08:22 16.06.2020
1255 Clouds 24 1007 38 10000 4 170 07:42 16.06.2020
1256 Clouds 24 1007 38 10000 4 170 07:24 16.06.2020
1257 Clouds 23 1007 43 10000 4 170 06:34 16.06.2020
1258 Clouds 22 1007 46 10000 4 170 05:52 16.06.2020
1259 Clear 21 1007 49 10000 4 180 05:19 16.06.2020
1260 Clear 21 1007 46 10000 5 200 04:26 16.06.2020
1261 Clear 18 1007 72 10000 3 140 02:47 16.06.2020
1262 Clear 17 1007 77 10000 3 160 01:34 16.06.2020
1263 Clouds 15 1007 93 10000 2 170 00:58 16.06.2020
1264 Mist 13 1007 100 2000 2 180 00:29 16.06.2020
1265 Fog 13 1007 93 400 2 180 23:59 15.06.2020
1266 Fog 13 1007 93 150 2 160 23:41 15.06.2020
1267 Fog 13 1007 93 150 2 160 23:21 15.06.2020
1268 Fog 13 1007 93 150 2 160 23:21 15.06.2020
1269 Mist 13 1007 93 1000 2 170 22:42 15.06.2020
1270 Mist 13 1007 93 1000 2 170 22:42 15.06.2020
1271 Mist 13 1007 93 1000 2 170 22:23 15.06.2020
1272 Fog 13 1006 93 300 2 160 21:59 15.06.2020
1273 Fog 11 1006 100 200 1 160 21:38 15.06.2020
1274 Fog 11 1006 100 200 1 160 21:20 15.06.2020
1275 Fog 11 1006 93 10000 1 170 20:59 15.06.2020
1276 Clear 11 1006 93 10000 1 270 20:39 15.06.2020
1277 Clear 11 1006 93 10000 1 270 20:20 15.06.2020
1278 Clear 11 1006 93 10000 1 270 20:00 15.06.2020
1279 Clear 11 1006 100 10000 2 270 19:40 15.06.2020
1280 Clear 11 1006 100 10000 2 270 19:22 15.06.2020
1281 Clear 12 1006 93 10000 1 290 18:57 15.06.2020
1282 Clear 13 1006 93 10000 1 290 18:39 15.06.2020
1283 Clear 13 1006 93 10000 1 290 18:20 15.06.2020
1284 Clear 13 1005 93 10000 2 300 17:58 15.06.2020
1285 Clear 14 1005 87 10000 2 320 17:40 15.06.2020
1286 Clear 14 1005 87 10000 1 290 17:19 15.06.2020
1287 Clear 14 1005 87 10000 1 290 17:19 15.06.2020
1288 Clear 15 1005 87 10000 1 310 16:43 15.06.2020
1289 Clear 15 1005 87 10000 1 310 16:20 15.06.2020
1290 Clear 16 1005 82 10000 1 190 15:58 15.06.2020
1291 Clouds 17 1005 77 10000 2 230 15:40 15.06.2020
1292 Clouds 17 1005 77 10000 2 230 15:20 15.06.2020
1293 Clouds 18 1005 72 10000 2 170 14:57 15.06.2020
1294 Clouds 18 1005 72 10000 1 120 14:39 15.06.2020
1295 Clouds 18 1005 72 10000 1 70 14:18 15.06.2020
1296 Clouds 18 1004 72 10000 2 50 13:43 15.06.2020
1297 Clouds 18 1004 72 10000 2 50 13:24 15.06.2020
1298 Clouds 19 1004 68 10000 2 50 12:59 15.06.2020
1299 Clouds 19 1004 63 10000 1.93 176 12:41 15.06.2020
1300 Clouds 19 1004 63 10000 2.25 134 12:21 15.06.2020
1301 Clouds 20 1004 64 10000 3 90 11:46 15.06.2020
1302 Clouds 20 1004 64 10000 3 90 11:26 15.06.2020
1303 Clouds 22 1003 53 10000 1 70 10:58 15.06.2020
1304 Clouds 21 1003 60 10000 1 90 10:39 15.06.2020
1305 Clouds 21 1003 60 10000 1 90 10:20 15.06.2020
1306 Clouds 20 1003 60 10000 2 140 09:43 15.06.2020
1307 Clouds 20 1003 60 10000 2 140 09:23 15.06.2020
1308 Clouds 21 1003 56 10000 2 300 08:46 15.06.2020
1309 Clouds 21 1003 56 10000 2 300 08:26 15.06.2020
1310 Clouds 20 1003 60 10000 4 330 07:53 15.06.2020
1311 Clouds 20 1003 60 10000 3 320 07:34 15.06.2020
1312 Clouds 18 1004 68 10000 3 330 06:58 15.06.2020
1313 Clouds 18 1004 68 10000 3 330 06:27 15.06.2020
1314 Clouds 17 1004 77 10000 3 340 05:51 15.06.2020
1315 Clouds 16 1004 77 10000 4 330 05:29 15.06.2020
1316 Clouds 15 1004 82 10000 3 320 04:22 15.06.2020
1317 Clouds 14 1004 87 10000 3 330 03:48 15.06.2020
1318 Rain 14 1003 87 10000 3 330 02:56 15.06.2020
1319 Rain 14 1003 87 10000 3 310 02:26 15.06.2020
1320 Rain 13 1003 93 10000 2 330 01:44 15.06.2020
1321 Rain 13 1003 93 10000 2 330 01:24 15.06.2020
1322 Rain 13 1003 93 10000 2 310 00:44 15.06.2020
1323 Rain 13 1003 93 10000 2 310 00:23 15.06.2020
1324 Rain 13 1003 93 10000 3 310 23:57 14.06.2020
1325 Rain 13 1003 93 10000 3 310 23:57 14.06.2020
1326 Rain 13 1003 93 10000 2 310 23:39 14.06.2020
1327 Rain 13 1003 93 10000 2 310 23:20 14.06.2020
1328 Rain 13 1003 100 10000 1 300 22:56 14.06.2020
1329 Rain 13 1003 100 10000 1 300 22:56 14.06.2020
1330 Rain 13 1003 100 10000 1 310 22:37 14.06.2020
1331 Rain 14 1002 93 10000 1 290 22:18 14.06.2020
1332 Rain 14 1002 93 10000 1 290 21:56 14.06.2020
1333 Rain 13 1002 100 10000 1 290 21:37 14.06.2020
1334 Rain 14 1002 93 10000 2 290 21:18 14.06.2020
1335 Rain 14 1002 93 10000 2 290 21:18 14.06.2020
1336 Rain 14 1002 93 10000 2 290 20:56 14.06.2020
1337 Rain 14 1002 93 10000 1.09 33 20:37 14.06.2020
1338 Rain 14 1002 93 10000 1 280 20:18 14.06.2020
1339 Rain 14 1002 93 10000 1 280 19:55 14.06.2020
1340 Rain 14 1002 87 5000 1 230 19:37 14.06.2020
1341 Rain 14 1002 93 10000 1 280 19:18 14.06.2020
1342 Rain 14 1002 93 10000 1 280 18:55 14.06.2020
1343 Rain 14 1002 93 10000 1 270 18:37 14.06.2020
1344 Rain 14 1002 87 10000 1 360 18:18 14.06.2020
1345 Clouds 14 1002 87 10000 2 350 17:40 14.06.2020
1346 Clouds 14 1002 87 10000 2 350 17:20 14.06.2020
1347 Clouds 14 1002 87 10000 1 360 16:59 14.06.2020
1348 Clouds 14 1002 87 10000 2 310 16:40 14.06.2020
1349 Clouds 15 1002 82 10000 2 280 16:20 14.06.2020
1350 Clouds 15 1002 82 10000 2 280 15:57 14.06.2020
1351 Clouds 15 1002 87 10000 3 250 15:37 14.06.2020
1352 Clouds 15 1001 87 10000 5 290 15:18 14.06.2020
1353 Rain 15 1002 82 10000 6 270 14:41 14.06.2020
1354 Rain 15 1002 82 10000 6 270 14:23 14.06.2020
1355 Rain 16 1002 77 10000 5 270 13:59 14.06.2020
1356 Clouds 18 1002 63 10000 6 240 13:41 14.06.2020
1357 Clouds 18 1001 63 10000 4 280 13:22 14.06.2020
1358 Clouds 18 1001 63 10000 4 280 12:59 14.06.2020
1359 Clouds 19 1001 59 10000 6 310 12:40 14.06.2020
1360 Clouds 19 1001 59 10000 6 310 12:21 14.06.2020
1361 Clouds 19 1001 55 10000 6 310 11:58 14.06.2020
1362 Clouds 20 1000 52 10000 7 290 11:39 14.06.2020
1363 Clouds 25 1000 29 10000 1 70 11:20 14.06.2020
1364 Clouds 24 1000 31 10000 2 110 10:43 14.06.2020
1365 Clouds 24 1000 31 10000 2 110 10:21 14.06.2020
1366 Clouds 25 1000 31 10000 2 120 09:58 14.06.2020
1367 Clouds 25 1001 31 10000 2 130 09:40 14.06.2020
1368 Clouds 25 1001 31 10000 2 130 09:21 14.06.2020
1369 Clouds 24 1001 31 10000 2 150 08:42 14.06.2020
1370 Clouds 24 1001 31 10000 2 150 08:22 14.06.2020
1371 Clouds 24 1001 33 10000 2 80 07:52 14.06.2020
1372 Clouds 24 1002 33 10000 2 140 07:34 14.06.2020
1373 Clouds 24 1002 33 10000 2 80 06:51 14.06.2020
1374 Clear 24 1002 31 10000 2 120 05:51 14.06.2020
1375 Clear 23 1002 33 10000 2 140 05:22 14.06.2020
1376 Clear 23 1003 33 10000 2 160 04:37 14.06.2020
1377 Clear 22 1003 35 10000 3 150 03:54 14.06.2020
1378 Clear 21 1003 43 10000 2 140 02:35 14.06.2020
1379 Clouds 20 1004 49 10000 2 130 01:55 14.06.2020
1380 Clouds 19 1004 52 10000 2 110 01:26 14.06.2020
1381 Clouds 17 1004 55 10000 3 140 00:47 14.06.2020
1382 Clouds 17 1004 55 10000 3 140 00:20 14.06.2020
1383 Clouds 15 1004 62 10000 3 120 23:46 13.06.2020
1384 Clouds 15 1004 62 10000 3 120 23:26 13.06.2020
1385 Clouds 15 1004 62 10000 2 120 22:58 13.06.2020
1386 Clouds 14 1004 67 10000 3 110 22:38 13.06.2020
1387 Clouds 14 1004 67 10000 3 110 22:18 13.06.2020
1388 Clouds 14 1004 67 10000 3 110 21:57 13.06.2020
1389 Clouds 13 1004 71 10000 2 110 21:39 13.06.2020
1390 Clouds 13 1004 71 10000 2 110 21:21 13.06.2020
1391 Clouds 13 1004 66 10000 1 150 20:44 13.06.2020
1392 Clouds 13 1004 66 10000 1 150 20:20 13.06.2020
1393 Clouds 13 1003 66 10000 2 190 19:58 13.06.2020
1394 Clouds 14 1003 62 10000 2 160 19:37 13.06.2020
1395 Clouds 13 1003 76 10000 1 220 19:18 13.06.2020
1396 Clouds 13 1003 76 10000 1 220 18:57 13.06.2020
1397 Clouds 13 1003 76 10000 1 170 18:38 13.06.2020
1398 Clouds 13 1003 76 10000 2.21 126 18:18 13.06.2020
1399 Clouds 13 1003 76 10000 2.21 126 17:55 13.06.2020
1400 Clouds 13 1003 76 10000 2.21 126 17:55 13.06.2020
1401 Clouds 14 1003 67 10000 1 50 17:36 13.06.2020
1402 Clouds 15 1003 62 10000 1 100 17:18 13.06.2020
1403 Clouds 15 1003 58 10000 1 60 16:41 13.06.2020
1404 Clouds 15 1003 58 10000 1 60 16:20 13.06.2020
1405 Clouds 18 1002 48 10000 2 100 15:59 13.06.2020
1406 Clouds 19 1002 42 10000 3 100 15:39 13.06.2020
1407 Clear 19 1002 42 10000 3 100 15:20 13.06.2020
1408 Clear 21 1002 35 10000 3 110 14:43 13.06.2020
1409 Clouds 21 1002 35 10000 3 110 14:23 13.06.2020
1410 Clouds 22 1002 33 10000 3 110 13:56 13.06.2020
1411 Clouds 23 1002 28 10000 3 110 13:37 13.06.2020
1412 Clouds 23 1002 31 10000 3 110 13:18 13.06.2020
1413 Clouds 24 1001 27 10000 3 120 12:43 13.06.2020
1414 Clouds 24 1001 27 10000 3 120 12:25 13.06.2020
1415 Clouds 25 1001 25 10000 3 110 11:55 13.06.2020
1416 Clouds 25 1001 25 10000 3 110 11:55 13.06.2020
1417 Clouds 25 1001 25 10000 3 100 11:37 13.06.2020
1418 Clouds 25 1001 25 10000 3 120 11:18 13.06.2020
1419 Clouds 25 1001 25 10000 4 110 10:49 13.06.2020
1420 Clouds 25 1001 25 10000 4 110 10:27 13.06.2020
1421 Clouds 25 1001 25 10000 3 120 09:56 13.06.2020
1422 Clouds 25 1001 27 10000 3 120 09:38 13.06.2020
1423 Clouds 25 1001 27 10000 3 130 09:19 13.06.2020
1424 Clouds 25 1001 27 10000 3 130 08:44 13.06.2020
1425 Clouds 25 1001 27 10000 3 130 08:26 13.06.2020
1426 Clouds 25 1001 27 10000 3 150 07:45 13.06.2020
1427 Clouds 25 1001 27 10000 3 150 07:26 13.06.2020
1428 Clouds 24 1001 29 10000 4 150 06:44 13.06.2020
1429 Clear 24 1001 29 10000 4 150 06:26 13.06.2020
1430 Clear 23 1002 31 10000 4 150 05:30 13.06.2020
1431 Clear 23 1002 31 10000 4 150 05:30 13.06.2020
1432 Clear 23 1002 33 10000 4 150 04:41 13.06.2020
1433 Clear 21 1002 40 10000 5 150 03:43 13.06.2020
1434 Clear 21 1002 43 10000 5 160 02:52 13.06.2020
1435 Clouds 18 1002 55 10000 3 150 01:50 13.06.2020
1436 Clouds 18 1002 55 10000 3 150 01:24 13.06.2020
1437 Clouds 16 1002 63 10000 3 140 00:54 13.06.2020
1438 Clouds 16 1002 63 10000 3 150 00:29 13.06.2020
1439 Clouds 15 1001 67 10000 2 130 23:59 12.06.2020
1440 Clouds 14 1001 71 10000 2 110 23:38 12.06.2020
1441 Clouds 14 1001 71 10000 3 110 23:18 12.06.2020
1442 Clouds 14 1001 71 10000 3 110 22:54 12.06.2020
1443 Clouds 13 1001 76 10000 3 110 22:36 12.06.2020
1444 Clouds 13 1001 82 10000 2 110 22:18 12.06.2020
1445 Clouds 14 1001 76 10000 2 120 21:42 12.06.2020
1446 Clouds 14 1001 76 10000 2 120 21:23 12.06.2020
1447 Clouds 14 1000 76 10000 2 140 20:57 12.06.2020
1448 Clouds 14 1000 71 10000 2 180 20:37 12.06.2020
1449 Clouds 15 1000 67 10000 3 170 20:19 12.06.2020
1450 Clouds 15 1000 67 10000 2 170 19:42 12.06.2020
1451 Clouds 15 1000 67 10000 2 170 19:21 12.06.2020
1452 Clouds 15 1000 67 10000 2 170 18:58 12.06.2020
1453 Clouds 15 1000 67 10000 2 160 18:37 12.06.2020
1454 Clouds 15 1000 67 10000 2 170 18:18 12.06.2020
1455 Clouds 15 1000 67 10000 1 190 17:43 12.06.2020
1456 Clouds 15 1000 67 10000 1 190 17:25 12.06.2020
1457 Clouds 15 999 72 10000 2 120 16:47 12.06.2020
1458 Clouds 15 999 72 10000 2 120 16:22 12.06.2020
1459 Clouds 15 999 72 10000 2 80 15:53 12.06.2020
1460 Clouds 15 999 72 10000 2 50 15:29 12.06.2020
1461 Clouds 16 999 63 10000 1 90 14:59 12.06.2020
1462 Clouds 17 999 59 10000 2 70 14:41 12.06.2020
1463 Clouds 17 999 59 10000 2 70 14:21 12.06.2020
1464 Clouds 18 999 52 10000 1 60 13:44 12.06.2020
1465 Clouds 18 999 52 10000 1 60 13:22 12.06.2020
1466 Clouds 19 999 48 10000 2 70 12:57 12.06.2020
1467 Clouds 19 999 45 10000 2 100 12:39 12.06.2020
1468 Clouds 20 999 40 10000 2 140 12:18 12.06.2020
1469 Clouds 19 999 42 10000 3 140 11:44 12.06.2020
1470 Clouds 19 999 42 10000 3 140 11:23 12.06.2020
1471 Clouds 19 998 42 10000 3 120 10:54 12.06.2020
1472 Clouds 20 998 40 10000 3 180 10:36 12.06.2020
1473 Rain 19 998 42 10000 4 160 10:18 12.06.2020
1474 Rain 19 998 42 10000 4 170 09:43 12.06.2020
1475 Rain 18 999 48 10000 5 130 09:19 12.06.2020
1476 Rain 18 999 52 10000 4 140 08:41 12.06.2020
1477 Rain 18 999 52 10000 4 140 08:23 12.06.2020
1478 Rain 17 999 55 10000 5 140 07:42 12.06.2020
1479 Rain 17 999 55 10000 5 140 07:24 12.06.2020
1480 Clouds 16 999 63 10000 5 130 06:41 12.06.2020
1481 Clouds 15 999 72 10000 5 130 06:21 12.06.2020
1482 Clouds 15 999 72 10000 4 140 05:49 12.06.2020
1483 Clouds 15 999 72 10000 4 140 05:23 12.06.2020
1484 Clouds 14 999 76 10000 4 150 03:53 12.06.2020
1485 Clouds 14 999 71 10000 2 180 02:42 12.06.2020
1486 Clouds 13 999 76 10000 2 210 01:39 12.06.2020
1487 Clouds 13 999 76 10000 1 150 00:59 12.06.2020
1488 Clouds 12 999 81 10000 1.84 121 00:39 12.06.2020
1489 Clouds 12 999 81 10000 1.33 85 00:20 12.06.2020
1490 Clouds 12 999 81 10000 1 10 23:56 11.06.2020
1491 Clouds 11 999 87 10000 1 350 23:38 11.06.2020
1492 Clouds 11 999 81 10000 2 320 23:19 11.06.2020
1493 Clouds 11 999 81 10000 2 320 22:54 11.06.2020
1494 Clouds 11 999 81 10000 2 310 22:36 11.06.2020
1495 Clouds 11 999 81 10000 4 310 22:18 11.06.2020
1496 Clouds 11 999 81 10000 4 310 21:42 11.06.2020
1497 Clouds 11 999 81 10000 4 310 21:20 11.06.2020
1498 Clouds 11 999 81 10000 4 300 20:57 11.06.2020
1499 Clouds 11 999 87 10000 4 310 20:38 11.06.2020
1500 Clouds 11 999 87 10000 4 310 20:20 11.06.2020
1501 Clouds 12 999 81 10000 3 320 19:43 11.06.2020
1502 Clouds 12 999 81 10000 3 320 19:22 11.06.2020
1503 Clouds 12 999 87 10000 3 300 18:54 11.06.2020
1504 Clouds 12 999 87 10000 3 310 18:36 11.06.2020
1505 Clouds 13 999 82 10000 3 300 18:18 11.06.2020
1506 Clouds 13 999 82 10000 3 300 17:55 11.06.2020
1507 Clouds 13 999 82 10000 3 290 17:37 11.06.2020
1508 Clouds 13 999 82 10000 3 290 17:18 11.06.2020
1509 Clouds 14 999 76 10000 3 310 16:42 11.06.2020
1510 Clouds 14 999 76 10000 3 310 16:23 11.06.2020
1511 Clouds 15 998 72 10000 3 320 15:57 11.06.2020
1512 Clouds 15 998 72 10000 4 310 15:38 11.06.2020
1513 Clouds 15 998 72 10000 4 310 15:20 11.06.2020
1514 Clouds 16 998 67 10000 4 280 14:44 11.06.2020
1515 Clouds 16 998 67 10000 4 280 14:21 11.06.2020
1516 Clouds 17 998 48 10000 2 170 13:57 11.06.2020
1517 Clouds 17 998 55 10000 1 130 13:39 11.06.2020
1518 Clouds 18 998 52 10000 1 160 13:20 11.06.2020
1519 Clouds 18 998 52 10000 1 160 12:56 11.06.2020
1520 Clouds 18 998 52 10000 1 160 12:56 11.06.2020
1521 Clouds 18 998 52 10000 2 120 12:38 11.06.2020
1522 Clouds 18 998 52 10000 2 120 12:19 11.06.2020
1523 Clouds 18 998 52 10000 2 120 11:57 11.06.2020
1524 Clouds 18 998 52 10000 2 130 11:38 11.06.2020
1525 Clouds 18 998 52 10000 2 130 11:20 11.06.2020
1526 Clouds 19 998 48 10000 2 110 10:57 11.06.2020
1527 Clouds 19 998 48 10000 3 110 10:38 11.06.2020
1528 Clouds 19 998 48 10000 3 110 10:18 11.06.2020
1529 Clouds 20 998 40 10000 3 100 09:40 11.06.2020
1530 Clouds 20 998 40 10000 3 100 09:40 11.06.2020
1531 Clouds 20 998 40 10000 3 100 09:22 11.06.2020
1532 Clouds 18 998 52 10000 1 110 08:44 11.06.2020
1533 Clouds 18 998 52 10000 1 110 08:44 11.06.2020
1534 Clouds 18 998 52 10000 1 110 08:20 11.06.2020
1535 Clouds 19 998 45 10000 3 110 07:42 11.06.2020
1536 Clouds 19 998 45 10000 3 110 07:24 11.06.2020
1537 Clouds 20 999 40 10000 3 150 06:40 11.06.2020
1538 Clouds 20 999 40 10000 2 140 06:22 11.06.2020
1539 Clouds 19 999 42 10000 2 80 05:28 11.06.2020
1540 Clouds 18 1000 45 10000 1 140 03:30 11.06.2020
1541 Clouds 18 1000 48 10000 2 170 02:50 11.06.2020
1542 Clouds 17 1000 55 10000 3 140 02:32 11.06.2020
1543 Clouds 15 1000 67 10000 2 120 01:46 11.06.2020
1544 Clouds 15 1000 67 10000 2 120 01:22 11.06.2020
1545 Clouds 13 1000 76 10000 1 120 00:45 11.06.2020
1546 Clouds 13 1000 76 10000 1 120 00:26 11.06.2020
1547 Clouds 12 1000 81 10000 2.96 135 23:44 10.06.2020
1548 Clouds 12 1000 81 10000 2.74 140 23:25 10.06.2020
1549 Clouds 11 1001 81 10000 1 320 22:56 10.06.2020
1550 Clouds 11 1001 81 10000 1 320 22:37 10.06.2020
1551 Clouds 11 1001 81 10000 1 320 22:37 10.06.2020
1552 Clouds 11 1001 81 10000 1 320 22:19 10.06.2020
1553 Clouds 10 1000 81 10000 1 290 21:55 10.06.2020
1554 Clouds 10 1000 87 10000 1 290 21:37 10.06.2020
1555 Clouds 10 1001 81 10000 1 310 21:18 10.06.2020
1556 Clouds 10 1001 81 10000 1 310 21:18 10.06.2020
1557 Clouds 10 1001 81 10000 1 310 20:56 10.06.2020
1558 Clouds 9 1001 87 10000 1 310 20:38 10.06.2020
1559 Clouds 9 1001 87 10000 1 310 20:19 10.06.2020
1560 Clouds 10 1000 87 10000 1 330 19:40 10.06.2020
1561 Rain 10 1001 87 10000 1 310 19:19 10.06.2020
1562 Rain 10 1000 87 10000 1 300 18:58 10.06.2020
1563 Rain 10 1000 87 10000 1 300 18:40 10.06.2020
1564 Rain 10 1000 87 10000 1 200 18:19 10.06.2020
1565 Rain 10 1000 87 10000 1 200 17:55 10.06.2020
1566 Rain 10 1000 87 10000 1 180 17:37 10.06.2020
1567 Rain 10 1000 87 10000 1 180 17:18 10.06.2020
1568 Rain 11 1000 87 10000 1 240 16:56 10.06.2020
1569 Rain 12 1000 81 10000 2 150 16:38 10.06.2020
1570 Clouds 12 1000 81 10000 2 150 16:18 10.06.2020
1571 Clouds 14 1000 67 10000 1 140 15:40 10.06.2020
1572 Rain 14 1000 67 10000 1 140 15:21 10.06.2020
1573 Rain 15 1000 62 10000 2 140 14:56 10.06.2020
1574 Rain 16 1000 63 10000 1 130 14:38 10.06.2020
1575 Clouds 16 1000 63 10000 1 130 14:19 10.06.2020
1576 Clouds 17 1000 55 10000 2 130 13:40 10.06.2020
1577 Clouds 17 1000 55 10000 2 130 13:40 10.06.2020
1578 Clouds 18 1000 52 10000 2 100 13:21 10.06.2020
1579 Clouds 18 1000 48 10000 2 120 12:44 10.06.2020
1580 Clouds 18 1000 48 10000 2 70 12:20 10.06.2020
1581 Clouds 18 1000 48 10000 2 70 11:58 10.06.2020
1582 Clouds 19 999 45 10000 1 110 11:40 10.06.2020
1583 Clouds 18 999 48 10000 1 60 11:19 10.06.2020
1584 Clouds 18 999 48 10000 1 60 10:57 10.06.2020
1585 Clouds 18 999 48 10000 4.23 86 10:39 10.06.2020
1586 Clouds 18 999 48 10000 1 180 10:20 10.06.2020
1587 Clouds 18 999 52 10000 2 90 09:41 10.06.2020
1588 Clouds 18 999 52 10000 2 90 09:41 10.06.2020
1589 Clouds 18 999 52 10000 2 90 09:41 10.06.2020
1590 Clouds 18 999 52 10000 2 90 09:23 10.06.2020
1591 Clouds 18 999 48 10000 2 60 08:44 10.06.2020
1592 Clouds 17 999 55 10000 3 40 08:24 10.06.2020
1593 Clouds 17 999 55 10000 3 40 07:58 10.06.2020
1594 Clouds 17 999 51 10000 2 50 07:38 10.06.2020
1595 Clouds 17 999 55 10000 3 60 07:20 10.06.2020
1596 Clouds 16 999 59 10000 3 70 06:44 10.06.2020
1597 Clouds 16 999 59 10000 3 80 06:22 10.06.2020
1598 Clouds 16 999 59 10000 3 80 05:55 10.06.2020
1599 Clouds 15 999 62 10000 4 80 05:25 10.06.2020
1600 Clouds 15 999 62 10000 4 90 04:35 10.06.2020
1601 Clouds 14 999 67 10000 3 130 02:56 10.06.2020
1602 Clouds 15 999 62 10000 4 110 02:21 10.06.2020
1603 Clouds 13 999 71 10000 3 110 01:36 10.06.2020
1604 Clouds 12 999 76 10000 3 110 00:40 10.06.2020
1605 Clouds 12 999 76 10000 3 100 00:21 10.06.2020
1606 Clouds 12 999 76 10000 3 100 00:21 10.06.2020
1607 Clouds 12 999 76 10000 3 100 23:56 09.06.2020
1608 Clouds 12 998 76 10000 3 110 23:38 09.06.2020
1609 Clouds 12 998 76 10000 3 110 23:19 09.06.2020
1610 Clouds 12 998 76 10000 2 110 22:55 09.06.2020
1611 Clouds 12 998 76 10000 3 110 22:37 09.06.2020
1612 Clouds 12 998 76 10000 3 110 22:19 09.06.2020
1613 Clouds 12 998 81 10000 2 100 21:56 09.06.2020
1614 Clouds 12 998 76 10000 3 110 21:38 09.06.2020
1615 Clouds 12 998 76 10000 3 110 21:19 09.06.2020
1616 Clouds 12 998 81 10000 3 110 20:56 09.06.2020
1617 Clouds 12 998 81 10000 3 120 20:38 09.06.2020
1618 Clouds 12 998 81 10000 4 100 20:18 09.06.2020
1619 Clouds 12 998 81 10000 4 100 19:56 09.06.2020
1620 Clouds 13 998 76 10000 3 90 19:38 09.06.2020
1621 Clouds 13 998 76 10000 4 90 19:20 09.06.2020
1622 Clouds 13 998 76 10000 3 90 18:45 09.06.2020
1623 Clouds 13 998 76 10000 3 90 18:26 09.06.2020
1624 Clouds 13 998 82 10000 2 70 17:58 09.06.2020
1625 Clouds 13 998 82 10000 2 40 17:40 09.06.2020
1626 Clouds 13 998 82 10000 2 40 17:22 09.06.2020
1627 Clouds 13 999 82 10000 3 20 16:58 09.06.2020
1628 Clouds 14 999 76 10000 3 40 16:39 09.06.2020
1629 Clouds 14 999 76 10000 3 40 16:20 09.06.2020
1630 Clouds 14 999 76 10000 3 40 15:40 09.06.2020
1631 Clouds 14 999 76 10000 3 40 15:22 09.06.2020
1632 Clouds 14 999 76 10000 4 50 14:59 09.06.2020
1633 Clouds 14 999 76 10000 4 50 14:39 09.06.2020
1634 Clouds 14 999 76 10000 4 50 14:19 09.06.2020
1635 Clouds 15 999 72 10000 4 60 13:55 09.06.2020
1636 Clouds 15 999 72 10000 4 50 13:37 09.06.2020
1637 Rain 16 999 63 10000 4 50 13:19 09.06.2020
1638 Rain 16 999 67 10000 3 60 12:42 09.06.2020
1639 Rain 16 999 63 10000 2 50 12:20 09.06.2020
1640 Rain 16 999 63 10000 2 50 11:58 09.06.2020
1641 Rain 16 999 63 10000 3 70 11:40 09.06.2020
1642 Clouds 16 999 63 10000 3 70 11:20 09.06.2020
1643 Clouds 17 999 59 10000 2 70 10:55 09.06.2020
1644 Clouds 17 999 59 10000 3 50 10:36 09.06.2020
1645 Clouds 17 999 59 10000 3 50 10:18 09.06.2020
1646 Clouds 17 999 63 10000 3 70 09:41 09.06.2020
1647 Clouds 17 999 63 10000 3 70 09:22 09.06.2020
1648 Clouds 17 999 59 10000 3 90 08:55 09.06.2020
1649 Clouds 16 999 63 10000 3 90 08:36 09.06.2020
1650 Clouds 16 999 63 10000 3 90 08:18 09.06.2020
1651 Clouds 15 999 67 10000 3 80 07:37 09.06.2020
1652 Clouds 16 999 63 10000 4 80 07:18 09.06.2020
1653 Clouds 16 999 63 10000 4 90 06:52 09.06.2020
1654 Clouds 16 999 63 10000 4 90 06:28 09.06.2020
1655 Clouds 15 999 67 10000 6 90 04:39 09.06.2020
1656 Clouds 16 999 67 10000 4 120 02:52 09.06.2020
1657 Clouds 14 999 82 10000 4 110 01:40 09.06.2020
1658 Clouds 13 999 87 10000 4 100 01:19 09.06.2020
1659 Clouds 13 999 87 10000 4 90 00:44 09.06.2020
1660 Clouds 13 1000 87 10000 4 100 00:20 09.06.2020
1661 Clouds 13 1000 87 10000 4 100 23:54 08.06.2020
1662 Rain 13 1000 87 10000 2 90 23:36 08.06.2020
1663 Rain 13 1000 87 10000 2 90 23:18 08.06.2020
1664 Rain 13 1000 87 10000 4 120 22:39 08.06.2020
1665 Rain 13 1000 87 10000 4 120 22:20 08.06.2020
1666 Rain 13 1000 87 10000 3 120 21:57 08.06.2020
1667 Rain 14 999 82 10000 5 140 21:38 08.06.2020
1668 Rain 14 999 82 10000 5 140 21:20 08.06.2020
1669 Rain 13 1000 87 10000 4 130 20:55 08.06.2020
1670 Rain 13 1000 93 10000 3 110 20:37 08.06.2020
1671 Rain 13 1000 93 10000 3 110 20:19 08.06.2020
1672 Rain 13 1000 93 10000 2 130 19:44 08.06.2020
1673 Rain 14 1000 87 10000 2 140 19:22 08.06.2020
1674 Rain 14 1000 87 10000 2 160 18:58 08.06.2020
1675 Rain 14 1000 87 10000 2 160 18:39 08.06.2020
1676 Rain 14 1000 82 10000 2 170 18:18 08.06.2020
1677 Rain 14 1000 82 10000 2 170 17:54 08.06.2020
1678 Clouds 15 1000 77 10000 3 170 17:36 08.06.2020
1679 Clouds 15 1000 77 10000 3 170 17:18 08.06.2020
1680 Clouds 16 1000 67 10000 4 180 16:42 08.06.2020
1681 Clouds 16 1000 67 10000 4 180 16:22 08.06.2020
1682 Clouds 17 1000 59 10000 6 200 15:44 08.06.2020
1683 Clouds 17 1000 59 10000 6 200 15:22 08.06.2020
1684 Clouds 18 1000 52 10000 6 200 14:59 08.06.2020
1685 Clouds 20 1000 42 10000 6 160 14:40 08.06.2020
1686 Clouds 20 1000 42 10000 6 160 14:20 08.06.2020
1687 Clouds 21 1000 35 10000 5 110 13:44 08.06.2020
1688 Clouds 21 1000 35 10000 5 110 13:25 08.06.2020
1689 Clouds 21 1000 37 10000 5 140 12:44 08.06.2020
1690 Clouds 21 1000 37 10000 5 140 12:44 08.06.2020
1691 Clouds 21 1000 37 10000 5 140 12:44 08.06.2020
1692 Clouds 22 1000 30 10000 6 110 12:22 08.06.2020
1693 Clouds 22 1000 30 10000 6 110 11:59 08.06.2020
1694 Clouds 23 1000 28 10000 8 110 11:41 08.06.2020
1695 Clouds 23 1000 28 10000 8 110 11:23 08.06.2020
1696 Clouds 23 1000 31 10000 7 110 10:59 08.06.2020
1697 Clouds 23 1001 28 10000 7 120 10:40 08.06.2020
1698 Clouds 23 1001 28 10000 7 120 10:21 08.06.2020
1699 Clouds 24 1001 29 10000 7 120 09:58 08.06.2020
1700 Clouds 24 1001 29 10000 7 120 09:58 08.06.2020
1701 Clouds 24 1001 29 10000 6 120 09:40 08.06.2020
1702 Clouds 24 1001 29 10000 6 120 09:22 08.06.2020
1703 Clouds 24 1001 29 10000 6 110 08:47 08.06.2020
1704 Clouds 24 1002 29 10000 6 120 08:23 08.06.2020
1705 Clouds 23 1002 33 10000 6 110 07:46 08.06.2020
1706 Clouds 23 1002 33 10000 6 110 07:24 08.06.2020
1707 Clouds 23 1003 31 10000 7 120 06:51 08.06.2020
1708 Clouds 23 1003 31 10000 7 120 06:33 08.06.2020
1709 Clouds 23 1003 31 10000 7 120 05:52 08.06.2020
1710 Clouds 21 1005 40 10000 6 110 04:29 08.06.2020
1711 Clouds 19 1006 48 10000 4 90 02:32 08.06.2020
1712 Clouds 18 1006 52 10000 5 100 01:55 08.06.2020
1713 Clouds 17 1006 55 10000 4 90 01:30 08.06.2020
1714 Clouds 16 1007 59 10000 2 80 00:33 08.06.2020
1715 Clear 16 1007 59 10000 1 80 23:58 07.06.2020
1716 Clear 14 1007 67 10000 1 10 23:36 07.06.2020
1717 Clear 14 1007 67 10000 1 10 23:18 07.06.2020
1718 Clear 14 1007 67 10000 2 100 22:39 07.06.2020
1719 Clear 14 1007 67 10000 2 100 22:20 07.06.2020
1720 Clear 12 1008 76 10000 4.25 126 21:59 07.06.2020
1721 Clear 11 1008 76 10000 1 210 21:39 07.06.2020
1722 Clear 11 1008 76 10000 1 210 21:20 07.06.2020
1723 Clear 11 1008 76 10000 1 210 21:20 07.06.2020
1724 Clear 13 1008 66 10000 1 100 20:57 07.06.2020
1725 Clear 13 1008 71 10000 2 80 20:38 07.06.2020
1726 Clouds 13 1008 71 10000 2 80 20:19 07.06.2020
1727 Clouds 12 1008 76 10000 2 110 19:56 07.06.2020
1728 Clouds 11 1008 76 10000 3.57 122 19:38 07.06.2020
1729 Clouds 13 1008 71 10000 1 200 19:19 07.06.2020
1730 Clouds 13 1008 71 10000 1 200 18:55 07.06.2020
1731 Clouds 13 1008 71 10000 1 50 18:37 07.06.2020
1732 Clouds 15 1008 62 10000 3 110 18:18 07.06.2020
1733 Clouds 15 1008 62 10000 3 110 17:55 07.06.2020
1734 Clouds 15 1008 62 10000 3 110 17:36 07.06.2020
1735 Clouds 15 1008 62 10000 3 110 17:18 07.06.2020
1736 Clouds 15 1008 67 10000 2 100 16:41 07.06.2020
1737 Clouds 15 1008 67 10000 2 100 16:21 07.06.2020
1738 Clouds 15 1008 72 10000 2 60 15:40 07.06.2020
1739 Clouds 15 1008 72 10000 2 60 15:20 07.06.2020
1740 Clouds 17 1008 63 10000 1 40 14:40 07.06.2020
1741 Clouds 17 1008 63 10000 1 40 14:21 07.06.2020
1742 Clouds 18 1008 59 10000 2 60 13:47 07.06.2020
1743 Clouds 19 1008 48 10000 2 40 13:21 07.06.2020
1744 Clouds 20 1008 42 10000 2 40 12:55 07.06.2020
1745 Clouds 20 1008 42 10000 2 40 12:36 07.06.2020
1746 Clouds 21 1008 35 10000 2 50 12:18 07.06.2020
1747 Clouds 21 1008 35 10000 2 50 11:55 07.06.2020
1748 Clouds 21 1008 40 10000 2 60 11:36 07.06.2020
1749 Clouds 21 1008 40 10000 2 60 11:18 07.06.2020
1750 Clouds 19 1008 48 10000 5 90 10:42 07.06.2020
1751 Clouds 19 1008 48 10000 5 90 10:20 07.06.2020
1752 Clouds 20 1008 37 10000 4 90 09:57 07.06.2020
1753 Clouds 19 1008 48 10000 2 60 09:38 07.06.2020
1754 Clouds 19 1008 48 10000 2 60 09:20 07.06.2020
1755 Clouds 18 1008 55 10000 2 20 08:48 07.06.2020
1756 Thunderstorm 19 1008 52 10000 1 320 08:24 07.06.2020
1757 Thunderstorm 19 1008 52 10000 1 320 08:24 07.06.2020
1758 Thunderstorm 20 1008 37 10000 4 190 07:57 07.06.2020
1759 Clouds 22 1008 28 10000 2 100 07:30 07.06.2020
1760 Clouds 22 1008 30 10000 3 20 06:51 07.06.2020
1761 Clouds 22 1008 33 10000 2 70 05:50 07.06.2020
1762 Clear 22 1009 40 10000 2 70 04:21 07.06.2020
1763 Clear 20 1009 49 10000 2 80 02:57 07.06.2020
1764 Clear 17 1010 67 10000 2 80 01:58 07.06.2020
1765 Clouds 17 1010 67 10000 2 80 01:25 07.06.2020
1766 Clouds 16 1010 72 10000 2 90 00:47 07.06.2020
1767 Clouds 15 1010 72 10000 2 30 00:19 07.06.2020
1768 Clouds 15 1010 72 10000 2 30 23:58 06.06.2020
1769 Clouds 14 1010 71 10000 1 10 23:37 06.06.2020
1770 Clouds 14 1010 71 10000 1 10 23:19 06.06.2020
1771 Clouds 12 1010 81 10000 1 290 22:56 06.06.2020
1772 Clouds 11 1010 81 10000 1 300 22:38 06.06.2020
1773 Clouds 11 1010 81 10000 1 300 22:19 06.06.2020
1774 Clouds 11 1010 81 10000 1 300 22:19 06.06.2020
1775 Clouds 10 1009 87 10000 2 300 21:45 06.06.2020
1776 Clouds 10 1009 87 10000 2 310 21:22 06.06.2020
1777 Clouds 10 1009 87 10000 1 300 20:58 06.06.2020
1778 Clouds 10 1009 87 10000 2 310 20:39 06.06.2020
1779 Clouds 10 1009 87 10000 2 310 20:18 06.06.2020
1780 Clouds 10 1009 87 10000 2 310 20:18 06.06.2020
1781 Clouds 10 1009 93 10000 2 300 19:57 06.06.2020
1782 Clouds 10 1009 93 10000 2 290 19:38 06.06.2020
1783 Clouds 11 1009 87 10000 1 290 19:20 06.06.2020
1784 Clouds 12 1009 81 10000 1 330 18:43 06.06.2020
1785 Clouds 12 1009 81 10000 1 330 18:24 06.06.2020
1786 Clouds 12 1009 81 10000 1 80 17:58 06.06.2020
1787 Clouds 12 1009 87 10000 2 240 17:40 06.06.2020
1788 Clouds 12 1009 87 10000 2 240 17:19 06.06.2020
1789 Clouds 12 1009 87 10000 2 240 17:19 06.06.2020
1790 Clouds 13 1008 82 10000 2 200 16:48 06.06.2020
1791 Clouds 13 1008 82 10000 2 230 16:23 06.06.2020
1792 Clouds 13 1008 82 10000 2 210 15:58 06.06.2020
1793 Clouds 14 1008 76 10000 3 150 15:40 06.06.2020
1794 Clouds 14 1008 76 10000 3 150 15:20 06.06.2020
1795 Clouds 14 1008 76 10000 1 90 14:54 06.06.2020
1796 Clouds 15 1008 72 10000 2 90 14:36 06.06.2020
1797 Clouds 15 1008 72 10000 2 90 14:18 06.06.2020
1798 Clouds 18 1008 52 10000 2 230 13:41 06.06.2020
1799 Clouds 17 1008 59 10000 3 220 13:19 06.06.2020
1800 Clouds 16 1008 67 10000 4 160 12:43 06.06.2020
1801 Clouds 16 1008 67 10000 4 160 12:43 06.06.2020
1802 Clouds 16 1008 67 10000 4 160 12:43 06.06.2020
1803 Clouds 16 1008 67 10000 4 160 12:43 06.06.2020
1804 Clouds 16 1008 67 10000 4 160 12:24 06.06.2020
1805 Clouds 18 1007 59 10000 4 200 11:59 06.06.2020
1806 Rain 18 1007 55 10000 5 200 11:39 06.06.2020
1807 Rain 18 1007 55 10000 5 200 11:20 06.06.2020
1808 Clouds 18 1007 48 10000 4 150 10:59 06.06.2020
1809 Thunderstorm 19 1007 48 10000 4 100 10:40 06.06.2020
1810 Thunderstorm 19 1007 48 10000 4 100 10:21 06.06.2020
1811 Thunderstorm 22 1006 30 10000 3 40 09:59 06.06.2020
1812 Clouds 22 1006 33 10000 3 70 09:40 06.06.2020
1813 Clouds 22 1006 33 10000 3 70 09:21 06.06.2020
1814 Clouds 20 1007 40 10000 2 60 08:45 06.06.2020
1815 Clouds 20 1007 40 10000 2 60 08:24 06.06.2020
1816 Clouds 20 1007 40 10000 3 60 07:49 06.06.2020
1817 Clouds 19 1007 52 10000 3 60 07:23 06.06.2020
1818 Clouds 19 1007 52 10000 3 80 06:52 06.06.2020
1819 Clouds 19 1007 52 10000 3 80 06:34 06.06.2020
1820 Thunderstorm 19 1007 52 10000 2 100 05:59 06.06.2020
1821 Clouds 19 1007 48 10000 3 130 05:31 06.06.2020
1822 Thunderstorm 21 1008 43 10000 2 110 04:47 06.06.2020
1823 Clear 19 1008 52 10000 2 40 03:28 06.06.2020
1824 Clear 17 1008 59 10000 2 60 01:58 06.06.2020
1825 Clear 16 1008 67 10000 2 80 01:21 06.06.2020
1826 Clear 14 1008 71 10000 2 360 00:47 06.06.2020
1827 Clear 14 1008 71 10000 2 360 00:28 06.06.2020
1828 Clear 13 1008 76 10000 2 360 23:59 05.06.2020
1829 Clear 11 1008 87 10000 3 350 23:39 05.06.2020
1830 Clear 11 1008 87 10000 3 350 23:19 05.06.2020
1831 Clear 11 1008 81 10000 3 360 22:56 05.06.2020
1832 Clear 10 1008 87 10000 2 360 22:37 05.06.2020
1833 Clear 10 1008 87 10000 2 360 22:19 05.06.2020
1834 Clear 10 1008 81 10000 3 350 21:42 05.06.2020
1835 Clear 10 1008 81 10000 3 350 21:22 05.06.2020
1836 Clear 10 1008 87 10000 3 340 20:58 05.06.2020
1837 Clear 10 1008 87 10000 4 350 20:39 05.06.2020
1838 Clouds 10 1008 87 10000 4 350 20:21 05.06.2020
1839 Clouds 9 1008 87 10000 2 320 19:42 05.06.2020
1840 Clouds 9 1008 87 10000 2 320 19:23 05.06.2020
1841 Clouds 10 1008 81 10000 2 320 18:57 05.06.2020
1842 Clouds 10 1008 81 10000 3 330 18:38 05.06.2020
1843 Clouds 10 1008 81 10000 3 330 18:19 05.06.2020
1844 Clouds 10 1008 81 10000 3 330 17:57 05.06.2020
1845 Clouds 10 1008 81 10000 2 330 17:39 05.06.2020
1846 Clouds 10 1008 81 10000 2 330 17:19 05.06.2020
1847 Clouds 11 1008 81 10000 1 50 16:39 05.06.2020
1848 Clouds 11 1008 81 10000 1 50 16:39 05.06.2020
1849 Clouds 11 1008 81 10000 1 50 16:20 05.06.2020
1850 Clouds 13 1008 71 10000 1 80 15:55 05.06.2020
1851 Clouds 13 1008 71 10000 1 80 15:55 05.06.2020
1852 Clouds 14 1008 67 10000 3 110 15:36 05.06.2020
1853 Clear 14 1008 67 10000 3 110 15:18 05.06.2020
1854 Clear 15 1008 62 10000 2 110 14:41 05.06.2020
1855 Clouds 15 1008 62 10000 2 110 14:22 05.06.2020
1856 Clouds 16 1008 59 10000 2 100 13:59 05.06.2020
1857 Clouds 17 1008 55 10000 2 100 13:40 05.06.2020
1858 Clouds 17 1008 55 10000 2 100 13:22 05.06.2020
1859 Clouds 18 1008 52 10000 3 90 12:42 05.06.2020
1860 Clouds 18 1008 52 10000 3 90 12:20 05.06.2020
1861 Clouds 19 1008 45 10000 3 100 11:56 05.06.2020
1862 Clouds 20 1007 42 10000 3 80 11:38 05.06.2020
1863 Clouds 20 1007 42 10000 3 80 11:20 05.06.2020
1864 Clouds 20 1007 40 10000 3 100 10:54 05.06.2020
1865 Clouds 20 1007 40 10000 3 110 10:36 05.06.2020
1866 Clear 20 1007 40 10000 3 110 10:18 05.06.2020
1867 Clear 20 1007 42 10000 3 120 09:54 05.06.2020
1868 Clear 20 1008 42 10000 4 120 09:36 05.06.2020
1869 Clear 20 1008 42 10000 4 120 09:18 05.06.2020
1870 Clear 20 1008 42 10000 4 120 08:41 05.06.2020
1871 Clouds 20 1008 42 10000 4 120 08:19 05.06.2020
1872 Clouds 21 1008 37 10000 3 120 07:55 05.06.2020
1873 Clouds 20 1008 40 10000 3 100 07:36 05.06.2020
1874 Clouds 20 1008 40 10000 2 140 06:54 05.06.2020
1875 Clouds 19 1009 42 10000 2 150 05:41 05.06.2020
1876 Clouds 19 1009 42 10000 2 150 05:18 05.06.2020
1877 Clouds 18 1009 45 10000 3 150 03:53 05.06.2020
1878 Clouds 16 1009 51 10000 4 150 02:44 05.06.2020
1879 Clouds 16 1009 51 10000 4 150 02:18 05.06.2020
1880 Clouds 16 1009 51 10000 4 140 01:49 05.06.2020
1881 Clouds 14 1009 58 10000 3 150 00:59 05.06.2020
1882 Clouds 12 1009 71 10000 3 140 00:39 05.06.2020
1883 Clouds 12 1009 66 10000 4 150 00:19 05.06.2020
1884 Clouds 13 1009 66 10000 2 150 23:46 04.06.2020
1885 Clouds 13 1009 66 10000 2 150 23:25 04.06.2020
1886 Clouds 12 1009 66 10000 2 160 22:45 04.06.2020
1887 Clouds 12 1009 66 10000 2 160 22:23 04.06.2020
1888 Clouds 12 1009 66 10000 2 170 21:59 04.06.2020
1889 Clouds 11 1009 71 10000 1 170 21:41 04.06.2020
1890 Clouds 11 1009 71 10000 1 170 21:22 04.06.2020
1891 Clouds 11 1009 76 10000 1 190 20:59 04.06.2020
1892 Clouds 12 1009 71 10000 2 150 20:40 04.06.2020
1893 Clouds 12 1009 76 10000 1 150 20:21 04.06.2020
1894 Clouds 12 1009 76 10000 1 140 19:58 04.06.2020
1895 Clouds 12 1009 76 10000 1 140 19:38 04.06.2020
1896 Clouds 13 1009 54 10000 2 190 19:20 04.06.2020
1897 Clouds 12 1009 58 10000 2 200 18:54 04.06.2020
1898 Clouds 12 1009 58 10000 2 200 18:36 04.06.2020
1899 Clouds 13 1009 54 10000 2 190 18:18 04.06.2020
1900 Clouds 14 1009 50 10000 3 190 17:41 04.06.2020
1901 Clouds 14 1009 50 10000 3 190 17:21 04.06.2020
1902 Clouds 15 1009 51 10000 5 190 16:41 04.06.2020
1903 Clouds 15 1009 51 10000 5 190 16:21 04.06.2020
1904 Clouds 16 1008 51 10000 6 190 15:58 04.06.2020
1905 Clouds 17 1008 45 10000 7 190 15:40 04.06.2020
1906 Clouds 17 1008 45 10000 7 190 15:22 04.06.2020
1907 Clouds 17 1008 45 10000 7 190 15:22 04.06.2020
1908 Clouds 19 1007 34 10000 2 180 14:39 04.06.2020
1909 Clouds 19 1007 34 10000 2 180 14:20 04.06.2020
1910 Clouds 20 1007 32 10000 3 190 13:56 04.06.2020
1911 Clouds 20 1007 32 10000 4 180 13:37 04.06.2020
1912 Clouds 20 1007 32 10000 5 160 13:19 04.06.2020
1913 Clouds 20 1007 32 10000 5 160 12:54 04.06.2020
1914 Clouds 22 1007 26 10000 3 160 12:36 04.06.2020
1915 Clouds 21 1007 30 10000 2 70 12:18 04.06.2020
1916 Clouds 22 1007 26 10000 2 80 11:39 04.06.2020
1917 Clouds 22 1007 26 10000 2 80 11:20 04.06.2020
1918 Clouds 23 1007 23 10000 4 70 10:58 04.06.2020
1919 Clouds 24 1007 22 10000 2 90 10:38 04.06.2020
1920 Clouds 24 1007 22 10000 2 90 10:20 04.06.2020
1921 Clouds 23 1007 29 10000 2 70 09:45 04.06.2020
1922 Clouds 23 1007 27 10000 2 70 09:27 04.06.2020
1923 Clouds 23 1007 23 10000 2 80 08:50 04.06.2020
1924 Clouds 23 1007 27 10000 2 80 08:30 04.06.2020
1925 Clouds 23 1007 25 10000 3 80 07:59 04.06.2020
1926 Clouds 22 1007 28 10000 3 60 07:30 04.06.2020
1927 Clouds 23 1008 27 10000 5 70 06:45 04.06.2020
1928 Clouds 24 1007 22 10000 2 90 06:26 04.06.2020
1929 Clouds 24 1008 19 10000 1 140 05:51 04.06.2020
1930 Clouds 24 1008 19 10000 1 140 05:30 04.06.2020
1931 Clouds 22 1008 19 10000 1 70 03:31 04.06.2020
1932 Clear 18 1009 39 10000 2 90 01:59 04.06.2020
1933 Clear 17 1009 55 10000 2 50 01:20 04.06.2020
1934 Clear 16 1009 51 10000 2 350 00:51 04.06.2020
1935 Clear 14 1009 58 10000 1 330 23:56 03.06.2020
1936 Clear 12 1009 62 10000 1 340 23:36 03.06.2020
1937 Clear 12 1009 62 10000 1 340 23:18 03.06.2020
1938 Clear 8 1008 70 10000 1 310 22:40 03.06.2020
1939 Clear 8 1008 70 10000 1 310 22:19 03.06.2020
1940 Clear 7 1008 75 10000 2 300 21:59 03.06.2020
1941 Clear 6 1008 81 10000 2 300 21:40 03.06.2020
1942 Clear 6 1008 81 10000 2 300 21:21 03.06.2020
1943 Clear 6 1008 81 10000 2 300 21:21 03.06.2020
1944 Clear 6 1008 81 10000 2 290 20:58 03.06.2020
1945 Clear 6 1008 81 10000 3 300 20:39 03.06.2020
1946 Clear 6 1008 81 10000 3 300 20:20 03.06.2020
1947 Clear 7 1008 75 10000 2 300 19:57 03.06.2020
1948 Clear 7 1008 75 10000 2 300 19:37 03.06.2020
1949 Clear 7 1008 75 10000 2 300 19:37 03.06.2020
1950 Clear 8 1008 75 10000 2 300 19:19 03.06.2020
1951 Clear 8 1008 75 10000 2 300 18:55 03.06.2020
1952 Clear 9 1008 70 10000 2 310 18:37 03.06.2020
1953 Clear 10 1007 71 10000 2 300 18:18 03.06.2020
1954 Clear 10 1007 71 10000 2 300 17:42 03.06.2020
1955 Clear 10 1007 71 10000 2 300 17:21 03.06.2020
1956 Clear 11 1007 66 10000 2 300 16:56 03.06.2020
1957 Clear 12 1007 62 10000 2 310 16:38 03.06.2020
1958 Clear 12 1007 62 10000 2 310 16:38 03.06.2020
1959 Clear 12 1007 62 10000 2 310 16:19 03.06.2020
1960 Clear 15 1007 51 10000 2 360 15:41 03.06.2020
1961 Clear 15 1007 51 10000 2 360 15:21 03.06.2020
1962 Clear 16 1007 48 10000 2 350 14:59 03.06.2020
1963 Clear 17 1007 48 10000 2 10 14:40 03.06.2020
1964 Clouds 17 1007 48 10000 2 10 14:21 03.06.2020
1965 Clouds 20 1007 34 10000 4 20 13:39 03.06.2020
1966 Clouds 21 1007 28 10000 4 30 13:20 03.06.2020
1967 Clouds 22 1006 24 10000 4 20 12:43 03.06.2020
1968 Clouds 22 1006 24 10000 4 20 12:22 03.06.2020
1969 Clouds 22 1006 24 10000 4 20 11:57 03.06.2020
1970 Clouds 22 1006 24 10000 4 20 11:39 03.06.2020
1971 Clouds 22 1006 24 10000 4 20 11:21 03.06.2020
1972 Clouds 23 1006 23 10000 2 40 10:42 03.06.2020
1973 Clouds 23 1006 23 10000 2 40 10:24 03.06.2020
1974 Clouds 23 1006 28 10000 2 20 09:45 03.06.2020
1975 Clouds 23 1006 27 10000 2 20 09:21 03.06.2020
1976 Clouds 23 1007 23 10000 3 30 08:59 03.06.2020
1977 Clouds 23 1007 23 10000 2 60 08:40 03.06.2020
1978 Clouds 22 1007 26 10000 3 80 08:19 03.06.2020
1979 Clouds 22 1007 26 10000 3 80 07:43 03.06.2020
1980 Clouds 22 1007 26 10000 2 100 07:20 03.06.2020
1981 Clouds 22 1007 26 10000 2 100 06:54 03.06.2020
1982 Clouds 22 1007 26 10000 2 50 06:32 03.06.2020
1983 Clear 21 1008 28 10000 3 80 05:47 03.06.2020
1984 Clear 21 1008 28 10000 2 80 04:57 03.06.2020
1985 Clear 20 1008 32 10000 2 50 03:51 03.06.2020
1986 Clear 20 1008 32 10000 2 80 03:20 03.06.2020
1987 Clear 16 1008 48 10000 1 50 01:53 03.06.2020
1988 Clear 13 1008 58 10000 1 50 00:44 03.06.2020
1989 Clear 13 1008 58 10000 1 50 00:25 03.06.2020
1990 Clear 13 1008 58 10000 1 80 23:52 02.06.2020
1991 Clear 12 1008 62 10000 2 60 23:28 02.06.2020
1992 Clear 12 1008 62 10000 2 60 23:28 02.06.2020
1993 Clear 11 1008 66 10000 1 360 22:57 02.06.2020
1994 Clear 9 1008 70 10000 1 320 22:38 02.06.2020
1995 Clear 9 1008 70 10000 1 320 22:19 02.06.2020
1996 Clear 8 1008 70 10000 1 340 21:56 02.06.2020
1997 Clear 6 1008 75 10000 2 350 21:38 02.06.2020
1998 Clear 6 1008 75 10000 2 350 21:19 02.06.2020
1999 Clear 5 1007 75 10000 3 300 20:58 02.06.2020
2000 Clear 5 1007 75 10000 2 300 20:39 02.06.2020
2001 Clouds 5 1007 75 10000 2 300 20:20 02.06.2020
2002 Clouds 6 1007 75 10000 3 300 19:43 02.06.2020
2003 Clouds 6 1007 75 10000 3 300 19:25 02.06.2020
2004 Clouds 6 1007 70 10000 2 310 18:58 02.06.2020
2005 Clouds 7 1007 70 10000 3 310 18:39 02.06.2020
2006 Clouds 7 1007 70 10000 3 310 18:20 02.06.2020
2007 Clouds 8 1007 65 10000 3 320 17:55 02.06.2020
2008 Clouds 9 1007 66 10000 2 310 17:37 02.06.2020
2009 Clouds 9 1007 66 10000 2 310 17:18 02.06.2020
2010 Clouds 11 1006 62 10000 1 360 16:41 02.06.2020
2011 Clouds 11 1006 62 10000 1 360 16:21 02.06.2020
2012 Clouds 12 1006 58 10000 1 30 15:59 02.06.2020
2013 Clouds 13 1006 54 10000 2 10 15:40 02.06.2020
2014 Clouds 13 1006 54 10000 2 10 15:20 02.06.2020
2015 Clouds 15 1006 47 10000 2 40 14:46 02.06.2020
2016 Clouds 16 1006 41 10000 2 40 14:27 02.06.2020
2017 Clouds 18 1006 34 10000 2 30 13:55 02.06.2020
2018 Clouds 19 1006 29 10000 3 40 13:36 02.06.2020
2019 Clouds 19 1006 29 10000 3 30 13:18 02.06.2020
2020 Clouds 19 1006 29 10000 3 30 12:54 02.06.2020
2021 Clouds 20 1005 40 10000 2 60 12:36 02.06.2020
2022 Clouds 20 1005 40 10000 2 60 12:36 02.06.2020
2023 Clouds 21 1005 21 10000 3 30 12:18 02.06.2020
2024 Clouds 21 1005 22 10000 2 60 11:40 02.06.2020
2025 Clouds 21 1005 22 10000 2 60 11:21 02.06.2020
2026 Clouds 21 1005 19 10000 2 80 10:55 02.06.2020
2027 Clouds 21 1005 19 10000 2 80 10:37 02.06.2020
2028 Clouds 21 1005 19 10000 2 80 10:18 02.06.2020
2029 Clouds 21 1005 18 10000 3 80 09:42 02.06.2020
2030 Clouds 21 1005 18 10000 3 80 09:21 02.06.2020
2031 Clouds 21 1005 19 10000 3 70 08:53 02.06.2020
2032 Clouds 21 1006 19 10000 3 60 08:28 02.06.2020
2033 Clouds 21 1006 21 10000 3 80 07:55 02.06.2020
2034 Clouds 21 1006 21 10000 3 80 07:32 02.06.2020
2035 Clouds 21 1006 19 10000 3 80 06:58 02.06.2020
2036 Clouds 21 1006 18 10000 2 80 06:36 02.06.2020
2037 Clouds 21 1006 18 10000 2 110 05:31 02.06.2020
2038 Clear 19 1006 25 10000 3 90 04:20 02.06.2020
2039 Clear 15 1007 26 10000 1 100 02:37 02.06.2020
2040 Clear 13 1007 30 10000 1 70 01:48 02.06.2020
2041 Clear 12 1007 62 10000 1 90 00:40 02.06.2020
2042 Clear 12 1007 62 10000 1 90 00:20 02.06.2020
2043 Clear 9 1007 61 10000 1.47 225 23:39 01.06.2020
2044 Clear 9 1007 61 10000 1.11 218 23:19 01.06.2020
2045 Clear 7 1007 65 10000 1.11 218 22:56 01.06.2020
2046 Clear 5 1007 44 10000 1 270 22:38 01.06.2020
2047 Clear 5 1007 56 10000 1 270 22:18 01.06.2020
2048 Clear 3 1006 74 10000 1 290 21:41 01.06.2020
2049 Clear 3 1006 74 10000 1 290 21:21 01.06.2020
2050 Clear 2 1006 80 10000 2 260 20:59 01.06.2020
2051 Clear 3 1006 74 10000 2 300 20:41 01.06.2020
2052 Clouds 3 1006 74 10000 2 300 20:20 01.06.2020
2053 Clouds 3 1006 74 10000 2 300 19:58 01.06.2020
2054 Clouds 4 1006 69 10000 2 310 19:39 01.06.2020
2055 Clouds 5 1006 65 10000 1 320 19:20 01.06.2020
2056 Clouds 5 1006 65 10000 1 320 18:57 01.06.2020
2057 Clouds 5 1006 60 10000 2 320 18:38 01.06.2020
2058 Clouds 6 1006 70 10000 1 320 18:19 01.06.2020
2059 Clouds 6 1006 70 10000 1 240 17:41 01.06.2020
2060 Clouds 6 1006 70 10000 1 240 17:21 01.06.2020
2061 Clouds 7 1006 70 10000 1 270 16:58 01.06.2020
2062 Clouds 9 1006 66 10000 1 250 16:39 01.06.2020
2063 Clouds 9 1006 61 10000 2 230 16:18 01.06.2020
2064 Clouds 9 1006 61 10000 2 230 15:54 01.06.2020
2065 Clouds 11 1006 50 10000 2 230 15:36 01.06.2020
2066 Clouds 11 1006 50 10000 2 230 15:18 01.06.2020
2067 Clouds 14 1006 35 10000 2 190 14:41 01.06.2020
2068 Clouds 14 1006 35 10000 2 190 14:21 01.06.2020
2069 Clouds 17 1006 29 10000 2 170 13:58 01.06.2020
2070 Clouds 17 1006 29 10000 2 170 13:39 01.06.2020
2071 Clouds 17 1006 29 10000 2 170 13:20 01.06.2020
2072 Clouds 18 1006 27 10000 2 170 12:57 01.06.2020
2073 Clouds 17 1006 27 10000 4 170 12:39 01.06.2020
2074 Clouds 17 1006 27 10000 4 170 12:20 01.06.2020
2075 Clouds 17 1006 29 10000 4 130 11:41 01.06.2020
2076 Clouds 17 1006 29 10000 4 130 11:23 01.06.2020
2077 Clouds 18 1006 25 10000 4 160 10:59 01.06.2020
2078 Clouds 18 1006 27 10000 4 150 10:39 01.06.2020
2079 Clouds 18 1006 27 10000 4 150 10:20 01.06.2020
2080 Clouds 19 1006 24 10000 4 170 09:56 01.06.2020
2081 Clouds 18 1006 27 10000 5 140 09:38 01.06.2020
2082 Clouds 18 1006 27 10000 5 140 09:19 01.06.2020
2083 Clouds 18 1006 27 10000 5 150 08:46 01.06.2020
2084 Clouds 18 1006 27 10000 5 150 08:25 01.06.2020
2085 Clouds 16 1007 31 10000 4 130 07:45 01.06.2020
2086 Clouds 16 1007 31 10000 4 130 07:27 01.06.2020
2087 Clouds 17 1007 27 10000 5 130 06:57 01.06.2020
2088 Clouds 17 1007 29 10000 5 130 06:20 01.06.2020
2089 Clouds 17 1007 29 10000 5 130 05:50 01.06.2020
2090 Clouds 16 1008 26 10000 4 130 04:23 01.06.2020
2091 Clouds 15 1009 33 10000 3 140 03:46 01.06.2020
2092 Clear 15 1009 33 10000 3 140 03:24 01.06.2020
2093 Clouds 13 1009 50 10000 2 110 01:50 01.06.2020
2094 Clouds 12 1009 58 10000 1 90 01:30 01.06.2020
2095 Clouds 11 1009 57 10000 1 130 00:57 01.06.2020
2096 Clouds 9 1009 70 10000 1 100 00:39 01.06.2020
2097 Clouds 9 1009 70 10000 1 100 00:21 01.06.2020
2098 Clouds 9 1009 66 10000 1 130 23:56 31.05.2020
2099 Clouds 7 1009 65 10000 1.87 201 23:37 31.05.2020
2100 Clouds 7 1009 65 10000 2.07 190 23:19 31.05.2020
2101 Clouds 2 1009 80 10000 1 310 22:43 31.05.2020
2102 Clouds 2 1009 80 10000 1 310 22:25 31.05.2020
2103 Clouds 1 1009 80 10000 2 290 21:58 31.05.2020
2104 Clouds 0 1009 62 10000 1 290 21:39 31.05.2020
2105 Clouds 0 1009 62 10000 1 290 21:39 31.05.2020
2106 Clear 0 1009 73 10000 1 290 21:21 31.05.2020
2107 Clouds 0 1009 71 10000 1 290 21:21 31.05.2020
2108 Clouds 0 1009 71 10000 2 280 20:57 31.05.2020
2109 Clouds 0 1009 71 10000 2 300 20:38 31.05.2020
2110 Clear 0 1009 75 10000 2 300 20:19 31.05.2020
2111 Clear 1 1008 86 10000 2 300 19:54 31.05.2020
2112 Clear 1 1008 86 10000 2 300 19:36 31.05.2020
2113 Clear 1 1008 86 10000 2 300 19:18 31.05.2020
2114 Clear 2 1008 80 10000 3 320 18:43 31.05.2020
2115 Clear 2 1008 80 10000 3 320 18:24 31.05.2020
2116 Clouds 3 1008 71 10000 2 320 17:45 31.05.2020
2117 Clouds 3 1008 67 10000 2 320 17:25 31.05.2020
2118 Clouds 4 1008 67 10000 2 330 16:58 31.05.2020
2119 Clouds 4 1008 67 10000 2 330 16:58 31.05.2020
2120 Clouds 5 1008 75 10000 3 330 16:38 31.05.2020
2121 Clouds 5 1008 75 10000 3 330 16:18 31.05.2020
2122 Clear 8 1008 61 10000 2 330 15:39 31.05.2020
2123 Clear 8 1008 61 10000 2 330 15:21 31.05.2020
2124 Clear 11 1008 63 10000 1 10 14:47 31.05.2020
2125 Clouds 11 1008 55 10000 1 10 14:22 31.05.2020
2126 Clouds 12 1008 55 10000 1 40 13:56 31.05.2020
2127 Clouds 13 1007 55 10000 1 50 13:38 31.05.2020
2128 Clouds 13 1007 45 10000 1 50 13:20 31.05.2020
2129 Clouds 13 1007 37 10000 2 60 12:57 31.05.2020
2130 Clouds 13 1007 45 10000 3 60 12:37 31.05.2020
2131 Clouds 13 1007 37 10000 3 60 12:19 31.05.2020
2132 Clouds 14 1007 33 10000 3 40 11:48 31.05.2020
2133 Clouds 14 1007 33 10000 3 60 11:23 31.05.2020
2134 Clouds 14 1007 30 10000 3 70 10:57 31.05.2020
2135 Clouds 14 1007 33 10000 4 80 10:38 31.05.2020
2136 Clouds 14 1007 33 10000 4 80 10:19 31.05.2020
2137 Clouds 13 1007 35 10000 3 80 09:42 31.05.2020
2138 Clouds 13 1007 35 10000 3 80 09:23 31.05.2020
2139 Clouds 13 1007 35 10000 4 70 08:58 31.05.2020
2140 Clouds 14 1007 33 10000 3 120 08:37 31.05.2020
2141 Clouds 14 1007 33 10000 3 120 08:19 31.05.2020
2142 Clouds 13 1007 35 10000 3 150 07:43 31.05.2020
2143 Clouds 13 1007 35 10000 3 150 07:21 31.05.2020
2144 Clouds 12 1007 40 10000 2 100 06:54 31.05.2020
2145 Clouds 13 1007 35 10000 2 100 06:31 31.05.2020
2146 Clouds 13 1008 37 10000 2 110 05:44 31.05.2020
2147 Clouds 12 1008 40 10000 3 140 04:31 31.05.2020
2148 Clouds 11 1009 38 10000 3 150 03:49 31.05.2020
2149 Clouds 10 1009 38 10000 4 140 02:59 31.05.2020
2150 Clouds 10 1009 41 10000 2 160 01:50 31.05.2020
2151 Clouds 8 1009 52 10000 2 190 01:27 31.05.2020
2152 Clear 8 1009 52 10000 2 190 00:31 31.05.2020
2153 Clear 7 1009 52 10000 2 190 23:59 30.05.2020
2154 Clear 7 1009 65 10000 2 170 23:39 30.05.2020
2155 Clear 7 1009 65 10000 2 170 23:21 30.05.2020
2156 Clear 5 1009 60 10000 3 170 22:41 30.05.2020
2157 Clear 5 1009 68 10000 3 170 22:23 30.05.2020
2158 Clear 5 1009 75 10000 2 160 21:56 30.05.2020
2159 Clear 5 1009 75 10000 2 160 21:38 30.05.2020
2160 Clear 5 1009 75 10000 2 160 21:20 30.05.2020
2161 Clear 5 1009 75 10000 2 160 20:56 30.05.2020
2162 Clear 5 1009 79 10000 2 160 20:38 30.05.2020
2163 Clouds 5 1009 81 10000 2 160 20:20 30.05.2020
2164 Clouds 5 1010 81 10000 2 150 19:43 30.05.2020
2165 Clouds 5 1010 77 10000 2 150 19:22 30.05.2020
2166 Clouds 5 1010 60 10000 1.79 220 18:46 30.05.2020
2167 Clouds 5 1010 60 10000 1.78 216 18:25 30.05.2020
2168 Clouds 5 1010 60 10000 1.78 216 18:25 30.05.2020
2169 Clouds 6 1010 56 10000 2 250 17:56 30.05.2020
2170 Clouds 5 1010 65 10000 3 210 17:38 30.05.2020
2171 Clouds 5 1010 65 10000 3 210 17:19 30.05.2020
2172 Clouds 4 1010 69 10000 2 200 16:43 30.05.2020
2173 Clouds 4 1010 69 10000 2 200 16:23 30.05.2020
2174 Clouds 5 1010 60 10000 2 180 15:56 30.05.2020
2175 Clouds 6 1010 56 10000 2 180 15:38 30.05.2020
2176 Clouds 6 1010 56 10000 2 180 15:19 30.05.2020
2177 Clouds 7 1010 48 10000 2 170 14:42 30.05.2020
2178 Clouds 7 1010 48 10000 2 170 14:21 30.05.2020
2179 Clouds 8 1010 45 10000 1 180 13:42 30.05.2020
2180 Clouds 8 1010 45 10000 1 180 13:20 30.05.2020
2181 Clouds 8 1010 42 10000 1.12 261 12:40 30.05.2020
2182 Clouds 8 1010 42 10000 2.17 287 12:20 30.05.2020
2183 Clouds 8 1010 42 10000 2.17 287 11:56 30.05.2020
2184 Clouds 8 1010 42 10000 2 330 11:38 30.05.2020
2185 Clouds 8 1010 42 10000 2 330 11:20 30.05.2020
2186 Clouds 9 1010 34 10000 2 300 10:39 30.05.2020
2187 Clouds 9 1010 34 10000 2 300 10:39 30.05.2020
2188 Clouds 9 1010 34 10000 2 300 10:21 30.05.2020
2189 Clouds 9 1010 34 10000 3 270 09:47 30.05.2020
2190 Clouds 9 1010 34 10000 3 270 09:29 30.05.2020
2191 Clouds 8 1010 33 10000 3 250 08:47 30.05.2020
2192 Clouds 8 1010 33 10000 3 250 08:28 30.05.2020
2193 Clouds 9 1010 34 10000 3 240 07:44 30.05.2020
2194 Clouds 9 1010 34 10000 3 240 07:44 30.05.2020
2195 Clouds 9 1010 34 10000 3 240 07:21 30.05.2020
2196 Clouds 7 1011 42 10000 4 270 06:39 30.05.2020
2197 Clouds 7 1011 42 10000 4 270 06:20 30.05.2020
2198 Clouds 7 1011 42 10000 4 260 05:49 30.05.2020
2199 Clouds 6 1011 48 10000 4 290 03:39 30.05.2020
2200 Clouds 6 1012 52 10000 4 270 02:30 30.05.2020
2201 Clear 5 1012 56 10000 4 280 01:46 30.05.2020
2202 Clear 4 1012 64 10000 4 260 00:38 30.05.2020
2203 Clear 4 1012 64 10000 4 260 00:19 30.05.2020
2204 Clear 4 1012 64 10000 3 270 23:55 29.05.2020
2205 Clear 3 1011 69 10000 3 260 23:36 29.05.2020
2206 Clear 3 1011 69 10000 3 260 23:18 29.05.2020
2207 Clear 3 1011 69 10000 3 270 22:40 29.05.2020
2208 Clear 3 1011 69 10000 3 270 22:19 29.05.2020
2209 Clouds 2 1011 74 10000 4 270 21:58 29.05.2020
2210 Clouds 2 1011 74 10000 4 260 21:37 29.05.2020
2211 Clouds 2 1011 74 10000 4 260 21:18 29.05.2020
2212 Clouds 2 1011 69 10000 4 270 20:45 29.05.2020
2213 Clouds 2 1011 69 10000 4 270 20:20 29.05.2020
2214 Clouds 2 1011 69 10000 3 270 19:59 29.05.2020
2215 Clouds 3 1011 64 10000 4 270 19:39 29.05.2020
2216 Clouds 3 1011 64 10000 4 270 19:21 29.05.2020
2217 Clouds 3 1011 64 10000 4 260 18:46 29.05.2020
2218 Clouds 3 1011 64 10000 4 260 18:20 29.05.2020
2219 Clouds 3 1011 64 10000 3 260 17:56 29.05.2020
2220 Clouds 3 1010 64 10000 4 260 17:38 29.05.2020
2221 Clouds 3 1010 64 10000 4 260 17:19 29.05.2020
2222 Clouds 4 1010 60 10000 4 250 16:43 29.05.2020
2223 Clouds 4 1010 60 10000 4 250 16:25 29.05.2020
2224 Clouds 4 1010 60 10000 4 250 15:57 29.05.2020
2225 Clouds 4 1010 60 10000 4 250 15:38 29.05.2020
2226 Clouds 4 1010 60 10000 4 250 15:19 29.05.2020
2227 Clouds 4 1010 55 10000 3 260 14:49 29.05.2020
2228 Clouds 4 1010 55 10000 4 260 14:23 29.05.2020
2229 Clouds 4 1010 55 10000 4 260 13:58 29.05.2020
2230 Clouds 4 1010 55 10000 4 260 13:58 29.05.2020
2231 Clouds 5 1009 56 10000 4 270 13:39 29.05.2020
2232 Clouds 5 1009 56 10000 4 270 13:18 29.05.2020
2233 Clouds 5 1009 56 10000 4 260 12:43 29.05.2020
2234 Clouds 5 1009 56 10000 4 260 12:24 29.05.2020
2235 Clouds 5 1009 52 10000 4 280 11:45 29.05.2020
2236 Clouds 5 1009 52 10000 4 280 11:27 29.05.2020
2237 Clouds 5 1009 56 10000 3 260 10:58 29.05.2020
2238 Clouds 4 1008 64 10000 3 290 10:38 29.05.2020
2239 Clouds 4 1008 64 10000 3 290 10:19 29.05.2020
2240 Clouds 6 1008 48 10000 6 260 09:44 29.05.2020
2241 Clouds 6 1008 48 10000 6 260 09:20 29.05.2020
2242 Clouds 6 1008 48 10000 7 260 08:56 29.05.2020
2243 Clouds 6 1008 48 10000 5 260 08:37 29.05.2020
2244 Clouds 6 1008 48 10000 5 260 08:19 29.05.2020
2245 Clouds 6 1007 45 10000 6 270 07:40 29.05.2020
2246 Clouds 6 1007 45 10000 6 270 07:22 29.05.2020
2247 Clouds 6 1007 45 10000 6 250 06:48 29.05.2020
2248 Clouds 5 1007 48 10000 7 260 06:28 29.05.2020
2249 Clouds 5 1007 52 10000 7 260 05:53 29.05.2020
2250 Clouds 4 1006 55 10000 7 260 03:44 29.05.2020
2251 Clouds 3 1005 59 10000 8 270 01:46 29.05.2020
2252 Clouds 3 1005 59 10000 8 270 01:23 29.05.2020
2253 Clouds 3 1005 64 10000 6 280 00:47 29.05.2020
2254 Clouds 3 1005 64 10000 6 280 00:22 29.05.2020
2255 Clouds 2 1004 69 10000 6 270 23:40 28.05.2020
2256 Clouds 2 1004 69 10000 6 270 23:19 28.05.2020
2257 Clouds 2 1004 69 10000 4 260 22:45 28.05.2020
2258 Clouds 2 1004 69 10000 4 260 22:45 28.05.2020
2259 Clouds 2 1004 69 10000 4 260 22:45 28.05.2020
2260 Clouds 2 1004 69 10000 4 260 22:27 28.05.2020
2261 Clouds 1 1003 74 10000 5 260 21:59 28.05.2020
2262 Clouds 1 1003 80 10000 4 250 21:40 28.05.2020
2263 Clouds 1 1003 80 10000 4 250 21:20 28.05.2020
2264 Clouds 1 1003 80 10000 4 260 20:58 28.05.2020
2265 Clouds 1 1003 80 10000 4 260 20:40 28.05.2020
2266 Clouds 1 1003 80 10000 4 260 20:19 28.05.2020
2267 Clouds 2 1002 69 10000 5 260 19:57 28.05.2020
2268 Clouds 2 1002 74 10000 4 260 19:39 28.05.2020
2269 Clouds 2 1002 74 10000 4 260 19:20 28.05.2020
2270 Clouds 2 1001 74 10000 5 260 18:46 28.05.2020
2271 Clouds 2 1001 74 10000 5 260 18:27 28.05.2020
2272 Clouds 3 1001 69 10000 4 260 17:59 28.05.2020
2273 Clouds 3 1001 74 10000 5 280 17:39 28.05.2020
2274 Clouds 3 1001 74 10000 5 280 17:20 28.05.2020
2275 Clouds 4 1000 75 10000 6 300 16:46 28.05.2020
2276 Clouds 4 1000 70 10000 6 300 16:21 28.05.2020
2277 Clouds 5 999 75 10000 5 300 15:54 28.05.2020
2278 Clouds 6 998 75 10000 5 290 15:36 28.05.2020
2279 Clouds 7 998 75 10000 4 290 15:18 28.05.2020
2280 Clouds 7 997 81 10000 4 290 14:41 28.05.2020
2281 Clouds 7 997 81 10000 4 290 14:22 28.05.2020
2282 Clouds 8 996 81 10000 5 290 13:46 28.05.2020
2283 Clouds 8 996 81 10000 5 290 13:27 28.05.2020
2284 Clouds 9 995 87 10000 6 300 12:44 28.05.2020
2285 Clouds 9 995 87 10000 6 300 12:20 28.05.2020
2286 Rain 10 995 87 10000 4 300 11:57 28.05.2020
2287 Rain 10 994 87 10000 5 270 11:39 28.05.2020
2288 Rain 10 994 87 10000 5 270 11:20 28.05.2020
2289 Rain 12 993 81 10000 5 250 10:46 28.05.2020
2290 Rain 12 993 81 10000 5 250 10:28 28.05.2020
2291 Rain 13 992 76 10000 6 250 09:57 28.05.2020
2292 Rain 14 992 67 10000 9 270 09:38 28.05.2020
2293 Rain 14 992 67 10000 9 270 09:18 28.05.2020
2294 Clouds 17 991 55 10000 7 260 08:44 28.05.2020
2295 Clouds 17 991 55 10000 7 260 08:24 28.05.2020
2296 Clouds 19 990 48 10000 6 250 07:43 28.05.2020
2297 Clouds 19 990 48 10000 6 250 07:23 28.05.2020
2298 Clouds 20 989 49 10000 5 260 06:45 28.05.2020
2299 Clouds 20 989 49 10000 5 260 06:27 28.05.2020
2300 Clouds 20 989 49 10000 7 250 05:39 28.05.2020
2301 Clouds 21 988 46 10000 6 250 04:38 28.05.2020
2302 Clouds 21 988 46 10000 7 250 04:18 28.05.2020
2303 Clouds 20 987 49 10000 7 240 02:59 28.05.2020
2304 Clouds 21 987 46 10000 7 250 02:38 28.05.2020
2305 Clouds 20 986 49 10000 7 240 01:45 28.05.2020
2306 Clouds 20 986 49 10000 6 260 00:50 28.05.2020
2307 Clouds 19 986 52 10000 6 250 00:21 28.05.2020
2308 Clouds 19 985 48 10000 6 240 23:56 27.05.2020
2309 Clouds 18 985 55 10000 4 210 23:38 27.05.2020
2310 Clouds 18 985 55 10000 4 210 23:19 27.05.2020
2311 Clouds 15 984 67 10000 2 170 22:42 27.05.2020
2312 Clouds 15 984 67 10000 2 170 22:23 27.05.2020
2313 Clouds 15 984 67 10000 3 180 21:57 27.05.2020
2314 Clouds 14 984 76 10000 2 160 21:39 27.05.2020
2315 Clouds 14 984 76 10000 2 160 21:39 27.05.2020
2316 Clouds 14 984 76 10000 2 160 21:20 27.05.2020
2317 Clouds 14 984 76 10000 1 120 20:58 27.05.2020
2318 Clouds 14 984 76 10000 2 80 20:39 27.05.2020
2319 Clouds 14 984 76 10000 2 80 20:19 27.05.2020
2320 Clouds 15 985 77 10000 4 350 19:46 27.05.2020
2321 Clouds 15 985 77 10000 4 350 19:21 27.05.2020
2322 Clouds 14 985 82 10000 2 330 18:56 27.05.2020
2323 Clouds 14 985 76 10000 1 310 18:37 27.05.2020
2324 Clouds 14 985 76 10000 1 20 18:18 27.05.2020
2325 Clouds 16 986 72 10000 3 70 17:42 27.05.2020
2326 Clouds 16 986 72 10000 3 70 17:24 27.05.2020
2327 Clouds 15 986 72 10000 3 60 16:56 27.05.2020
2328 Clouds 19 987 59 10000 3 40 16:38 27.05.2020
2329 Clouds 19 987 59 10000 3 40 16:20 27.05.2020
2330 Clouds 18 987 63 10000 3 310 15:49 27.05.2020
2331 Clouds 18 987 63 10000 3 360 15:23 27.05.2020
2332 Clouds 18 987 63 10000 3 10 14:57 27.05.2020
2333 Clouds 19 987 59 10000 3 20 14:39 27.05.2020
2334 Clouds 19 987 59 10000 3 20 14:19 27.05.2020
2335 Clouds 22 987 40 10000 1 120 13:42 27.05.2020
2336 Clouds 22 987 40 10000 1 120 13:23 27.05.2020
2337 Clouds 22 987 40 10000 1 100 12:43 27.05.2020
2338 Clouds 22 987 40 10000 1 100 12:24 27.05.2020
2339 Clouds 24 987 33 10000 4 160 11:59 27.05.2020
2340 Clouds 27 987 21 10000 3 280 11:37 27.05.2020
2341 Clouds 27 987 21 10000 3 280 11:19 27.05.2020
2342 Clouds 27 987 21 10000 4 300 10:55 27.05.2020
2343 Clouds 26 987 24 10000 7 290 10:36 27.05.2020
2344 Clouds 27 987 28 10000 4 160 10:18 27.05.2020
2345 Clouds 28 987 26 10000 4 160 09:40 27.05.2020
2346 Clouds 28 987 26 10000 4 160 09:21 27.05.2020
2347 Clouds 28 987 24 10000 4 180 08:43 27.05.2020
2348 Clouds 28 987 24 10000 4 180 08:25 27.05.2020
2349 Clouds 28 988 23 10000 5 190 07:57 27.05.2020
2350 Thunderstorm 24 988 36 10000 5 200 07:38 27.05.2020
2351 Thunderstorm 24 988 36 10000 5 200 07:20 27.05.2020
2352 Clouds 27 989 24 10000 3 130 06:41 27.05.2020
2353 Clouds 27 989 24 10000 3 130 06:19 27.05.2020
2354 Clouds 25 989 31 10000 2 70 05:47 27.05.2020
2355 Clear 24 990 38 10000 3 70 04:19 27.05.2020
2356 Clear 23 991 38 10000 2 120 02:30 27.05.2020
2357 Clear 21 991 46 10000 1 120 01:53 27.05.2020
2358 Clear 19 991 52 10000 2 110 01:23 27.05.2020
2359 Clouds 19 991 52 10000 1 120 00:45 27.05.2020
2360 Clouds 18 991 55 10000 1 130 00:19 27.05.2020
2361 Clouds 16 991 59 10000 1 130 23:44 26.05.2020
2362 Clouds 16 991 59 10000 1 130 23:25 26.05.2020
2363 Clouds 14 991 62 10000 1 300 22:59 26.05.2020
2364 Clouds 14 991 71 10000 1.32 208 22:39 26.05.2020
2365 Clouds 14 991 71 10000 1.09 252 22:20 26.05.2020
2366 Clouds 14 991 71 10000 1.09 252 22:20 26.05.2020
2367 Clouds 14 991 71 10000 1 190 21:57 26.05.2020
2368 Clouds 14 992 71 10000 1 20 21:39 26.05.2020
2369 Clouds 14 992 71 10000 1 20 21:20 26.05.2020
2370 Clouds 15 992 58 10000 3 200 20:43 26.05.2020
2371 Clouds 15 992 58 10000 3 200 20:21 26.05.2020
2372 Clouds 16 992 55 10000 4 210 19:57 26.05.2020
2373 Clouds 15 992 58 10000 2 180 19:37 26.05.2020
2374 Clouds 15 992 58 10000 2 180 19:19 26.05.2020
2375 Clouds 16 992 55 10000 2 140 18:43 26.05.2020
2376 Clouds 16 992 55 10000 2 140 18:22 26.05.2020
2377 Clouds 17 992 51 10000 1 70 17:57 26.05.2020
2378 Clouds 17 992 51 10000 1 80 17:38 26.05.2020
2379 Clouds 17 992 51 10000 1 80 17:20 26.05.2020
2380 Clouds 20 993 37 10000 2 190 16:42 26.05.2020
2381 Clouds 20 993 37 10000 2 190 16:19 26.05.2020
2382 Clouds 20 993 34 10000 2 210 15:55 26.05.2020
2383 Clouds 22 993 30 10000 3 210 15:36 26.05.2020
2384 Clouds 19 994 45 10000 3 70 15:18 26.05.2020
2385 Clouds 23 994 28 10000 3 230 14:43 26.05.2020
2386 Clouds 23 994 28 10000 3 230 14:22 26.05.2020
2387 Clouds 24 994 29 10000 3 250 13:55 26.05.2020
2388 Clouds 25 994 25 10000 6 230 13:37 26.05.2020
2389 Clouds 25 994 25 10000 6 230 13:18 26.05.2020
2390 Clouds 25 994 27 10000 7 270 12:41 26.05.2020
2391 Clouds 25 994 27 10000 7 280 12:20 26.05.2020
2392 Clouds 25 994 27 10000 7 280 11:57 26.05.2020
2393 Clouds 28 994 17 10000 3 270 11:39 26.05.2020
2394 Clouds 30 994 20 10000 2 270 11:18 26.05.2020
2395 Clouds 30 994 13 10000 3 260 10:41 26.05.2020
2396 Clouds 30 994 13 10000 3 260 10:41 26.05.2020
2397 Clouds 30 994 13 10000 3 290 10:19 26.05.2020
2398 Clouds 30 994 11 10000 2 290 09:39 26.05.2020
2399 Clear 30 994 11 10000 2 290 09:20 26.05.2020
2400 Clear 29 995 13 10000 3 180 08:43 26.05.2020
2401 Clouds 29 995 13 10000 3 180 08:22 26.05.2020
2402 Clouds 27 996 19 10000 5 140 07:57 26.05.2020
2403 Clouds 29 996 17 10000 4 170 07:37 26.05.2020
2404 Clouds 27 997 21 10000 4 140 07:18 26.05.2020
2405 Clouds 27 997 21 10000 6 150 06:44 26.05.2020
2406 Clouds 26 998 22 10000 4 130 05:55 26.05.2020
2407 Clouds 25 998 27 10000 3 120 05:33 26.05.2020
2408 Clouds 25 998 29 10000 4 140 04:54 26.05.2020
2409 Clouds 23 999 33 10000 3 140 04:33 26.05.2020
2410 Clouds 23 999 33 10000 3 140 03:59 26.05.2020
2411 Clouds 25 1001 20 10000 3 270 02:45 26.05.2020
2412 Clouds 19 1001 42 10000 2 120 01:49 26.05.2020
2413 Clouds 19 1001 42 10000 2 120 01:27 26.05.2020
2414 Clouds 17 1002 45 10000 1 60 00:39 26.05.2020
2415 Clouds 17 1002 45 10000 1 60 00:19 26.05.2020
2416 Clouds 16 1002 51 10000 1 50 23:56 25.05.2020
2417 Clouds 14 1002 58 10000 1.77 232 23:37 25.05.2020
2418 Clouds 14 1002 58 10000 1.56 255 23:18 25.05.2020
2419 Clouds 13 1002 58 10000 1 70 22:55 25.05.2020
2420 Clouds 12 1003 62 10000 1 360 22:36 25.05.2020
2421 Clear 11 1003 71 10000 1.73 263 22:18 25.05.2020
2422 Clear 11 1003 71 10000 1.73 263 21:55 25.05.2020
2423 Clear 10 1003 66 10000 1.73 263 21:36 25.05.2020
2424 Clear 10 1003 71 10000 1 340 21:18 25.05.2020
2425 Clear 9 1003 81 10000 2.21 261 20:42 25.05.2020
2426 Clear 9 1003 81 10000 2.06 266 20:21 25.05.2020
2427 Clear 10 1003 71 10000 2.06 266 19:59 25.05.2020
2428 Clear 12 1003 62 10000 1 270 19:39 25.05.2020
2429 Clear 12 1003 62 10000 1 270 19:18 25.05.2020
2430 Clear 13 1003 47 10000 2 280 18:55 25.05.2020
2431 Clear 14 1004 44 10000 3 300 18:36 25.05.2020
2432 Clear 15 1004 41 10000 3 290 18:18 25.05.2020
2433 Clear 14 1004 47 10000 3 280 17:42 25.05.2020
2434 Clear 14 1004 47 10000 3 280 17:23 25.05.2020
2435 Clear 14 1004 47 10000 2 280 16:57 25.05.2020
2436 Clear 16 1004 38 10000 3 280 16:39 25.05.2020
2437 Clear 16 1004 38 10000 3 280 16:19 25.05.2020
2438 Clear 16 1004 38 10000 3 280 16:19 25.05.2020
2439 Clear 19 1004 29 10000 3 270 15:44 25.05.2020
2440 Clear 19 1004 29 10000 3 270 15:20 25.05.2020
2441 Clear 19 1005 29 10000 3 270 14:58 25.05.2020
2442 Clear 21 1005 26 10000 3 270 14:38 25.05.2020
2443 Clouds 21 1005 26 10000 3 270 14:19 25.05.2020
2444 Clouds 24 1005 45 10000 4 280 13:40 25.05.2020
2445 Clouds 24 1005 45 10000 4 280 13:40 25.05.2020
2446 Clouds 24 1005 40 10000 4 280 13:21 25.05.2020
2447 Clouds 25 1005 40 10000 4 270 12:58 25.05.2020
2448 Clouds 25 1005 40 10000 4 270 12:58 25.05.2020
2449 Clouds 25 1005 40 10000 4 270 12:39 25.05.2020
2450 Clouds 25 1005 34 10000 4 270 12:20 25.05.2020
2451 Clouds 25 1005 34 10000 4 270 12:20 25.05.2020
2452 Clouds 26 1005 34 10000 4 270 11:40 25.05.2020
2453 Clouds 26 1005 29 10000 4 270 11:21 25.05.2020
2454 Clouds 26 1006 16 10000 4 280 10:57 25.05.2020
2455 Clouds 26 1006 16 10000 5 280 10:39 25.05.2020
2456 Clouds 26 1006 16 10000 5 280 10:20 25.05.2020
2457 Clouds 26 1006 16 10000 5 280 10:20 25.05.2020
2458 Clouds 26 1006 28 10000 5 320 09:54 25.05.2020
2459 Clouds 26 1007 28 10000 4 340 09:36 25.05.2020
2460 Clouds 26 1007 28 10000 4 340 09:18 25.05.2020
2461 Clouds 26 1007 16 10000 3 310 08:40 25.05.2020
2462 Clouds 26 1007 16 10000 3 310 08:21 25.05.2020
2463 Clouds 25 1008 20 10000 1 230 07:56 25.05.2020
2464 Clouds 25 1008 20 10000 1 150 07:38 25.05.2020
2465 Clouds 24 1008 23 10000 3 120 07:18 25.05.2020
2466 Clouds 23 1009 25 10000 3 120 06:38 25.05.2020
2467 Clouds 21 1010 28 10000 4 140 05:27 25.05.2020
2468 Clear 19 1012 34 10000 3 140 03:30 25.05.2020
2469 Clear 16 1012 41 10000 3 140 02:51 25.05.2020
2470 Clear 16 1012 41 10000 3 140 02:32 25.05.2020
2471 Clear 17 1013 39 10000 2 180 01:42 25.05.2020
2472 Clear 14 1013 44 10000 2 300 00:47 25.05.2020
2473 Clear 14 1013 44 10000 2 300 00:26 25.05.2020
2474 Clear 11 1014 50 10000 2 290 23:58 24.05.2020
2475 Clear 9 1014 57 10000 3 290 23:39 24.05.2020
2476 Clear 9 1014 57 10000 3 290 23:20 24.05.2020
2477 Clear 8 1014 54 10000 3 290 22:55 24.05.2020
2478 Clear 6 1014 54 10000 3 290 22:37 24.05.2020
2479 Clear 6 1014 65 10000 2 300 22:18 24.05.2020
2480 Clear 6 1014 65 10000 2 300 22:18 24.05.2020
2481 Clear 6 1014 65 10000 2 300 21:55 24.05.2020
2482 Clear 5 1013 65 10000 3 300 21:36 24.05.2020
2483 Clear 5 1013 71 10000 3 290 21:18 24.05.2020
2484 Clear 6 1013 70 10000 3 300 20:43 24.05.2020
2485 Clear 6 1013 70 10000 3 300 20:43 24.05.2020
2486 Clear 6 1013 70 10000 3 300 20:21 24.05.2020
2487 Clear 6 1013 70 10000 3 290 19:56 24.05.2020
2488 Clear 6 1013 71 10000 2 300 19:38 24.05.2020
2489 Clear 6 1013 68 10000 2 300 19:18 24.05.2020
2490 Clear 8 1013 61 10000 2 310 18:42 24.05.2020
2491 Clear 8 1013 61 10000 2 310 18:23 24.05.2020
2492 Clear 9 1013 57 10000 3 310 17:58 24.05.2020
2493 Clear 9 1013 57 10000 2 310 17:40 24.05.2020
2494 Clear 9 1013 57 10000 2 310 17:21 24.05.2020
2495 Clear 11 1013 50 10000 3 320 16:56 24.05.2020
2496 Clear 12 1013 46 10000 2 330 16:38 24.05.2020
2497 Clear 13 1013 43 10000 3 330 16:19 24.05.2020
2498 Clear 13 1013 43 10000 3 330 15:56 24.05.2020
2499 Clear 14 1013 41 10000 3 320 15:37 24.05.2020
2500 Clear 14 1013 41 10000 3 320 15:18 24.05.2020
2501 Clear 14 1013 41 10000 3 320 15:18 24.05.2020
2502 Clear 16 1013 36 10000 2 340 14:44 24.05.2020
2503 Clouds 16 1013 36 10000 2 340 14:24 24.05.2020
2504 Clouds 16 1013 36 10000 2 340 14:24 24.05.2020
2505 Clouds 16 1013 41 10000 3 10 13:57 24.05.2020
2506 Clouds 17 1013 36 10000 3 10 13:39 24.05.2020
2507 Clouds 17 1013 36 10000 3 10 13:21 24.05.2020
2508 Clouds 19 1013 29 10000 3 20 12:58 24.05.2020
2509 Clouds 19 1013 29 10000 4 10 12:40 24.05.2020
2510 Clouds 19 1013 29 10000 4 10 12:22 24.05.2020
2511 Clouds 18 1012 31 10000 4 30 11:56 24.05.2020
2512 Clouds 19 1012 25 10000 4 30 11:38 24.05.2020
2513 Clouds 19 1012 25 10000 4 30 11:20 24.05.2020
2514 Clouds 20 1012 24 10000 5 20 10:55 24.05.2020
2515 Clouds 20 1012 24 10000 4 20 10:37 24.05.2020
2516 Clouds 20 1012 24 10000 4 20 10:18 24.05.2020
2517 Clouds 20 1013 22 10000 4 30 09:41 24.05.2020
2518 Clouds 20 1013 22 10000 4 30 09:18 24.05.2020
2519 Clouds 20 1013 20 10000 4 30 08:56 24.05.2020
2520 Clouds 20 1013 20 10000 5 30 08:37 24.05.2020
2521 Clouds 20 1013 20 10000 5 30 08:19 24.05.2020
2522 Clouds 19 1013 20 10000 5 30 07:42 24.05.2020
2523 Clouds 19 1013 20 10000 5 30 07:24 24.05.2020
2524 Clouds 19 1013 20 10000 5 20 06:48 24.05.2020
2525 Clear 19 1013 19 10000 4 20 06:25 24.05.2020
2526 Clear 18 1014 20 10000 5 20 04:52 24.05.2020
2527 Clear 16 1014 26 10000 5 20 03:41 24.05.2020
2528 Clear 15 1014 30 10000 2 40 02:42 24.05.2020
2529 Clear 13 1014 32 10000 2 320 01:46 24.05.2020
2530 Clear 10 1014 39 10000 3 300 00:39 24.05.2020
2531 Clear 10 1014 39 10000 3 300 00:21 24.05.2020
2532 Clear 8 1014 42 10000 4 300 23:44 23.05.2020
2533 Clear 8 1014 42 10000 4 300 23:24 23.05.2020
2534 Clear 8 1014 42 10000 3 300 22:58 23.05.2020
2535 Clear 7 1014 45 10000 3 310 22:38 23.05.2020
2536 Clear 7 1014 45 10000 3 310 22:20 23.05.2020
2537 Clear 8 1014 42 10000 4 300 21:58 23.05.2020
2538 Clear 8 1014 42 10000 3 300 21:40 23.05.2020
2539 Clear 8 1014 42 10000 3 300 21:20 23.05.2020
2540 Clear 8 1014 42 10000 3 300 21:20 23.05.2020
2541 Clear 8 1014 42 10000 4 300 20:58 23.05.2020
2542 Clear 8 1014 42 10000 4 290 20:38 23.05.2020
2543 Clear 8 1014 42 10000 4 290 20:38 23.05.2020
2544 Clouds 8 1014 42 10000 4 290 20:19 23.05.2020
2545 Clouds 8 1014 42 10000 3 300 19:54 23.05.2020
2546 Clouds 8 1015 42 10000 4 300 19:36 23.05.2020
2547 Clouds 8 1015 42 10000 4 300 19:36 23.05.2020
2548 Clouds 8 1015 42 10000 4 300 19:18 23.05.2020
2549 Clouds 9 1015 39 10000 4 300 18:40 23.05.2020
2550 Clouds 9 1015 39 10000 4 300 18:22 23.05.2020
2551 Clouds 8 1015 45 10000 3 300 17:56 23.05.2020
2552 Clouds 8 1015 45 10000 3 290 17:38 23.05.2020
2553 Clouds 8 1015 45 10000 3 290 17:19 23.05.2020
2554 Clouds 10 1015 39 10000 3 290 16:57 23.05.2020
2555 Clouds 10 1015 39 10000 3 290 16:39 23.05.2020
2556 Clouds 10 1015 39 10000 3 290 16:20 23.05.2020
2557 Clouds 11 1015 51 10000 3 270 15:43 23.05.2020
2558 Clouds 11 1015 48 10000 3 270 15:24 23.05.2020
2559 Clouds 11 1015 50 10000 2 260 14:58 23.05.2020
2560 Clouds 12 1015 48 10000 1.99 321 14:40 23.05.2020
2561 Clouds 12 1015 44 10000 2.03 345 14:22 23.05.2020
2562 Clouds 16 1015 31 10000 1 70 13:41 23.05.2020
2563 Clouds 16 1015 31 10000 1 70 13:19 23.05.2020
2564 Clouds 16 1015 31 10000 1 70 13:19 23.05.2020
2565 Clouds 16 1015 31 10000 1 70 13:19 23.05.2020
2566 Clouds 16 1015 38 10000 2 50 12:57 23.05.2020
2567 Clouds 16 1015 38 10000 2 50 12:57 23.05.2020
2568 Clouds 16 1015 38 10000 2 50 12:39 23.05.2020
2569 Clouds 16 1015 33 10000 2 50 12:19 23.05.2020
2570 Clouds 17 1015 29 10000 4 50 11:43 23.05.2020
2571 Clouds 17 1015 29 10000 4 50 11:22 23.05.2020
2572 Clouds 16 1015 31 10000 3 60 10:57 23.05.2020
2573 Clouds 17 1015 29 10000 4 50 10:39 23.05.2020
2574 Clouds 17 1015 29 10000 4 50 10:20 23.05.2020
2575 Clouds 18 1015 25 10000 5 50 09:59 23.05.2020
2576 Clouds 18 1015 25 10000 5 50 09:59 23.05.2020
2577 Clouds 18 1015 23 10000 5 30 09:40 23.05.2020
2578 Clouds 18 1015 23 10000 5 30 09:21 23.05.2020
2579 Clouds 18 1015 23 10000 5 30 08:44 23.05.2020
2580 Clear 18 1015 23 10000 5 30 08:20 23.05.2020
2581 Clear 19 1015 24 10000 5 30 07:59 23.05.2020
2582 Clear 18 1015 22 10000 4 40 07:39 23.05.2020
2583 Clear 18 1015 22 10000 4 40 07:21 23.05.2020
2584 Clear 17 1015 25 10000 6 30 06:39 23.05.2020
2585 Clear 16 1015 29 10000 6 30 05:46 23.05.2020
2586 Clear 15 1015 30 10000 7 360 03:48 23.05.2020
2587 Clear 15 1015 30 10000 7 360 03:21 23.05.2020
2588 Clouds 14 1014 33 10000 7 10 02:24 23.05.2020
2589 Clouds 12 1014 37 10000 8 10 01:27 23.05.2020
2590 Clouds 11 1014 43 10000 6 10 00:49 23.05.2020
2591 Clouds 10 1014 46 10000 6 10 00:29 23.05.2020
2592 Clouds 9 1013 49 10000 6 20 23:58 22.05.2020
2593 Clouds 9 1013 49 10000 6 10 23:40 22.05.2020
2594 Clouds 9 1013 49 10000 6 10 23:20 22.05.2020
2595 Clouds 8 1013 52 10000 6 10 22:56 22.05.2020
2596 Clouds 8 1012 49 10000 6 10 22:38 22.05.2020
2597 Clouds 8 1012 49 10000 6 10 22:18 22.05.2020
2598 Clouds 8 1012 49 10000 6 360 21:44 22.05.2020
2599 Clouds 8 1012 49 10000 6 360 21:21 22.05.2020
2600 Clouds 8 1011 45 10000 6 360 20:55 22.05.2020
2601 Clouds 9 1011 42 10000 6 360 20:36 22.05.2020
2602 Clouds 9 1011 42 10000 6 360 20:18 22.05.2020
2603 Clouds 9 1010 39 10000 6 350 19:43 22.05.2020
2604 Clouds 9 1010 39 10000 6 350 19:24 22.05.2020
2605 Clouds 10 1010 34 10000 5 340 18:40 22.05.2020
2606 Clouds 10 1010 34 10000 5 340 18:21 22.05.2020
2607 Clouds 9 1010 45 10000 5 320 17:59 22.05.2020
2608 Clouds 10 1010 46 10000 4 320 17:39 22.05.2020
2609 Clouds 10 1010 78 10000 5 320 17:19 22.05.2020
2610 Clouds 10 1010 78 10000 5 320 16:55 22.05.2020
2611 Clouds 11 1010 78 10000 5 320 16:37 22.05.2020
2612 Clouds 11 1010 78 10000 5 320 16:18 22.05.2020
2613 Clouds 11 1010 53 10000 4 300 15:41 22.05.2020
2614 Clouds 11 1010 53 10000 4 300 15:21 22.05.2020
2615 Clouds 12 1010 54 10000 7 280 14:44 22.05.2020
2616 Clouds 12 1010 54 10000 7 280 14:25 22.05.2020
2617 Clouds 13 1010 50 10000 6 290 13:49 22.05.2020
2618 Clouds 13 1010 50 10000 6 280 13:22 22.05.2020
2619 Clouds 15 1010 36 10000 6 270 12:59 22.05.2020
2620 Clouds 15 1010 36 10000 4 260 12:39 22.05.2020
2621 Clouds 15 1010 31 10000 4 260 12:20 22.05.2020
2622 Clouds 15 1010 41 10000 5 230 11:44 22.05.2020
2623 Clouds 15 1010 41 10000 5 230 11:21 22.05.2020
2624 Clouds 15 1010 41 10000 5 230 11:21 22.05.2020
2625 Clouds 17 1010 29 10000 5 260 10:56 22.05.2020
2626 Clouds 18 1010 22 10000 2 80 10:38 22.05.2020
2627 Clouds 18 1010 22 10000 2 80 10:19 22.05.2020
2628 Clouds 18 1010 22 10000 2 80 10:19 22.05.2020
2629 Clouds 16 1010 29 10000 4 300 09:46 22.05.2020
2630 Clouds 16 1010 29 10000 4 300 09:20 22.05.2020
2631 Clouds 17 1011 28 10000 5 280 08:55 22.05.2020
2632 Clouds 17 1011 29 10000 4 260 08:37 22.05.2020
2633 Clouds 17 1010 29 10000 6 230 08:18 22.05.2020
2634 Thunderstorm 17 1011 27 10000 8 260 07:46 22.05.2020
2635 Thunderstorm 17 1011 27 10000 8 260 07:22 22.05.2020
2636 Clouds 19 1011 25 10000 5 340 06:43 22.05.2020
2637 Clouds 19 1011 25 10000 5 340 06:25 22.05.2020
2638 Clouds 20 1011 22 10000 3 330 05:35 22.05.2020
2639 Clouds 19 1012 29 10000 3 310 04:47 22.05.2020
2640 Clouds 18 1012 31 10000 3 350 03:49 22.05.2020
2641 Clouds 17 1012 31 10000 3 330 03:29 22.05.2020
2642 Clouds 15 1013 30 10000 4 350 01:58 22.05.2020
2643 Clouds 16 1013 31 10000 3 340 01:32 22.05.2020
2644 Clouds 14 1013 35 10000 4 350 00:52 22.05.2020
2645 Clouds 12 1013 46 10000 3 320 00:30 22.05.2020
2646 Clouds 12 1013 45 10000 3 300 23:56 21.05.2020
2647 Clouds 12 1013 40 10000 2 290 23:37 21.05.2020
2648 Clouds 12 1013 40 10000 2 290 23:37 21.05.2020
2649 Clouds 12 1013 40 10000 2 290 23:19 21.05.2020
2650 Clouds 12 1013 37 10000 2 290 22:57 21.05.2020
2651 Clouds 10 1013 57 10000 1 220 22:37 21.05.2020
2652 Clouds 10 1013 57 10000 1 220 22:18 21.05.2020
2653 Clouds 10 1013 57 10000 2 360 21:46 21.05.2020
2654 Clouds 10 1013 57 10000 2 360 21:26 21.05.2020
2655 Clouds 11 1013 50 10000 3 160 20:57 21.05.2020
2656 Clouds 11 1013 50 10000 2 170 20:38 21.05.2020
2657 Clouds 11 1013 50 10000 2 170 20:20 21.05.2020
2658 Clouds 12 1014 34 10000 2 240 19:39 21.05.2020
2659 Clouds 12 1014 34 10000 2 240 19:19 21.05.2020
2660 Clouds 12 1014 34 10000 2 290 18:55 21.05.2020
2661 Clouds 11 1014 43 10000 2 350 18:36 21.05.2020
2662 Clouds 11 1014 49 10000 1 300 18:18 21.05.2020
2663 Clouds 11 1014 40 10000 1 310 17:41 21.05.2020
2664 Clouds 11 1014 40 10000 1 310 17:22 21.05.2020
2665 Clouds 11 1014 40 10000 1 310 17:22 21.05.2020
2666 Clouds 13 1014 37 10000 2 250 16:47 21.05.2020
2667 Clouds 13 1014 37 10000 2 250 16:27 21.05.2020
2668 Clouds 12 1014 45 10000 3 240 15:57 21.05.2020
2669 Clouds 12 1015 40 10000 3 220 15:38 21.05.2020
2670 Clouds 12 1015 40 10000 3 220 15:20 21.05.2020
2671 Clouds 14 1015 33 10000 4 220 14:41 21.05.2020
2672 Clouds 14 1015 33 10000 4 220 14:19 21.05.2020
2673 Clouds 17 1015 27 10000 2 200 13:42 21.05.2020
2674 Clouds 17 1015 27 10000 2 200 13:23 21.05.2020
2675 Clouds 18 1015 22 10000 2 180 12:59 21.05.2020
2676 Clouds 19 1015 20 10000 1 150 12:38 21.05.2020
2677 Clouds 19 1015 20 10000 1 150 12:19 21.05.2020
2678 Clouds 20 1015 16 10000 1 80 11:42 21.05.2020
2679 Clouds 20 1015 16 10000 1 80 11:24 21.05.2020
2680 Clouds 20 1015 18 10000 2 90 10:59 21.05.2020
2681 Clouds 21 1015 16 10000 2 100 10:39 21.05.2020
2682 Clouds 21 1015 16 10000 2 100 10:20 21.05.2020
2683 Clouds 20 1015 18 10000 3 130 09:55 21.05.2020
2684 Clouds 20 1015 16 10000 3 140 09:37 21.05.2020
2685 Clouds 20 1015 16 10000 3 140 09:19 21.05.2020
2686 Clouds 20 1015 16 10000 2 120 08:45 21.05.2020
2687 Clouds 20 1015 16 10000 2 120 08:26 21.05.2020
2688 Clouds 20 1016 16 10000 2 90 07:49 21.05.2020
2689 Clouds 20 1016 16 10000 3 140 07:27 21.05.2020
2690 Clouds 20 1016 18 10000 2 70 06:53 21.05.2020
2691 Clouds 19 1016 20 10000 2 110 06:23 21.05.2020
2692 Clouds 19 1016 20 10000 1 140 05:37 21.05.2020
2693 Clouds 17 1016 29 10000 3 130 03:22 21.05.2020
2694 Clouds 17 1016 29 10000 3 130 03:22 21.05.2020
2695 Clouds 17 1016 27 10000 2 160 02:49 21.05.2020
2696 Clouds 16 1016 31 10000 2 150 02:30 21.05.2020
2697 Clouds 14 1016 41 10000 2 130 01:47 21.05.2020
2698 Clouds 14 1016 41 10000 2 130 01:21 21.05.2020
2699 Clouds 14 1016 44 10000 2 140 00:53 21.05.2020
2700 Clouds 12 1016 46 10000 1 140 00:24 21.05.2020
2701 Clouds 10 1016 43 10000 2 310 23:46 20.05.2020
2702 Clouds 10 1016 43 10000 2 310 23:21 20.05.2020
2703 Clouds 9 1016 45 10000 0.55 261 22:58 20.05.2020
2704 Clouds 9 1016 49 10000 1 300 22:39 20.05.2020
2705 Clouds 9 1016 49 10000 1 300 22:21 20.05.2020
2706 Clouds 9 1016 57 10000 1 280 21:42 20.05.2020
2707 Clouds 9 1016 57 10000 1 280 21:23 20.05.2020
2708 Clouds 9 1016 66 10000 2 250 20:55 20.05.2020
2709 Clouds 8 1015 61 10000 2 230 20:37 20.05.2020
2710 Clouds 8 1015 61 10000 2 230 20:19 20.05.2020
2711 Clouds 9 1015 65 10000 2 10 19:39 20.05.2020
2712 Clouds 9 1015 64 10000 2 10 19:20 20.05.2020
2713 Clouds 8 1015 52 10000 3 300 18:56 20.05.2020
2714 Clouds 8 1015 52 10000 2 270 18:38 20.05.2020
2715 Clouds 10 1015 62 10000 1 350 18:18 20.05.2020
2716 Clouds 9 1015 62 10000 2 30 17:38 20.05.2020
2717 Clouds 9 1015 57 10000 2 30 17:19 20.05.2020
2718 Clouds 10 1015 57 10000 3 300 16:42 20.05.2020
2719 Clouds 10 1015 51 10000 3 300 16:23 20.05.2020
2720 Clouds 11 1015 50 10000 2 320 15:57 20.05.2020
2721 Clouds 12 1015 51 10000 2 340 15:39 20.05.2020
2722 Clouds 12 1015 49 10000 2 340 15:21 20.05.2020
2723 Clouds 14 1015 49 10000 2 10 14:42 20.05.2020
2724 Clouds 14 1015 45 10000 2 10 14:20 20.05.2020
2725 Clouds 16 1015 29 10000 3 50 13:41 20.05.2020
2726 Clouds 16 1015 29 10000 3 50 13:20 20.05.2020
2727 Clouds 17 1014 23 10000 1 60 12:57 20.05.2020
2728 Clouds 17 1014 25 10000 2 50 12:37 20.05.2020
2729 Clouds 17 1014 25 10000 2 50 12:19 20.05.2020
2730 Clouds 16 1014 29 10000 4 50 11:36 20.05.2020
2731 Clouds 18 1014 18 10000 4 40 11:18 20.05.2020
2732 Clouds 19 1013 19 10000 4 10 10:42 20.05.2020
2733 Clouds 19 1013 19 10000 4 10 10:20 20.05.2020
2734 Clouds 17 1014 21 10000 3 80 09:44 20.05.2020
2735 Clouds 17 1014 21 10000 3 80 09:21 20.05.2020
2736 Clouds 17 1014 21 10000 3 80 09:21 20.05.2020
2737 Clouds 18 1014 22 10000 3 100 08:57 20.05.2020
2738 Clouds 18 1013 20 10000 3 50 08:39 20.05.2020
2739 Clouds 18 1014 22 10000 4 50 08:18 20.05.2020
2740 Clouds 17 1014 23 10000 2 70 07:46 20.05.2020
2741 Clouds 17 1014 23 10000 2 70 07:20 20.05.2020
2742 Clouds 16 1014 25 10000 1 80 06:36 20.05.2020
2743 Clouds 15 1014 30 10000 3 80 05:24 20.05.2020
2744 Clouds 14 1014 35 10000 2 60 04:27 20.05.2020
2745 Clear 15 1014 38 10000 4 70 03:42 20.05.2020
2746 Clear 14 1014 44 10000 4 60 02:30 20.05.2020
2747 Clouds 13 1013 47 10000 3 50 01:29 20.05.2020
2748 Clouds 11 1013 57 10000 3 50 00:44 20.05.2020
2749 Clouds 11 1013 57 10000 3 50 00:24 20.05.2020
2750 Clouds 10 1013 66 10000 2 330 23:42 19.05.2020
2751 Clouds 10 1013 66 10000 2 330 23:19 19.05.2020
2752 Clouds 8 1013 75 10000 3 330 22:56 19.05.2020
2753 Clouds 9 1013 66 10000 3 330 22:38 19.05.2020
2754 Clouds 9 1013 66 10000 3 330 22:19 19.05.2020
2755 Clouds 8 1013 70 10000 1 10 21:58 19.05.2020
2756 Clouds 6 1013 75 10000 3 330 21:38 19.05.2020
2757 Clouds 6 1013 75 10000 3 330 21:19 19.05.2020
2758 Clouds 6 1012 75 10000 2 350 20:57 19.05.2020
2759 Clouds 5 1012 80 10000 2 10 20:39 19.05.2020
2760 Clouds 5 1012 80 10000 2 10 20:20 19.05.2020
2761 Clouds 6 1012 70 10000 2 350 19:55 19.05.2020
2762 Clouds 5 1012 80 10000 3 10 19:36 19.05.2020
2763 Clouds 6 1012 75 10000 3 350 19:18 19.05.2020
2764 Clouds 6 1012 75 10000 3 360 18:40 19.05.2020
2765 Clear 6 1012 75 10000 3 360 18:20 19.05.2020
2766 Clear 7 1012 70 10000 3 340 17:43 19.05.2020
2767 Clear 7 1012 70 10000 3 340 17:21 19.05.2020
2768 Clear 8 1012 65 10000 3 350 16:59 19.05.2020
2769 Clear 8 1012 65 10000 3 350 16:59 19.05.2020
2770 Clear 8 1012 65 10000 4 10 16:38 19.05.2020
2771 Clear 8 1012 65 10000 4 10 16:19 19.05.2020
2772 Clouds 10 1012 57 10000 3 30 15:47 19.05.2020
2773 Clouds 10 1012 57 10000 3 30 15:22 19.05.2020
2774 Clouds 11 1012 57 10000 3 20 14:57 19.05.2020
2775 Clouds 12 1012 54 10000 2 30 14:39 19.05.2020
2776 Clouds 12 1012 54 10000 2 30 14:20 19.05.2020
2777 Clouds 12 1012 50 10000 3 50 13:57 19.05.2020
2778 Clouds 12 1012 46 10000 3 60 13:39 19.05.2020
2779 Clouds 12 1012 46 10000 3 60 13:20 19.05.2020
2780 Clouds 13 1012 43 10000 4 70 12:56 19.05.2020
2781 Clouds 13 1011 43 10000 6 80 12:37 19.05.2020
2782 Clouds 13 1011 43 10000 6 80 12:19 19.05.2020
2783 Clouds 15 1011 53 10000 4 50 11:43 19.05.2020
2784 Clouds 15 1011 52 10000 4 50 11:23 19.05.2020
2785 Clouds 15 1011 52 10000 3 60 10:59 19.05.2020
2786 Clouds 15 1011 52 10000 3 50 10:40 19.05.2020
2787 Clouds 15 1011 43 10000 3 50 10:22 19.05.2020
2788 Clouds 14 1011 44 10000 3 60 09:47 19.05.2020
2789 Clouds 14 1011 44 10000 3 60 09:25 19.05.2020
2790 Clouds 14 1011 44 10000 3 60 09:25 19.05.2020
2791 Clouds 15 1010 38 10000 4 60 08:59 19.05.2020
2792 Clouds 14 1011 44 10000 4 50 08:41 19.05.2020
2793 Clouds 14 1011 44 10000 4 50 08:22 19.05.2020
2794 Clouds 15 1011 44 10000 7 50 07:42 19.05.2020
2795 Clouds 15 1011 44 10000 7 50 07:42 19.05.2020
2796 Clouds 15 1011 44 10000 7 50 07:24 19.05.2020
2797 Clouds 18 1010 25 10000 2 40 06:41 19.05.2020
2798 Clouds 18 1010 25 10000 2 40 06:22 19.05.2020
2799 Clouds 19 1010 31 10000 2 70 05:39 19.05.2020
2800 Clouds 18 1011 36 10000 1 40 04:54 19.05.2020
2801 Clouds 14 1011 54 10000 3 70 02:59 19.05.2020
2802 Clouds 11 1011 62 10000 2 80 01:22 19.05.2020
2803 Clouds 10 1011 66 10000 2 70 00:41 19.05.2020
2804 Clouds 10 1011 66 10000 2 70 00:21 19.05.2020
2805 Clouds 10 1010 66 10000 2 360 23:40 18.05.2020
2806 Clouds 10 1010 66 10000 2 360 23:20 18.05.2020
2807 Clouds 10 1010 66 10000 2 360 22:59 18.05.2020
2808 Clouds 8 1010 75 10000 2 350 22:39 18.05.2020
2809 Clouds 8 1010 75 10000 2 350 22:21 18.05.2020
2810 Clouds 8 1010 70 10000 1 10 21:43 18.05.2020
2811 Clouds 8 1010 70 10000 1 10 21:22 18.05.2020
2812 Clouds 8 1010 75 10000 2 350 20:58 18.05.2020
2813 Clouds 9 1010 70 10000 1 350 20:39 18.05.2020
2814 Clouds 9 1010 76 10000 2 320 20:20 18.05.2020
2815 Clouds 9 1010 76 10000 2 320 19:56 18.05.2020
2816 Rain 10 1009 71 10000 1 300 19:38 18.05.2020
2817 Clouds 10 1009 61 10000 2 360 19:18 18.05.2020
2818 Clouds 10 1009 61 10000 1 350 18:45 18.05.2020
2819 Clear 10 1009 61 10000 1 350 18:22 18.05.2020
2820 Clear 11 1009 62 10000 2 360 17:40 18.05.2020
2821 Clear 11 1009 62 10000 2 360 17:18 18.05.2020
2822 Clear 12 1009 58 10000 2 350 16:57 18.05.2020
2823 Clear 13 1009 54 10000 2 20 16:38 18.05.2020
2824 Clear 13 1009 54 10000 2 20 16:18 18.05.2020
2825 Clouds 11 1009 53 10000 2 70 15:57 18.05.2020
2826 Clouds 11 1009 53 10000 2 70 15:57 18.05.2020
2827 Clouds 11 1009 57 10000 2 80 15:37 18.05.2020
2828 Clouds 11 1009 57 10000 2 80 15:19 18.05.2020
2829 Clouds 14 1009 44 10000 2 80 14:43 18.05.2020
2830 Clouds 14 1009 44 10000 2 80 14:25 18.05.2020
2831 Clouds 14 1008 41 10000 3 60 13:59 18.05.2020
2832 Clouds 16 1008 36 10000 3 60 13:39 18.05.2020
2833 Clouds 16 1008 36 10000 3 60 13:20 18.05.2020
2834 Clouds 16 1008 38 10000 3 60 12:57 18.05.2020
2835 Clouds 17 1008 33 10000 4 90 12:39 18.05.2020
2836 Clouds 17 1008 33 10000 4 90 12:19 18.05.2020
2837 Clouds 17 1008 33 10000 5 70 11:47 18.05.2020
2838 Clouds 17 1008 33 10000 5 70 11:27 18.05.2020
2839 Clouds 17 1008 33 10000 6 70 10:59 18.05.2020
2840 Clouds 20 1007 28 10000 6 30 10:40 18.05.2020
2841 Clouds 20 1007 28 10000 6 30 10:22 18.05.2020
2842 Clouds 21 1007 46 10000 6 10 09:44 18.05.2020
2843 Clouds 21 1007 44 10000 6 10 09:25 18.05.2020
2844 Clouds 21 1007 22 10000 5 20 08:46 18.05.2020
2845 Clouds 21 1007 22 10000 5 20 08:27 18.05.2020
2846 Clouds 21 1008 22 10000 4 20 07:58 18.05.2020
2847 Clouds 21 1008 44 10000 4 30 07:38 18.05.2020
2848 Clouds 20 1008 47 10000 4 30 07:18 18.05.2020
2849 Clouds 20 1008 47 10000 5 20 06:43 18.05.2020
2850 Rain 20 1008 52 10000 5 20 05:49 18.05.2020
2851 Clouds 19 1008 50 10000 6 10 05:25 18.05.2020
2852 Clouds 16 1009 36 10000 6 10 03:34 18.05.2020
2853 Clear 14 1009 41 10000 5 20 02:30 18.05.2020
2854 Clouds 12 1009 46 10000 5 10 01:23 18.05.2020
2855 Clouds 11 1010 50 10000 5 10 00:27 18.05.2020
2856 Clouds 11 1010 50 10000 6 10 23:58 17.05.2020
2857 Clouds 10 1010 53 10000 4 10 23:39 17.05.2020
2858 Clouds 10 1010 53 10000 4 10 23:20 17.05.2020
2859 Clouds 10 1010 53 10000 3 360 22:56 17.05.2020
2860 Clouds 9 1010 57 10000 3 360 22:37 17.05.2020
2861 Clouds 9 1010 57 10000 3 360 22:37 17.05.2020
2862 Clouds 9 1010 57 10000 3 360 22:37 17.05.2020
2863 Clouds 9 1010 57 10000 3 360 22:19 17.05.2020
2864 Clouds 8 1010 76 10000 3 350 21:56 17.05.2020
2865 Clouds 10 1010 76 10000 4 350 21:38 17.05.2020
2866 Clouds 10 1010 77 10000 4 350 21:18 17.05.2020
2867 Clouds 10 1010 53 10000 4 350 20:42 17.05.2020
2868 Clouds 10 1010 53 10000 4 350 20:22 17.05.2020
2869 Clouds 10 1010 53 10000 4 350 19:58 17.05.2020
2870 Clouds 11 1010 50 10000 3 340 19:40 17.05.2020
2871 Clouds 11 1010 50 10000 3 340 19:21 17.05.2020
2872 Clouds 11 1010 50 10000 4 340 18:54 17.05.2020
2873 Clouds 12 1010 46 10000 4 350 18:36 17.05.2020
2874 Clouds 12 1010 50 10000 4 340 18:18 17.05.2020
2875 Clouds 11 1010 53 10000 3 320 17:40 17.05.2020
2876 Clouds 11 1010 53 10000 3 320 17:21 17.05.2020
2877 Clouds 11 1010 53 10000 3 300 16:40 17.05.2020
2878 Clouds 11 1010 53 10000 3 300 16:21 17.05.2020
2879 Clouds 11 1010 53 10000 3 280 15:59 17.05.2020
2880 Clouds 10 1010 66 10000 1 340 15:40 17.05.2020
2881 Clouds 10 1010 66 10000 1 340 15:22 17.05.2020
2882 Clouds 11 1011 66 10000 1 300 14:56 17.05.2020
2883 Clouds 13 1011 54 10000 2.89 1 14:37 17.05.2020
2884 Clouds 13 1011 54 10000 3.14 15 14:19 17.05.2020
2885 Clouds 15 1011 41 10000 1 310 13:41 17.05.2020
2886 Clouds 15 1011 41 10000 1 310 13:20 17.05.2020
2887 Clouds 18 1014 34 10000 3 90 04:53 17.05.2020
2888 Clear 17 1015 48 10000 2 100 03:19 17.05.2020
2889 Clear 15 1016 38 10000 2 60 02:23 17.05.2020
2890 Clear 13 1016 55 10000 3 30 01:49 17.05.2020
2891 Clear 11 1016 63 10000 3 10 00:43 17.05.2020
2892 Clear 11 1016 70 10000 3 10 00:24 17.05.2020
2893 Clear 9 1016 57 10000 1 10 23:42 16.05.2020
2894 Clear 9 1016 57 10000 1 10 23:21 16.05.2020
2895 Clear 8 1016 77 10000 2 10 22:59 16.05.2020
2896 Clear 6 1016 60 10000 1 350 22:41 16.05.2020
2897 Clear 6 1016 60 10000 1 350 22:21 16.05.2020
2898 Clear 4 1016 64 10000 2 320 21:55 16.05.2020
2899 Clear 4 1016 64 10000 2 320 21:37 16.05.2020
2900 Clear 4 1016 64 10000 2 320 21:19 16.05.2020
2901 Clear 4 1016 64 10000 2 330 20:55 16.05.2020
2902 Clear 5 1016 60 10000 2 310 20:36 16.05.2020
2903 Clear 6 1016 56 10000 2 310 20:18 16.05.2020
2904 Clear 6 1016 56 10000 3 310 19:41 16.05.2020
2905 Clear 6 1016 56 10000 3 310 19:22 16.05.2020
2906 Clear 7 1016 52 10000 3 300 18:57 16.05.2020
2907 Clear 7 1016 52 10000 3 300 18:36 16.05.2020
2908 Clear 7 1016 52 10000 3 300 18:18 16.05.2020
2909 Clear 9 1016 49 10000 4 300 17:41 16.05.2020
2910 Clear 9 1016 49 10000 4 300 17:20 16.05.2020
2911 Clear 9 1016 49 10000 4 300 17:20 16.05.2020
2912 Clear 10 1016 61 10000 3 300 16:43 16.05.2020
2913 Clear 10 1016 52 10000 3 300 16:24 16.05.2020
2914 Clear 11 1016 50 10000 3 280 15:59 16.05.2020
2915 Clear 12 1016 50 10000 2 300 15:41 16.05.2020
2916 Clear 12 1016 50 10000 2 300 15:20 16.05.2020
2917 Clear 11 1016 53 10000 2 330 14:56 16.05.2020
2918 Clear 13 1017 43 10000 1 30 14:37 16.05.2020
2919 Clear 13 1017 43 10000 1 30 14:37 16.05.2020
2920 Clear 13 1017 43 10000 1 30 14:19 16.05.2020
2921 Clear 16 1017 31 10000 2 60 13:42 16.05.2020
2922 Clear 16 1017 31 10000 2 60 13:23 16.05.2020
2923 Clear 20 1017 20 10000 2 330 12:57 16.05.2020
2924 Clear 20 1017 24 10000 1 40 12:39 16.05.2020
2925 Clear 21 1016 18 10000 2 340 12:18 16.05.2020
2926 Clear 21 1017 19 10000 2 330 11:41 16.05.2020
2927 Clear 21 1017 19 10000 2 330 11:22 16.05.2020
2928 Clear 21 1017 21 10000 1 30 10:58 16.05.2020
2929 Clear 21 1017 22 10000 2 70 10:39 16.05.2020
2930 Clear 21 1017 22 10000 2 70 10:20 16.05.2020
2931 Clear 21 1017 21 10000 2 70 09:46 16.05.2020
2932 Clear 21 1017 21 10000 2 70 09:28 16.05.2020
2933 Clear 20 1017 24 10000 2 70 08:46 16.05.2020
2934 Clear 20 1017 24 10000 2 70 08:24 16.05.2020
2935 Clear 20 1018 22 10000 2 80 07:59 16.05.2020
2936 Clear 20 1018 22 10000 2 80 07:40 16.05.2020
2937 Clear 20 1018 22 10000 2 80 07:21 16.05.2020
2938 Clear 19 1019 24 10000 2 50 06:47 16.05.2020
2939 Clear 19 1019 24 10000 2 50 06:19 16.05.2020
2940 Clear 18 1019 25 10000 2 60 05:42 16.05.2020
2941 Clear 18 1019 25 10000 2 60 05:22 16.05.2020
2942 Clear 17 1020 29 10000 1 60 03:28 16.05.2020
2943 Clear 13 1020 43 10000 1 60 02:45 16.05.2020
2944 Clear 13 1020 43 10000 1 60 02:19 16.05.2020
2945 Clear 12 1020 46 10000 1 100 01:40 16.05.2020
2946 Clear 12 1020 46 10000 1 140 00:58 16.05.2020
2947 Clear 10 1020 53 10000 1 180 00:40 16.05.2020
2948 Clear 10 1020 53 10000 1 180 00:20 16.05.2020
2949 Clear 6 1020 68 10000 1 350 23:40 15.05.2020
2950 Clear 6 1020 75 10000 1 350 23:19 15.05.2020
2951 Clear 3 1019 74 10000 1 320 22:42 15.05.2020
2952 Clear 3 1019 74 10000 1 320 22:21 15.05.2020
2953 Clear 2 1019 80 10000 1 320 21:57 15.05.2020
2954 Clear 2 1019 80 10000 1 270 21:39 15.05.2020
2955 Clear 2 1019 80 10000 1 270 21:21 15.05.2020
2956 Clear 2 1019 80 10000 3 300 20:56 15.05.2020
2957 Clear 2 1019 80 10000 2 320 20:38 15.05.2020
2958 Clouds 2 1019 80 10000 2 320 20:19 15.05.2020
2959 Clouds 3 1018 85 10000 1 320 19:44 15.05.2020
2960 Clouds 3 1018 83 10000 1 320 19:24 15.05.2020
2961 Clouds 5 1018 75 10000 2 340 18:58 15.05.2020
2962 Clouds 5 1018 75 10000 1 350 18:39 15.05.2020
2963 Clouds 6 1017 70 10000 1 150 18:18 15.05.2020
2964 Clouds 6 1017 70 10000 1 190 17:39 15.05.2020
2965 Clouds 6 1017 70 10000 1 190 17:19 15.05.2020
2966 Clouds 7 1016 65 10000 1 170 16:56 15.05.2020
2967 Clouds 9 1016 77 10000 2 140 16:38 15.05.2020
2968 Clouds 9 1016 68 10000 2 140 16:19 15.05.2020
2969 Clouds 10 1016 73 10000 2 110 15:41 15.05.2020
2970 Clouds 10 1016 69 10000 2 110 15:22 15.05.2020
2971 Clouds 10 1016 69 10000 3 100 14:58 15.05.2020
2972 Clouds 11 1015 43 10000 2 110 14:40 15.05.2020
2973 Clouds 11 1015 43 10000 2 110 14:22 15.05.2020
2974 Clouds 14 1014 62 10000 1 100 13:43 15.05.2020
2975 Clouds 14 1014 56 10000 1 100 13:23 15.05.2020
2976 Clouds 14 1014 56 10000 2 100 12:59 15.05.2020
2977 Clouds 15 1014 56 10000 3 110 12:39 15.05.2020
2978 Clouds 16 1014 50 10000 3 110 12:18 15.05.2020
2979 Clouds 16 1014 50 10000 3 110 11:56 15.05.2020
2980 Clouds 18 1013 27 10000 2 100 11:38 15.05.2020
2981 Clouds 18 1013 27 10000 2 100 11:19 15.05.2020
2982 Clouds 17 1013 43 10000 2 130 10:56 15.05.2020
2983 Clouds 16 1013 43 10000 2 100 10:38 15.05.2020
2984 Clouds 16 1013 42 10000 2 100 10:20 15.05.2020
2985 Clouds 17 1013 42 10000 2 100 09:40 15.05.2020
2986 Clouds 17 1013 39 10000 2 100 09:20 15.05.2020
2987 Clouds 17 1013 39 10000 3 120 08:59 15.05.2020
2988 Clouds 16 1013 39 10000 3 100 08:38 15.05.2020
2989 Clouds 16 1013 38 10000 3 100 08:20 15.05.2020
2990 Clouds 14 1014 38 10000 3 100 07:46 15.05.2020
2991 Clouds 14 1014 38 10000 3 100 07:28 15.05.2020
2992 Clouds 12 1014 40 10000 4 80 06:58 15.05.2020
2993 Clear 12 1014 39 10000 4 80 05:56 15.05.2020
2994 Clear 11 1014 43 10000 4 80 04:38 15.05.2020
2995 Clear 10 1014 46 10000 4 70 03:50 15.05.2020
2996 Clear 10 1015 43 10000 4 70 02:49 15.05.2020
2997 Clouds 9 1015 45 10000 4 90 01:36 15.05.2020
2998 Clouds 7 1015 52 10000 4 80 00:58 15.05.2020
2999 Clouds 7 1015 52 10000 4 90 00:39 15.05.2020
3000 Clouds 7 1015 52 10000 4 90 00:21 15.05.2020
3001 Clouds 4 1015 64 10000 2 40 23:41 14.05.2020
3002 Clouds 4 1015 64 10000 2 40 23:41 14.05.2020
3003 Clouds 5 1015 60 10000 3 40 23:18 14.05.2020
3004 Clouds 4 1015 69 10000 3 40 22:42 14.05.2020
3005 Clouds 4 1015 69 10000 3 40 22:23 14.05.2020
3006 Clouds 3 1015 74 10000 3 60 21:58 14.05.2020
3007 Clouds 3 1015 74 10000 4 70 21:40 14.05.2020
3008 Clouds 3 1015 74 10000 4 70 21:20 14.05.2020
3009 Clouds 3 1015 74 10000 4 70 21:20 14.05.2020
3010 Clouds 4 1015 69 10000 4 80 20:57 14.05.2020
3011 Clouds 4 1015 69 10000 4 80 20:38 14.05.2020
3012 Clouds 4 1015 69 10000 4 80 20:19 14.05.2020
3013 Clouds 5 1015 65 10000 4 90 19:56 14.05.2020
3014 Clouds 5 1015 65 10000 4 80 19:37 14.05.2020
3015 Clouds 5 1015 65 10000 4 80 19:19 14.05.2020
3016 Clouds 5 1015 65 10000 4 90 18:56 14.05.2020
3017 Clouds 5 1015 65 10000 3 80 18:37 14.05.2020
3018 Clouds 5 1014 76 10000 4 80 18:18 14.05.2020
3019 Clouds 5 1014 76 10000 4 80 17:56 14.05.2020
3020 Clouds 5 1014 76 10000 3 80 17:36 14.05.2020
3021 Clouds 5 1014 74 10000 3 70 17:18 14.05.2020
3022 Clouds 6 1014 74 10000 3 80 16:39 14.05.2020
3023 Clouds 6 1014 73 10000 3 80 16:21 14.05.2020
3024 Clouds 7 1014 73 10000 4 90 15:58 14.05.2020
3025 Clouds 8 1014 73 10000 4 90 15:40 14.05.2020
3026 Clouds 8 1014 68 10000 4 90 15:20 14.05.2020
3027 Clouds 8 1014 68 10000 4 90 14:56 14.05.2020
3028 Clouds 8 1014 68 10000 4 80 14:38 14.05.2020
3029 Clouds 8 1014 65 10000 4 80 14:19 14.05.2020
3030 Clouds 8 1014 65 10000 4 80 14:19 14.05.2020
3031 Clouds 7 1013 65 10000 3 40 13:55 14.05.2020
3032 Clouds 8 1013 61 10000 4 20 13:37 14.05.2020
3033 Clouds 9 1013 57 10000 3 20 13:18 14.05.2020
3034 Clouds 9 1013 57 10000 3 20 12:57 14.05.2020
3035 Clouds 8 1013 61 10000 4 50 12:37 14.05.2020
3036 Clouds 8 1013 61 10000 4 70 12:18 14.05.2020
3037 Clouds 8 1013 61 10000 4 70 11:55 14.05.2020
3038 Clouds 9 1013 57 10000 4 70 11:37 14.05.2020
3039 Clouds 9 1013 57 10000 4 70 11:19 14.05.2020
3040 Clouds 10 1013 53 10000 5 90 10:41 14.05.2020
3041 Clouds 10 1013 53 10000 5 90 10:41 14.05.2020
3042 Clouds 10 1013 53 10000 5 90 10:22 14.05.2020
3043 Clouds 9 1013 57 10000 4 70 09:43 14.05.2020
3044 Clouds 9 1013 57 10000 4 70 09:24 14.05.2020
3045 Clouds 10 1013 56 10000 3 60 08:56 14.05.2020
3046 Clouds 11 1013 50 10000 4 60 08:37 14.05.2020
3047 Clouds 11 1013 50 10000 4 60 08:18 14.05.2020
3048 Clouds 10 1013 56 10000 4 60 07:44 14.05.2020
3049 Clouds 10 1013 58 10000 4 60 07:21 14.05.2020
3050 Clouds 12 1012 46 10000 4 40 06:43 14.05.2020
3051 Clouds 12 1012 46 10000 4 40 06:23 14.05.2020
3052 Clouds 11 1013 53 10000 4 30 05:37 14.05.2020
3053 Clouds 9 1012 57 10000 4 20 04:45 14.05.2020
3054 Clouds 9 1012 61 10000 4 10 03:37 14.05.2020
3055 Clouds 8 1012 65 10000 3 30 02:57 14.05.2020
3056 Clouds 7 1012 70 10000 3 30 02:34 14.05.2020
3057 Clouds 6 1012 75 10000 2 50 01:48 14.05.2020
3058 Clouds 6 1012 81 10000 2 20 00:51 14.05.2020
3059 Clouds 4 1012 86 10000 3 30 00:27 14.05.2020
3060 Clouds 3 1011 86 10000 2 50 23:45 13.05.2020
3061 Clouds 3 1011 86 10000 2 50 23:23 13.05.2020
3062 Clouds 2 1011 93 10000 2 10 22:59 13.05.2020
3063 Clouds 1 1011 100 10000 3 40 22:41 13.05.2020
3064 Clouds 1 1011 100 10000 3 40 22:21 13.05.2020
3065 Clouds 1 1011 100 10000 3 40 22:21 13.05.2020
3066 Clouds 2 1011 93 10000 2 340 21:57 13.05.2020
3067 Clouds 1 1011 100 10000 2 270 21:39 13.05.2020
3068 Clouds 1 1011 100 10000 2 270 21:19 13.05.2020
3069 Clouds 1 1010 100 10000 2 330 20:42 13.05.2020
3070 Clouds 1 1010 100 10000 2 330 20:23 13.05.2020
3071 Clouds 1 1010 89 10000 2 340 19:59 13.05.2020
3072 Clouds 1 1009 89 10000 2 340 19:40 13.05.2020
3073 Clouds 1 1009 89 10000 2 340 19:22 13.05.2020
3074 Clouds 0 1009 89 10000 2 350 18:42 13.05.2020
3075 -273 0 0 0 0 0 18:22 13.05.2020
3076 Clouds 0 1009 90 10000 2 350 18:21 13.05.2020
3077 Clouds 0 1009 90 10000 2 350 18:20 13.05.2020
3078 Clouds 1 1009 90 10000 1 340 17:39 13.05.2020
3079 Clouds 1 1009 89 10000 1 340 17:20 13.05.2020
3080 Clouds 0 1009 89 10000 1 230 16:56 13.05.2020
3081 Clouds 1 1008 89 10000 1 60 16:37 13.05.2020
3082 Clouds 1 1008 90 10000 1 60 16:18 13.05.2020
3083 Clouds 2 1008 90 10000 2 70 15:42 13.05.2020
3084 Clouds 2 1008 84 10000 2 70 15:20 13.05.2020
3085 Clouds 2 1008 84 10000 1 70 14:57 13.05.2020
3086 Clouds 3 1007 86 10000 2 360 14:39 13.05.2020
3087 Clouds 3 1007 86 10000 2 360 14:21 13.05.2020
3088 Clouds 4 1007 80 10000 1 80 13:57 13.05.2020
3089 Clouds 5 1007 80 10000 1 100 13:39 13.05.2020
3090 Clouds 5 1007 80 10000 1 100 13:20 13.05.2020
3091 Clouds 6 1006 75 10000 2 150 12:43 13.05.2020
3092 Clouds 6 1006 75 10000 2 150 12:23 13.05.2020
3093 Clouds 7 1006 70 10000 1 80 11:57 13.05.2020
3094 Clouds 7 1005 65 10000 1 90 11:39 13.05.2020
3095 Clouds 7 1005 65 10000 1 90 11:21 13.05.2020
3096 Clouds 7 1005 70 10000 2 80 10:59 13.05.2020
3097 Clouds 7 1005 65 10000 1 80 10:39 13.05.2020
3098 Clouds 7 1005 65 10000 1 80 10:20 13.05.2020
3099 Clouds 6 1004 70 10000 1 90 09:59 13.05.2020
3100 Clouds 5 1004 75 10000 1 90 09:40 13.05.2020
3101 Clouds 5 1004 75 10000 1 90 09:21 13.05.2020
3102 Clouds 4 1004 80 10000 3 140 08:41 13.05.2020
3103 Clouds 4 1004 80 10000 3 140 08:22 13.05.2020
3104 Clouds 5 1004 75 10000 2 130 07:59 13.05.2020
3105 Clouds 5 1004 75 10000 2 130 07:59 13.05.2020
3106 Clouds 5 1003 75 10000 3 110 07:36 13.05.2020
3107 Clouds 5 1003 86 10000 1 220 06:59 13.05.2020
3108 Rain 3 1003 86 10000 1 140 06:41 13.05.2020
3109 Rain 2 1003 93 10000 2 70 05:50 13.05.2020
3110 Rain 3 1003 86 10000 3 70 04:41 13.05.2020
3111 Clouds 4 1003 69 10000 3 360 02:59 13.05.2020
3112 Clouds 3 1003 74 10000 3 340 02:22 13.05.2020
3113 Clouds 3 1003 74 10000 3 350 01:22 13.05.2020
3114 Clouds 2 1002 74 10000 3 320 00:41 13.05.2020
3115 Clouds 2 1002 74 10000 3 320 00:19 13.05.2020
3116 Clouds 2 1002 80 10000 3 310 23:40 12.05.2020
3117 Clouds 2 1002 80 10000 3 310 23:21 12.05.2020
3118 Clouds 2 1002 80 10000 3 300 22:57 12.05.2020
3119 Clouds 2 1002 80 10000 3 300 22:39 12.05.2020
3120 Clouds 2 1002 80 10000 3 300 22:20 12.05.2020
3121 Clouds 2 1002 80 10000 3 300 21:55 12.05.2020
3122 Clouds 2 1002 80 10000 3 310 21:37 12.05.2020
3123 Clouds 2 1002 80 10000 2 310 21:18 12.05.2020
3124 Clouds 2 1002 80 10000 2 310 20:56 12.05.2020
3125 Clouds 2 1001 80 10000 2 310 20:38 12.05.2020
3126 Clouds 2 1001 80 10000 2 310 20:19 12.05.2020
3127 Clouds 2 1001 80 10000 2 310 19:55 12.05.2020
3128 Clouds 3 1001 74 10000 2 310 19:37 12.05.2020
3129 Clouds 3 1001 74 10000 3 310 19:18 12.05.2020
3130 Clouds 3 1001 74 10000 3 310 18:41 12.05.2020
3131 Clouds 3 1001 74 10000 3 310 18:23 12.05.2020
3132 Clouds 3 1001 74 10000 3 310 17:54 12.05.2020
3133 Clouds 4 1001 69 10000 4 290 17:36 12.05.2020
3134 Clouds 4 1001 64 10000 3 300 17:18 12.05.2020
3135 Clouds 4 1001 64 10000 3 290 16:42 12.05.2020
3136 Clouds 4 1001 64 10000 3 290 16:21 12.05.2020
3137 Clouds 5 1001 60 10000 4 300 15:55 12.05.2020
3138 Clouds 5 1001 60 10000 4 300 15:36 12.05.2020
3139 Clouds 6 1000 56 10000 4 290 15:18 12.05.2020
3140 Clouds 6 1000 56 10000 4 290 14:55 12.05.2020
3141 Clouds 6 1000 56 10000 3 290 14:36 12.05.2020
3142 Clouds 7 1000 48 10000 2 300 14:18 12.05.2020
3143 Clouds 7 1000 48 10000 2 300 13:55 12.05.2020
3144 Clouds 7 1000 48 10000 3 300 13:37 12.05.2020
3145 Clouds 8 1000 45 10000 4 320 13:18 12.05.2020
3146 Clouds 8 1000 45 10000 4 320 12:56 12.05.2020
3147 Clouds 8 1000 45 10000 4 300 12:37 12.05.2020
3148 Clouds 8 1000 45 10000 4 300 12:19 12.05.2020
3149 Clouds 9 999 42 10000 5 290 11:56 12.05.2020
3150 Clouds 9 999 39 10000 3 310 11:37 12.05.2020
3151 Clouds 9 999 39 10000 3 310 11:19 12.05.2020
3152 Clouds 9 999 39 10000 3 310 10:55 12.05.2020
3153 Clouds 9 999 36 10000 2 300 10:37 12.05.2020
3154 Clouds 9 999 36 10000 3 280 10:18 12.05.2020
3155 Clouds 9 999 36 10000 3 280 09:55 12.05.2020
3156 Clouds 9 999 36 10000 3 270 09:37 12.05.2020
3157 Clouds 9 999 36 10000 3 270 09:19 12.05.2020
3158 Clouds 9 998 36 10000 3 290 08:39 12.05.2020
3159 Clouds 9 998 36 10000 3 290 08:21 12.05.2020
3160 Clouds 9 998 39 10000 4 320 07:45 12.05.2020
3161 Clouds 9 998 39 10000 4 320 07:27 12.05.2020
3162 Clouds 9 998 42 10000 4 290 06:56 12.05.2020
3163 Clouds 9 998 39 10000 3 340 06:37 12.05.2020
3164 Clouds 9 998 39 10000 2 340 06:18 12.05.2020
3165 Clouds 9 998 39 10000 2 270 05:45 12.05.2020
3166 Clouds 6 998 48 10000 3 280 03:53 12.05.2020
3167 Clouds 6 998 48 10000 4 300 03:18 12.05.2020
3168 Clouds 5 998 52 10000 4 300 02:26 12.05.2020
3169 Clouds 4 998 55 10000 3 280 01:33 12.05.2020
3170 Clouds 4 998 55 10000 4 290 00:58 12.05.2020
3171 Clouds 3 998 59 10000 3 290 00:23 12.05.2020
3172 Clouds 3 998 59 10000 2 280 23:56 11.05.2020
3173 Clouds 3 998 64 10000 2 280 23:37 11.05.2020
3174 Clouds 3 998 64 10000 2 280 23:19 11.05.2020
3175 Clouds 3 998 64 10000 2 280 22:55 11.05.2020
3176 Clouds 3 998 64 10000 3 290 22:37 11.05.2020
3177 Clouds 3 998 64 10000 3 290 22:19 11.05.2020
3178 Clouds 3 998 59 10000 4 300 21:54 11.05.2020
3179 Clouds 2 998 69 10000 3 300 21:36 11.05.2020
3180 Clouds 2 998 64 10000 1 290 21:18 11.05.2020
3181 Clouds 2 998 69 10000 2 280 20:42 11.05.2020
3182 Clouds 2 998 69 10000 2 280 20:21 11.05.2020
3183 Clouds 1 998 69 10000 3 300 19:59 11.05.2020
3184 Clouds 1 998 74 10000 3 300 19:41 11.05.2020
3185 Clouds 1 998 74 10000 3 300 19:22 11.05.2020
3186 Clouds 2 998 69 10000 4 300 18:57 11.05.2020
3187 Clouds 2 998 69 10000 4 290 18:38 11.05.2020
3188 Clouds 2 998 69 10000 4 290 18:19 11.05.2020
3189 Clouds 3 998 64 10000 4 280 17:57 11.05.2020
3190 Clouds 3 998 64 10000 4 290 17:39 11.05.2020
3191 Clouds 3 998 64 10000 4 290 17:20 11.05.2020
3192 Clouds 3 998 64 10000 4 280 16:56 11.05.2020
3193 Clouds 3 998 64 10000 4 280 16:37 11.05.2020
3194 Clouds 4 998 60 10000 4 280 16:18 11.05.2020
3195 Clouds 5 999 56 10000 3 280 15:42 11.05.2020
3196 Clouds 5 999 56 10000 3 280 15:20 11.05.2020
3197 Clouds 6 999 52 10000 3 280 14:58 11.05.2020
3198 Clouds 6 999 52 10000 3 310 14:40 11.05.2020
3199 Clouds 6 999 52 10000 3 310 14:21 11.05.2020
3200 Clouds 8 998 45 10000 4 310 13:42 11.05.2020
3201 Clouds 8 998 45 10000 4 310 13:23 11.05.2020
3202 Clouds 8 998 42 10000 3 310 12:59 11.05.2020
3203 Clouds 9 998 39 10000 4 320 12:41 11.05.2020
3204 Clouds 9 998 39 10000 4 320 12:23 11.05.2020
3205 Clouds 9 998 36 10000 4 320 11:58 11.05.2020
3206 Clouds 9 998 39 10000 5 320 11:40 11.05.2020
3207 Clouds 9 998 39 10000 5 320 11:21 11.05.2020
3208 Clouds 9 998 36 10000 5 320 10:58 11.05.2020
3209 Clouds 9 998 36 10000 5 320 10:58 11.05.2020
3210 Clouds 10 998 34 10000 6 320 10:40 11.05.2020
3211 Clouds 10 998 34 10000 6 320 10:21 11.05.2020
3212 Clouds 10 998 34 10000 6 320 10:21 11.05.2020
3213 Clouds 10 998 31 10000 4 320 09:58 11.05.2020
3214 Clouds 10 997 31 10000 4 330 09:39 11.05.2020
3215 Clouds 10 997 31 10000 4 330 09:19 11.05.2020
3216 Clouds 10 997 31 10000 4 330 09:19 11.05.2020
3217 Clouds 10 997 31 10000 4 350 08:55 11.05.2020
3218 Clouds 10 997 31 10000 5 310 08:37 11.05.2020
3219 Clouds 10 997 31 10000 4 330 08:18 11.05.2020
3220 Clouds 10 997 31 10000 3 350 07:42 11.05.2020
3221 Clouds 10 997 31 10000 3 350 07:23 11.05.2020
3222 Clouds 11 997 32 10000 4 340 06:40 11.05.2020
3223 Clouds 11 997 32 10000 4 350 05:55 11.05.2020
3224 Clouds 10 997 37 10000 5 340 05:23 11.05.2020
3225 Clouds 9 998 39 10000 4 330 04:24 11.05.2020
3226 Clouds 5 998 48 10000 3 270 02:47 11.05.2020
3227 Clouds 5 998 48 10000 3 270 02:29 11.05.2020
3228 Clouds 4 998 51 10000 3 290 01:31 11.05.2020
3229 Clouds 2 999 64 10000 2 290 00:44 11.05.2020
3230 Clouds 2 999 64 10000 2 290 00:19 11.05.2020
3231 Clouds 0 999 83 10000 3 300 23:43 10.05.2020
3232 Clouds 0 999 90 10000 3 300 23:20 10.05.2020
3233 Clouds 0 999 90 10000 2 280 22:55 10.05.2020
3234 Clouds -1 998 74 10000 2 260 22:37 10.05.2020
3235 Clouds -1 998 74 10000 2 260 22:18 10.05.2020
3236 Clouds -2 999 79 10000 2 280 21:44 10.05.2020
3237 Clouds -2 999 79 10000 2 280 21:19 10.05.2020
3238 Clouds -2 999 79 10000 3 290 20:54 10.05.2020
3239 Clouds -2 999 79 10000 3 300 20:36 10.05.2020
3240 Clouds -2 999 79 10000 3 300 20:36 10.05.2020
3241 Clouds -1 999 74 10000 3 300 20:18 10.05.2020
3242 Clouds -1 999 74 10000 3 290 19:40 10.05.2020
3243 Clouds -1 999 74 10000 3 290 19:22 10.05.2020
3244 Clouds -1 999 80 10000 2 310 18:57 10.05.2020
3245 Clouds -1 999 80 10000 2 310 18:57 10.05.2020
3246 Clouds 0 1000 93 10000 2 340 18:37 10.05.2020
3247 Clouds 0 1000 93 10000 2 340 18:19 10.05.2020
3248 Clouds 1 1000 69 10000 2 360 17:58 10.05.2020
3249 Clouds 2 1000 64 10000 2 330 17:40 10.05.2020
3250 Clouds 2 1000 64 10000 2 330 17:21 10.05.2020
3251 Clouds 2 1000 69 10000 1 320 16:57 10.05.2020
3252 Clouds 2 1000 69 10000 2 340 16:38 10.05.2020
3253 Clouds 2 1000 69 10000 2 340 16:19 10.05.2020
3254 Clouds 3 1000 64 10000 1 30 15:44 10.05.2020
3255 Clouds 3 1000 64 10000 1 30 15:25 10.05.2020
3256 Clouds 3 1000 64 10000 1 50 14:58 10.05.2020
3257 Clouds 3 1000 64 10000 1 70 14:38 10.05.2020
3258 Clouds 3 1000 64 10000 1 70 14:20 10.05.2020
3259 Clouds 4 1000 51 10000 2 30 13:59 10.05.2020
3260 Clouds 4 1001 51 10000 2 30 13:38 10.05.2020
3261 Clouds 4 1001 51 10000 2 30 13:20 10.05.2020
3262 Clouds 4 1001 48 10000 2 20 12:57 10.05.2020
3263 Clouds 5 1001 44 10000 3 40 12:39 10.05.2020
3264 Clouds 5 1001 44 10000 3 40 12:21 10.05.2020
3265 Clouds 5 1001 44 10000 3 30 11:57 10.05.2020
3266 Clouds 5 1001 41 10000 3 20 11:39 10.05.2020
3267 Clouds 5 1001 41 10000 3 20 11:19 10.05.2020
3268 Clouds 5 1001 44 10000 2 30 10:46 10.05.2020
3269 Clouds 5 1001 44 10000 2 30 10:28 10.05.2020
3270 Clouds 5 1001 44 10000 2 70 09:58 10.05.2020
3271 Clouds 5 1002 44 10000 1 110 09:40 10.05.2020
3272 Clouds 5 1002 44 10000 1 110 09:20 10.05.2020
3273 Clouds 5 1002 41 10000 2 90 08:50 10.05.2020
3274 Clouds 4 1002 44 10000 2 80 08:24 10.05.2020
3275 Clouds 4 1003 48 10000 2 80 07:45 10.05.2020
3276 Clouds 4 1003 48 10000 2 80 07:21 10.05.2020
3277 Clouds 5 1003 48 10000 2 150 06:57 10.05.2020
3278 Clouds 4 1004 44 10000 2 40 06:32 10.05.2020
3279 Clouds 5 1004 41 10000 2 300 05:52 10.05.2020
3280 Clouds 3 1005 44 10000 2 290 04:55 10.05.2020
3281 Clouds 3 1006 47 10000 2 240 04:36 10.05.2020
3282 Clouds 2 1006 47 10000 2 270 03:57 10.05.2020
3283 Clouds 2 1007 51 10000 4 290 03:38 10.05.2020
3284 Clouds 0 1008 74 10000 4 310 02:48 10.05.2020
3285 Clear 0 1008 82 10000 4 310 02:19 10.05.2020
3286 Clear -1 1009 58 10000 3 270 01:42 10.05.2020
3287 Clear -1 1009 58 10000 3 270 01:20 10.05.2020
3288 Clear -1 1009 54 10000 3 300 00:55 10.05.2020
3289 Clear -2 1009 63 10000 3 300 00:26 10.05.2020
3290 Clear -3 1010 68 10000 3 290 23:59 09.05.2020
3291 Clear -4 1010 79 10000 3 290 23:39 09.05.2020
3292 Clear -4 1010 79 10000 3 290 23:20 09.05.2020
3293 Clear -5 1010 85 10000 2 290 22:43 09.05.2020
3294 Clear -5 1010 85 10000 2 290 22:24 09.05.2020
3295 Clear -5 1010 85 10000 2 270 21:59 09.05.2020
3296 Clouds -5 1011 85 10000 3 280 21:41 09.05.2020
3297 Clouds -5 1011 85 10000 3 280 21:41 09.05.2020
3298 Clouds -5 1011 85 10000 3 280 21:21 09.05.2020
3299 Clouds -4 1011 85 10000 3 270 20:58 09.05.2020
3300 Clouds -3 1011 79 10000 2 260 20:38 09.05.2020
3301 Clouds -3 1011 79 10000 2 260 20:20 09.05.2020
3302 Clouds -3 1011 79 10000 3 250 19:56 09.05.2020
3303 Clouds -3 1011 79 10000 2 260 19:38 09.05.2020
3304 Clouds -3 1011 79 10000 2 260 19:19 09.05.2020
3305 Clouds -2 1012 74 10000 4 330 18:44 09.05.2020
3306 Clouds -2 1012 74 10000 4 330 18:26 09.05.2020
3307 Clouds -2 1012 74 10000 4 310 17:46 09.05.2020
3308 Clouds -2 1012 74 10000 4 310 17:23 09.05.2020
3309 Clouds -2 1012 74 10000 3 300 16:58 09.05.2020
3310 Clouds -2 1012 74 10000 4 290 16:40 09.05.2020
3311 Clouds -2 1012 74 10000 4 290 16:19 09.05.2020
3312 Clouds -2 1013 74 10000 4 310 15:45 09.05.2020
3313 Clouds -2 1013 74 10000 4 310 15:26 09.05.2020
3314 Clouds -2 1013 74 10000 4 300 14:59 09.05.2020
3315 Clouds -2 1013 74 10000 3 300 14:40 09.05.2020
3316 Clouds -2 1013 74 10000 3 300 14:19 09.05.2020
3317 Clouds -2 1013 74 10000 4 290 13:56 09.05.2020
3318 Clouds -1 1012 68 10000 5 290 13:38 09.05.2020
3319 Clouds -1 1012 68 10000 5 290 13:19 09.05.2020
3320 Clouds -1 1012 63 10000 5 270 12:42 09.05.2020
3321 Clouds -1 1012 63 10000 5 270 12:22 09.05.2020
3322 Clouds 0 1012 86 10000 4 280 11:56 09.05.2020
3323 Clouds -1 1012 68 10000 5 260 11:37 09.05.2020
3324 Clouds 0 1012 83 10000 5 270 11:18 09.05.2020
3325 Clouds 0 1012 83 10000 5 270 11:18 09.05.2020
3326 Clouds -1 1012 74 10000 5 280 10:43 09.05.2020
3327 Clouds -1 1012 74 10000 5 280 10:23 09.05.2020
3328 Clouds 0 1012 80 10000 4 280 09:56 09.05.2020
3329 Snow 0 1012 80 10000 5 300 09:37 09.05.2020
3330 Snow -1 1012 80 10000 5 300 09:18 09.05.2020
3331 Snow -1 1012 80 10000 5 300 08:51 09.05.2020
3332 Snow -1 1011 80 3200 6 270 08:31 09.05.2020
3333 Snow -1 1011 80 10000 5 270 07:49 09.05.2020
3334 Snow -1 1011 74 10000 5 270 07:31 09.05.2020
3335 Clouds -1 1011 74 5000 5 270 06:47 09.05.2020
3336 Clouds -1 1011 74 5000 5 270 06:23 09.05.2020
3337 Snow -2 1011 86 5000 5 280 05:45 09.05.2020
3338 Snow -2 1010 92 3200 4 270 03:54 09.05.2020
3339 Snow -2 1010 92 3200 4 270 03:36 09.05.2020
3340 Snow -2 1009 92 2400 2 240 02:32 09.05.2020
3341 Snow -2 1009 92 2400 2 250 01:52 09.05.2020
3342 Snow -2 1009 86 2400 3 260 01:24 09.05.2020
3343 Snow -2 1009 86 10000 3 260 00:54 09.05.2020
3344 Snow -1 1009 80 10000 2 250 00:36 09.05.2020
3345 Snow -2 1008 86 10000 3 240 23:54 08.05.2020
3346 Snow -2 1008 86 10000 3 250 23:36 08.05.2020
3347 Snow -2 1008 86 10000 3 250 23:18 08.05.2020
3348 Snow -2 1008 86 10000 3 230 22:42 08.05.2020
3349 Snow -2 1008 86 10000 3 230 22:20 08.05.2020
3350 Snow -3 1008 92 10000 3 240 21:59 08.05.2020
3351 Snow -3 1008 92 5000 3 250 21:40 08.05.2020
3352 Snow -3 1008 92 5000 3 250 21:19 08.05.2020
3353 Snow -2 1008 92 3200 2 240 20:58 08.05.2020
3354 Snow -2 1008 86 5000 3 200 20:39 08.05.2020
3355 Snow -2 1008 86 5000 3 200 20:39 08.05.2020
3356 Snow -2 1008 86 5000 3 200 20:21 08.05.2020
3357 Snow -2 1008 86 5000 3 200 20:21 08.05.2020
3358 Clouds -2 1007 86 10000 3 200 19:44 08.05.2020
3359 Clouds -2 1007 86 10000 3 200 19:24 08.05.2020
3360 Clouds -2 1007 86 10000 3 210 18:57 08.05.2020
3361 Clouds -2 1007 86 10000 3 220 18:39 08.05.2020
3362 Clouds -2 1007 86 10000 3 220 18:21 08.05.2020
3363 Clouds -2 1007 79 10000 3 210 17:42 08.05.2020
3364 Clouds -1 1007 74 10000 3 220 17:19 08.05.2020
3365 Clouds -2 1007 79 10000 3 210 16:46 08.05.2020
3366 Clouds -2 1007 79 10000 3 210 16:27 08.05.2020
3367 Clouds -1 1007 80 10000 3 210 15:58 08.05.2020
3368 Clouds -1 1007 80 10000 3 210 15:58 08.05.2020
3369 Clouds -1 1007 86 10000 3 210 15:40 08.05.2020
3370 Clouds -1 1007 86 10000 3 210 15:18 08.05.2020
3371 Clouds -1 1006 86 10000 2 200 14:54 08.05.2020
3372 Snow -1 1006 92 10000 2 210 14:36 08.05.2020
3373 Snow 0 1006 90 10000 3 220 14:18 08.05.2020
3374 Snow 0 1006 90 10000 2 210 13:41 08.05.2020
3375 Snow 0 1006 85 10000 2 210 13:20 08.05.2020
3376 Snow 0 1005 85 5000 4 220 12:55 08.05.2020
3377 Clouds 0 1005 79 10000 3 160 12:36 08.05.2020
3378 Clouds 1 1004 74 10000 3 180 12:18 08.05.2020
3379 Clouds 1 1004 74 10000 3 190 11:43 08.05.2020
3380 Clouds 1 1004 74 10000 3 190 11:22 08.05.2020
3381 Snow 1 1003 80 10000 3 190 10:58 08.05.2020
3382 Clouds 1 1003 74 10000 4 210 10:40 08.05.2020
3383 Clouds 1 1002 80 10000 5 210 10:19 08.05.2020
3384 Clouds 1 1002 80 10000 5 210 09:54 08.05.2020
3385 Snow 1 1002 74 10000 5 190 09:36 08.05.2020
3386 Clouds 1 1001 69 10000 6 200 09:18 08.05.2020
3387 Clouds 1 1001 69 10000 5 190 08:40 08.05.2020
3388 Clouds 1 1001 69 10000 5 190 08:21 08.05.2020
3389 Clouds 1 1000 69 10000 6 190 07:43 08.05.2020
3390 Clouds 1 1000 69 10000 6 190 07:23 08.05.2020
3391 Clouds 1 999 69 10000 6 180 06:50 08.05.2020
3392 Clouds 1 999 69 10000 6 180 06:22 08.05.2020
3393 Clouds 0 998 78 10000 6 180 05:41 08.05.2020
3394 Clouds 0 996 81 10000 7 190 04:30 08.05.2020
3395 Snow 0 993 89 10000 8 170 02:32 08.05.2020
3396 Rain 0 991 92 10000 6 170 01:47 08.05.2020
3397 Rain 0 991 90 10000 6 170 01:27 08.05.2020
3398 Clouds 1 991 90 10000 7 180 00:51 08.05.2020
3399 Rain 7 990 93 10000 3 110 00:29 08.05.2020
3400 Rain 6 990 93 10000 3 150 23:58 07.05.2020
3401 Rain 6 990 93 10000 1 160 23:40 07.05.2020
3402 Rain 6 990 93 10000 1 160 23:21 07.05.2020
3403 Clouds 7 990 81 10000 2 170 22:55 07.05.2020
3404 Clouds 7 990 81 10000 2 180 22:37 07.05.2020
3405 Clouds 7 990 81 10000 2 180 22:19 07.05.2020
3406 Clouds 8 990 75 10000 3 180 21:55 07.05.2020
3407 Clouds 7 990 65 10000 4 180 21:36 07.05.2020
3408 Clouds 6 990 60 10000 2 160 21:18 07.05.2020
3409 Clouds 6 990 60 10000 1 80 20:42 07.05.2020
3410 Clouds 6 990 60 10000 1 80 20:22 07.05.2020
3411 Clouds 7 990 56 10000 2 30 19:54 07.05.2020
3412 Clouds 8 990 52 10000 2 320 19:36 07.05.2020
3413 Clouds 9 990 96 10000 3 320 19:18 07.05.2020
3414 Clouds 10 991 53 10000 3 310 18:43 07.05.2020
3415 Clouds 10 991 53 10000 3 310 18:25 07.05.2020
3416 Clouds 11 992 57 10000 4 250 17:43 07.05.2020
3417 Clouds 11 992 57 10000 4 250 17:21 07.05.2020
3418 Clouds 11 991 57 10000 6 280 16:59 07.05.2020
3419 Clouds 11 991 57 10000 6 280 16:40 07.05.2020
3420 Clouds 11 991 57 10000 7 270 16:18 07.05.2020
3421 Clouds 11 991 57 10000 7 270 15:56 07.05.2020
3422 Clouds 11 992 57 10000 8 270 15:37 07.05.2020
3423 Clouds 12 991 46 10000 6 270 15:18 07.05.2020
3424 Clouds 13 991 24 10000 1 40 14:43 07.05.2020
3425 Clouds 13 991 24 10000 1 40 14:21 07.05.2020
3426 Clouds 14 991 20 10000 4 90 13:45 07.05.2020
3427 Clouds 14 991 20 10000 4 90 13:26 07.05.2020
3428 Clouds 14 991 20 10000 5 90 12:54 07.05.2020
3429 Clouds 14 991 20 10000 4 90 12:36 07.05.2020
3430 Clouds 14 992 22 10000 4 70 12:18 07.05.2020
3431 Clouds 16 992 17 10000 4 90 11:39 07.05.2020
3432 Clouds 16 992 17 10000 4 90 11:21 07.05.2020
3433 Clouds 16 992 17 10000 4 90 10:43 07.05.2020
3434 Clouds 16 992 17 10000 4 90 10:25 07.05.2020
3435 Clouds 17 993 17 10000 4 90 09:56 07.05.2020
3436 Clouds 17 993 16 10000 5 100 09:38 07.05.2020
3437 Clouds 17 993 16 10000 4 90 09:18 07.05.2020
3438 Clouds 17 993 16 10000 4 90 09:18 07.05.2020
3439 Clouds 18 994 15 10000 3 110 08:42 07.05.2020
3440 Clouds 18 994 15 10000 3 110 08:22 07.05.2020
3441 Clouds 17 994 14 10000 4 110 07:57 07.05.2020
3442 Clouds 17 994 14 10000 4 110 07:57 07.05.2020
3443 Clouds 18 995 13 10000 4 110 07:39 07.05.2020
3444 Clouds 17 995 14 10000 4 120 07:18 07.05.2020
3445 Clouds 17 996 14 10000 4 130 06:37 07.05.2020
3446 Clouds 17 996 13 10000 5 120 05:47 07.05.2020
3447 Clouds 14 997 19 10000 4 130 04:27 07.05.2020
3448 Clouds 15 998 16 10000 3 140 03:29 07.05.2020
3449 Clouds 14 998 19 10000 1 80 02:59 07.05.2020
3450 Clouds 11 998 23 10000 1 70 02:26 07.05.2020
3451 Clouds 9 999 26 10000 1 290 01:25 07.05.2020
3452 Clouds 8 999 28 10000 1 100 00:51 07.05.2020
3453 Clouds 5 1000 44 10000 1 30 00:31 07.05.2020
3454 Clouds 3 1000 55 10000 1 30 23:58 06.05.2020
3455 Clouds 2 1000 59 10000 2 40 23:39 06.05.2020
3456 Clouds 2 1000 59 10000 2 40 23:39 06.05.2020
3457 Clouds 2 1000 59 10000 2 40 23:21 06.05.2020
3458 Clouds 2 1000 59 10000 1 110 22:55 06.05.2020
3459 Clouds 0 1001 89 10000 2 100 22:37 06.05.2020
3460 Clouds 0 1001 92 10000 1 100 22:18 06.05.2020
3461 Clouds 1 1001 59 10000 2 80 21:42 06.05.2020
3462 Clouds 1 1001 59 10000 2 80 21:23 06.05.2020
3463 Clouds 0 1001 93 10000 2 50 20:58 06.05.2020
3464 Clouds 0 1002 93 10000 2 360 20:39 06.05.2020
3465 Clouds 0 1002 91 10000 2 360 20:21 06.05.2020
3466 Clouds 1 1002 59 10000 1 340 19:56 06.05.2020
3467 Clouds 0 1002 91 10000 1 300 19:38 06.05.2020
3468 Clouds 1 1002 59 10000 2 310 19:18 06.05.2020
3469 Clouds 1 1002 59 10000 2 310 18:56 06.05.2020
3470 Clouds 2 1002 55 10000 1 310 18:37 06.05.2020
3471 Clouds 2 1002 55 10000 1 310 18:19 06.05.2020
3472 Clouds 1 1002 59 10000 1 280 17:55 06.05.2020
3473 Clouds 2 1003 55 10000 1 310 17:36 06.05.2020
3474 Clouds 2 1003 59 10000 1 250 17:18 06.05.2020
3475 Clouds 2 1003 59 10000 1 250 16:57 06.05.2020
3476 Clouds 2 1003 59 10000 2.13 135 16:39 06.05.2020
3477 Clouds 2 1003 59 10000 1.72 143 16:20 06.05.2020
3478 Clouds 6 1004 33 10000 2 130 15:48 06.05.2020
3479 Clouds 6 1004 33 10000 2 130 15:23 06.05.2020
3480 Clouds 6 1003 41 10000 2 90 14:59 06.05.2020
3481 Clouds 8 1003 33 10000 2 100 14:39 06.05.2020
3482 Clouds 8 1003 33 10000 2 100 14:19 06.05.2020
3483 Clouds 8 1003 33 10000 2 100 14:19 06.05.2020
3484 Clouds 9 1004 31 10000 2 90 13:58 06.05.2020
3485 Clouds 10 1003 27 10000 2 90 13:39 06.05.2020
3486 Clouds 13 1004 17 10000 2.47 133 13:19 06.05.2020
3487 Clouds 14 1004 17 10000 1 160 12:43 06.05.2020
3488 Clouds 14 1004 17 10000 1 160 12:25 06.05.2020
3489 Clouds 14 1004 15 10000 1 130 11:42 06.05.2020
3490 Clouds 14 1004 15 10000 1 130 11:23 06.05.2020
3491 Clouds 14 1004 15 10000 3 130 10:58 06.05.2020
3492 Clouds 14 1004 14 10000 3 150 10:40 06.05.2020
3493 Clouds 14 1004 14 10000 3 150 10:20 06.05.2020
3494 Clouds 13 1004 15 10000 3 140 09:59 06.05.2020
3495 Clouds 13 1004 15 10000 3 140 09:38 06.05.2020
3496 Clouds 13 1005 13 10000 4 130 09:20 06.05.2020
3497 Clouds 13 1005 11 10000 5 140 08:44 06.05.2020
3498 Clouds 13 1005 11 10000 5 140 08:21 06.05.2020
3499 Clouds 13 1005 15 10000 4 130 07:56 06.05.2020
3500 Clouds 13 1005 17 10000 5 140 07:38 06.05.2020
3501 Clouds 13 1005 17 10000 5 140 07:19 06.05.2020
3502 Clouds 12 1006 22 10000 5 140 06:49 06.05.2020
3503 Clouds 12 1006 23 10000 5 130 06:21 06.05.2020
3504 Clouds 12 1006 22 10000 5 130 05:50 06.05.2020
3505 Clouds 11 1007 23 10000 5 140 05:31 06.05.2020
3506 Clouds 9 1007 31 10000 3 120 03:54 06.05.2020
3507 Clouds 8 1008 36 10000 2 130 03:31 06.05.2020
3508 Clouds 7 1008 42 10000 2 140 02:58 06.05.2020
3509 Clouds 5 1008 48 10000 2 130 02:28 06.05.2020
3510 Clouds 2 1009 64 10000 1 130 01:46 06.05.2020
3511 Clouds 2 1009 64 10000 1 130 01:26 06.05.2020
3512 Clouds 0 1009 70 10000 1 130 00:45 06.05.2020
3513 Clouds 0 1009 77 10000 1 130 00:23 06.05.2020
3514 Clouds -3 1009 73 10000 1.55 186 23:42 05.05.2020
3515 Clouds -3 1009 73 10000 1.42 193 23:20 05.05.2020
3516 Clouds -4 1009 73 10000 1 280 22:57 05.05.2020
3517 Clouds -4 1009 73 10000 2 290 22:38 05.05.2020
3518 Clouds -4 1009 73 10000 2 290 22:19 05.05.2020
3519 Clouds -5 1009 79 10000 2 290 21:41 05.05.2020
3520 Clear -5 1009 79 10000 2 290 21:22 05.05.2020
3521 Clear -4 1009 68 10000 1 340 20:59 05.05.2020
3522 Clear -4 1009 68 10000 1 340 20:59 05.05.2020
3523 Clear -5 1010 73 10000 2 290 20:41 05.05.2020
3524 Clear -5 1010 73 10000 2 290 20:20 05.05.2020
3525 Clear -4 1010 73 10000 3 300 19:59 05.05.2020
3526 Clear -4 1010 73 10000 2 280 19:41 05.05.2020
3527 Clear -4 1010 73 10000 2 280 19:23 05.05.2020
3528 Clear -3 1010 68 10000 2 280 18:57 05.05.2020
3529 Clear -3 1010 68 10000 3 290 18:39 05.05.2020
3530 Clear -3 1010 68 10000 3 290 18:19 05.05.2020
3531 Clear -2 1011 63 10000 3 290 17:57 05.05.2020
3532 Clear -2 1010 63 10000 3 300 17:38 05.05.2020
3533 Clear -2 1010 63 10000 3 300 17:20 05.05.2020
3534 Clear -1 1011 63 10000 2 310 16:40 05.05.2020
3535 Clear -1 1011 63 10000 2 310 16:21 05.05.2020
3536 Clear 0 1011 90 10000 2 310 15:59 05.05.2020
3537 Clear 1 1011 59 10000 2 340 15:39 05.05.2020
3538 Clear 1 1011 59 10000 2 340 15:39 05.05.2020
3539 Clear 1 1011 59 10000 2 340 15:21 05.05.2020
3540 Clear 3 1011 44 10000 1 350 14:55 05.05.2020
3541 Clear 4 1011 41 10000 2 20 14:37 05.05.2020
3542 Clear 4 1011 41 10000 2 20 14:19 05.05.2020
3543 Clear 6 1011 30 10000 2 30 13:56 05.05.2020
3544 Clear 7 1011 30 10000 2 10 13:38 05.05.2020
3545 Clear 7 1011 30 10000 2 10 13:38 05.05.2020
3546 Clear 8 1011 24 10000 1 50 13:18 05.05.2020
3547 Clear 8 1011 24 10000 1 50 12:56 05.05.2020
3548 Clear 9 1011 21 10000 1 60 12:37 05.05.2020
3549 Clear 9 1011 21 10000 1 60 12:19 05.05.2020
3550 Clear 9 1012 23 10000 2 60 11:41 05.05.2020
3551 Clear 9 1012 23 10000 2 60 11:20 05.05.2020
3552 Clear 9 1012 21 10000 3 80 10:56 05.05.2020
3553 Clear 9 1012 21 10000 3 80 10:38 05.05.2020
3554 Clear 9 1012 21 10000 3 80 10:19 05.05.2020
3555 Clear 9 1012 21 10000 3 70 09:55 05.05.2020
3556 Clear 9 1012 21 10000 2 80 09:36 05.05.2020
3557 Clear 9 1012 23 10000 2 80 09:18 05.05.2020
3558 Clear 9 1012 21 10000 3 90 08:40 05.05.2020
3559 Clear 8 1013 24 10000 3 80 08:18 05.05.2020
3560 Clear 8 1013 24 10000 3 70 07:44 05.05.2020
3561 Clear 8 1013 24 10000 3 70 07:23 05.05.2020
3562 Clear 8 1013 24 10000 3 80 06:58 05.05.2020
3563 Clear 8 1013 24 10000 2 80 06:40 05.05.2020
3564 Clear 8 1014 24 10000 3 110 06:19 05.05.2020
3565 Clear 8 1014 24 10000 3 100 05:28 05.05.2020
3566 Clear 6 1015 28 10000 3 100 02:57 05.05.2020
3567 Clouds 5 1015 32 10000 1 350 01:20 05.05.2020
3568 Clouds 3 1015 37 10000 2 290 00:49 05.05.2020
3569 Clouds 0 1015 86 10000 2 300 00:18 05.05.2020
3570 Clouds -1 1015 50 10000 3 280 23:42 04.05.2020
3571 Clouds -1 1015 50 10000 3 280 23:21 04.05.2020
3572 Clouds -3 1015 58 10000 3 280 22:55 04.05.2020
3573 Clouds -4 1015 62 10000 2 280 22:37 04.05.2020
3574 Clouds -4 1015 62 10000 3 290 22:18 04.05.2020
3575 Clouds -4 1015 62 10000 3 290 21:52 04.05.2020
3576 Clouds -4 1015 62 10000 3 290 21:52 04.05.2020
3577 Clouds -4 1015 62 10000 3 290 21:52 04.05.2020
3578 Clouds -4 1015 62 10000 3 290 21:52 04.05.2020
3579 Clouds -4 1014 62 10000 3 290 21:26 04.05.2020
3580 Clouds -4 1014 62 10000 3 290 21:26 04.05.2020
3581 Clouds -4 1014 62 10000 3 290 21:26 04.05.2020
3582 Clouds -4 1014 62 10000 3 290 21:26 04.05.2020
3583 Clouds -4 1014 62 10000 3 290 21:26 04.05.2020
3584 Clouds -4 1014 62 10000 2 310 20:43 04.05.2020
3585 Clouds -4 1014 62 10000 2 310 20:43 04.05.2020
3586 Clouds -4 1014 62 10000 2 310 20:43 04.05.2020
3587 Clouds -4 1014 62 10000 2 310 20:21 04.05.2020
3588 Clouds -4 1014 62 10000 4 300 19:59 04.05.2020
3589 Clouds -4 1014 62 10000 4 300 19:59 04.05.2020
3590 Clouds -4 1014 62 10000 3 300 19:40 04.05.2020
3591 Clouds -4 1014 62 10000 3 300 19:19 04.05.2020
3592 Clouds -3 1014 63 10000 4 290 18:54 04.05.2020
3593 Clouds -3 1014 63 10000 4 290 18:36 04.05.2020
3594 Clouds -3 1014 63 10000 4 290 18:18 04.05.2020
3595 Clouds -3 1014 63 10000 4 290 17:54 04.05.2020
3596 Clouds -3 1014 63 10000 3 290 17:36 04.05.2020
3597 Clouds -2 1014 58 10000 3 300 17:18 04.05.2020
3598 Clouds -1 1014 54 10000 3 290 16:41 04.05.2020
3599 Clouds -1 1014 54 10000 3 290 16:20 04.05.2020
3600 Clouds 1 1014 50 10000 2 310 15:45 04.05.2020
3601 Clouds 1 1014 50 10000 2 310 15:24 04.05.2020
3602 Clouds 1 1014 43 10000 2 350 14:54 04.05.2020
3603 Clouds 1 1014 50 10000 2 10 14:33 04.05.2020
3604 Clouds 1 1014 50 10000 2 10 14:33 04.05.2020
3605 Clouds 1 1014 50 10000 2 10 14:31 04.05.2020
3606 Clouds 1 1014 50 10000 2 10 14:31 04.05.2020
3607 Clouds 4 1014 35 10000 3 40 13:40 04.05.2020
3608 Clouds 4 1014 35 10000 3 40 13:40 04.05.2020
3609 Clouds 4 1014 35 10000 3 40 13:40 04.05.2020
3610 Clouds 4 1014 35 10000 3 40 13:40 04.05.2020
3611 Clear 6 1013 28 10000 3 50 12:45 04.05.2020
3612 Clear 6 1013 28 10000 3 50 12:45 04.05.2020
3613 Clear 6 1013 28 10000 3 50 12:45 04.05.2020
3614 Clear 6 1013 28 10000 3 50 12:45 04.05.2020
3615 Clear 7 1013 26 10000 4 50 11:30 04.05.2020
3616 Clear 7 1013 26 10000 4 50 11:30 04.05.2020
3617 Clear 8 1013 20 10000 4 330 09:32 04.05.2020
3618 Clear 8 1013 20 10000 4 330 09:32 04.05.2020
3619 Clear 8 1013 20 10000 4 330 09:32 04.05.2020
3620 Clear 8 1013 20 10000 4 330 09:32 04.05.2020
3621 Clear 8 1013 20 10000 5 360 07:59 04.05.2020
3622 Clear 8 1013 22 10000 5 310 07:40 04.05.2020
3623 Clear 7 1013 24 10000 2 290 06:31 04.05.2020
3624 Clear 7 1013 24 10000 2 290 06:31 04.05.2020
3625 Clear 7 1013 24 10000 2 290 06:31 04.05.2020
3626 Clear 7 1013 24 10000 2 290 06:31 04.05.2020
3627 Clear 7 1013 24 10000 2 290 06:31 04.05.2020
3628 Clear 5 1013 25 10000 3 320 04:55 04.05.2020
3629 Clear 3 1014 29 10000 3 340 03:18 04.05.2020
3630 Clear 3 1014 29 10000 3 340 02:30 04.05.2020
3631 Clear 0 1014 88 10000 3 310 00:36 04.05.2020
3632 Clear -2 1014 58 10000 4 300 23:45 03.05.2020
3633 Clear -2 1014 58 10000 4 300 23:24 03.05.2020
3634 Clear -2 1014 58 10000 4 300 23:24 03.05.2020
3635 Clear -3 1013 63 10000 4 300 22:56 03.05.2020
3636 Clear -3 1013 63 10000 4 300 22:38 03.05.2020
3637 Clear -4 1013 68 10000 4 300 22:18 03.05.2020
3638 Clear -3 1013 63 10000 4 310 21:41 03.05.2020
3639 Clear -3 1013 63 10000 4 310 21:20 03.05.2020
3640 Clear -3 1013 63 10000 4 300 20:47 03.05.2020
3641 Clear -3 1013 63 10000 4 300 20:23 03.05.2020
3642 Clear -3 1013 63 10000 4 300 19:55 03.05.2020
3643 Clear -3 1013 63 10000 4 300 19:55 03.05.2020
3644 Clear -3 1013 63 10000 4 300 19:55 03.05.2020
3645 Clear -2 1013 58 10000 3 290 19:36 03.05.2020
3646 Clear -2 1013 58 10000 3 290 19:36 03.05.2020
3647 Clouds -2 1013 58 10000 4 300 19:18 03.05.2020
3648 Clouds -2 1013 58 10000 3 290 18:39 03.05.2020
3649 Clouds -2 1013 58 10000 3 290 18:39 03.05.2020
3650 Clouds -2 1013 58 10000 3 290 18:20 03.05.2020
3651 Clouds -1 1013 54 10000 3 290 17:42 03.05.2020
3652 Clouds -1 1013 54 10000 3 290 17:22 03.05.2020
3653 Clouds -1 1013 54 10000 3 300 16:56 03.05.2020
3654 Clouds -1 1013 54 10000 3 300 16:56 03.05.2020
3655 Clouds -1 1013 50 10000 3 300 16:37 03.05.2020
3656 Clouds 0 1013 93 10000 3 290 16:18 03.05.2020
3657 Clouds 0 1013 93 10000 3 290 15:55 03.05.2020
3658 Clouds 0 1013 93 10000 3 290 15:37 03.05.2020
3659 Clouds 1 1013 40 10000 4 290 15:18 03.05.2020
3660 Clouds 1 1013 40 10000 4 290 15:18 03.05.2020
3661 Clouds 1 1013 40 10000 3 280 14:41 03.05.2020
3662 Clouds 1 1013 40 10000 3 280 14:41 03.05.2020
3663 Clouds 1 1013 40 10000 3 280 14:22 03.05.2020
3664 Clouds 1 1013 40 10000 3 280 14:22 03.05.2020
3665 Clouds 1 1013 40 10000 3 280 14:22 03.05.2020
3666 Clouds 1 1013 40 10000 3 280 14:22 03.05.2020
3667 Clouds 1 1013 40 10000 3 280 14:22 03.05.2020
3668 Clouds 3 1013 32 10000 3 310 13:57 03.05.2020
3669 Clouds 3 1013 32 10000 3 310 13:33 03.05.2020
3670 Clouds 3 1013 32 10000 3 310 13:33 03.05.2020
3671 Clouds 3 1013 32 10000 3 310 13:33 03.05.2020
3672 Clouds 3 1013 32 10000 3 310 13:33 03.05.2020
3673 Clouds 5 1012 27 10000 5 320 12:47 03.05.2020
3674 Clouds 5 1012 27 10000 5 320 12:25 03.05.2020
3675 Clouds 5 1012 27 10000 5 320 12:25 03.05.2020
3676 Clouds 5 1012 27 10000 5 320 12:25 03.05.2020
3677 Clouds 5 1012 27 10000 6 320 11:57 03.05.2020
3678 Clouds 6 1012 26 10000 4 310 11:39 03.05.2020
3679 Clear 5 1012 27 10000 6 320 11:20 03.05.2020
3680 Clear 6 1012 26 10000 4 310 11:20 03.05.2020
3681 Clear 5 1012 27 10000 6 320 10:52 03.05.2020
3682 Clear 5 1012 27 10000 6 320 10:52 03.05.2020
3683 Clear 5 1012 27 10000 6 320 10:52 03.05.2020
3684 Clear 5 1012 27 10000 6 320 10:52 03.05.2020
3685 Clear 5 1012 27 10000 6 310 10:24 03.05.2020
3686 Clear 5 1012 27 10000 6 310 10:24 03.05.2020
3687 Clear 5 1012 27 10000 6 310 10:24 03.05.2020
3688 Clear 5 1012 27 10000 6 310 10:24 03.05.2020
3689 Clear 5 1012 27 10000 6 310 10:24 03.05.2020
3690 Clear 6 1012 28 10000 6 320 09:39 03.05.2020
3691 Clear 6 1012 28 10000 6 320 09:39 03.05.2020
3692 Clear 6 1012 28 10000 6 320 08:57 03.05.2020
3693 Clear 5 1012 27 10000 7 320 08:32 03.05.2020
3694 Clear 5 1012 27 10000 7 320 08:32 03.05.2020
3695 Clear 5 1012 27 10000 7 320 08:32 03.05.2020
3696 Clear 5 1012 27 10000 7 320 08:32 03.05.2020
3697 Clear 5 1012 27 10000 7 320 08:32 03.05.2020
3698 Clear 4 1012 32 10000 7 330 07:40 03.05.2020
3699 Clear 4 1012 32 10000 7 320 06:35 03.05.2020
3700 Clear 4 1012 32 10000 7 340 05:49 03.05.2020
3701 Clear 4 1012 32 10000 6 330 05:31 03.05.2020
3702 Clear 3 1012 34 10000 6 330 04:27 03.05.2020
3703 Clear 2 1012 40 10000 6 300 03:31 03.05.2020
3704 Clear 0 1012 77 10000 6 290 02:31 03.05.2020
3705 Clear 0 1012 85 10000 6 290 01:50 03.05.2020
3706 Clear -1 1012 50 10000 7 300 01:27 03.05.2020
3707 Clear -2 1012 58 10000 6 300 01:01 03.05.2020
3708 Clear -2 1012 58 10000 6 300 01:01 03.05.2020
3709 Clear -2 1012 58 10000 6 300 01:01 03.05.2020
3710 Clear -2 1012 54 10000 8 300 00:38 03.05.2020
3711 Clear -2 1012 54 10000 8 300 00:20 03.05.2020
3712 Clear -3 1012 58 10000 7 300 23:45 02.05.2020
3713 Clear -3 1012 58 10000 7 300 23:27 02.05.2020
3714 Clear -4 1012 68 10000 7 300 22:56 02.05.2020
3715 Clear -4 1012 68 10000 6 300 22:37 02.05.2020
3716 Clear -4 1012 68 10000 6 300 22:19 02.05.2020
3717 Clear -4 1011 68 10000 5 290 21:40 02.05.2020
3718 Clear -4 1011 68 10000 5 290 21:20 02.05.2020
3719 Clear -4 1011 68 10000 5 290 20:58 02.05.2020
3720 Clear -4 1011 68 10000 4 290 20:38 02.05.2020
3721 Clear -4 1011 68 10000 4 290 20:20 02.05.2020
3722 Clear -4 1011 68 10000 5 290 19:58 02.05.2020
3723 Clear -3 1011 58 10000 5 290 19:39 02.05.2020
3724 Clear -3 1011 58 10000 5 290 19:39 02.05.2020
3725 Clear -3 1011 58 10000 5 290 19:20 02.05.2020
3726 Clear -3 1011 58 10000 4 300 18:56 02.05.2020
3727 Clear -3 1011 58 10000 5 310 18:37 02.05.2020
3728 Clear -3 1011 58 10000 5 310 18:19 02.05.2020
3729 Clear -2 1011 54 10000 4 300 17:55 02.05.2020
3730 Clear -2 1011 54 10000 5 300 17:37 02.05.2020
3731 Clear -2 1011 54 10000 5 300 17:19 02.05.2020
3732 Clear -2 1011 54 10000 5 300 17:19 02.05.2020
3733 Clear -1 1011 50 10000 4 310 16:44 02.05.2020
3734 Clear -1 1011 50 10000 4 310 16:26 02.05.2020
3735 Clear -1 1011 50 10000 5 300 15:55 02.05.2020
3736 Clear -1 1011 50 10000 3 300 15:36 02.05.2020
3737 Clear 0 1011 88 10000 3 310 15:18 02.05.2020
3738 Clear 0 1011 88 10000 5 310 14:41 02.05.2020
3739 Clouds 0 1011 89 10000 5 310 14:23 02.05.2020
3740 Clouds 1 1011 40 10000 5 310 13:57 02.05.2020
3741 Clouds 1 1011 40 10000 5 310 13:37 02.05.2020
3742 Clouds 2 1010 37 10000 7 310 13:18 02.05.2020
3743 Clouds 3 1010 32 10000 7 300 12:40 02.05.2020
3744 Clouds 3 1010 32 10000 7 300 12:20 02.05.2020
3745 Clouds 3 1010 34 10000 8 320 11:57 02.05.2020
3746 Clouds 4 1009 29 10000 7 310 11:38 02.05.2020
3747 Clouds 4 1009 29 10000 7 310 11:20 02.05.2020
3748 Clouds 5 1009 30 10000 7 320 10:40 02.05.2020
3749 Clouds 5 1009 30 10000 7 320 10:40 02.05.2020
3750 Clouds 5 1009 30 10000 7 320 10:22 02.05.2020
3751 Clouds 4 1009 29 10000 8 330 09:59 02.05.2020
3752 Clouds 5 1008 25 10000 8 310 09:40 02.05.2020
3753 Clouds 5 1008 25 10000 8 310 09:22 02.05.2020
3754 Clouds 5 1008 27 10000 7 300 08:55 02.05.2020
3755 Clouds 5 1008 27 10000 7 320 08:37 02.05.2020
3756 Clouds 5 1008 27 10000 7 320 08:37 02.05.2020
3757 Clouds 5 1008 30 10000 7 310 08:19 02.05.2020
3758 Clouds 4 1008 29 10000 7 320 07:42 02.05.2020
3759 Clouds 4 1008 29 10000 7 320 07:23 02.05.2020
3760 Clouds 4 1007 32 10000 8 320 06:43 02.05.2020
3761 Clouds 3 1007 34 10000 6 300 05:28 02.05.2020
3762 Clouds 2 1007 40 10000 5 310 04:30 02.05.2020
3763 Clouds 2 1007 43 10000 4 270 03:50 02.05.2020
3764 Clouds -2 1007 58 10000 4 300 02:42 02.05.2020
3765 Clouds -2 1007 58 10000 5 280 01:58 02.05.2020
3766 Clouds -3 1007 63 10000 4 290 01:27 02.05.2020
3767 Clouds -3 1006 63 10000 5 310 00:43 02.05.2020
3768 Clouds -3 1006 63 10000 5 310 00:22 02.05.2020
3769 Clouds -3 1006 63 10000 6 310 23:55 01.05.2020
3770 Clouds -4 1006 73 10000 5 310 23:37 01.05.2020
3771 Clouds -4 1006 73 10000 5 310 23:18 01.05.2020
3772 Clouds -4 1005 73 10000 5 310 22:39 01.05.2020
3773 Clouds -4 1005 73 10000 5 310 22:20 01.05.2020
3774 Clouds -4 1005 73 10000 5 310 21:57 01.05.2020
3775 Clouds -4 1005 79 10000 5 310 21:39 01.05.2020
3776 Clouds -4 1005 79 10000 5 310 21:20 01.05.2020
3777 Clouds -3 1004 79 10000 5 320 20:57 01.05.2020
3778 Clouds -3 1004 86 10000 6 320 20:39 01.05.2020
3779 Clouds -3 1004 86 10000 6 320 20:20 01.05.2020
3780 Clouds -3 1004 86 10000 6 310 19:56 01.05.2020
3781 Clouds -2 1003 86 10000 5 320 19:38 01.05.2020
3782 Clouds -2 1003 86 10000 5 320 19:19 01.05.2020
3783 Clouds -2 1003 86 10000 6 320 18:55 01.05.2020
3784 Clouds -2 1002 86 10000 6 310 18:36 01.05.2020
3785 Clouds -1 1002 80 10000 5 320 18:18 01.05.2020
3786 Clouds -1 1001 86 10000 5 320 17:40 01.05.2020
3787 Clouds -1 1001 86 10000 5 320 17:21 01.05.2020
3788 Clouds 0 1001 96 10000 4 320 16:57 01.05.2020
3789 Clouds 0 1001 96 10000 5 320 16:39 01.05.2020
3790 Clouds 0 1001 96 10000 5 320 16:20 01.05.2020
3791 Clouds 1 1000 74 10000 5 320 15:57 01.05.2020
3792 Clouds 1 1000 55 10000 3 330 15:39 01.05.2020
3793 Clouds 1 1000 55 10000 3 330 15:19 01.05.2020
3794 Clouds 2 999 51 10000 3 340 14:43 01.05.2020
3795 Clouds 2 999 51 10000 3 340 14:24 01.05.2020
3796 Clouds 3 999 44 10000 3 360 13:55 01.05.2020
3797 Clouds 4 998 38 10000 3 360 13:36 01.05.2020
3798 Clouds 4 998 38 10000 3 360 13:36 01.05.2020
3799 Clouds 5 998 35 10000 4 10 13:18 01.05.2020
3800 Clouds 5 998 35 10000 4 10 12:54 01.05.2020
3801 Clouds 6 998 30 10000 5 10 12:36 01.05.2020
3802 Clouds 6 997 30 10000 5 10 12:18 01.05.2020
3803 Clouds 7 997 24 10000 6 20 11:41 01.05.2020
3804 Clouds 7 997 24 10000 6 20 11:21 01.05.2020
3805 Clouds 7 997 24 10000 5 20 10:56 01.05.2020
3806 Clouds 8 997 20 10000 5 20 10:37 01.05.2020
3807 Clouds 8 996 20 10000 6 20 10:19 01.05.2020
3808 Clouds 8 996 20 10000 6 20 10:19 01.05.2020
3809 Clouds 8 996 20 10000 5 10 09:43 01.05.2020
3810 Clouds 8 996 20 10000 5 10 09:19 01.05.2020
3811 Clouds 8 996 24 10000 4 10 08:54 01.05.2020
3812 Clouds 7 996 26 10000 5 20 08:36 01.05.2020
3813 Clouds 7 996 26 10000 6 20 08:18 01.05.2020
3814 Clouds 7 996 24 10000 4 20 07:41 01.05.2020
3815 Snow 7 996 24 10000 4 20 07:22 01.05.2020
3816 Snow 7 996 26 10000 4 20 06:39 01.05.2020
3817 Snow 7 996 26 10000 2 70 05:32 01.05.2020
3818 Clouds 6 997 26 10000 2 70 04:20 01.05.2020
3819 Clouds 4 997 51 10000 2 80 02:59 01.05.2020
3820 Clouds 3 997 51 10000 1 40 02:40 01.05.2020
3821 Clouds 1 997 59 10000 2 20 01:59 01.05.2020
3822 Clouds 0 997 83 10000 1 60 01:28 01.05.2020
3823 Clouds -1 997 68 10000 0.99 89 00:56 01.05.2020
3824 Clouds -1 997 68 10000 0.99 89 00:36 01.05.2020
3825 Clouds -2 997 74 10000 0.91 110 00:18 01.05.2020
3826 Clouds -2 997 74 10000 0.91 110 23:54 30.04.2020
3827 Clouds -3 997 79 10000 0.91 110 23:36 30.04.2020
3828 Clouds -4 997 85 10000 1 89 23:18 30.04.2020
3829 Clouds -4 997 79 10000 1 340 22:40 30.04.2020
3830 Clouds -4 997 79 10000 1 340 22:19 30.04.2020
3831 Clouds -5 997 79 10000 2 330 21:55 30.04.2020
3832 Clouds -4 997 73 10000 1 320 21:37 30.04.2020
3833 Clouds -4 998 79 10000 1 300 21:18 30.04.2020
3834 Clouds -4 998 73 10000 2 310 20:41 30.04.2020
3835 Clouds -4 998 73 10000 2 310 20:19 30.04.2020
3836 Clouds -4 998 73 10000 1 280 19:58 30.04.2020
3837 Clouds -4 998 68 10000 1 310 19:38 30.04.2020
3838 Clouds -4 998 68 10000 2 300 19:18 30.04.2020
3839 Clouds -4 998 68 10000 2 300 18:55 30.04.2020
3840 Clouds -3 998 63 10000 2 300 18:36 30.04.2020
3841 Clouds -3 998 68 10000 1 290 18:18 30.04.2020
3842 Clouds -2 998 58 10000 0.44 249 17:40 30.04.2020
3843 Clouds -2 998 58 10000 0.56 287 17:22 30.04.2020
3844 Clouds -2 998 63 10000 2 290 16:58 30.04.2020
3845 Clouds -2 998 63 10000 2 270 16:40 30.04.2020
3846 Clear -2 998 63 10000 2 270 16:20 30.04.2020
3847 Clear -1 998 63 10000 2 250 15:54 30.04.2020
3848 Clear 0 998 94 10000 2 260 15:36 30.04.2020
3849 Clear 1 998 43 10000 2 270 15:18 30.04.2020
3850 Clear 2 998 40 10000 2 270 14:40 30.04.2020
3851 Clear 2 998 40 10000 2 270 14:19 30.04.2020
3852 Clear 3 998 32 10000 2 270 13:56 30.04.2020
3853 Clear 4 998 27 10000 3 290 13:38 30.04.2020
3854 Clear 4 998 27 10000 3 290 13:20 30.04.2020
3855 Clear 6 998 20 10000 3 300 12:42 30.04.2020
3856 Clear 6 998 20 10000 3 300 12:42 30.04.2020
3857 Clear 6 998 20 10000 3 300 12:21 30.04.2020
3858 Clear 6 998 18 10000 5 300 11:59 30.04.2020
3859 Clear 6 997 18 10000 5 310 11:38 30.04.2020
3860 Clear 6 997 20 10000 5 310 11:18 30.04.2020
3861 Clear 6 997 20 10000 5 310 11:18 30.04.2020
3862 Clear 6 997 20 10000 5 310 10:55 30.04.2020
3863 Clear 6 997 20 10000 5 310 10:55 30.04.2020
3864 Clear 7 997 19 10000 7 300 10:37 30.04.2020
3865 Clear 7 997 19 10000 6 290 10:18 30.04.2020
3866 Clear 7 997 19 10000 7 290 09:43 30.04.2020
3867 Clear 7 997 19 10000 7 290 09:23 30.04.2020
3868 Clear 7 997 22 10000 6 290 08:54 30.04.2020
3869 Clear 6 997 22 10000 6 290 08:36 30.04.2020
3870 Clouds 6 997 24 10000 7 300 08:18 30.04.2020
3871 Clouds 6 997 24 10000 7 300 07:42 30.04.2020
3872 Clouds 6 997 24 10000 7 300 07:23 30.04.2020
3873 Clouds 5 996 25 10000 8 270 06:40 30.04.2020
3874 Clouds 5 996 38 10000 8 290 05:49 30.04.2020
3875 Clouds 4 996 38 10000 4 290 05:27 30.04.2020
3876 Clouds 3 996 40 10000 7 280 04:30 30.04.2020
3877 Clouds 3 996 40 10000 7 260 03:52 30.04.2020
3878 Clouds 1 996 47 10000 6 270 02:29 30.04.2020
3879 Clouds 1 996 47 10000 6 260 01:58 30.04.2020
3880 Clouds 0 996 90 10000 6 270 01:20 30.04.2020
3881 Clouds -1 995 58 10000 8 270 00:40 30.04.2020
3882 Clouds -2 995 63 10000 9 270 00:18 30.04.2020
3883 Clouds -2 995 63 10000 9 270 00:18 30.04.2020
3884 Clouds -2 995 63 10000 9 270 23:54 29.04.2020
3885 Clouds -2 995 63 10000 9 260 23:36 29.04.2020
3886 Clouds -3 995 68 10000 8 260 23:18 29.04.2020
3887 Clouds -3 995 68 10000 7 260 22:39 29.04.2020
3888 Clouds -3 995 68 10000 7 260 22:20 29.04.2020
3889 Clouds -3 995 68 10000 8 260 21:56 29.04.2020
3890 Clouds -3 995 68 10000 8 260 21:36 29.04.2020
3891 Clouds -2 994 68 10000 6 260 21:18 29.04.2020
3892 Clouds -2 994 68 10000 7 280 20:40 29.04.2020
3893 Clouds -2 994 68 10000 7 280 20:20 29.04.2020
3894 Clouds -2 994 74 10000 7 280 19:58 29.04.2020
3895 Clouds -1 994 68 10000 8 280 19:40 29.04.2020
3896 Clouds -1 994 68 10000 8 280 19:40 29.04.2020
3897 Clouds -1 994 68 10000 9 280 19:19 29.04.2020
3898 Clouds -1 993 74 10000 8 280 18:43 29.04.2020
3899 Clouds -1 993 74 10000 8 280 18:24 29.04.2020
3900 Clouds 0 993 95 10000 8 280 17:57 29.04.2020
3901 Clouds 0 993 95 10000 8 280 17:57 29.04.2020
3902 Clouds 0 993 95 10000 9 290 17:39 29.04.2020
3903 Clouds 0 993 94 10000 9 290 17:20 29.04.2020
3904 Clouds 1 992 86 10000 8 300 16:38 29.04.2020
3905 Clouds 1 992 86 10000 8 300 16:19 29.04.2020
3906 Clouds 1 991 86 10000 8 300 15:57 29.04.2020
3907 Snow -1 991 86 10000 7 290 15:39 29.04.2020
3908 Snow -1 991 86 10000 7 290 15:20 29.04.2020
3909 Clouds 1 990 86 10000 8 290 14:57 29.04.2020
3910 Clouds 1 990 93 10000 7 290 14:38 29.04.2020
3911 Clouds 1 989 90 10000 5 260 14:18 29.04.2020
3912 Clouds 2 989 90 10000 6 240 13:42 29.04.2020
3913 Clouds 2 989 92 10000 6 240 13:20 29.04.2020
3914 Clouds 1 989 86 10000 6 230 12:59 29.04.2020
3915 Clouds 2 989 80 10000 6 220 12:40 29.04.2020
3916 Clouds 2 989 80 10000 6 240 12:19 29.04.2020
3917 Clouds 2 989 80 10000 6 240 11:58 29.04.2020
3918 Clouds 3 988 74 10000 8 250 11:36 29.04.2020
3919 Clouds 3 988 92 10000 7 270 11:18 29.04.2020
3920 Rain 4 988 86 10000 8 260 10:37 29.04.2020
3921 Clouds 5 988 100 10000 2 220 10:19 29.04.2020
3922 Clouds 5 988 100 10000 2 220 09:57 29.04.2020
3923 Rain 4 987 93 10000 1 160 09:38 29.04.2020
3924 Rain 3 988 100 10000 1 270 09:18 29.04.2020
3925 Rain 3 987 100 5000 2 180 08:43 29.04.2020
3926 Rain 3 987 100 5000 2 180 08:24 29.04.2020
3927 Rain 3 988 100 10000 2 110 07:48 29.04.2020
3928 Rain 3 988 100 10000 2 110 07:25 29.04.2020
3929 Rain 3 988 93 10000 3 130 06:52 29.04.2020
3930 Clouds 2 989 100 10000 2 130 06:31 29.04.2020
3931 Clouds 2 990 93 10000 3 150 05:38 29.04.2020
3932 Snow 1 990 100 5000 3 150 05:18 29.04.2020
3933 Snow 1 991 93 5000 3 140 04:19 29.04.2020
3934 Snow 1 992 92 10000 4 130 02:50 29.04.2020
3935 Snow 0 993 92 2100 2 110 01:45 29.04.2020
3936 Snow 0 993 92 2100 2 110 01:26 29.04.2020
3937 Snow 0 994 92 1200 3 150 00:51 29.04.2020
3938 Clouds 1 995 69 5000 5 180 00:21 29.04.2020
3939 Clouds 1 995 59 10000 2 150 23:56 28.04.2020
3940 Clouds 0 995 91 10000 2 130 23:37 28.04.2020
3941 Clouds 0 996 95 10000 1 130 23:18 28.04.2020
3942 Clouds -1 996 68 10000 1 100 22:38 28.04.2020
3943 Clouds -1 996 68 10000 1 100 22:20 28.04.2020
3944 Clouds -1 997 74 10000 1 60 21:58 28.04.2020
3945 Clouds -2 998 86 10000 1 80 21:40 28.04.2020
3946 Clouds -2 998 86 10000 1 80 21:21 28.04.2020
3947 Clouds -2 998 86 10000 1 80 20:56 28.04.2020
3948 Clouds -2 998 79 10000 1 80 20:38 28.04.2020
3949 Clouds -2 998 79 10000 1 80 20:19 28.04.2020
3950 Clouds -1 999 74 10000 1.2 115 19:43 28.04.2020
3951 Clouds -1 999 74 10000 1 154 19:22 28.04.2020
3952 Clouds -1 999 74 10000 1 154 19:22 28.04.2020
3953 Clouds -2 999 74 10000 1 310 18:59 28.04.2020
3954 Clouds -1 1000 63 10000 1 154 18:41 28.04.2020
3955 Clouds -1 1000 63 10000 1 154 18:41 28.04.2020
3956 Clouds -1 1000 63 10000 0.93 133 18:20 28.04.2020
3957 Clouds -1 1000 63 10000 0.93 133 18:20 28.04.2020
3958 Clouds -2 1000 74 10000 1 280 17:59 28.04.2020
3959 Clouds -2 1001 74 10000 1 300 17:37 28.04.2020
3960 Clouds -2 1001 74 10000 1 300 17:18 28.04.2020
3961 Clouds -2 1001 74 10000 1 300 16:54 28.04.2020
3962 Clouds -1 1001 63 10000 1 310 16:36 28.04.2020
3963 Clouds -1 1001 68 10000 1 320 16:18 28.04.2020
3964 Clouds -1 1001 68 10000 1 320 16:18 28.04.2020
3965 Clouds -1 1001 68 10000 1 320 15:54 28.04.2020
3966 Clouds 0 1001 94 10000 2 360 15:36 28.04.2020
3967 Clear 1 1002 55 10000 2 350 15:18 28.04.2020
3968 Clear 3 1002 44 10000 1 330 14:41 28.04.2020
3969 Clouds 3 1002 44 10000 1 330 14:22 28.04.2020
3970 Clouds 4 1002 38 10000 2 340 13:59 28.04.2020
3971 Clouds 5 1002 32 10000 1 340 13:39 28.04.2020
3972 Clouds 5 1002 32 10000 1 340 13:21 28.04.2020
3973 Clouds 5 1002 32 10000 1 340 13:21 28.04.2020
3974 Clouds 6 1002 28 10000 2 310 12:57 28.04.2020
3975 Clouds 7 1002 28 10000 2 310 12:37 28.04.2020
3976 Clouds 7 1002 26 10000 3 280 12:19 28.04.2020
3977 Clouds 7 1002 26 10000 4 280 11:41 28.04.2020
3978 Clear 7 1002 26 10000 4 280 11:21 28.04.2020
3979 Clear 7 1002 24 10000 3 290 10:56 28.04.2020
3980 Clear 8 1002 24 10000 5 300 10:37 28.04.2020
3981 Clear 8 1002 24 10000 4 260 10:18 28.04.2020
3982 Clear 8 1002 24 10000 5 270 09:42 28.04.2020
3983 Clear 8 1002 24 10000 5 270 09:42 28.04.2020
3984 Clear 8 1002 24 10000 5 270 09:24 28.04.2020
3985 Clear 8 1002 26 10000 5 270 08:50 28.04.2020
3986 Clear 8 1003 26 10000 5 250 08:30 28.04.2020
3987 Clear 8 1003 26 10000 4 310 07:59 28.04.2020
3988 Clear 7 1003 30 10000 3 280 07:40 28.04.2020
3989 Clear 7 1003 28 10000 3 310 07:18 28.04.2020
3990 Clear 7 1003 28 10000 5 300 06:31 28.04.2020
3991 Clear 6 1003 33 10000 6 280 05:47 28.04.2020
3992 Clear 6 1003 33 10000 6 280 05:29 28.04.2020
3993 Clear 5 1004 38 10000 6 300 04:33 28.04.2020
3994 Clear 3 1004 47 10000 6 290 02:38 28.04.2020
3995 Clouds 2 1005 51 10000 6 300 01:27 28.04.2020
3996 Clouds 1 1005 55 10000 6 300 00:59 28.04.2020
3997 Clouds 0 1005 91 10000 6 280 00:29 28.04.2020
3998 Clouds 0 1005 92 10000 5 280 23:49 27.04.2020
3999 Clouds -1 1005 68 10000 6 270 23:26 27.04.2020
4000 Clouds -2 1005 74 10000 6 270 22:58 27.04.2020
4001 Clouds -2 1005 74 10000 6 270 22:40 27.04.2020
4002 Clouds -2 1005 74 10000 6 270 22:22 27.04.2020
4003 Clouds -2 1005 74 10000 6 260 21:57 27.04.2020
4004 Clouds -2 1005 74 10000 5 260 21:38 27.04.2020
4005 Clouds -2 1005 74 10000 5 260 21:38 27.04.2020
4006 Clouds -2 1006 74 10000 5 260 21:19 27.04.2020
4007 Clouds -2 1006 74 10000 5 260 20:55 27.04.2020
4008 Clouds -2 1006 74 10000 4 250 20:37 27.04.2020
4009 Clouds -1 1006 68 10000 3 250 20:19 27.04.2020
4010 Clouds -1 1006 68 10000 4 260 19:40 27.04.2020
4011 Clouds -1 1006 68 10000 4 260 19:22 27.04.2020
4012 Clouds 0 1006 95 10000 4 250 18:59 27.04.2020
4013 Clouds 0 1007 95 10000 4 270 18:40 27.04.2020
4014 Clouds 0 1007 95 10000 4 270 18:19 27.04.2020
4015 Clouds 0 1007 95 10000 5 280 17:58 27.04.2020
4016 Clouds 0 1007 95 10000 5 280 17:39 27.04.2020
4017 Clouds 1 1007 59 10000 5 280 17:19 27.04.2020
4018 Clouds 1 1008 59 10000 5 290 16:40 27.04.2020
4019 Clouds 1 1008 59 10000 5 290 16:22 27.04.2020
4020 Clouds 1 1008 55 10000 6 290 15:57 27.04.2020
4021 Clouds 1 1008 59 10000 5 290 15:38 27.04.2020
4022 Clouds 1 1008 59 10000 5 290 15:19 27.04.2020
4023 Clouds 2 1008 55 10000 5 300 14:58 27.04.2020
4024 Clouds 2 1008 55 10000 6 290 14:39 27.04.2020
4025 Clouds 2 1008 55 10000 6 300 14:18 27.04.2020
4026 Clouds 2 1008 55 10000 6 300 13:55 27.04.2020
4027 Clouds 3 1008 55 10000 5 290 13:36 27.04.2020
4028 Clouds 3 1008 59 10000 6 280 13:18 27.04.2020
4029 Clouds 3 1008 55 10000 7 290 12:42 27.04.2020
4030 Clouds 3 1008 55 10000 7 290 12:20 27.04.2020
4031 Clouds 6 1008 45 10000 7 290 11:42 27.04.2020
4032 Clouds 6 1008 45 10000 7 290 11:22 27.04.2020
4033 Clouds 6 1007 41 10000 8 280 10:58 27.04.2020
4034 Clouds 8 1007 33 10000 7 290 10:39 27.04.2020
4035 Clouds 8 1007 33 10000 7 290 10:21 27.04.2020
4036 Clouds 8 1007 33 10000 8 290 09:54 27.04.2020
4037 Clouds 9 1007 34 10000 8 300 09:36 27.04.2020
4038 Clouds 9 1007 34 10000 8 290 09:18 27.04.2020
4039 Clouds 9 1007 36 10000 9 290 08:43 27.04.2020
4040 Clouds 9 1007 36 10000 9 290 08:25 27.04.2020
4041 Clouds 10 1006 37 10000 7 300 07:44 27.04.2020
4042 Clouds 10 1006 37 10000 7 300 07:22 27.04.2020
4043 Clouds 11 1006 34 10000 8 280 06:57 27.04.2020
4044 Clouds 9 1006 42 10000 7 310 06:27 27.04.2020
4045 Clouds 11 1006 43 10000 4 300 05:50 27.04.2020
4046 Clouds 9 1006 49 10000 5 310 04:51 27.04.2020
4047 Clouds 8 1006 62 10000 4 290 04:20 27.04.2020
4048 Clouds 7 1006 65 10000 5 290 03:43 27.04.2020
4049 Clouds 4 1006 86 10000 5 290 01:45 27.04.2020
4050 Clouds 3 1006 93 10000 4 280 01:18 27.04.2020
4051 Rain 3 1006 93 10000 3 280 00:21 27.04.2020
4052 Rain 3 1007 93 10000 3 270 23:59 26.04.2020
4053 Rain 3 1006 93 10000 4 270 23:41 26.04.2020
4054 Rain 3 1006 93 10000 4 270 23:22 26.04.2020
4055 Rain 4 1006 86 10000 4 270 22:58 26.04.2020
4056 Rain 4 1006 64 10000 2 190 22:39 26.04.2020
4057 Rain 4 1006 64 10000 2 190 22:39 26.04.2020
4058 Rain 4 1006 64 10000 2 190 22:21 26.04.2020
4059 Rain 5 1006 56 10000 1 130 21:58 26.04.2020
4060 Rain 6 1006 52 10000 1 320 21:39 26.04.2020
4061 Rain 6 1006 45 10000 2 300 21:18 26.04.2020
4062 Rain 6 1006 45 10000 2 300 20:55 26.04.2020
4063 Rain 5 1006 44 10000 1 240 20:37 26.04.2020
4064 Rain 5 1006 44 10000 1 240 20:37 26.04.2020
4065 Rain 5 1006 44 10000 1 240 20:19 26.04.2020
4066 Rain 4 1006 51 10000 3 200 19:57 26.04.2020
4067 Rain 5 1006 44 10000 3 220 19:36 26.04.2020
4068 Rain 5 1006 41 10000 4 180 19:18 26.04.2020
4069 Rain 5 1006 41 10000 3 170 18:43 26.04.2020
4070 Clouds 5 1006 41 10000 3 170 18:24 26.04.2020
4071 Clouds 6 1007 35 10000 3 170 17:44 26.04.2020
4072 Clouds 6 1007 35 10000 3 170 17:23 26.04.2020
4073 Clouds 6 1008 38 10000 3 180 16:58 26.04.2020
4074 Clouds 5 1008 44 10000 2 180 16:39 26.04.2020
4075 Clouds 5 1008 44 10000 2 180 16:20 26.04.2020
4076 Clouds 6 1008 38 10000 2 170 15:57 26.04.2020
4077 Clouds 6 1009 38 10000 3 160 15:37 26.04.2020
4078 Clouds 5 1009 41 10000 3 140 15:18 26.04.2020
4079 Clouds 4 1010 48 10000 2 150 14:41 26.04.2020
4080 Clouds 4 1010 48 10000 2 150 14:19 26.04.2020
4081 Clouds 4 1010 48 10000 2 150 14:19 26.04.2020
4082 Clouds 5 1010 41 10000 1 140 13:59 26.04.2020
4083 Clouds 6 1010 38 10000 2 130 13:40 26.04.2020
4084 Clouds 6 1010 38 10000 2 130 13:22 26.04.2020
4085 Clouds 7 1011 36 10000 1 150 12:57 26.04.2020
4086 Clouds 9 1011 29 10000 2 160 12:39 26.04.2020
4087 Clouds 9 1011 29 10000 2 160 12:20 26.04.2020
4088 Clouds 10 1011 27 10000 3 160 11:55 26.04.2020
4089 Clouds 10 1011 25 10000 3 170 11:36 26.04.2020
4090 Clouds 11 1012 25 10000 4 160 11:18 26.04.2020
4091 Clouds 11 1012 27 10000 4 150 10:43 26.04.2020
4092 Clouds 11 1012 27 10000 4 150 10:24 26.04.2020
4093 Clouds 10 1012 29 10000 4 140 09:58 26.04.2020
4094 Clouds 11 1013 25 10000 4 160 09:39 26.04.2020
4095 Clear 11 1013 25 10000 4 160 09:20 26.04.2020
4096 Clear 11 1013 27 10000 4 170 08:41 26.04.2020
4097 Clear 11 1013 27 10000 4 170 08:23 26.04.2020
4098 Clear 10 1014 29 10000 4 140 07:49 26.04.2020
4099 Clear 9 1014 34 10000 5 140 07:25 26.04.2020
4100 Clear 9 1014 34 10000 5 130 06:53 26.04.2020
4101 Clear 9 1015 36 10000 4 130 06:31 26.04.2020
4102 Clear 9 1015 34 10000 4 130 05:54 26.04.2020
4103 Clear 8 1016 39 10000 3 140 05:34 26.04.2020
4104 Clear 6 1016 48 10000 3 140 04:42 26.04.2020
4105 Clear 5 1017 52 10000 3 130 03:46 26.04.2020
4106 Clear 4 1017 55 10000 1 130 02:40 26.04.2020
4107 Clear 4 1017 55 10000 1 130 02:19 26.04.2020
4108 Clear 3 1018 64 10000 1 120 01:37 26.04.2020
4109 Clear 1 1018 69 10000 1.24 237 01:18 26.04.2020
4110 Clear 0 1018 79 10000 1.24 237 00:37 26.04.2020
4111 Clear -1 1018 80 10000 1.4 244 00:18 26.04.2020
4112 Clear -3 1018 86 10000 1 300 23:38 25.04.2020
4113 Clear -3 1018 86 10000 1 300 23:19 25.04.2020
4114 Clear -4 1017 85 10000 1 260 22:43 25.04.2020
4115 Clear -4 1017 85 10000 1 260 22:21 25.04.2020
4116 Clear -4 1017 85 10000 1 270 21:59 25.04.2020
4117 Clear -4 1017 85 10000 1 280 21:39 25.04.2020
4118 Clouds -4 1017 85 10000 1 280 21:20 25.04.2020
4119 Clouds -4 1018 85 10000 2 300 20:55 25.04.2020
4120 Clouds -4 1018 85 10000 1 290 20:37 25.04.2020
4121 Clouds -3 1018 79 10000 2 270 20:19 25.04.2020
4122 Clouds -3 1018 86 10000 3 290 19:41 25.04.2020
4123 Clouds -3 1018 86 10000 3 290 19:22 25.04.2020
4124 Clouds -3 1018 86 10000 2 300 18:57 25.04.2020
4125 Clouds -2 1018 79 10000 2 290 18:39 25.04.2020
4126 Clouds -2 1018 79 10000 2 290 18:20 25.04.2020
4127 Clouds -2 1018 79 10000 2 290 17:56 25.04.2020
4128 Clouds -2 1018 79 10000 3 300 17:37 25.04.2020
4129 Clouds -2 1018 86 10000 2 300 17:19 25.04.2020
4130 Clouds -1 1018 80 10000 2 310 16:48 25.04.2020
4131 Clouds -1 1018 80 10000 2 310 16:29 25.04.2020
4132 Clouds -1 1018 80 10000 2 330 15:59 25.04.2020
4133 Clouds 0 1018 95 10000 1 350 15:39 25.04.2020
4134 Clouds 0 1018 86 10000 1 350 15:19 25.04.2020
4135 Clouds 0 1018 86 10000 1.84 289 14:58 25.04.2020
4136 Clouds 1 1018 69 10000 1 130 14:38 25.04.2020
4137 Clouds 1 1018 69 10000 1 130 14:19 25.04.2020
4138 Clouds 4 1018 55 10000 1 160 13:43 25.04.2020
4139 Clouds 4 1018 55 10000 1 160 13:19 25.04.2020
4140 Clouds 6 1018 48 10000 1 180 12:58 25.04.2020
4141 Clouds 6 1018 48 10000 1 90 12:39 25.04.2020
4142 Clouds 6 1018 48 10000 1 90 12:20 25.04.2020
4143 Clouds 7 1018 42 10000 1 90 11:55 25.04.2020
4144 Clouds 7 1018 42 10000 2 70 11:37 25.04.2020
4145 Clouds 8 1017 36 10000 2 70 11:19 25.04.2020
4146 Clouds 8 1017 36 10000 2 340 10:42 25.04.2020
4147 Clouds 8 1017 36 10000 2 340 10:22 25.04.2020
4148 Clouds 8 1017 36 10000 3 330 09:47 25.04.2020
4149 Clouds 8 1017 36 10000 3 330 09:28 25.04.2020
4150 Clouds 8 1018 36 10000 4 330 08:58 25.04.2020
4151 Clouds 9 1018 34 10000 4 320 08:38 25.04.2020
4152 Clouds 9 1018 34 10000 4 320 08:20 25.04.2020
4153 Clouds 8 1018 36 10000 4 340 07:50 25.04.2020
4154 Clouds 8 1018 39 10000 3 320 07:28 25.04.2020
4155 Clouds 8 1018 39 10000 4 340 06:47 25.04.2020
4156 Clouds 8 1018 36 10000 4 340 06:18 25.04.2020
4157 Clouds 7 1018 39 10000 4 340 05:39 25.04.2020
4158 Clouds 8 1018 39 10000 5 340 04:57 25.04.2020
4159 Clouds 7 1018 42 10000 4 340 02:59 25.04.2020
4160 Clouds 6 1018 45 10000 4 340 02:20 25.04.2020
4161 Clouds 5 1018 48 10000 2 20 01:52 25.04.2020
4162 Clouds 5 1018 48 10000 3 310 01:27 25.04.2020
4163 Clouds 3 1017 55 10000 4 290 00:52 25.04.2020
4164 Clouds 2 1017 64 10000 1 310 00:31 25.04.2020
4165 Clouds 0 1017 96 10000 3 290 23:44 24.04.2020
4166 Clouds 0 1017 96 10000 3 290 23:24 24.04.2020
4167 Clouds -1 1017 74 10000 3 290 22:58 24.04.2020
4168 Clouds -2 1017 74 10000 3 290 22:38 24.04.2020
4169 Clouds -2 1017 74 10000 3 290 22:19 24.04.2020
4170 Clouds -1 1017 68 10000 3 300 21:55 24.04.2020
4171 Clouds -1 1017 68 10000 4 300 21:36 24.04.2020
4172 Snow -1 1016 68 10000 4 300 21:18 24.04.2020
4173 Snow -1 1016 68 10000 4 300 20:55 24.04.2020
4174 Snow -1 1016 68 10000 4 300 20:36 24.04.2020
4175 Snow -1 1016 68 10000 3 300 20:18 24.04.2020
4176 Snow -1 1016 68 10000 3 310 19:40 24.04.2020
4177 Snow -1 1016 68 10000 3 310 19:20 24.04.2020
4178 Snow 0 1016 97 10000 2 320 18:44 24.04.2020
4179 Snow 0 1016 96 10000 2 320 18:26 24.04.2020
4180 Snow 0 1016 96 10000 2 310 17:55 24.04.2020
4181 Snow 0 1016 96 10000 2 300 17:37 24.04.2020
4182 Snow 0 1016 96 10000 2 310 17:19 24.04.2020
4183 Snow 0 1016 96 10000 2 310 16:57 24.04.2020
4184 Snow 1 1016 55 10000 3 320 16:38 24.04.2020
4185 Snow 1 1016 55 10000 3 320 16:20 24.04.2020
4186 Snow 1 1015 64 10000 2 320 15:41 24.04.2020
4187 Clouds 1 1015 64 10000 2 320 15:20 24.04.2020
4188 Clouds 2 1015 55 10000 1 360 14:41 24.04.2020
4189 Clouds 2 1015 55 10000 1 360 14:22 24.04.2020
4190 Clouds 3 1015 51 10000 1 250 13:59 24.04.2020
4191 Clouds 5 1015 41 10000 1 30 13:41 24.04.2020
4192 Clouds 5 1015 41 10000 1 30 13:21 24.04.2020
4193 Clouds 5 1015 41 10000 1 30 13:21 24.04.2020
4194 Clouds 7 1015 30 10000 1.57 336 12:58 24.04.2020
4195 Clouds 7 1014 30 10000 1.57 336 12:40 24.04.2020
4196 Clouds 7 1014 30 10000 0.61 348 12:19 24.04.2020
4197 Clouds 8 1014 28 10000 1 120 11:43 24.04.2020
4198 Clouds 8 1014 28 10000 1 120 11:23 24.04.2020
4199 Clouds 9 1014 26 10000 1 90 10:59 24.04.2020
4200 Clouds 9 1014 26 10000 2 70 10:38 24.04.2020
4201 Clouds 9 1014 26 10000 2 70 10:20 24.04.2020
4202 Clouds 9 1014 24 10000 2 90 09:55 24.04.2020
4203 Clouds 9 1014 26 10000 2 100 09:36 24.04.2020
4204 Clear 9 1014 24 10000 2 80 09:18 24.04.2020
4205 Clear 9 1014 24 10000 2 80 08:42 24.04.2020
4206 Clear 9 1014 24 10000 2 80 08:20 24.04.2020
4207 Clear 9 1014 24 10000 3 100 07:56 24.04.2020
4208 Clear 8 1014 26 10000 3 130 07:38 24.04.2020
4209 Clear 8 1014 26 10000 3 130 07:20 24.04.2020
4210 Clear 9 1014 24 10000 3 110 06:43 24.04.2020
4211 Clear 8 1014 26 10000 2 90 05:51 24.04.2020
4212 Clear 7 1014 26 10000 2 100 05:23 24.04.2020
4213 Clear 4 1014 41 10000 2 80 03:39 24.04.2020
4214 Clear 2 1014 47 10000 2 70 02:50 24.04.2020
4215 Clear 2 1014 47 10000 2 70 02:30 24.04.2020
4216 Clear 1 1014 50 10000 1 80 01:46 24.04.2020
4217 Clear 0 1014 83 10000 1 80 00:54 24.04.2020
4218 Clear -1 1014 63 10000 1 350 00:19 24.04.2020
4219 Clear -3 1013 73 10000 1 330 23:47 23.04.2020
4220 Clear -3 1013 73 10000 1 330 23:27 23.04.2020
4221 Clear -4 1013 73 10000 1.03 78 22:58 23.04.2020
4222 Clear -5 1013 79 10000 2 310 22:39 23.04.2020
4223 Clear -5 1013 79 10000 2 310 22:39 23.04.2020
4224 Clear -5 1013 79 10000 2 310 22:20 23.04.2020
4225 Clear -5 1013 85 10000 1 330 21:57 23.04.2020
4226 Clear -4 1012 79 10000 2 340 21:39 23.04.2020
4227 Clear -4 1012 79 10000 2 340 21:20 23.04.2020
4228 Clear -4 1012 79 10000 2 330 20:57 23.04.2020
4229 Clear -4 1012 79 10000 2 340 20:39 23.04.2020
4230 Clear -4 1012 79 10000 2 340 20:19 23.04.2020
4231 Clear -3 1012 73 10000 2 330 19:56 23.04.2020
4232 Clear -3 1012 68 10000 2 330 19:38 23.04.2020
4233 Clear -3 1012 68 10000 2 330 19:19 23.04.2020
4234 Clear -2 1012 68 10000 2 340 18:43 23.04.2020
4235 Clear -2 1012 68 10000 2 340 18:23 23.04.2020
4236 Clear -2 1011 68 10000 2 360 17:58 23.04.2020
4237 Clear -1 1011 63 10000 2 360 17:39 23.04.2020
4238 Clear -1 1011 63 10000 2 360 17:21 23.04.2020
4239 Clear -1 1011 63 10000 2 350 16:57 23.04.2020
4240 Clear -1 1011 63 10000 2 340 16:38 23.04.2020
4241 Clear 0 1011 95 10000 2 350 16:18 23.04.2020
4242 Clear 0 1010 95 10000 2 340 15:42 23.04.2020
4243 Clouds 0 1010 95 10000 2 340 15:22 23.04.2020
4244 Clouds 2 1010 47 10000 1 40 14:56 23.04.2020
4245 Clouds 2 1010 47 10000 2 70 14:37 23.04.2020
4246 Clouds 2 1010 47 10000 2 70 14:19 23.04.2020
4247 Clouds 3 1010 47 10000 2 80 13:55 23.04.2020
4248 Clouds 3 1009 47 10000 2 60 13:36 23.04.2020
4249 Clouds 3 1009 47 10000 2 60 13:36 23.04.2020
4250 Clouds 6 1009 33 10000 2 40 13:18 23.04.2020
4251 Clouds 7 1009 28 10000 2 60 12:42 23.04.2020
4252 Rain 7 1009 28 10000 2 60 12:24 23.04.2020
4253 Rain 8 1008 28 10000 2 70 11:56 23.04.2020
4254 Rain 8 1008 26 10000 2 70 11:38 23.04.2020
4255 Rain 9 1008 24 10000 2 70 11:18 23.04.2020
4256 Rain 9 1008 23 10000 2 60 10:41 23.04.2020
4257 Rain 9 1007 23 10000 2 40 10:21 23.04.2020
4258 Rain 9 1007 23 10000 2 50 09:41 23.04.2020
4259 Rain 9 1007 23 10000 2 50 09:20 23.04.2020
4260 Rain 9 1007 23 10000 1 50 08:57 23.04.2020
4261 Rain 9 1007 21 10000 2 80 08:39 23.04.2020
4262 Rain 9 1007 23 10000 2 150 08:21 23.04.2020
4263 Rain 9 1007 21 10000 2 140 07:42 23.04.2020
4264 Rain 9 1007 21 10000 2 140 07:23 23.04.2020
4265 Rain 9 1007 23 10000 2 120 06:47 23.04.2020
4266 Clouds 8 1008 24 10000 3 130 05:58 23.04.2020
4267 Clouds 8 1008 24 10000 3 110 05:22 23.04.2020
4268 Clouds 8 1008 24 10000 3 110 04:50 23.04.2020
4269 Clouds 2 1009 34 10000 2 130 02:24 23.04.2020
4270 Clouds 0 1009 90 10000 2 140 01:41 23.04.2020
4271 Clouds -1 1009 42 10000 2 140 01:18 23.04.2020
4272 Clouds -2 1010 46 10000 2 140 00:36 23.04.2020
4273 Clouds -3 1010 58 10000 1 120 00:18 23.04.2020
4274 Clouds -4 1010 62 10000 1 130 23:42 22.04.2020
4275 Clouds -4 1010 62 10000 1 130 23:22 22.04.2020
4276 Clouds -5 1010 73 10000 1 180 22:54 22.04.2020
4277 Clouds -5 1011 73 10000 2 140 22:36 22.04.2020
4278 Clouds -5 1011 67 10000 1 140 22:18 22.04.2020
4279 Clouds -5 1011 67 10000 1 140 21:54 22.04.2020
4280 Clouds -4 1011 68 10000 2 140 21:36 22.04.2020
4281 Clouds -4 1011 68 10000 1 160 21:18 22.04.2020
4282 Clouds -3 1012 63 10000 2 150 20:43 22.04.2020
4283 Clouds -2 1012 50 10000 3 160 20:19 22.04.2020
4284 Clouds -2 1012 50 10000 3 160 19:57 22.04.2020
4285 Clouds -1 1013 50 10000 2 170 19:38 22.04.2020
4286 Clouds -1 1013 50 10000 2 170 19:18 22.04.2020
4287 Clouds -1 1013 50 10000 2 170 19:18 22.04.2020
4288 Clouds -1 1013 50 10000 2 170 18:58 22.04.2020
4289 Clouds -1 1013 54 10000 2 180 18:40 22.04.2020
4290 Clouds -1 1013 54 10000 2 180 18:40 22.04.2020
4291 Clouds -1 1013 54 10000 2 180 18:22 22.04.2020
4292 Clouds -1 1014 50 10000 2 170 17:45 22.04.2020
4293 Clouds -1 1014 50 10000 2 170 17:45 22.04.2020
4294 Clouds -1 1014 50 10000 2 170 17:26 22.04.2020
4295 Clouds -1 1014 50 10000 2 170 16:58 22.04.2020
4296 Clouds 0 1014 93 10000 2 180 16:40 22.04.2020
4297 Clouds 0 1014 93 10000 2 180 16:22 22.04.2020
4298 Clouds 0 1015 93 10000 3 160 15:42 22.04.2020
4299 Clouds 0 1015 93 10000 3 160 15:42 22.04.2020
4300 Clouds 0 1015 92 10000 3 160 15:23 22.04.2020
4301 Clouds 0 1015 92 10000 3 160 14:58 22.04.2020
4302 Clouds 1 1015 47 10000 2 160 14:38 22.04.2020
4303 Clouds 1 1015 47 10000 2 160 14:20 22.04.2020
4304 Clouds 2 1016 43 10000 2 170 13:56 22.04.2020
4305 Clouds 2 1016 43 10000 2 180 13:37 22.04.2020
4306 Clouds 3 1016 37 10000 3 170 13:19 22.04.2020
4307 Clouds 3 1016 37 10000 3 170 12:41 22.04.2020
4308 Clouds 3 1016 37 10000 3 170 12:22 22.04.2020
4309 Clouds 4 1017 32 10000 4 160 11:41 22.04.2020
4310 Clouds 4 1017 32 10000 4 160 11:22 22.04.2020
4311 Clouds 4 1017 32 10000 4 160 10:59 22.04.2020
4312 Clouds 4 1017 32 10000 4 170 10:40 22.04.2020
4313 Clouds 4 1017 32 10000 4 170 10:40 22.04.2020
4314 Clouds 4 1017 32 10000 4 170 10:20 22.04.2020
4315 Clouds 4 1018 32 10000 5 150 09:41 22.04.2020
4316 Clouds 4 1018 32 10000 5 150 09:22 22.04.2020
4317 Clouds 4 1018 32 10000 5 140 08:59 22.04.2020
4318 Clouds 4 1019 32 10000 4 140 08:40 22.04.2020
4319 Clouds 4 1019 32 10000 4 140 08:22 22.04.2020
4320 Clouds 4 1019 29 10000 4 160 07:53 22.04.2020
4321 Clouds 4 1019 29 10000 4 170 07:29 22.04.2020
4322 Clouds 4 1020 27 10000 4 160 06:53 22.04.2020
4323 Clouds 3 1020 29 10000 4 140 06:23 22.04.2020
4324 Clouds 2 1021 31 10000 4 140 05:37 22.04.2020
4325 Clouds 1 1021 43 10000 4 130 04:32 22.04.2020
4326 Clouds -1 1022 46 10000 3 160 02:51 22.04.2020
4327 Clouds -3 1023 53 10000 2 160 01:53 22.04.2020
4328 Clouds -5 1023 62 10000 2 130 01:27 22.04.2020
4329 Clouds -6 1023 67 10000 2 130 00:59 22.04.2020
4330 Clouds -7 1023 73 10000 1 140 00:41 22.04.2020
4331 Clouds -7 1023 73 10000 1 140 00:19 22.04.2020
4332 Clouds -8 1023 78 10000 1.31 229 23:41 21.04.2020
4333 Clouds -8 1023 78 10000 1.31 229 23:19 21.04.2020
4334 Clouds -10 1024 78 10000 1 320 22:41 21.04.2020
4335 Clouds -10 1024 78 10000 1 320 22:22 21.04.2020
4336 Clouds -10 1024 85 10000 1.31 229 21:59 21.04.2020
4337 Clouds -10 1024 78 10000 1 310 21:41 21.04.2020
4338 Clouds -10 1024 78 10000 1 310 21:23 21.04.2020
4339 Clouds -9 1024 85 10000 1.32 244 20:57 21.04.2020
4340 Clear -9 1024 78 10000 1.15 236 20:39 21.04.2020
4341 Clear -9 1024 78 10000 1.15 236 20:21 21.04.2020
4342 Clouds -8 1025 67 10000 1 310 19:41 21.04.2020
4343 Clouds -8 1025 67 10000 1 310 19:20 21.04.2020
4344 Clear -7 1025 67 10000 1.15 236 18:59 21.04.2020
4345 Clouds -7 1025 73 10000 1.32 244 18:39 21.04.2020
4346 Clouds -7 1025 79 10000 1.47 244 18:19 21.04.2020
4347 Clouds -7 1025 79 10000 1.47 244 17:59 21.04.2020
4348 Clouds -7 1026 85 10000 1.47 244 17:38 21.04.2020
4349 Clouds -6 1026 85 10000 1 230 17:19 21.04.2020
4350 Clear -6 1026 85 10000 1 220 16:39 21.04.2020
4351 Clouds -6 1026 85 10000 1 220 16:19 21.04.2020
4352 Clear -6 1026 85 10000 1 220 16:19 21.04.2020
4353 Clouds -5 1026 73 10000 1 200 15:58 21.04.2020
4354 Clear -5 1026 73 10000 2 150 15:40 21.04.2020
4355 Clouds -5 1026 73 10000 2 150 15:22 21.04.2020
4356 Clouds -5 1026 73 10000 1 160 14:58 21.04.2020
4357 Clouds -3 1027 58 10000 1 170 14:40 21.04.2020
4358 Clouds -3 1027 58 10000 1 170 14:22 21.04.2020
4359 Clouds -2 1027 46 10000 2 200 13:42 21.04.2020
4360 Clouds -2 1027 46 10000 2 200 13:23 21.04.2020
4361 Clouds 0 1027 92 10000 2 180 12:58 21.04.2020
4362 Clouds 0 1027 92 10000 2 180 12:38 21.04.2020
4363 Clouds 1 1027 37 10000 3 170 12:19 21.04.2020
4364 Clouds 1 1027 37 10000 3 170 11:56 21.04.2020
4365 Clouds 1 1027 31 10000 3 170 11:37 21.04.2020
4366 Clouds 1 1027 29 10000 3 160 11:18 21.04.2020
4367 Clouds 1 1027 29 10000 3 160 10:56 21.04.2020
4368 Clouds 1 1028 29 10000 3 150 10:38 21.04.2020
4369 Clouds 1 1028 31 10000 3 150 10:20 21.04.2020
4370 Clouds 1 1028 31 10000 3 150 09:38 21.04.2020
4371 Clouds 1 1028 31 10000 3 150 09:20 21.04.2020
4372 Clouds 1 1028 29 10000 3 140 08:58 21.04.2020
4373 Clouds 1 1028 29 10000 3 140 08:58 21.04.2020
4374 Clouds 1 1029 31 10000 3 130 08:39 21.04.2020
4375 Clouds 1 1029 31 10000 3 130 08:39 21.04.2020
4376 Clouds 1 1029 31 10000 3 130 08:19 21.04.2020
4377 Clouds 1 1029 29 10000 3 130 07:45 21.04.2020
4378 Clouds 1 1029 29 10000 3 130 07:23 21.04.2020
4379 Clouds 1 1030 29 10000 3 120 06:49 21.04.2020
4380 Clouds 0 1030 88 10000 3 120 06:20 21.04.2020
4381 Clouds 0 1031 88 10000 3 140 05:49 21.04.2020
4382 Clouds -1 1031 33 10000 3 140 04:21 21.04.2020
4383 Clouds -4 1031 53 10000 3 140 03:44 21.04.2020
4384 Clouds -7 1032 57 10000 1 130 01:46 21.04.2020
4385 Clouds -7 1032 57 10000 1 130 01:25 21.04.2020
4386 Clouds -9 1032 47 10000 1 290 00:37 21.04.2020
4387 Clear -12 1032 66 10000 1.08 271 23:47 20.04.2020
4388 Clear -12 1032 66 10000 1.08 271 23:25 20.04.2020
4389 Clear -13 1032 65 10000 1 280 22:58 20.04.2020
4390 Clear -13 1032 65 10000 2 280 22:39 20.04.2020
4391 Clear -13 1032 65 10000 2 280 22:21 20.04.2020
4392 Clear -13 1032 65 10000 2 290 21:58 20.04.2020
4393 Clear -12 1032 60 10000 3 300 21:39 20.04.2020
4394 Clear -12 1032 60 10000 3 300 21:19 20.04.2020
4395 Clear -12 1032 60 10000 2 300 20:58 20.04.2020
4396 Clear -12 1032 66 10000 3 280 20:39 20.04.2020
4397 Clear -12 1032 66 10000 2 300 20:19 20.04.2020
4398 Clear -12 1032 66 10000 2 300 20:19 20.04.2020
4399 Clear -12 1032 66 10000 2 300 19:58 20.04.2020
4400 Clear -11 1032 61 10000 2 270 19:39 20.04.2020
4401 Clear -11 1032 61 10000 2 270 19:19 20.04.2020
4402 Clear -11 1032 61 10000 3 290 18:54 20.04.2020
4403 Clear -10 1033 61 10000 3 290 18:36 20.04.2020
4404 Clear -10 1033 61 10000 3 290 18:18 20.04.2020
4405 Clear -10 1033 61 10000 3 290 17:40 20.04.2020
4406 Clear -10 1033 61 10000 3 290 17:22 20.04.2020
4407 Clear -9 1033 56 10000 3 290 16:59 20.04.2020
4408 Clear -8 1033 57 10000 3 290 16:40 20.04.2020
4409 Clear -8 1033 57 10000 3 290 16:19 20.04.2020
4410 Clear -7 1033 57 10000 2 290 15:45 20.04.2020
4411 Clouds -7 1033 57 10000 2 290 15:25 20.04.2020
4412 Clouds -6 1033 57 10000 2 280 14:59 20.04.2020
4413 Clouds -5 1033 57 10000 1 260 14:40 20.04.2020
4414 Clear -5 1033 45 10000 1 290 14:19 20.04.2020
4415 Clear -5 1033 45 10000 1 290 13:56 20.04.2020
4416 Clear -3 1033 35 10000 1 320 13:37 20.04.2020
4417 Clear -3 1033 32 10000 2 330 13:19 20.04.2020
4418 Clear -3 1033 32 10000 2 350 12:42 20.04.2020
4419 Clouds -3 1033 32 10000 2 350 12:21 20.04.2020
4420 Clouds -2 1033 25 10000 2 350 11:43 20.04.2020
4421 Clouds -2 1033 25 10000 2 350 11:23 20.04.2020
4422 Clouds -2 1033 28 10000 2 10 10:57 20.04.2020
4423 Clouds -2 1033 25 10000 2 360 10:39 20.04.2020
4424 Clouds -2 1033 25 10000 2 360 10:20 20.04.2020
4425 Clouds -2 1033 25 10000 1 10 09:59 20.04.2020
4426 Clouds -3 1033 27 10000 3 20 09:40 20.04.2020
4427 Clear -3 1033 27 10000 3 20 09:21 20.04.2020
4428 Clear -2 1033 25 10000 2 20 08:42 20.04.2020
4429 Clear -2 1033 25 10000 2 20 08:23 20.04.2020
4430 Clear -3 1034 27 10000 4 360 07:59 20.04.2020
4431 Clear -3 1034 30 10000 4 360 07:39 20.04.2020
4432 Clear -3 1034 30 10000 4 360 07:19 20.04.2020
4433 Clear -3 1034 25 10000 2 360 06:37 20.04.2020
4434 Clear -3 1034 27 10000 2 10 05:57 20.04.2020
4435 Clear -5 1034 29 10000 3 20 04:46 20.04.2020
4436 Clear -5 1034 29 10000 3 20 04:46 20.04.2020
4437 Clear -8 1034 44 10000 2 30 02:48 20.04.2020
4438 Clear -8 1034 44 10000 2 30 02:27 20.04.2020
4439 Clear -10 1034 51 10000 2 30 01:29 20.04.2020
4440 Clear -12 1033 60 10000 2 20 00:45 20.04.2020
4441 Clear -12 1033 60 10000 2 20 00:21 20.04.2020
4442 Clear -14 1033 71 10000 1 350 23:39 19.04.2020
4443 Clear -14 1033 71 10000 1 350 23:21 19.04.2020
4444 Clear -15 1033 71 10000 2 320 22:56 19.04.2020
4445 Clear -14 1033 71 10000 2 340 22:37 19.04.2020
4446 Clear -14 1033 71 10000 2 350 22:19 19.04.2020
4447 Clear -14 1032 65 10000 1 340 21:42 19.04.2020
4448 Clear -14 1032 65 10000 1 340 21:23 19.04.2020
4449 Clear -13 1032 60 10000 2 310 20:58 19.04.2020
4450 Clear -13 1032 65 10000 3 300 20:40 19.04.2020
4451 Clear -13 1032 65 10000 3 300 20:20 19.04.2020
4452 Clear -12 1032 60 10000 2 310 19:56 19.04.2020
4453 Clear -12 1032 60 10000 2 310 19:38 19.04.2020
4454 Clear -12 1032 60 10000 2 310 19:20 19.04.2020
4455 Clear -12 1032 60 10000 2 310 18:57 19.04.2020
4456 Clear -11 1032 56 10000 2 310 18:38 19.04.2020
4457 Clear -11 1031 66 10000 2 310 18:19 19.04.2020
4458 Clear -11 1031 66 10000 2 310 17:56 19.04.2020
4459 Clear -10 1031 56 10000 2 20 17:38 19.04.2020
4460 Clear -10 1031 56 10000 2 20 17:19 19.04.2020
4461 Clear -10 1031 56 10000 3 290 16:41 19.04.2020
4462 Clear -10 1031 56 10000 3 290 16:21 19.04.2020
4463 Clear -9 1031 52 10000 3 290 15:59 19.04.2020
4464 Clear -8 1031 48 10000 3 310 15:40 19.04.2020
4465 Clear -8 1031 48 10000 3 310 15:19 19.04.2020
4466 Clear -7 1031 41 10000 3 320 14:39 19.04.2020
4467 Clear -7 1031 41 10000 3 320 14:21 19.04.2020
4468 Clear -7 1031 44 10000 2 310 13:58 19.04.2020
4469 Clear -6 1031 44 10000 2 320 13:38 19.04.2020
4470 Clear -5 1031 35 10000 3 340 13:19 19.04.2020
4471 Clear -5 1030 35 10000 4 340 12:49 19.04.2020
4472 Clear -5 1030 35 10000 4 340 12:25 19.04.2020
4473 Clear -4 1030 29 10000 4 330 11:55 19.04.2020
4474 Clear -4 1030 29 10000 4 340 11:37 19.04.2020
4475 Clear -4 1030 29 10000 4 340 11:18 19.04.2020
4476 Clear -4 1030 29 10000 4 340 10:55 19.04.2020
4477 Clear -4 1030 29 10000 4 340 10:55 19.04.2020
4478 Clear -4 1030 29 10000 4 360 10:37 19.04.2020
4479 Clear -5 1030 32 10000 3 350 10:18 19.04.2020
4480 Clear -4 1030 27 10000 3 360 09:43 19.04.2020
4481 Clear -4 1030 27 10000 3 360 09:25 19.04.2020
4482 Clear -5 1030 29 10000 5 360 08:40 19.04.2020
4483 Clear -5 1030 29 10000 5 360 08:21 19.04.2020
4484 Clear -5 1030 29 10000 4 360 07:58 19.04.2020
4485 Clear -5 1030 29 10000 5 360 07:40 19.04.2020
4486 Clear -5 1030 29 10000 5 360 07:21 19.04.2020
4487 Clear -6 1030 31 10000 5 10 06:27 19.04.2020
4488 Clear -6 1031 34 10000 5 340 05:46 19.04.2020
4489 Clear -8 1031 37 10000 4 340 04:22 19.04.2020
4490 Clear -10 1030 40 10000 4 360 02:59 19.04.2020
4491 Clear -11 1030 39 10000 4 360 02:21 19.04.2020
4492 Clear -12 1030 46 10000 3 350 01:37 19.04.2020
4493 Clear -13 1030 50 10000 2 320 00:42 19.04.2020
4494 Clear -13 1030 50 10000 2 320 00:22 19.04.2020
4495 Clear -16 1030 65 10000 2 290 23:46 18.04.2020
4496 Clear -16 1030 65 10000 2 290 23:22 18.04.2020
4497 Clear -16 1029 59 10000 2 310 22:58 18.04.2020
4498 Clear -16 1029 65 10000 2 310 22:38 18.04.2020
4499 Clear -16 1029 65 10000 2 310 22:20 18.04.2020
4500 Clear -15 1029 60 10000 3 300 21:56 18.04.2020
4501 Clear -15 1029 60 10000 2 310 21:37 18.04.2020
4502 Clouds -15 1029 60 10000 2 310 21:19 18.04.2020
4503 Clouds -14 1029 55 10000 4 300 20:41 18.04.2020
4504 Clouds -14 1029 55 10000 4 300 20:22 18.04.2020
4505 Clouds -14 1029 55 10000 3 300 19:54 18.04.2020
4506 Clouds -14 1029 55 10000 3 300 19:54 18.04.2020
4507 Clouds -14 1029 55 10000 3 300 19:36 18.04.2020
4508 Clouds -14 1029 55 10000 3 310 19:18 18.04.2020
4509 Clouds -14 1028 60 10000 4 300 18:37 18.04.2020
4510 Clouds -14 1028 60 10000 4 300 18:19 18.04.2020
4511 Clouds -14 1028 60 10000 4 300 18:19 18.04.2020
4512 Clouds -14 1028 60 10000 3 290 17:43 18.04.2020
4513 Clouds -14 1028 60 10000 3 290 17:21 18.04.2020
4514 Clouds -13 1028 60 10000 3 290 16:58 18.04.2020
4515 Clouds -13 1028 60 10000 3 290 16:38 18.04.2020
4516 Clouds -13 1028 60 10000 3 290 16:20 18.04.2020
4517 Clouds -11 1028 66 10000 2 280 15:40 18.04.2020
4518 Clouds -11 1028 66 10000 2 280 15:22 18.04.2020
4519 Clouds -9 1028 61 10000 1 280 14:47 18.04.2020
4520 Clouds -9 1028 61 10000 1 280 14:47 18.04.2020
4521 Clouds -9 1028 61 10000 1 280 14:29 18.04.2020
4522 Clouds -10 1028 61 10000 1.35 354 13:59 18.04.2020
4523 Clouds -9 1028 52 10000 1 80 13:41 18.04.2020
4524 Clouds -9 1028 52 10000 1 80 13:20 18.04.2020
4525 Clouds -8 1028 48 10000 3 60 12:42 18.04.2020
4526 Clouds -8 1028 48 10000 3 60 12:24 18.04.2020
4527 Clouds -7 1027 44 10000 3 60 11:56 18.04.2020
4528 Clouds -7 1027 44 10000 3 60 11:37 18.04.2020
4529 Clouds -7 1027 44 10000 3 60 11:19 18.04.2020
4530 Clouds -6 1027 29 10000 4 30 10:41 18.04.2020
4531 Clouds -6 1027 29 10000 4 30 10:21 18.04.2020
4532 Clouds -6 1026 29 10000 5 360 09:58 18.04.2020
4533 Clouds -6 1026 29 10000 4 360 09:38 18.04.2020
4534 Clouds -6 1026 29 10000 4 360 09:20 18.04.2020
4535 Clouds -6 1026 26 10000 5 10 08:42 18.04.2020
4536 Clouds -6 1026 26 10000 5 10 08:21 18.04.2020
4537 Clouds -7 1027 31 10000 5 350 07:42 18.04.2020
4538 Clouds -7 1027 31 10000 5 350 07:23 18.04.2020
4539 Clouds -7 1027 28 10000 4 350 06:39 18.04.2020
4540 Clear -8 1027 28 10000 4 340 05:48 18.04.2020
4541 Clear -9 1026 31 10000 5 350 04:54 18.04.2020
4542 Clear -9 1026 31 10000 4 330 04:30 18.04.2020
4543 Clear -10 1026 30 10000 5 330 02:59 18.04.2020
4544 Clear -11 1027 30 10000 4 340 02:40 18.04.2020
4545 Clear -11 1027 30 10000 4 340 02:40 18.04.2020
4546 Clear -11 1027 30 10000 4 340 02:20 18.04.2020
4547 Clear -13 1026 39 10000 3 330 01:40 18.04.2020
4548 Clear -14 1026 46 10000 2 300 00:59 18.04.2020
4549 Clouds -16 1026 54 10000 3 300 00:24 18.04.2020
4550 Clouds -17 1026 59 10000 3 290 23:58 17.04.2020
4551 Clouds -18 1026 59 10000 3 290 23:40 17.04.2020
4552 Clouds -18 1026 59 10000 3 290 23:19 17.04.2020
4553 Clouds -18 1026 59 10000 3 300 22:58 17.04.2020
4554 Clouds -18 1026 59 10000 3 300 22:58 17.04.2020
4555 Clouds -18 1026 59 10000 3 300 22:40 17.04.2020
4556 Clouds -18 1026 59 10000 3 300 22:19 17.04.2020
4557 Clouds -18 1026 64 10000 2 300 21:56 17.04.2020
4558 Clouds -18 1026 64 10000 2 290 21:37 17.04.2020
4559 Clouds -18 1026 64 10000 2 290 21:18 17.04.2020
4560 Clouds -17 1026 59 10000 3 300 20:54 17.04.2020
4561 Clouds -17 1026 59 10000 2 300 20:36 17.04.2020
4562 Clouds -16 1026 59 10000 3 310 20:18 17.04.2020
4563 Clouds -16 1026 59 10000 3 320 19:42 17.04.2020
4564 Clouds -16 1026 59 10000 3 320 19:23 17.04.2020
4565 Clouds -16 1026 65 10000 2 320 18:45 17.04.2020
4566 Clouds -16 1026 65 10000 2 320 18:24 17.04.2020
4567 Clouds -16 1026 65 10000 3 310 17:57 17.04.2020
4568 Clouds -16 1026 59 10000 3 290 17:37 17.04.2020
4569 Clouds -15 1026 54 10000 3 290 17:18 17.04.2020
4570 Clouds -15 1026 54 10000 3 290 16:43 17.04.2020
4571 Clouds -15 1026 54 10000 3 290 16:23 17.04.2020
4572 Clouds -14 1025 55 10000 3 290 15:44 17.04.2020
4573 Clouds -14 1025 55 10000 3 290 15:24 17.04.2020
4574 Clouds -13 1026 50 10000 3 290 14:58 17.04.2020
4575 Clouds -12 1026 46 10000 2 310 14:39 17.04.2020
4576 Clouds -12 1026 46 10000 2 310 14:21 17.04.2020
4577 Clouds -12 1026 46 10000 2 320 13:56 17.04.2020
4578 Clouds -11 1026 43 10000 2 350 13:36 17.04.2020
4579 Clouds -11 1026 39 10000 4 10 13:18 17.04.2020
4580 Clouds -11 1026 39 10000 4 20 12:45 17.04.2020
4581 Snow -11 1026 39 10000 4 20 12:24 17.04.2020
4582 Clouds -10 1025 36 10000 6 10 11:42 17.04.2020
4583 Clouds -10 1025 36 10000 6 10 11:19 17.04.2020
4584 Clouds -10 1025 36 10000 6 10 10:56 17.04.2020
4585 Clouds -10 1025 36 10000 6 30 10:38 17.04.2020
4586 Snow -9 1025 36 10000 7 10 10:19 17.04.2020
4587 Snow -9 1025 36 10000 6 10 09:41 17.04.2020
4588 Snow -9 1025 36 10000 6 10 09:22 17.04.2020
4589 Snow -10 1024 40 10000 5 20 08:58 17.04.2020
4590 Snow -10 1024 40 10000 5 20 08:39 17.04.2020
4591 Snow -10 1024 40 10000 5 20 08:19 17.04.2020
4592 Snow -9 1024 36 10000 6 10 07:44 17.04.2020
4593 Snow -9 1024 36 10000 7 350 07:23 17.04.2020
4594 Snow -9 1024 31 10000 6 320 06:47 17.04.2020
4595 Clouds -9 1024 31 10000 6 320 06:23 17.04.2020
4596 Clouds -9 1024 33 10000 5 340 05:26 17.04.2020
4597 Clear -11 1024 36 10000 4 10 03:19 17.04.2020
4598 Clear -12 1023 43 10000 3 340 02:33 17.04.2020
4599 Clear -13 1023 42 10000 4 330 01:29 17.04.2020
4600 Clear -13 1024 46 10000 3 330 00:52 17.04.2020
4601 Clear -14 1023 50 10000 2 310 00:19 17.04.2020
4602 Clear -15 1023 54 10000 2 300 23:44 16.04.2020
4603 Clear -15 1023 54 10000 2 300 23:22 16.04.2020
4604 Clear -16 1023 65 10000 3 300 22:57 16.04.2020
4605 Clear -16 1023 65 10000 2 300 22:37 16.04.2020
4606 Clear -16 1023 65 10000 2 300 22:19 16.04.2020
4607 Clear -14 1023 55 10000 2 330 21:43 16.04.2020
4608 Clouds -14 1023 55 10000 2 330 21:20 16.04.2020
4609 Clouds -14 1023 55 10000 3 320 20:59 16.04.2020
4610 Clouds -14 1022 55 10000 3 340 20:40 16.04.2020
4611 Clouds -14 1022 55 10000 3 340 20:20 16.04.2020
4612 Clouds -13 1022 50 10000 3 340 19:55 16.04.2020
4613 Clouds -13 1022 50 10000 3 340 19:37 16.04.2020
4614 Clouds -12 1022 51 10000 3 340 19:18 16.04.2020
4615 Clouds -12 1022 51 10000 4 330 18:42 16.04.2020
4616 Clouds -12 1022 51 10000 3 330 18:24 16.04.2020
4617 Clouds -12 1022 51 10000 3 330 17:57 16.04.2020
4618 Clouds -11 1022 51 10000 4 340 17:39 16.04.2020
4619 Clouds -11 1022 51 10000 4 340 17:20 16.04.2020
4620 Clouds -10 1021 43 10000 5 350 16:43 16.04.2020
4621 Clouds -10 1021 43 10000 5 350 16:25 16.04.2020
4622 Clouds -9 1021 43 10000 4 340 15:46 16.04.2020
4623 Clouds -9 1021 47 10000 4 350 15:20 16.04.2020
4624 Clouds -7 1021 57 10000 5 350 14:59 16.04.2020
4625 Clouds -7 1021 57 10000 6 350 14:41 16.04.2020
4626 Clouds -7 1021 57 10000 6 350 14:23 16.04.2020
4627 Clouds -7 1021 62 10000 4 360 13:58 16.04.2020
4628 Clouds -6 1021 53 10000 5 360 13:40 16.04.2020
4629 Clouds -6 1021 53 10000 5 360 13:40 16.04.2020
4630 Clouds -6 1021 53 10000 5 360 13:21 16.04.2020
4631 Clouds -6 1020 53 10000 5 10 12:58 16.04.2020
4632 Clouds -6 1020 53 10000 6 360 12:39 16.04.2020
4633 Clouds -5 1020 38 10000 6 330 12:19 16.04.2020
4634 Clouds -5 1020 38 10000 6 330 11:57 16.04.2020
4635 Clouds -4 1020 35 10000 6 320 11:39 16.04.2020
4636 Clouds -4 1020 35 10000 6 320 11:20 16.04.2020
4637 Clouds -4 1020 38 10000 6 330 10:55 16.04.2020
4638 Clouds -4 1020 38 10000 6 340 10:36 16.04.2020
4639 Clouds -4 1020 38 10000 6 340 10:18 16.04.2020
4640 Clouds -3 1019 38 10000 5 340 09:39 16.04.2020
4641 Clouds -3 1019 38 10000 5 340 09:20 16.04.2020
4642 Clouds -3 1019 35 10000 5 10 08:56 16.04.2020
4643 Clouds -3 1019 38 10000 5 10 08:36 16.04.2020
4644 Clouds -3 1019 38 10000 5 10 08:18 16.04.2020
4645 Clouds -3 1019 38 10000 6 20 07:43 16.04.2020
4646 Clouds -3 1019 38 10000 6 20 07:21 16.04.2020
4647 Clouds -4 1019 41 10000 5 10 06:41 16.04.2020
4648 Clear -4 1019 41 10000 5 10 06:23 16.04.2020
4649 Clear -4 1019 41 10000 5 350 04:53 16.04.2020
4650 Clouds -6 1019 44 10000 5 340 03:28 16.04.2020
4651 Clouds -6 1019 48 10000 4 340 02:59 16.04.2020
4652 Clouds -7 1019 52 10000 6 340 02:39 16.04.2020
4653 Clouds -8 1018 52 10000 7 350 01:40 16.04.2020
4654 Clouds -9 1018 56 10000 6 350 00:57 16.04.2020
4655 Clouds -9 1018 56 10000 7 350 00:26 16.04.2020
4656 Clouds -9 1018 56 10000 7 360 23:55 15.04.2020
4657 Clouds -10 1018 61 10000 6 340 23:37 15.04.2020
4658 Clouds -10 1018 61 10000 6 340 23:19 15.04.2020
4659 Clouds -10 1017 66 10000 6 340 22:39 15.04.2020
4660 Clouds -10 1017 66 10000 6 340 22:21 15.04.2020
4661 Clouds -9 1017 61 10000 6 340 21:56 15.04.2020
4662 Clouds -9 1017 61 10000 5 350 21:38 15.04.2020
4663 Clouds -9 1017 61 10000 5 350 21:20 15.04.2020
4664 Clouds -8 1017 57 10000 6 350 20:55 15.04.2020
4665 Clouds -8 1017 57 10000 6 350 20:55 15.04.2020
4666 Clouds -8 1017 57 10000 5 360 20:37 15.04.2020
4667 Clouds -8 1017 57 10000 5 360 20:19 15.04.2020
4668 Clouds -7 1017 57 10000 4 350 19:41 15.04.2020
4669 Clouds -7 1017 52 10000 4 360 19:20 15.04.2020
4670 Clouds -7 1017 52 10000 4 360 19:20 15.04.2020
4671 Clouds -7 1016 52 10000 4 360 18:43 15.04.2020
4672 Clouds -6 1017 48 10000 3 350 18:23 15.04.2020
4673 Clouds -6 1017 48 10000 3 350 17:58 15.04.2020
4674 Clouds -6 1017 48 10000 3 350 17:40 15.04.2020
4675 Clouds -6 1017 48 10000 3 350 17:40 15.04.2020
4676 Clouds -6 1017 48 10000 3 350 17:20 15.04.2020
4677 Clouds -5 1016 41 10000 5 350 16:57 15.04.2020
4678 Clouds -5 1016 45 10000 5 350 16:38 15.04.2020
4679 Clouds -5 1016 45 10000 5 350 16:19 15.04.2020
4680 Clouds -5 1016 45 10000 5 350 16:19 15.04.2020
4681 Clouds -4 1016 41 10000 6 350 15:57 15.04.2020
4682 Clouds -4 1016 41 10000 6 340 15:39 15.04.2020
4683 Clouds -4 1016 41 10000 6 340 15:19 15.04.2020
4684 Clouds -3 1016 38 10000 6 340 14:58 15.04.2020
4685 Clouds -2 1016 36 10000 7 340 14:39 15.04.2020
4686 Clouds -2 1016 36 10000 7 340 14:21 15.04.2020
4687 Clouds -2 1016 36 10000 5 340 13:58 15.04.2020
4688 Clouds -1 1016 36 10000 5 340 13:38 15.04.2020
4689 Clouds 0 1016 85 10000 7 350 13:20 15.04.2020
4690 Clouds 0 1016 85 10000 7 350 12:54 15.04.2020
4691 Clouds 2 1016 31 10000 6 360 12:36 15.04.2020
4692 Clouds 2 1016 31 10000 6 360 12:18 15.04.2020
4693 Clouds 3 1015 32 10000 6 350 11:42 15.04.2020
4694 Clouds 3 1015 32 10000 6 350 11:24 15.04.2020
4695 Clouds 4 1015 41 10000 6 360 10:58 15.04.2020
4696 Clouds 4 1015 44 10000 7 350 10:36 15.04.2020
4697 Clouds 4 1015 44 10000 7 350 10:18 15.04.2020
4698 Clouds 5 1015 56 10000 7 330 09:55 15.04.2020
4699 Clouds 6 1015 56 10000 7 310 09:36 15.04.2020
4700 Clouds 6 1015 56 10000 7 310 09:18 15.04.2020
4701 Clouds 8 1014 42 10000 7 280 08:41 15.04.2020
4702 Clouds 8 1014 42 10000 7 290 08:19 15.04.2020
4703 Clouds 8 1014 42 10000 7 290 07:54 15.04.2020
4704 Clouds 9 1014 39 10000 8 280 07:33 15.04.2020
4705 Clouds 9 1014 36 10000 6 270 06:34 15.04.2020
4706 Clouds 9 1014 31 10000 5 260 05:51 15.04.2020
4707 Clouds 6 1015 48 10000 2 150 05:20 15.04.2020
4708 Clouds 3 1015 59 10000 3 140 04:44 15.04.2020
4709 Clouds 4 1015 55 10000 3 140 03:51 15.04.2020
4710 Clouds 3 1016 59 10000 3 120 03:18 15.04.2020
4711 Clouds 3 1016 51 10000 3 170 02:33 15.04.2020
4712 Clouds 0 1017 86 10000 4 170 01:44 15.04.2020
4713 Clouds 0 1017 86 10000 3 180 01:20 15.04.2020
4714 Clouds -1 1018 58 10000 3 180 00:37 15.04.2020
4715 Clouds -2 1018 63 10000 4 180 00:19 15.04.2020
4716 Clouds -2 1018 63 10000 4 180 23:55 14.04.2020
4717 Clouds -2 1018 63 10000 2 180 23:36 14.04.2020
4718 Clouds -2 1018 63 10000 2 180 23:18 14.04.2020
4719 Clouds -2 1018 63 10000 3 160 22:55 14.04.2020
4720 Clouds -2 1019 63 10000 2 180 22:36 14.04.2020
4721 Clouds -2 1019 63 10000 2 160 22:18 14.04.2020
4722 Clouds -2 1019 63 10000 2 160 21:55 14.04.2020
4723 Clouds -2 1020 63 10000 3 180 21:37 14.04.2020
4724 Clouds -2 1020 63 10000 3 180 21:18 14.04.2020
4725 Clouds -2 1020 68 10000 2 140 20:40 14.04.2020
4726 Clouds -2 1020 68 10000 2 140 20:40 14.04.2020
4727 Clouds -2 1020 68 10000 2 140 20:22 14.04.2020
4728 Clouds -2 1021 63 10000 2 200 19:58 14.04.2020
4729 Clouds -3 1021 63 10000 3 200 19:40 14.04.2020
4730 Clouds -3 1021 63 10000 3 200 19:21 14.04.2020
4731 Clouds -3 1021 68 10000 3 210 18:56 14.04.2020
4732 Clouds -3 1022 63 10000 3 220 18:38 14.04.2020
4733 Clouds -4 1022 68 10000 3 230 18:19 14.04.2020
4734 Clouds -4 1022 68 10000 3 230 17:56 14.04.2020
4735 Clouds -3 1022 63 10000 2 240 17:37 14.04.2020
4736 Clouds -3 1022 63 10000 2 240 17:19 14.04.2020
4737 Clouds -2 1022 54 10000 2 270 16:41 14.04.2020
4738 Clouds -2 1022 54 10000 2 270 16:23 14.04.2020
4739 Clouds -2 1022 54 10000 3 260 15:58 14.04.2020
4740 Clouds -1 1022 50 10000 3 260 15:39 14.04.2020
4741 Clouds -1 1022 50 10000 3 260 15:20 14.04.2020
4742 Clouds -1 1022 50 10000 3 280 14:57 14.04.2020
4743 Clouds -1 1022 50 10000 3 280 14:39 14.04.2020
4744 Clouds -1 1022 50 10000 3 280 14:21 14.04.2020
4745 Clouds 1 1023 43 10000 2 260 13:55 14.04.2020
4746 Clouds 1 1022 43 10000 2 280 13:37 14.04.2020
4747 Clouds 2 1023 40 10000 2 320 13:19 14.04.2020
4748 Clouds 3 1022 37 10000 3 330 12:41 14.04.2020
4749 Clear 3 1022 37 10000 3 330 12:20 14.04.2020
4750 Clear 4 1022 35 10000 2 330 11:55 14.04.2020
4751 Clear 4 1022 35 10000 3 320 11:36 14.04.2020
4752 Clear 4 1022 35 10000 3 320 11:18 14.04.2020
4753 Clear 4 1022 38 10000 4 320 10:43 14.04.2020
4754 Clear 4 1022 38 10000 4 320 10:23 14.04.2020
4755 Clear 4 1022 38 10000 4 300 09:43 14.04.2020
4756 Clouds 4 1022 38 10000 4 300 09:25 14.04.2020
4757 Clouds 4 1022 38 10000 5 300 08:59 14.04.2020
4758 Clouds 4 1022 41 10000 5 310 08:40 14.04.2020
4759 Clouds 4 1022 41 10000 5 310 08:21 14.04.2020
4760 Clouds 3 1022 44 10000 5 300 07:53 14.04.2020
4761 Clouds 1 1023 81 0 3.18 313 07:29 14.04.2020
4762 Clouds 3 1022 44 10000 5 300 06:47 14.04.2020
4763 Clouds 2 1022 43 10000 5 310 05:55 14.04.2020
4764 Clouds 1 1021 47 10000 4 300 03:52 14.04.2020
4765 Clouds -1 1021 54 10000 5 290 02:53 14.04.2020
4766 Clouds -2 1021 58 10000 4 310 01:39 14.04.2020
4767 Clouds -2 1020 58 10000 5 310 01:18 14.04.2020
4768 Clouds -3 1020 63 10000 7 310 00:33 14.04.2020
4769 Clouds -3 1019 68 10000 5 300 23:59 13.04.2020
4770 Clouds -3 1019 68 10000 5 300 23:39 13.04.2020
4771 Clouds -3 1019 68 10000 5 300 23:21 13.04.2020
4772 Clouds -2 1019 63 10000 8 310 22:56 13.04.2020
4773 Clouds -2 1019 68 10000 5 310 22:38 13.04.2020
4774 Clouds -2 1019 68 10000 5 310 22:20 13.04.2020
4775 Clouds -1 1019 68 10000 5 310 21:55 13.04.2020
4776 Clouds -1 1018 74 10000 4 310 21:36 13.04.2020
4777 Clouds -1 1018 74 10000 4 310 21:18 13.04.2020
4778 Clouds 0 1018 94 10000 3 300 20:41 13.04.2020
4779 Clouds 0 1018 94 10000 3 300 20:20 13.04.2020
4780 Clouds 0 1018 94 10000 3 300 19:59 13.04.2020
4781 Clouds 0 1018 94 10000 3 290 19:37 13.04.2020
4782 Clouds 1 1018 69 10000 3 290 19:19 13.04.2020
4783 Clouds 1 1018 69 10000 3 290 18:58 13.04.2020
4784 Clouds 1 1017 69 10000 3 260 18:39 13.04.2020
4785 Clouds 1 1017 69 10000 3 280 18:20 13.04.2020
4786 Clouds 1 1017 69 10000 3 280 18:20 13.04.2020
4787 Clouds 1 1017 69 10000 3 280 17:58 13.04.2020
4788 Clouds 1 1018 69 10000 3 280 17:38 13.04.2020
4789 Clouds 1 1018 69 10000 3 280 17:19 13.04.2020
4790 Clouds 2 1018 64 10000 4 290 16:58 13.04.2020
4791 Clouds 2 1018 64 10000 4 290 16:58 13.04.2020
4792 Clouds 3 1018 59 10000 5 300 16:40 13.04.2020
4793 Clouds 3 1018 59 10000 5 300 16:20 13.04.2020
4794 Clouds 3 1017 64 10000 6 300 15:57 13.04.2020
4795 Clouds 4 1017 60 10000 5 310 15:38 13.04.2020
4796 Clouds 4 1017 60 10000 5 310 15:20 13.04.2020
4797 Clouds 4 1017 55 10000 6 310 14:54 13.04.2020
4798 Clouds 5 1017 52 10000 4 300 14:36 13.04.2020
4799 Clouds 5 1017 52 10000 5 310 14:18 13.04.2020
4800 Clouds 5 1017 52 10000 5 310 13:54 13.04.2020
4801 Clouds 5 1017 52 10000 5 310 13:36 13.04.2020
4802 Clouds 6 1016 48 10000 5 290 13:18 13.04.2020
4803 Clouds 6 1016 45 10000 4 270 12:40 13.04.2020
4804 Clouds 6 1016 45 10000 4 270 12:21 13.04.2020
4805 Clouds 6 1016 45 10000 4 270 12:21 13.04.2020
4806 Clouds 6 1016 45 10000 3 260 11:59 13.04.2020
4807 Clouds 7 1016 42 10000 4 270 11:41 13.04.2020
4808 Clouds 7 1016 42 10000 4 270 11:18 13.04.2020
4809 Clouds 7 1016 42 10000 4 270 11:18 13.04.2020
4810 Clouds 7 1016 42 10000 4 270 11:18 13.04.2020
4811 Clouds 6 1017 45 10000 4 290 10:55 13.04.2020
4812 Clouds 6 1016 45 10000 4 280 10:37 13.04.2020
4813 Clouds 6 1016 45 10000 4 280 10:18 13.04.2020
4814 Clouds 6 1016 38 10000 5 290 09:44 13.04.2020
4815 Clouds 6 1016 38 10000 5 290 09:26 13.04.2020
4816 Clouds 6 1016 38 10000 3 280 08:49 13.04.2020
4817 Clouds 5 1017 41 10000 4 300 08:30 13.04.2020
4818 Clouds 5 1017 41 10000 4 300 08:30 13.04.2020
4819 Clouds 5 1017 41 10000 4 290 07:59 13.04.2020
4820 Clouds 5 1017 38 10000 4 300 07:39 13.04.2020
4821 Clouds 5 1017 38 10000 6 290 07:20 13.04.2020
4822 Clouds 4 1017 41 10000 5 300 06:47 13.04.2020
4823 Clouds 4 1018 41 10000 4 290 06:24 13.04.2020
4824 Clouds 4 1018 41 10000 4 310 05:30 13.04.2020
4825 Clouds 4 1018 41 10000 5 290 04:53 13.04.2020
4826 Clouds 4 1018 41 10000 5 330 04:23 13.04.2020
4827 Clouds 3 1018 44 10000 5 330 03:47 13.04.2020
4828 Clouds 2 1018 47 10000 6 310 02:59 13.04.2020
4829 Clear 1 1018 50 10000 4 310 01:54 13.04.2020
4830 Clear 0 1018 92 10000 5 310 01:36 13.04.2020
4831 Clear 0 1018 92 10000 4 300 00:58 13.04.2020
4832 Clear -1 1018 58 10000 4 310 00:39 13.04.2020
4833 Clear -2 1018 63 10000 5 290 00:18 13.04.2020
4834 Clear -2 1018 63 10000 5 290 23:45 12.04.2020
4835 Clear -2 1018 63 10000 5 290 23:22 12.04.2020
4836 Clear -3 1017 68 10000 3 300 22:58 12.04.2020
4837 Clear -3 1018 68 10000 5 290 22:37 12.04.2020
4838 Clear -3 1018 68 10000 5 290 22:19 12.04.2020
4839 Clear -2 1017 68 10000 4 280 21:40 12.04.2020
4840 Clouds -2 1017 68 10000 4 280 21:21 12.04.2020
4841 Clouds -2 1017 68 10000 5 280 20:57 12.04.2020
4842 Clouds -2 1017 68 10000 5 280 20:38 12.04.2020
4843 Clouds -2 1017 68 10000 5 280 20:20 12.04.2020
4844 Clouds -1 1017 63 10000 6 290 19:55 12.04.2020
4845 Clouds -1 1017 68 10000 5 290 19:36 12.04.2020
4846 Clouds -1 1017 68 10000 6 300 19:18 12.04.2020
4847 Clouds 0 1017 92 10000 6 290 18:40 12.04.2020
4848 Clouds 0 1017 93 10000 5 300 18:22 12.04.2020
4849 Clouds 0 1017 93 10000 5 300 17:57 12.04.2020
4850 Clouds 0 1017 93 10000 4 300 17:38 12.04.2020
4851 Clouds 0 1017 93 10000 4 300 17:20 12.04.2020
4852 Clouds 0 1017 93 10000 5 290 16:56 12.04.2020
4853 Clouds 1 1016 80 10000 5 290 16:37 12.04.2020
4854 Clouds 1 1016 80 10000 5 290 16:19 12.04.2020
4855 Clouds 1 1016 80 10000 5 280 15:42 12.04.2020
4856 Clouds 1 1016 80 10000 5 280 15:23 12.04.2020
4857 Clouds 2 1016 74 10000 5 300 14:41 12.04.2020
4858 Clouds 2 1016 74 10000 5 300 14:22 12.04.2020
4859 Clouds 2 1016 80 10000 4 290 13:58 12.04.2020
4860 Clouds 2 1016 80 10000 5 290 13:40 12.04.2020
4861 Clouds 2 1016 80 10000 5 290 13:22 12.04.2020
4862 Clouds 2 1015 80 10000 6 290 12:47 12.04.2020
4863 Clouds 2 1015 80 10000 6 290 12:22 12.04.2020
4864 Clouds 2 1015 80 10000 5 280 11:59 12.04.2020
4865 Clouds 2 1015 88 10000 4 280 11:39 12.04.2020
4866 Clouds 2 1015 88 10000 4 280 11:20 12.04.2020
4867 Clouds 2 1015 88 10000 5 280 10:58 12.04.2020
4868 Clouds 3 1015 74 10000 6 290 10:39 12.04.2020
4869 Clouds 3 1015 74 10000 6 290 10:20 12.04.2020
4870 Clouds 3 1014 86 10000 1 290 09:59 12.04.2020
4871 Clouds 2 1014 93 10000 2 320 09:39 12.04.2020
4872 Clouds 2 1014 93 10000 2 320 09:20 12.04.2020
4873 Clouds 3 1014 74 10000 5 300 08:51 12.04.2020
4874 Clouds 3 1014 74 10000 4 280 08:32 12.04.2020
4875 Clouds 4 1014 60 10000 5 300 07:55 12.04.2020
4876 Clouds 4 1014 64 10000 4 270 07:36 12.04.2020
4877 Clouds 4 1014 64 10000 5 270 07:18 12.04.2020
4878 Clouds 4 1015 64 10000 4 280 06:31 12.04.2020
4879 Clouds 3 1015 69 10000 6 280 05:49 12.04.2020
4880 Clouds 4 1015 55 10000 6 290 05:27 12.04.2020
4881 Clouds 5 1014 56 10000 1 240 03:32 12.04.2020
4882 Clouds 4 1015 60 10000 3 270 02:51 12.04.2020
4883 Clouds 3 1015 64 10000 3 280 02:30 12.04.2020
4884 Clouds 3 1015 59 10000 2 230 01:31 12.04.2020
4885 Clouds 1 1015 69 10000 2 150 00:56 12.04.2020
4886 Clouds 0 1016 92 10000 2 150 00:38 12.04.2020
4887 Clouds 0 1016 92 10000 2 150 00:38 12.04.2020
4888 Clouds 1 1016 64 10000 2 200 00:19 12.04.2020
4889 Clouds 1 1016 64 10000 3 210 23:44 11.04.2020
4890 Clouds 1 1016 64 10000 3 210 23:23 11.04.2020
4891 Clouds 0 1016 97 10000 1 260 22:40 11.04.2020
4892 Clouds 0 1016 97 10000 1 260 22:22 11.04.2020
4893 Clouds 0 1016 97 10000 2 230 21:57 11.04.2020
4894 Clouds -2 1017 79 10000 1 190 21:37 11.04.2020
4895 Clouds -2 1017 79 10000 1 190 21:18 11.04.2020
4896 Clouds -2 1017 79 10000 1 190 21:18 11.04.2020
4897 Clouds -2 1017 79 10000 2 180 20:57 11.04.2020
4898 Clouds -1 1017 74 10000 2 170 20:38 11.04.2020
4899 Clouds -1 1017 74 10000 2 170 20:20 11.04.2020
4900 Clouds -2 1017 79 10000 2 160 19:57 11.04.2020
4901 Clouds 0 1018 96 10000 3 200 19:38 11.04.2020
4902 Clouds -1 1018 74 10000 3 210 19:19 11.04.2020
4903 Clouds -1 1018 74 10000 3 210 19:19 11.04.2020
4904 Clouds -1 1018 74 10000 3 210 18:56 11.04.2020
4905 Clouds -2 1018 79 10000 1 150 18:37 11.04.2020
4906 Clouds -3 1019 86 10000 1 230 18:19 11.04.2020
4907 Clouds -3 1019 86 10000 1 230 17:58 11.04.2020
4908 Clouds -2 1019 74 10000 2.77 261 17:40 11.04.2020
4909 Clouds -2 1019 74 10000 2.77 261 17:19 11.04.2020
4910 Clouds -2 1020 74 10000 2 240 16:43 11.04.2020
4911 Clouds -2 1020 74 10000 2 240 16:22 11.04.2020
4912 Clouds -1 1020 68 10000 3 230 15:56 11.04.2020
4913 Clouds -1 1020 68 10000 3 240 15:36 11.04.2020
4914 Clouds -1 1020 68 10000 3 240 15:18 11.04.2020
4915 Clouds 0 1021 95 10000 2 230 14:42 11.04.2020
4916 Clouds 0 1021 95 10000 2 230 14:42 11.04.2020
4917 Clouds 0 1021 95 10000 2 230 14:23 11.04.2020
4918 Clouds 1 1021 59 10000 3 230 13:59 11.04.2020
4919 Clouds 2 1021 55 10000 2 220 13:38 11.04.2020
4920 Clouds 2 1021 55 10000 2 220 13:19 11.04.2020
4921 Clouds 4 1022 48 10000 3 260 12:41 11.04.2020
4922 Clouds 4 1022 48 10000 3 260 12:41 11.04.2020
4923 Clear 5 1022 44 10000 3 270 12:19 11.04.2020
4924 Clear 5 1022 44 10000 3 270 11:56 11.04.2020
4925 Clear 5 1022 41 10000 3 290 11:38 11.04.2020
4926 Clear 5 1022 41 10000 3 290 11:19 11.04.2020
4927 Clear 6 1023 35 10000 4 290 10:43 11.04.2020
4928 Clear 6 1023 35 10000 4 290 10:22 11.04.2020
4929 Clear 5 1023 38 10000 6 280 09:59 11.04.2020
4930 Clear 5 1023 38 10000 6 290 09:39 11.04.2020
4931 Clear 5 1023 38 10000 6 290 09:21 11.04.2020
4932 Clear 5 1023 38 10000 6 300 08:49 11.04.2020
4933 Clear 5 1023 41 10000 7 290 08:28 11.04.2020
4934 Clear 5 1023 41 10000 7 290 08:28 11.04.2020
4935 Clear 5 1024 41 10000 7 280 07:53 11.04.2020
4936 Clear 5 1024 41 10000 6 290 07:34 11.04.2020
4937 Clear 5 1024 44 10000 6 280 06:55 11.04.2020
4938 Clear 5 1024 41 10000 7 300 06:34 11.04.2020
4939 Clear 5 1024 41 10000 7 280 05:55 11.04.2020
4940 Clear 4 1023 44 10000 9 300 03:42 11.04.2020
4941 Clouds 4 1023 51 10000 7 300 02:49 11.04.2020
4942 Clouds 3 1022 69 10000 7 280 01:25 11.04.2020
4943 Clouds 3 1022 74 10000 6 280 00:44 11.04.2020
4944 Clouds 3 1022 74 10000 6 280 00:20 11.04.2020
4945 Clouds 2 1022 80 10000 7 280 23:59 10.04.2020
4946 Clouds 2 1022 74 10000 5 270 23:40 10.04.2020
4947 Clouds 2 1022 74 10000 5 270 23:19 10.04.2020
4948 Clouds 2 1022 74 10000 6 280 22:55 10.04.2020
4949 Clouds 2 1021 74 10000 6 280 22:36 10.04.2020
4950 Clouds 2 1021 74 10000 6 280 22:18 10.04.2020
4951 Clouds 3 1020 74 10000 7 290 21:41 10.04.2020
4952 Clouds 3 1020 74 10000 7 290 21:20 10.04.2020
4953 Clouds 3 1020 74 10000 7 290 21:20 10.04.2020
4954 Clouds 3 1020 74 10000 7 300 20:57 10.04.2020
4955 Clouds 3 1019 74 10000 6 300 20:38 10.04.2020
4956 Clouds 3 1019 74 10000 6 300 20:19 10.04.2020
4957 Clouds 4 1018 87 10000 6 300 19:54 10.04.2020
4958 Clouds 5 1018 75 10000 7 290 19:36 10.04.2020
4959 Clouds 5 1018 87 10000 5 290 19:18 10.04.2020
4960 Clouds 5 1018 87 10000 5 290 18:55 10.04.2020
4961 Clouds 6 1017 87 10000 6 300 18:36 10.04.2020
4962 Rain 7 1017 52 10000 7 310 18:18 10.04.2020
4963 Rain 7 1017 52 10000 7 310 17:56 10.04.2020
4964 Rain 9 1016 34 10000 8 300 17:37 10.04.2020
4965 Rain 9 1016 34 10000 8 300 17:18 10.04.2020
4966 Rain 9 1015 34 10000 6 240 16:41 10.04.2020
4967 Rain 9 1015 34 10000 6 240 16:23 10.04.2020
4968 Rain 3 1016 59 10000 1 180 15:58 10.04.2020
4969 Rain 1 1016 69 10000 2 160 15:39 10.04.2020
4970 Clouds 1 1016 69 10000 2 160 15:20 10.04.2020
4971 Clouds 1 1016 74 10000 1 190 14:58 10.04.2020
4972 Clouds 3 1017 59 10000 3 180 14:39 10.04.2020
4973 Clouds 3 1017 59 10000 3 180 14:21 10.04.2020
4974 Clouds 5 1017 52 10000 3 190 13:49 10.04.2020
4975 Clouds 6 1017 48 10000 4 210 13:23 10.04.2020
4976 Clouds 7 1018 45 10000 3 190 12:59 10.04.2020
4977 Clouds 8 1018 42 10000 3 190 12:41 10.04.2020
4978 Clouds 10 1018 34 10000 3 180 12:21 10.04.2020
4979 Clouds 11 1019 32 10000 3 180 11:43 10.04.2020
4980 Clouds 11 1019 32 10000 3 180 11:24 10.04.2020
4981 Clouds 11 1019 32 10000 3 180 10:58 10.04.2020
4982 Clouds 12 1019 30 10000 2 180 10:39 10.04.2020
4983 Clouds 12 1019 30 10000 2 180 10:21 10.04.2020
4984 Clouds 11 1020 32 10000 3 180 09:43 10.04.2020
4985 Clouds 11 1020 32 10000 3 180 09:43 10.04.2020
4986 Clouds 11 1020 32 10000 3 180 09:23 10.04.2020
4987 Clouds 11 1020 32 10000 3 180 08:50 10.04.2020
4988 Clouds 10 1020 34 10000 3 170 08:27 10.04.2020
4989 Clouds 11 1021 32 10000 3 170 07:57 10.04.2020
4990 Clouds 10 1021 34 10000 3 170 07:39 10.04.2020
4991 Clouds 9 1022 36 10000 3 170 07:20 10.04.2020
4992 Clouds 8 1022 39 10000 3 180 06:38 10.04.2020
4993 Clouds 7 1023 42 10000 3 180 06:19 10.04.2020
4994 Clouds 6 1023 45 10000 3 180 05:30 10.04.2020
4995 Clouds 5 1023 48 10000 3 180 04:55 10.04.2020
4996 Clouds 2 1024 55 10000 2 160 03:35 10.04.2020
4997 Clouds 1 1024 50 10000 3 170 02:51 10.04.2020
4998 Clouds 0 1025 92 10000 3 170 02:33 10.04.2020
4999 Clouds -2 1025 63 10000 2 170 01:47 10.04.2020
5000 Clouds -2 1025 63 10000 2 170 01:27 10.04.2020
5001 Clouds -6 1025 79 10000 2.24 189 00:46 10.04.2020
5002 Clouds -6 1025 79 10000 1.97 212 00:21 10.04.2020
5003 Clouds -8 1025 92 10000 1 230 23:42 09.04.2020
5004 Clouds -8 1025 92 10000 1 230 23:24 09.04.2020
5005 Clouds -8 1025 92 10000 1 200 22:57 09.04.2020
5006 Clouds -8 1025 92 10000 1.97 212 22:39 09.04.2020
5007 Clouds -8 1025 92 10000 1.97 212 22:39 09.04.2020
5008 Clouds -8 1025 92 10000 1.97 212 22:21 09.04.2020
5009 Clouds -7 1025 85 10000 1.97 212 21:40 09.04.2020
5010 Clouds -7 1025 85 10000 1.52 239 21:21 09.04.2020
5011 Clouds -7 1025 85 10000 1.52 239 20:54 09.04.2020
5012 Clouds -6 1025 85 10000 1.52 239 20:36 09.04.2020
5013 Clouds -6 1025 85 10000 1.52 239 20:18 09.04.2020
5014 Clouds -5 1025 79 10000 2 290 19:39 09.04.2020
5015 Clouds -4 1025 73 10000 1 260 19:21 09.04.2020
5016 Clouds -4 1025 73 10000 3 260 18:42 09.04.2020
5017 Clouds -4 1025 73 10000 3 260 18:21 09.04.2020
5018 Clouds -3 1025 73 10000 1 230 17:58 09.04.2020
5019 Clouds -2 1025 68 10000 1.53 279 17:39 09.04.2020
5020 Clouds -2 1025 68 10000 1.53 279 17:19 09.04.2020
5021 Clouds -1 1025 68 10000 1 270 16:40 09.04.2020
5022 Clouds -1 1025 68 10000 1 270 16:20 09.04.2020
5023 Clouds 0 1025 95 10000 2 290 15:57 09.04.2020
5024 Clouds 0 1024 95 10000 3 280 15:38 09.04.2020
5025 Clouds 0 1024 95 10000 3 280 15:38 09.04.2020
5026 Clouds 0 1024 91 10000 3 280 15:19 09.04.2020
5027 Clouds 1 1024 64 10000 3 270 14:56 09.04.2020
5028 Clouds 1 1024 69 10000 2 280 14:36 09.04.2020
5029 Clouds 1 1024 69 10000 2 280 14:18 09.04.2020
5030 Clouds 3 1024 55 10000 2 250 13:42 09.04.2020
5031 Clouds 3 1024 55 10000 2 250 13:23 09.04.2020
5032 Clouds 5 1024 44 10000 1 90 12:55 09.04.2020
5033 Clouds 6 1024 41 10000 3 40 12:36 09.04.2020
5034 Clouds 7 1024 36 10000 2 350 12:18 09.04.2020
5035 Clouds 9 1024 29 10000 3 300 11:43 09.04.2020
5036 Clouds 9 1024 29 10000 3 300 11:20 09.04.2020
5037 Clouds 9 1024 29 10000 3 300 11:20 09.04.2020
5038 Clouds 10 1024 23 10000 4 310 10:59 09.04.2020
5039 Clouds 10 1024 25 10000 4 300 10:41 09.04.2020
5040 Clouds 10 1024 25 10000 4 300 10:21 09.04.2020
5041 Clouds 10 1024 25 10000 5 290 09:57 09.04.2020
5042 Clouds 10 1024 29 10000 4 290 09:38 09.04.2020
5043 Clouds 10 1024 29 10000 4 290 09:20 09.04.2020
5044 Clouds 9 1025 36 10000 1 140 08:44 09.04.2020
5045 Clouds 9 1025 36 10000 1 140 08:44 09.04.2020
5046 Clouds 9 1025 36 10000 1 140 08:24 09.04.2020
5047 Clouds 9 1025 36 10000 1 120 07:59 09.04.2020
5048 Clouds 8 1025 42 10000 2 130 07:36 09.04.2020
5049 Clouds 7 1025 39 10000 3 150 07:18 09.04.2020
5050 Clouds 7 1026 42 10000 2 140 06:26 09.04.2020
5051 Clouds 6 1026 48 10000 2 130 05:46 09.04.2020
5052 Clouds 4 1027 44 10000 2 140 04:26 09.04.2020
5053 Clouds 3 1026 47 10000 2 260 02:33 09.04.2020
5054 Clouds 1 1026 50 10000 2 290 01:44 09.04.2020
5055 Clouds 1 1026 50 10000 2 290 01:24 09.04.2020
5056 Clouds -1 1026 54 10000 4 290 00:43 09.04.2020
5057 Clouds -3 1026 63 10000 3 290 00:20 09.04.2020
5058 Clouds -3 1026 63 10000 3 290 23:59 08.04.2020
5059 Clouds -4 1026 62 10000 3 290 23:41 08.04.2020
5060 Clouds -3 1026 58 10000 4 290 23:21 08.04.2020
5061 Clouds -4 1026 62 10000 2 300 22:44 08.04.2020
5062 Clouds -2 1026 54 10000 3 310 22:24 08.04.2020
5063 Clouds -2 1026 54 10000 3 310 22:24 08.04.2020
5064 Clouds -2 1025 54 10000 3 300 21:57 08.04.2020
5065 Clouds -2 1025 54 10000 3 300 21:39 08.04.2020
5066 Clouds -2 1025 54 10000 3 300 21:21 08.04.2020
5067 Clouds -2 1025 58 10000 3 280 20:58 08.04.2020
5068 Clouds -2 1025 58 10000 3 280 20:39 08.04.2020
5069 Clouds -2 1025 58 10000 2 270 20:20 08.04.2020
5070 Clouds -2 1025 58 10000 2 270 19:57 08.04.2020
5071 Clouds -1 1025 54 10000 3 290 19:37 08.04.2020
5072 Clouds -1 1025 58 10000 2 280 19:19 08.04.2020
5073 Clouds -1 1025 58 10000 2 280 19:19 08.04.2020
5074 Clouds 2 1025 43 10000 3 290 18:42 08.04.2020
5075 Clouds 2 1025 43 10000 3 290 18:24 08.04.2020
5076 Clouds 0 1025 95 10000 3 280 17:56 08.04.2020
5077 Clouds 1 1024 50 10000 4 300 17:38 08.04.2020
5078 Clouds 1 1024 55 10000 3 300 17:18 08.04.2020
5079 Clouds 2 1024 51 10000 3 290 16:42 08.04.2020
5080 Clouds 2 1024 51 10000 4 300 16:23 08.04.2020
5081 Clouds 4 1024 44 10000 4 270 15:56 08.04.2020
5082 Clouds 4 1024 44 10000 4 270 15:37 08.04.2020
5083 Clouds 4 1024 44 10000 4 270 15:19 08.04.2020
5084 Clouds 4 1024 44 10000 3 280 14:43 08.04.2020
5085 Clouds 4 1024 44 10000 3 280 14:25 08.04.2020
5086 Clouds 4 1024 44 10000 3 280 14:25 08.04.2020
5087 Clouds 5 1024 41 10000 3 270 13:55 08.04.2020
5088 Clouds 5 1024 41 10000 3 270 13:37 08.04.2020
5089 Clouds 6 1024 35 10000 2 280 13:18 08.04.2020
5090 Clouds 8 1024 31 10000 3 280 12:41 08.04.2020
5091 Clouds 9 1023 29 10000 4 300 12:18 08.04.2020
5092 Clouds 9 1023 29 10000 4 300 11:57 08.04.2020
5093 Clouds 9 1023 29 10000 3 290 11:39 08.04.2020
5094 Clouds 9 1023 29 10000 3 290 11:21 08.04.2020
5095 Clouds 10 1023 27 10000 3 290 10:55 08.04.2020
5096 Clouds 10 1023 27 10000 3 290 10:37 08.04.2020
5097 Clouds 10 1023 27 10000 3 290 10:18 08.04.2020
5098 Clouds 10 1023 25 10000 3 290 09:42 08.04.2020
5099 Clouds 10 1023 25 10000 3 290 09:21 08.04.2020
5100 Clouds 10 1023 25 10000 5 280 08:59 08.04.2020
5101 Clouds 10 1023 23 10000 6 270 08:41 08.04.2020
5102 Clouds 10 1023 23 10000 6 270 08:21 08.04.2020
5103 Clouds 10 1023 25 10000 5 280 07:44 08.04.2020
5104 Clouds 10 1023 25 10000 5 280 07:25 08.04.2020
5105 Clouds 10 1023 25 10000 5 280 06:55 08.04.2020
5106 Clouds 7 1024 45 10000 3 140 05:56 08.04.2020
5107 Clouds 2 1025 59 10000 3 160 03:34 08.04.2020
5108 Clouds 1 1025 59 10000 4 170 02:49 08.04.2020
5109 Clouds 0 1025 93 10000 4 170 02:19 08.04.2020
5110 Clouds -3 1025 68 10000 4 160 01:30 08.04.2020
5111 Clouds -4 1026 73 10000 3 160 00:59 08.04.2020
5112 Clouds -4 1026 73 10000 3 160 00:59 08.04.2020
5113 Clouds -5 1026 79 10000 3 160 00:40 08.04.2020
5114 Clouds -5 1026 79 10000 3 160 00:20 08.04.2020
5115 Clouds -8 1026 92 10000 3 160 23:39 07.04.2020
5116 Clouds -8 1026 92 10000 3 160 23:20 07.04.2020
5117 Clouds -9 1026 92 10000 2 160 22:57 07.04.2020
5118 Clouds -10 1026 92 10000 1 150 22:38 07.04.2020
5119 Clouds -10 1026 92 10000 1 150 22:19 07.04.2020
5120 Clouds -10 1027 92 10000 1 180 21:56 07.04.2020
5121 Clouds -10 1027 92 10000 1 180 21:56 07.04.2020
5122 Clouds -10 1027 92 10000 2.85 222 21:37 07.04.2020
5123 Clouds -10 1027 92 10000 2.46 232 21:18 07.04.2020
5124 Clouds -10 1027 92 10000 2.46 232 20:55 07.04.2020
5125 Clouds -10 1027 92 10000 2.46 232 20:55 07.04.2020
5126 Clouds -10 1027 92 10000 2.46 232 20:36 07.04.2020
5127 Clouds -9 1027 92 10000 2.46 232 20:18 07.04.2020
5128 Clouds -9 1027 92 10000 1 170 19:55 07.04.2020
5129 Clouds -9 1027 92 10000 1 170 19:36 07.04.2020
5130 Clouds -8 1027 92 10000 1 200 19:18 07.04.2020
5131 Clouds -8 1027 92 10000 1 200 19:18 07.04.2020
5132 Clouds -8 1027 85 10000 1 160 18:41 07.04.2020
5133 Clouds -8 1027 85 10000 1 160 18:21 07.04.2020
5134 Clouds -7 1027 85 10000 1 190 17:59 07.04.2020
5135 Clouds -6 1027 85 10000 2 170 17:40 07.04.2020
5136 Clouds -6 1027 85 10000 2 170 17:20 07.04.2020
5137 Clouds -5 1028 79 10000 2 180 16:45 07.04.2020
5138 Clouds -5 1028 79 10000 2 180 16:26 07.04.2020
5139 Clouds -2 1028 74 10000 3 190 15:47 07.04.2020
5140 Clouds -3 1028 73 10000 2 190 15:27 07.04.2020
5141 Clouds -3 1028 73 10000 2 190 14:58 07.04.2020
5142 Clouds -3 1028 79 10000 2 200 14:39 07.04.2020
5143 Clouds -3 1028 79 10000 2 200 14:20 07.04.2020
5144 Clouds 1 1028 64 10000 2 190 13:43 07.04.2020
5145 Clouds 1 1028 64 10000 2 190 13:21 07.04.2020
5146 Clouds 2 1028 59 10000 2 190 12:59 07.04.2020
5147 Clouds 4 1028 51 10000 2 180 12:40 07.04.2020
5148 Clouds 4 1028 51 10000 2 180 12:21 07.04.2020
5149 Clouds 5 1028 48 10000 2 170 11:59 07.04.2020
5150 Clouds 6 1028 45 10000 2 180 11:41 07.04.2020
5151 Clouds 6 1028 45 10000 2 180 11:21 07.04.2020
5152 Clouds 6 1028 45 10000 2 170 10:55 07.04.2020
5153 Clouds 6 1028 45 10000 2 170 10:36 07.04.2020
5154 Clouds 6 1028 45 10000 2 170 10:18 07.04.2020
5155 Clouds 6 1028 48 10000 1 150 09:43 07.04.2020
5156 Snow 6 1028 48 10000 1 150 09:18 07.04.2020
5157 Snow 5 1028 52 10000 1 100 08:41 07.04.2020
5158 Snow 5 1028 52 10000 1 100 08:23 07.04.2020
5159 Snow 4 1029 55 10000 1 30 07:57 07.04.2020
5160 Snow 1 1029 64 10000 1 50 07:38 07.04.2020
5161 Snow 2 1029 59 10000 1 60 07:20 07.04.2020
5162 Snow 1 1029 64 10000 1 20 06:42 07.04.2020
5163 Snow 0 1029 94 10000 1 20 06:18 07.04.2020
5164 Snow 0 1029 94 10000 1 60 05:29 07.04.2020
5165 Snow -1 1029 68 10000 2 70 04:35 07.04.2020
5166 Snow -2 1029 74 10000 1 130 03:24 07.04.2020
5167 Snow -5 1028 79 10000 1 60 02:48 07.04.2020
5168 Snow -6 1028 79 10000 0.78 305 01:47 07.04.2020
5169 Mist -9 1028 92 10000 1 340 01:23 07.04.2020
5170 Mist -11 1027 92 5000 1 320 00:27 07.04.2020
5171 Clouds -12 1027 92 10000 1 330 23:44 06.04.2020
5172 Clouds -12 1027 92 10000 1 330 23:23 06.04.2020
5173 Clouds -11 1026 92 10000 2 360 22:57 06.04.2020
5174 Clouds -11 1026 92 10000 1 20 22:38 06.04.2020
5175 Clouds -11 1026 92 10000 1 20 22:19 06.04.2020
5176 Clouds -10 1026 92 10000 1 250 21:57 06.04.2020
5177 Clouds -9 1026 92 10000 2 170 21:38 06.04.2020
5178 Clouds -9 1026 92 10000 2 170 21:18 06.04.2020
5179 Clouds -9 1026 92 10000 1 30 20:54 06.04.2020
5180 Clouds -8 1026 92 10000 1 140 20:36 06.04.2020
5181 Clouds -8 1025 92 10000 1 130 20:18 06.04.2020
5182 Clouds -8 1025 92 10000 1 130 20:18 06.04.2020
5183 Clouds -7 1025 85 10000 1 140 19:40 06.04.2020
5184 Snow -8 1025 92 10000 1 360 19:22 06.04.2020
5185 Snow -8 1025 92 10000 1 360 18:57 06.04.2020
5186 Snow -8 1025 92 10000 1 360 18:57 06.04.2020
5187 Clouds -8 1025 92 10000 1.41 243 18:39 06.04.2020
5188 Snow -9 1025 92 10000 2 60 18:20 06.04.2020
5189 Snow -8 1025 92 10000 2 210 17:42 06.04.2020
5190 Snow -8 1025 92 10000 2 210 17:20 06.04.2020
5191 Snow -9 1025 92 10000 3 210 16:50 06.04.2020
5192 Clouds -9 1025 85 10000 1 210 16:31 06.04.2020
5193 Clouds -7 1025 92 10000 1.6 218 15:41 06.04.2020
5194 Snow -7 1025 85 10000 2 60 14:00 06.04.2020
5195 Snow -7 1025 85 10000 2 60 14:00 06.04.2020
5196 Snow -7 1025 85 10000 2 60 13:40 06.04.2020
5197 Snow -7 1025 85 10000 2 60 13:40 06.04.2020
5198 Snow -4 1024 79 10000 1 100 13:20 06.04.2020
5199 Snow -4 1024 79 10000 1 100 13:20 06.04.2020
5200 Snow -4 1024 79 10000 1 100 13:20 06.04.2020
5201 Snow -4 1024 79 10000 1 100 13:20 06.04.2020
5202 Snow -1 1024 68 10000 2 160 12:23 06.04.2020
5203 Snow -1 1024 68 10000 2 160 12:23 06.04.2020
5204 Clouds -1 1024 68 10000 2 160 11:55 06.04.2020
5205 Clouds -1 1024 68 10000 2 180 11:33 06.04.2020
5206 Clouds -1 1024 68 10000 2 180 11:33 06.04.2020
5207 Clouds -1 1024 68 10000 2 180 11:33 06.04.2020
5208 Clouds -1 1024 68 10000 2 180 11:33 06.04.2020
5209 Clouds 0 1023 97 10000 2 180 10:52 06.04.2020
5210 Clouds 0 1023 97 10000 2 180 10:52 06.04.2020
5211 Clouds 0 1023 97 10000 2 180 10:52 06.04.2020
5212 Clouds 0 1023 97 10000 2 180 10:52 06.04.2020
5213 Clouds 0 1023 97 10000 2 180 10:52 06.04.2020
5214 Clouds -1 1023 68 10000 2 170 10:22 06.04.2020
5215 Clouds 0 1023 97 10000 2 180 09:47 06.04.2020
5216 Clouds 0 1023 97 10000 2 170 09:22 06.04.2020
5217 Clouds -1 1023 63 10000 2 200 08:55 06.04.2020
5218 Clouds -1 1023 63 10000 2 190 08:31 06.04.2020
5219 Clouds -1 1023 58 10000 2 160 07:51 06.04.2020
5220 Clouds -1 1023 58 10000 2 160 07:51 06.04.2020
5221 Clouds -1 1023 58 10000 2 160 07:51 06.04.2020
5222 Clouds -1 1023 58 10000 2 160 07:51 06.04.2020
5223 Clouds -3 1023 58 10000 2 150 06:52 06.04.2020
5224 Clouds -3 1023 58 10000 2 150 06:52 06.04.2020
5225 Clouds -3 1023 53 10000 1 120 06:25 06.04.2020
5226 Snow -6 1023 57 10000 1 140 04:32 06.04.2020
5227 Snow -9 1022 61 10000 2 150 03:18 06.04.2020
5228 Snow -10 1022 61 10000 2 140 02:44 06.04.2020
5229 Snow -12 1022 72 10000 1 120 01:47 06.04.2020
5230 Snow -13 1021 71 10000 1 160 00:46 06.04.2020
5231 Snow -13 1021 71 10000 1 160 00:46 06.04.2020
5232 Snow -15 1021 84 10000 1 150 00:24 06.04.2020
5233 Clouds -19 1021 91 10000 1 70 23:46 05.04.2020
5234 Clouds -20 1021 83 10000 1 80 23:26 05.04.2020
5235 Clouds -20 1021 83 10000 1 80 23:26 05.04.2020
5236 Clouds -19 1021 91 10000 1 70 22:56 05.04.2020
5237 Clouds -18 1021 84 10000 1 300 22:38 05.04.2020
5238 Clouds -18 1021 84 10000 1 300 22:38 05.04.2020
5239 Clouds -19 1021 91 10000 1 70 22:38 05.04.2020
5240 Clouds -18 1021 84 10000 1 300 22:38 05.04.2020
5241 Clouds -18 1021 84 10000 1 300 22:18 05.04.2020
5242 Clouds -18 1021 84 10000 1.96 212 21:55 05.04.2020
5243 Clouds -16 1021 84 10000 3 280 21:37 05.04.2020
5244 Clouds -16 1021 84 10000 3 280 21:18 05.04.2020
5245 Clouds -13 1021 71 10000 2 230 20:20 05.04.2020
5246 Clouds -13 1021 71 10000 2 230 20:20 05.04.2020
5247 Clouds -13 1021 71 10000 2 230 20:20 05.04.2020
5248 Clouds -12 1021 72 10000 3 240 19:39 05.04.2020
5249 Clouds -12 1021 78 10000 4 230 19:21 05.04.2020
5250 Clouds -12 1021 85 10000 4 230 18:44 05.04.2020
5251 Clouds -12 1021 85 10000 4 230 17:57 05.04.2020
5252 Clouds -12 1021 85 10000 4 230 17:39 05.04.2020
5253 Clouds -12 1021 85 10000 4 230 17:39 05.04.2020
5254 Clouds -12 1021 85 10000 4 230 17:39 05.04.2020
5255 Clouds -12 1021 85 10000 4 230 17:39 05.04.2020
5256 Clouds -12 1021 85 10000 4 230 17:39 05.04.2020
5257 Clouds -12 1021 85 10000 4 230 17:20 05.04.2020
5258 Clouds -12 1021 85 10000 4 230 17:20 05.04.2020
5259 Clouds -11 1022 85 10000 4 240 16:21 05.04.2020
5260 Clouds -11 1022 85 10000 4 240 16:21 05.04.2020
5261 Clouds -13 1022 92 10000 3 220 15:55 05.04.2020
5262 Clouds -13 1022 92 10000 3 220 15:37 05.04.2020
5263 Clouds -11 1021 85 10000 3 230 15:19 05.04.2020
5264 Clouds -10 1021 78 10000 2 230 14:47 05.04.2020
5265 Clouds -10 1021 78 10000 2 230 14:47 05.04.2020
5266 Clouds -10 1021 78 10000 2 230 14:47 05.04.2020
5267 Clouds -10 1021 78 10000 2 230 14:47 05.04.2020
5268 Clouds -10 1021 78 10000 2 230 14:47 05.04.2020
5269 Clouds -8 1021 72 10000 3 270 13:44 05.04.2020
5270 Clouds -8 1021 72 10000 3 270 13:44 05.04.2020
5271 Snow -7 1020 92 10000 2 280 12:54 05.04.2020
5272 Snow -7 1020 92 10000 2 280 12:54 05.04.2020
5273 Snow -7 1020 92 10000 2 280 12:54 05.04.2020
5274 Snow -7 1020 92 10000 2 280 12:54 05.04.2020
5275 Snow -7 1020 92 10000 2 280 12:54 05.04.2020
5276 Snow -5 1020 67 10000 5 290 11:44 05.04.2020
5277 Clouds -4 1019 58 10000 6 290 11:21 05.04.2020
5278 Clouds -4 1019 58 10000 5 300 10:59 05.04.2020
5279 Clouds -4 1019 58 10000 5 300 10:41 05.04.2020
5280 Clouds -4 1018 53 10000 7 270 10:18 05.04.2020
5281 Clouds -3 1018 53 10000 6 270 09:43 05.04.2020
5282 Clouds -3 1017 53 10000 7 270 09:24 05.04.2020
5283 Clouds -3 1017 53 10000 7 270 09:24 05.04.2020
5284 Clouds -3 1017 53 10000 7 270 09:24 05.04.2020
5285 Clouds -3 1017 53 10000 7 270 09:24 05.04.2020
5286 Clouds -3 1017 53 10000 7 270 09:24 05.04.2020
5287 Clouds -3 1017 53 10000 7 270 07:44 05.04.2020
5288 Clouds -3 1017 53 10000 7 270 07:43 05.04.2020
5289 Clouds -2 1015 46 10000 8 260 04:40 05.04.2020
5290 Snow -2 1014 46 10000 7 260 03:34 05.04.2020
5291 Clouds -2 1014 46 10000 7 290 02:52 05.04.2020
5292 Clouds -2 1013 50 10000 8 270 01:48 05.04.2020
5293 Clouds -2 1012 50 10000 8 280 01:30 05.04.2020
5294 Clouds -2 1012 58 10000 7 280 00:46 05.04.2020
5295 Clouds -1 1011 63 10000 7 280 00:22 05.04.2020
5296 Snow -1 1011 68 10000 6 280 23:56 04.04.2020
5297 Clouds -3 1011 86 10000 4 210 23:37 04.04.2020
5298 Clouds -3 1011 86 10000 4 210 23:19 04.04.2020
5299 Clouds -4 1011 85 10000 3 220 22:41 04.04.2020
5300 Clouds -3 1010 86 10000 3 210 22:22 04.04.2020
5301 Clouds -3 1010 79 10000 2 190 21:59 04.04.2020
5302 Clouds -3 1010 79 10000 2 190 21:40 04.04.2020
5303 Clouds -3 1011 73 10000 3 190 21:20 04.04.2020
5304 Clouds -3 1011 73 10000 3 190 21:20 04.04.2020
5305 Clouds -3 1011 73 10000 3 190 20:59 04.04.2020
5306 Clouds -3 1011 73 10000 3 190 20:41 04.04.2020
5307 Clouds -3 1010 63 10000 3 170 20:22 04.04.2020
5308 Clouds -3 1011 49 10000 3 170 19:57 04.04.2020
5309 Clouds -3 1011 49 10000 2 150 19:37 04.04.2020
5310 Clouds -3 1011 49 10000 2 150 19:19 04.04.2020
5311 Clouds -3 1011 58 10000 1 190 18:57 04.04.2020
5312 Clouds -3 1011 58 10000 1 190 18:57 04.04.2020
5313 Snow -3 1011 45 10000 2 160 18:38 04.04.2020
5314 Snow -3 1011 45 10000 2 160 18:38 04.04.2020
5315 Snow -3 1011 45 10000 2 160 18:19 04.04.2020
5316 Snow -3 1011 49 10000 1 210 17:56 04.04.2020
5317 Snow -3 1011 49 10000 1 210 17:38 04.04.2020
5318 Snow -3 1011 49 10000 1 210 17:38 04.04.2020
5319 Snow -3 1011 45 10000 2 190 17:18 04.04.2020
5320 Snow -3 1011 45 10000 3 170 16:42 04.04.2020
5321 Snow -3 1011 45 10000 3 170 16:42 04.04.2020
5322 Snow -3 1011 42 10000 4 170 16:22 04.04.2020
5323 Snow -3 1012 42 10000 4 160 15:56 04.04.2020
5324 Snow -3 1012 42 10000 4 160 15:38 04.04.2020
5325 Clouds -3 1012 42 10000 4 160 15:19 04.04.2020
5326 Clouds -3 1012 42 10000 4 160 15:19 04.04.2020
5327 Clouds -3 1012 42 10000 4 150 14:43 04.04.2020
5328 Clouds -3 1013 42 10000 4 140 14:23 04.04.2020
5329 Clouds -3 1013 42 10000 3 130 13:56 04.04.2020
5330 Clouds -3 1014 42 10000 3 130 13:38 04.04.2020
5331 Clouds -3 1014 42 10000 3 130 13:20 04.04.2020
5332 Clouds -3 1014 42 10000 3 130 12:55 04.04.2020
5333 Clouds -2 1014 42 10000 3 140 12:36 04.04.2020
5334 Clouds -2 1014 42 10000 3 140 12:18 04.04.2020
5335 Clouds -2 1014 42 10000 5 140 11:40 04.04.2020
5336 Clouds -1 1015 36 10000 5 150 11:21 04.04.2020
5337 Clouds -1 1015 33 10000 5 150 10:58 04.04.2020
5338 Clouds -1 1015 33 10000 5 150 10:40 04.04.2020
5339 Clouds -1 1016 36 10000 4 150 10:21 04.04.2020
5340 Clouds 0 1016 94 10000 4 160 09:55 04.04.2020
5341 Clouds 0 1016 94 10000 4 160 09:37 04.04.2020
5342 Clouds 0 1017 93 10000 4 170 09:19 04.04.2020
5343 Clouds 0 1018 93 10000 3 180 08:42 04.04.2020
5344 Clouds 0 1018 93 10000 3 170 08:23 04.04.2020
5345 Clouds 0 1018 93 10000 4 180 07:47 04.04.2020
5346 Clouds -1 1019 33 10000 3 160 07:28 04.04.2020
5347 Clouds -3 1020 45 10000 1 80 06:58 04.04.2020
5348 Clouds -4 1021 49 10000 1 70 06:21 04.04.2020
5349 Clouds -3 1021 45 10000 1 130 05:51 04.04.2020
5350 Clouds -4 1022 38 10000 2 220 05:32 04.04.2020
5351 Clouds -6 1023 41 10000 2 190 04:33 04.04.2020
5352 Clouds -8 1023 48 10000 3 190 03:55 04.04.2020
5353 Clouds -10 1024 56 10000 2 190 03:27 04.04.2020
5354 Clouds -12 1025 60 10000 2 190 02:40 04.04.2020
5355 Clouds -13 1025 60 10000 2 180 02:22 04.04.2020
5356 Clouds -16 1026 71 10000 2 170 01:27 04.04.2020
5357 Clouds -18 1026 77 10000 1 190 00:55 04.04.2020
5358 Clouds -21 1026 83 10000 1 210 00:30 04.04.2020
5359 Clear -23 1027 83 10000 2 200 23:55 03.04.2020
5360 Clear -23 1027 83 10000 1.97 203 23:36 03.04.2020
5361 Clear -23 1027 83 10000 1.97 203 23:18 03.04.2020
5362 Clear -24 1027 83 10000 1 210 22:40 03.04.2020
5363 Clear -23 1027 83 10000 1.97 203 22:19 03.04.2020
5364 Clear -22 1027 83 10000 1 280 21:56 03.04.2020
5365 Clear -23 1027 76 10000 1 170 21:37 03.04.2020
5366 Clouds -23 1027 76 10000 1 170 21:19 03.04.2020
5367 Clouds -22 1027 83 10000 1 280 20:54 03.04.2020
5368 Clouds -22 1027 76 10000 1 290 20:36 03.04.2020
5369 Clouds -22 1027 76 10000 1 290 20:18 03.04.2020
5370 Clouds -20 1027 76 10000 1 310 19:54 03.04.2020
5371 Clouds -19 1027 77 10000 1.71 228 19:36 03.04.2020
5372 Clouds -19 1027 77 10000 1.71 228 19:36 03.04.2020
5373 Clouds -19 1027 77 10000 1.71 228 19:18 03.04.2020
5374 Clouds -18 1028 77 10000 1 120 18:56 03.04.2020
5375 Clouds -18 1028 77 10000 1 130 18:38 03.04.2020
5376 Clouds -18 1028 77 10000 1 130 18:19 03.04.2020
5377 Clouds -17 1028 77 10000 1 160 17:40 03.04.2020
5378 Clouds -17 1028 77 10000 1 160 17:19 03.04.2020
5379 Clouds -18 1028 70 10000 1 260 16:55 03.04.2020
5380 Clouds -18 1028 70 10000 1 260 16:55 03.04.2020
5381 Clouds -18 1028 70 10000 1 260 16:55 03.04.2020
5382 Clouds -15 1028 65 10000 2 280 16:36 03.04.2020
5383 Clouds -15 1028 65 10000 2 280 16:18 03.04.2020
5384 Clouds -13 1028 60 10000 3 290 15:41 03.04.2020
5385 Clouds -18 1028 70 10000 1 280 15:22 03.04.2020
5386 Clouds -18 1028 70 10000 1 280 14:58 03.04.2020
5387 Clouds -10 1030 94 0 1.76 284 14:40 03.04.2020
5388 Clouds -12 1028 55 10000 3 210 14:21 03.04.2020
5389 Clouds -12 1028 55 10000 3 210 13:46 03.04.2020
5390 Clouds -12 1028 55 10000 3 210 13:27 03.04.2020
5391 Clouds -13 1027 60 10000 2 190 12:57 03.04.2020
5392 Clouds -8 1027 48 10000 2 150 12:39 03.04.2020
5393 Snow -8 1027 48 10000 2 150 12:18 03.04.2020
5394 Snow -6 1027 41 10000 1 140 11:55 03.04.2020
5395 Snow -6 1027 41 10000 1 140 11:55 03.04.2020
5396 Snow -5 1027 35 10000 1 10 11:37 03.04.2020
5397 Snow -5 1027 35 10000 1 10 11:18 03.04.2020
5398 Snow -5 1027 35 10000 2 30 10:56 03.04.2020
5399 Snow -4 1027 32 10000 1 20 10:37 03.04.2020
5400 Snow -4 1027 32 10000 1 20 10:19 03.04.2020
5401 Snow -4 1027 32 10000 1 340 09:55 03.04.2020
5402 Snow -4 1027 32 10000 1 340 09:37 03.04.2020
5403 Clouds -4 1027 32 10000 3 290 09:19 03.04.2020
5404 Clouds -5 1027 38 10000 4 280 08:44 03.04.2020
5405 Clouds -4 1027 35 10000 1 130 08:24 03.04.2020
5406 Clouds -5 1027 38 10000 1 120 07:55 03.04.2020
5407 Clouds -7 1027 48 10000 2 140 07:33 03.04.2020
5408 Clouds -8 1026 48 10000 3 140 06:58 03.04.2020
5409 Clouds -9 1026 52 10000 2 130 06:28 03.04.2020
5410 Clouds -8 1026 52 10000 3 120 05:42 03.04.2020
5411 Clouds -11 1026 51 10000 2 130 04:27 03.04.2020
5412 Clouds -13 1026 55 10000 2 120 03:33 03.04.2020
5413 Clouds -13 1025 50 10000 1 120 02:39 03.04.2020
5414 Clouds -16 1024 59 10000 1 310 01:25 03.04.2020
5415 Clouds -16 1024 59 10000 2 310 00:47 03.04.2020
5416 Clouds -17 1023 64 10000 1 310 00:29 03.04.2020
5417 Clouds -18 1023 70 10000 1 320 23:55 02.04.2020
5418 Clouds -18 1022 70 10000 1 320 23:37 02.04.2020
5419 Clouds -18 1022 70 10000 1 320 23:18 02.04.2020
5420 Clouds -18 1022 70 10000 2 310 22:41 02.04.2020
5421 Clouds -18 1022 70 10000 3 300 22:22 02.04.2020
5422 Clouds -17 1021 64 10000 4 290 21:58 02.04.2020
5423 Clouds -16 1021 59 10000 4 300 21:37 02.04.2020
5424 Clouds -16 1021 59 10000 4 300 21:18 02.04.2020
5425 Clouds -16 1021 65 10000 4 300 20:45 02.04.2020
5426 Clouds -16 1020 65 10000 4 290 20:25 02.04.2020
5427 Clouds -15 1020 60 10000 4 280 19:59 02.04.2020
5428 Clouds -15 1020 60 10000 4 280 19:40 02.04.2020
5429 Clouds -15 1020 60 10000 4 280 19:20 02.04.2020
5430 Clouds -15 1019 60 10000 5 280 18:56 02.04.2020
5431 Clouds -15 1019 60 10000 4 270 18:37 02.04.2020
5432 Clouds -15 1019 60 10000 4 270 18:18 02.04.2020
5433 Clouds -15 1019 60 10000 4 270 18:18 02.04.2020
5434 Clouds -15 1019 60 10000 4 270 17:42 02.04.2020
5435 Clouds -15 1019 60 10000 4 270 17:24 02.04.2020
5436 Clouds -16 1019 59 10000 3 260 16:58 02.04.2020
5437 Clouds -16 1019 59 10000 3 260 16:40 02.04.2020
5438 Clouds -15 1018 60 10000 3 270 16:21 02.04.2020
5439 Clouds -14 1018 55 10000 3 280 15:57 02.04.2020
5440 Clouds -14 1018 55 10000 3 280 15:39 02.04.2020
5441 Clouds -14 1018 55 10000 3 280 15:18 02.04.2020
5442 Clouds -13 1018 50 10000 3 290 14:57 02.04.2020
5443 Clouds -13 1018 50 10000 3 290 14:38 02.04.2020
5444 Clouds -12 1018 51 10000 4 290 14:18 02.04.2020
5445 Clouds -12 1018 51 10000 4 290 14:18 02.04.2020
5446 Clouds -12 1018 51 10000 3 280 13:54 02.04.2020
5447 Clouds -12 1018 51 10000 3 280 13:54 02.04.2020
5448 Clouds -15 1018 92 0 2.72 276 13:36 02.04.2020
5449 Clouds -15 1018 92 0 2.72 276 13:18 02.04.2020
5450 Clouds -9 1016 40 10000 4 300 12:44 02.04.2020
5451 Clouds -9 1016 40 10000 4 300 12:19 02.04.2020
5452 Clouds -9 1016 40 10000 4 300 11:57 02.04.2020
5453 Clouds -9 1016 40 10000 4 300 11:39 02.04.2020
5454 Clouds -8 1015 40 10000 5 280 11:20 02.04.2020
5455 Clouds -8 1015 40 10000 5 280 11:20 02.04.2020
5456 Clouds -8 1015 40 10000 4 290 10:56 02.04.2020
5457 Clouds -8 1014 40 10000 4 280 10:38 02.04.2020
5458 Clouds -8 1014 40 10000 4 280 10:38 02.04.2020
5459 Clouds -8 1014 40 10000 4 280 10:20 02.04.2020
5460 Clouds -8 1014 44 10000 5 280 09:58 02.04.2020
5461 Clouds -8 1014 44 10000 5 280 09:58 02.04.2020
5462 Clouds -8 1014 44 10000 5 280 09:40 02.04.2020
5463 Clouds -8 1013 44 10000 6 260 09:20 02.04.2020
5464 Clouds -8 1013 48 10000 6 260 08:47 02.04.2020
5465 Clouds -7 1013 44 10000 5 270 08:28 02.04.2020
5466 Clouds -8 1012 48 10000 7 260 07:54 02.04.2020
5467 Clouds -8 1012 48 10000 7 260 07:36 02.04.2020
5468 Clouds -8 1012 48 10000 7 260 07:18 02.04.2020
5469 Clouds -8 1012 48 10000 7 250 06:23 02.04.2020
5470 Clouds -9 1012 52 10000 7 260 05:46 02.04.2020
5471 Clouds -9 1012 52 10000 7 260 05:46 02.04.2020
5472 Clouds -10 1011 61 10000 7 270 04:50 02.04.2020
5473 Clouds -11 1010 72 10000 6 270 02:19 02.04.2020
5474 Clouds -11 1009 72 10000 5 280 00:59 02.04.2020
5475 Clouds -11 1008 72 10000 5 270 00:38 02.04.2020
5476 Clouds -11 1008 72 10000 5 270 00:19 02.04.2020
5477 Clouds -11 1008 72 10000 6 290 23:38 01.04.2020
5478 Clouds -11 1007 72 10000 6 290 23:19 01.04.2020
5479 Clouds -10 1007 66 10000 7 290 22:56 01.04.2020
5480 Clouds -10 1007 66 10000 7 290 22:37 01.04.2020
5481 Clouds -10 1006 66 10000 5 300 22:19 01.04.2020
5482 Clouds -10 1006 66 10000 6 300 21:41 01.04.2020
5483 Clouds -10 1005 66 10000 5 310 21:19 01.04.2020
5484 Clouds -9 1005 66 10000 6 300 20:56 01.04.2020
5485 Clouds -9 1005 66 10000 6 300 20:38 01.04.2020
5486 Clouds -9 1005 66 10000 5 300 20:19 01.04.2020
5487 Clouds -8 1004 67 10000 5 290 19:57 01.04.2020
5488 Clouds -8 1004 67 10000 5 290 19:57 01.04.2020
5489 Clouds -7 1004 62 10000 5 300 19:38 01.04.2020
5490 Clouds -7 1004 62 10000 5 300 19:19 01.04.2020
5491 Clouds -7 1003 67 10000 6 300 18:42 01.04.2020
5492 Clouds -6 1003 67 10000 5 300 18:23 01.04.2020
5493 Clouds -6 1002 73 10000 6 300 17:57 01.04.2020
5494 Clouds -5 1002 73 10000 7 300 17:37 01.04.2020
5495 Clouds -5 1002 73 10000 7 300 17:19 01.04.2020
5496 Clouds -5 1001 79 10000 5 300 16:57 01.04.2020
5497 Snow -6 1001 92 10000 4 290 16:39 01.04.2020
5498 Snow -6 1001 92 10000 4 290 16:20 01.04.2020
5499 Snow -5 1001 85 10000 5 280 15:56 01.04.2020
5500 Snow -6 1001 85 10000 5 290 15:37 01.04.2020
5501 Clouds -6 1001 85 10000 5 290 15:18 01.04.2020
5502 Clouds -6 1000 79 10000 4 300 14:40 01.04.2020
5503 Clouds -5 1000 73 10000 4 300 14:22 01.04.2020
5504 Clouds -4 1000 73 10000 4 310 13:59 01.04.2020
5505 Clouds -4 1000 73 10000 4 310 13:40 01.04.2020
5506 Clouds -4 999 73 10000 3 330 13:20 01.04.2020
5507 Clouds -3 999 73 10000 3 310 12:59 01.04.2020
5508 Clouds -3 999 73 10000 3 310 12:40 01.04.2020
5509 Clouds -3 998 73 10000 3 330 12:22 01.04.2020
5510 Clouds -3 998 73 10000 4 310 11:57 01.04.2020
5511 Clouds -2 997 58 10000 4 300 11:37 01.04.2020
5512 Clouds -2 997 58 10000 4 300 11:37 01.04.2020
5513 Clouds -2 997 58 10000 4 300 11:19 01.04.2020
5514 Clouds -2 996 58 10000 4 300 10:39 01.04.2020
5515 Clouds -2 996 63 10000 3 330 10:21 01.04.2020
5516 Clouds -1 994 54 10000 4 310 09:59 01.04.2020
5517 Clouds -1 994 54 10000 4 310 09:40 01.04.2020
5518 Clouds -1 994 54 10000 4 310 09:40 01.04.2020
5519 Clouds -1 994 54 10000 4 310 09:20 01.04.2020
5520 Clouds -1 994 54 10000 4 310 08:54 01.04.2020
5521 Clouds -1 994 58 10000 4 340 08:36 01.04.2020
5522 Clouds -1 994 58 10000 4 340 08:18 01.04.2020
5523 Snow -1 994 58 10000 4 340 07:40 01.04.2020
5524 Clouds -1 993 58 10000 3 300 07:19 01.04.2020
5525 Clouds -2 993 68 10000 1 80 06:42 01.04.2020
5526 Clouds -2 993 68 10000 2 80 06:20 01.04.2020
5527 Clouds -3 992 73 10000 2 90 05:28 01.04.2020
5528 Clouds -3 992 73 10000 3 300 03:40 01.04.2020
5529 Clouds -4 992 79 10000 3 300 02:59 01.04.2020
5530 Snow -5 991 85 10000 1 160 02:31 01.04.2020
5531 Snow -6 991 85 2400 1 180 01:50 01.04.2020
5532 Snow -6 991 85 10000 1 310 01:25 01.04.2020
5533 Snow -7 991 92 10000 1 320 00:47 01.04.2020
5534 Clouds -8 991 92 10000 2 290 00:22 01.04.2020
5535 Clouds -8 991 85 10000 1 320 23:57 31.03.2020
5536 Clouds -9 991 92 10000 1 310 23:38 31.03.2020
5537 Clouds -9 991 92 10000 1 330 23:19 31.03.2020
5538 Clouds -9 991 92 10000 2 320 22:40 31.03.2020
5539 Clouds -9 991 92 10000 2 320 22:21 31.03.2020
5540 Clouds -9 991 92 10000 2 330 21:58 31.03.2020
5541 Clouds -9 991 92 10000 2 340 21:40 31.03.2020
5542 Clouds -9 991 92 10000 2 340 21:21 31.03.2020
5543 Clouds -10 991 92 10000 3 330 20:57 31.03.2020
5544 Clouds -10 991 92 10000 3 330 20:57 31.03.2020
5545 Clouds -10 991 92 10000 3 330 20:37 31.03.2020
5546 Clouds -10 991 92 10000 3 330 20:19 31.03.2020
5547 Clouds -10 991 92 10000 2 330 19:56 31.03.2020
5548 Clouds -10 991 100 10000 3 340 19:37 31.03.2020
5549 Clouds -10 991 92 10000 3 330 19:19 31.03.2020
5550 Snow -10 991 85 10000 1 350 18:43 31.03.2020
5551 Snow -9 991 92 10000 2 30 18:20 31.03.2020
5552 Snow -9 991 92 10000 2 30 17:57 31.03.2020
5553 Snow -8 991 92 5000 1 30 17:39 31.03.2020
5554 Snow -8 991 92 5000 1 30 17:21 31.03.2020
5555 Snow -7 991 79 3200 1 90 16:56 31.03.2020
5556 Snow -7 992 85 10000 2 350 16:36 31.03.2020
5557 Snow -7 992 85 10000 2 350 16:18 31.03.2020
5558 Snow -7 992 85 10000 2.46 134 15:54 31.03.2020
5559 Clouds -7 992 79 10000 1 190 15:36 31.03.2020
5560 Clouds -7 992 79 10000 1 190 15:18 31.03.2020
5561 Clouds -7 993 79 10000 1 290 14:41 31.03.2020
5562 Clouds -8 993 78 10000 1 90 14:22 31.03.2020
5563 Clouds -7 993 73 10000 1 70 13:58 31.03.2020
5564 Clouds -7 993 73 10000 1 70 13:39 31.03.2020
5565 Clouds -7 993 73 10000 1 110 13:19 31.03.2020
5566 Clouds -6 993 67 10000 1 130 12:44 31.03.2020
5567 Snow -5 994 62 10000 2 130 12:20 31.03.2020
5568 Clouds -4 994 62 10000 2 140 11:56 31.03.2020
5569 Clouds -3 994 58 10000 2 160 11:37 31.03.2020
5570 Clouds -3 994 58 10000 2 160 11:18 31.03.2020
5571 Clouds -2 994 54 10000 2 170 10:55 31.03.2020
5572 Clouds -2 994 54 10000 2 170 10:55 31.03.2020
5573 Clouds -2 994 58 10000 2 170 10:37 31.03.2020
5574 Clouds -2 994 58 10000 2 170 10:18 31.03.2020
5575 Clouds -2 994 58 10000 2 170 10:18 31.03.2020
5576 Clouds -2 995 58 10000 4 190 09:43 31.03.2020
5577 Clouds -2 995 58 10000 4 190 09:25 31.03.2020
5578 Clouds -3 995 68 10000 3 180 08:58 31.03.2020
5579 Clouds -3 995 68 10000 3 180 08:40 31.03.2020
5580 Snow -2 996 68 10000 4 170 08:20 31.03.2020
5581 Snow -2 996 68 10000 4 170 07:57 31.03.2020
5582 Snow -2 996 68 10000 4 170 07:38 31.03.2020
5583 Snow -2 996 68 10000 4 170 07:20 31.03.2020
5584 Clouds -3 996 86 10000 4 170 06:51 31.03.2020
5585 Snow -4 997 92 1500 5 170 06:31 31.03.2020
5586 Snow -4 997 79 3200 5 160 05:41 31.03.2020
5587 Clouds -5 998 79 10000 4 160 04:33 31.03.2020
5588 Clouds -8 998 85 10000 3 160 02:30 31.03.2020
5589 Clouds -9 999 92 10000 3 160 01:46 31.03.2020
5590 Snow -10 999 92 5000 3 160 00:53 31.03.2020
5591 Snow -11 999 92 10000 2 160 00:25 31.03.2020
5592 Clouds -11 999 92 10000 2 160 23:59 30.03.2020
5593 Clouds -11 999 92 10000 2 160 23:38 30.03.2020
5594 Clouds -11 999 92 10000 3 180 23:19 30.03.2020
5595 Clouds -14 999 92 10000 2 150 22:57 30.03.2020
5596 Clouds -14 999 92 10000 2 150 22:38 30.03.2020
5597 Clouds -14 1000 92 10000 2 150 22:18 30.03.2020
5598 Clouds -9 1000 92 10000 3 210 21:57 30.03.2020
5599 Clouds -9 1000 92 10000 3 220 21:37 30.03.2020
5600 Clouds -9 1000 92 10000 3 220 21:19 30.03.2020
5601 Clouds -10 1000 100 10000 3 210 20:56 30.03.2020
5602 Clouds -10 1000 85 10000 1 250 20:37 30.03.2020
5603 Clouds -10 1000 85 10000 1 250 20:19 30.03.2020
5604 Clouds -7 1000 85 10000 3 270 19:41 30.03.2020
5605 Clouds -7 1000 85 10000 3 270 19:41 30.03.2020
5606 Clouds -6 1000 85 10000 4 260 19:22 30.03.2020
5607 Clouds -6 1000 92 10000 4 270 18:57 30.03.2020
5608 Clouds -6 1000 92 10000 5 270 18:39 30.03.2020
5609 Clouds -6 1000 92 10000 5 270 18:21 30.03.2020
5610 Clouds -6 1000 92 10000 5 270 17:57 30.03.2020
5611 Clouds -6 1000 92 10000 4 260 17:38 30.03.2020
5612 Clouds -6 1000 92 10000 4 260 17:19 30.03.2020
5613 Clouds -10 1000 92 10000 3 240 16:56 30.03.2020
5614 Clouds -10 1000 92 10000 3 240 16:56 30.03.2020
5615 Clouds -10 1000 92 10000 3 240 16:38 30.03.2020
5616 Clouds -8 1000 92 10000 3 230 16:19 30.03.2020
5617 Clouds -9 1000 100 10000 4 220 15:54 30.03.2020
5618 Clouds -9 1000 92 10000 3 220 15:36 30.03.2020
5619 Clouds -9 1000 92 10000 3 220 15:18 30.03.2020
5620 Clouds -7 1000 92 10000 1 300 14:54 30.03.2020
5621 Snow -4 1000 92 3200 2 260 14:36 30.03.2020
5622 Snow -4 1000 92 3200 2 260 14:18 30.03.2020
5623 Snow -3 1000 92 5000 3 260 13:43 30.03.2020
5624 Snow -3 1000 73 3200 4 230 13:21 30.03.2020
5625 Clouds -6 999 79 10000 2 190 12:57 30.03.2020
5626 Clouds -5 999 79 10000 2 160 12:38 30.03.2020
5627 Clouds -5 999 79 10000 2 160 12:38 30.03.2020
5628 Clouds -5 999 79 10000 2 160 12:19 30.03.2020
5629 Clouds -4 999 79 10000 3 140 11:56 30.03.2020
5630 Clouds -4 999 79 10000 3 140 11:38 30.03.2020
5631 Clouds -3 999 79 10000 2 120 11:20 30.03.2020
5632 Clouds -3 999 73 10000 1 80 10:40 30.03.2020
5633 Clouds -1 998 63 10000 4 260 10:21 30.03.2020
5634 Clouds -1 998 86 10000 2 110 09:56 30.03.2020
5635 Clouds -1 998 86 10000 2 110 09:56 30.03.2020
5636 Clouds -1 998 86 10000 2 110 09:38 30.03.2020
5637 Clouds -2 998 86 10000 2 60 09:18 30.03.2020
5638 Clouds -2 998 86 10000 2 310 08:41 30.03.2020
5639 Snow -3 998 92 800 6 320 08:22 30.03.2020
5640 Snow -3 998 92 1500 5 250 07:49 30.03.2020
5641 Clouds -1 997 63 10000 4 170 07:27 30.03.2020
5642 Clouds -2 998 68 10000 3 160 06:54 30.03.2020
5643 Clouds -1 998 63 10000 3 170 06:31 30.03.2020
5644 Clouds -1 998 63 10000 3 170 06:31 30.03.2020
5645 Clouds -2 998 68 10000 2 170 05:53 30.03.2020
5646 Clouds -4 998 73 10000 2 170 05:22 30.03.2020
5647 Clouds -5 997 73 10000 2 160 04:23 30.03.2020
5648 Clouds -6 997 73 10000 2 170 03:38 30.03.2020
5649 Clouds -9 997 72 10000 2 210 02:39 30.03.2020
5650 Clouds -11 997 78 10000 1 130 01:44 30.03.2020
5651 Clouds -11 997 78 10000 1.42 221 00:49 30.03.2020
5652 Clouds -12 997 85 10000 1.42 221 00:22 30.03.2020
5653 Clouds -12 997 78 10000 1 200 23:42 29.03.2020
5654 Clouds -13 997 84 10000 1 250 23:23 29.03.2020
5655 Clouds -13 996 84 10000 1 150 22:57 29.03.2020
5656 Clouds -13 996 84 10000 1 150 22:38 29.03.2020
5657 Clouds -13 996 78 10000 1.01 217 22:19 29.03.2020
5658 Clouds -14 996 84 10000 1.01 217 21:56 29.03.2020
5659 Clouds -14 996 84 10000 1.01 217 21:36 29.03.2020
5660 Clouds -14 996 84 10000 0.56 218 21:18 29.03.2020
5661 Clouds -13 996 84 10000 0.56 218 20:54 29.03.2020
5662 Clouds -13 996 78 10000 1 100 20:36 29.03.2020
5663 Clouds -13 996 78 10000 1 100 20:18 29.03.2020
5664 Clouds -13 995 78 10000 0.56 218 19:42 29.03.2020
5665 Clouds -13 995 78 10000 0.56 218 19:24 29.03.2020
5666 Clouds -13 995 71 10000 1 170 18:58 29.03.2020
5667 Clouds -13 995 71 10000 1 270 18:40 29.03.2020
5668 Clouds -14 995 77 10000 1 260 18:20 29.03.2020
5669 Clouds -14 995 77 10000 1 260 18:20 29.03.2020
5670 Clouds -14 995 77 10000 1 260 17:57 29.03.2020
5671 Clouds -16 995 84 10000 1 300 17:39 29.03.2020
5672 Clouds -16 995 84 10000 1 300 17:20 29.03.2020
5673 Clouds -17 995 84 10000 1 290 16:58 29.03.2020
5674 Clouds -17 995 84 10000 1 290 16:39 29.03.2020
5675 Clouds -20 995 83 10000 2 230 16:20 29.03.2020
5676 Clouds -18 994 77 10000 1 270 15:56 29.03.2020
5677 Clouds -16 994 77 10000 2 320 15:37 29.03.2020
5678 Clouds -16 994 77 10000 2 320 15:19 29.03.2020
5679 Clouds -16 994 84 10000 2 270 14:55 29.03.2020
5680 Clouds -14 994 84 10000 2 230 14:36 29.03.2020
5681 Clouds -14 994 84 10000 2 230 14:18 29.03.2020
5682 Clouds -14 994 77 10000 3 210 13:41 29.03.2020
5683 Clouds -14 994 77 10000 3 210 13:21 29.03.2020
5684 Clouds -14 994 77 10000 3 210 13:21 29.03.2020
5685 Clouds -11 993 72 10000 2 210 12:58 29.03.2020
5686 Clouds -9 993 66 10000 1 180 12:39 29.03.2020
5687 Clouds -9 993 66 10000 1 180 12:19 29.03.2020
5688 Clouds -6 993 57 10000 2 180 11:57 29.03.2020
5689 Clouds -5 993 53 10000 3 160 11:37 29.03.2020
5690 Clouds -5 993 53 10000 3 160 11:19 29.03.2020
5691 Clouds -5 993 53 10000 3 170 10:39 29.03.2020
5692 Clouds -5 993 53 10000 3 170 10:20 29.03.2020
5693 Clouds -5 993 53 10000 4 160 09:56 29.03.2020
5694 Clouds -5 993 53 10000 4 160 09:56 29.03.2020
5695 Clouds -5 993 53 10000 3 170 09:37 29.03.2020
5696 Clouds -5 993 53 10000 3 170 09:18 29.03.2020
5697 Clouds -6 993 62 10000 2 130 08:43 29.03.2020
5698 Clouds -7 992 67 10000 3 130 08:24 29.03.2020
5699 Clouds -6 992 62 10000 2 150 07:47 29.03.2020
5700 Clouds -7 992 62 10000 2 140 07:23 29.03.2020
5701 Clouds -9 993 66 10000 2 170 06:34 29.03.2020
5702 Clouds -12 993 66 10000 1 130 04:56 29.03.2020
5703 Clouds -15 993 71 10000 1 70 03:41 29.03.2020
5704 Clouds -17 993 77 10000 1.12 328 03:20 29.03.2020
5705 Clouds -17 993 77 10000 1 70 01:40 29.03.2020
5706 Clouds -17 994 84 10000 1.12 328 01:21 29.03.2020
5707 Clouds -20 994 83 10000 1 360 00:40 29.03.2020
5708 Clouds -20 994 83 10000 1 360 00:19 29.03.2020
5709 Clouds -23 994 83 10000 2 300 23:40 28.03.2020
5710 Clouds -23 994 83 10000 2 300 23:22 28.03.2020
5711 Snow -24 994 83 10000 2 310 22:44 28.03.2020
5712 Snow -24 994 83 10000 3 310 22:22 28.03.2020
5713 Snow -23 994 83 10000 2 320 21:57 28.03.2020
5714 Snow -23 994 83 10000 2 320 21:57 28.03.2020
5715 Snow -23 994 83 10000 2 320 21:39 28.03.2020
5716 Snow -22 994 83 10000 3 300 21:20 28.03.2020
5717 Snow -22 994 83 10000 2 310 20:57 28.03.2020
5718 Snow -22 994 83 10000 2 310 20:38 28.03.2020
5719 Clouds -22 994 83 10000 3 300 20:19 28.03.2020
5720 Snow -22 994 76 10000 2 310 19:55 28.03.2020
5721 Snow -21 994 83 10000 2 320 19:36 28.03.2020
5722 Snow -21 994 83 10000 2 320 19:36 28.03.2020
5723 Snow -21 994 83 10000 2 320 19:18 28.03.2020
5724 Snow -20 995 83 10000 2 340 18:42 28.03.2020
5725 Snow -20 995 83 10000 2 340 18:20 28.03.2020
5726 Snow -17 995 84 10000 1 350 17:43 28.03.2020
5727 Snow -17 995 84 10000 1 350 17:24 28.03.2020
5728 Clouds -17 995 77 10000 2 320 16:59 28.03.2020
5729 Clouds -17 995 77 10000 2 320 16:59 28.03.2020
5730 Clouds -18 995 84 10000 2 310 16:40 28.03.2020
5731 Clouds -18 995 84 10000 2 310 16:18 28.03.2020
5732 Clouds -18 995 84 10000 3 320 15:55 28.03.2020
5733 Clouds -18 995 84 10000 3 290 15:37 28.03.2020
5734 Clouds -18 995 84 10000 3 290 15:18 28.03.2020
5735 Clouds -19 995 84 10000 3 310 14:41 28.03.2020
5736 Clouds -18 996 84 10000 3 320 14:21 28.03.2020
5737 Clouds -18 996 84 10000 3 320 14:21 28.03.2020
5738 Clouds -18 996 84 10000 2 320 13:43 28.03.2020
5739 Clouds -18 996 84 10000 1 350 13:24 28.03.2020
5740 Clouds -16 996 84 10000 2 360 12:57 28.03.2020
5741 Clouds -15 996 77 10000 2 340 12:37 28.03.2020
5742 Clouds -15 996 77 10000 2 340 12:18 28.03.2020
5743 Clouds -12 996 72 10000 1 30 11:41 28.03.2020
5744 Clouds -11 996 66 10000 2 70 11:21 28.03.2020
5745 Clouds -9 996 61 10000 2 70 10:40 28.03.2020
5746 Clouds -9 996 61 10000 2 70 10:22 28.03.2020
5747 Clouds -8 996 57 10000 1 100 09:56 28.03.2020
5748 Clouds -8 996 57 10000 2 140 09:37 28.03.2020
5749 Clouds -8 996 57 10000 2 140 09:19 28.03.2020
5750 Clouds -8 996 61 10000 2 140 08:42 28.03.2020
5751 Clouds -8 996 61 10000 3 140 08:22 28.03.2020
5752 Clouds -8 996 61 10000 3 140 07:46 28.03.2020
5753 Clouds -8 996 61 10000 3 140 07:28 28.03.2020
5754 Clouds -8 997 57 10000 2 150 06:37 28.03.2020
5755 Clouds -8 997 57 10000 2 150 06:18 28.03.2020
5756 Clouds -9 997 61 10000 3 170 05:23 28.03.2020
5757 Clouds -10 997 66 10000 3 180 04:43 28.03.2020
5758 Clouds -11 997 66 10000 3 180 04:20 28.03.2020
5759 Clouds -15 998 60 10000 2 140 02:33 28.03.2020
5760 Clouds -16 998 59 10000 2 160 01:46 28.03.2020
5761 Clouds -17 999 64 10000 1 150 01:20 28.03.2020
5762 Clouds -19 999 64 10000 1 150 00:47 28.03.2020
5763 Clouds -19 999 64 10000 1 150 00:20 28.03.2020
5764 Clouds -23 999 83 10000 1 160 23:43 27.03.2020
5765 Clouds -23 999 83 10000 1 160 23:24 27.03.2020
5766 Clouds -24 999 76 10000 1 180 22:56 27.03.2020
5767 Clouds -22 999 76 10000 2 170 22:38 27.03.2020
5768 Clouds -22 999 76 10000 2 170 22:20 27.03.2020
5769 Clouds -22 999 76 10000 1 170 21:56 27.03.2020
5770 Clouds -20 999 70 10000 1 210 21:38 27.03.2020
5771 Clouds -20 999 70 10000 1 210 21:20 27.03.2020
5772 Clouds -19 999 64 10000 3 220 20:43 27.03.2020
5773 Clouds -17 999 59 10000 3 240 20:22 27.03.2020
5774 Snow -16 1000 59 10000 3 250 19:59 27.03.2020
5775 Snow -16 1000 59 10000 3 250 19:41 27.03.2020
5776 Snow -15 1000 60 10000 3 250 19:22 27.03.2020
5777 Snow -14 1000 55 10000 3 250 18:56 27.03.2020
5778 Snow -14 1000 55 10000 2 250 18:38 27.03.2020
5779 Snow -14 1000 55 10000 2 250 18:19 27.03.2020
5780 Snow -13 1001 55 10000 3 250 17:40 27.03.2020
5781 Snow -13 1001 55 10000 3 250 17:20 27.03.2020
5782 Snow -13 1001 55 10000 3 250 16:54 27.03.2020
5783 Snow -13 1001 55 10000 4 250 16:36 27.03.2020
5784 Snow -13 1001 55 10000 4 250 16:18 27.03.2020
5785 Snow -12 1002 51 10000 2 260 15:41 27.03.2020
5786 Snow -12 1002 51 10000 2 260 15:23 27.03.2020
5787 Snow -12 1002 55 10000 3 260 14:46 27.03.2020
5788 Snow -11 1003 47 10000 2 280 14:25 27.03.2020
5789 Snow -11 1003 47 10000 3 270 13:57 27.03.2020
5790 Snow -11 1003 51 10000 3 260 13:37 27.03.2020
5791 Snow -11 1003 51 10000 3 260 13:19 27.03.2020
5792 Snow -11 1003 56 10000 2 250 12:55 27.03.2020
5793 Clouds -11 1004 56 10000 1 250 12:37 27.03.2020
5794 Clouds -11 1004 51 10000 1 280 12:18 27.03.2020
5795 Clouds -10 1004 47 10000 2 280 11:41 27.03.2020
5796 Clouds -10 1004 47 10000 2 280 11:23 27.03.2020
5797 Clouds -10 1004 56 10000 1 340 10:55 27.03.2020
5798 Clouds -10 1004 51 10000 2 360 10:37 27.03.2020
5799 Clouds -10 1004 51 10000 2 360 10:37 27.03.2020
5800 Clouds -10 1004 51 10000 2 360 10:18 27.03.2020
5801 Clouds -10 1004 51 10000 3 300 09:56 27.03.2020
5802 Clouds -10 1004 51 10000 4 300 09:37 27.03.2020
5803 Clouds -10 1004 51 10000 4 300 09:18 27.03.2020
5804 Clouds -10 1004 51 10000 4 270 08:55 27.03.2020
5805 Clouds -10 1004 56 10000 5 280 08:37 27.03.2020
5806 Clouds -10 1004 56 10000 5 280 08:18 27.03.2020
5807 Clouds -10 1004 56 10000 4 280 07:49 27.03.2020
5808 Clouds -10 1004 56 10000 5 280 07:23 27.03.2020
5809 Clouds -10 1004 61 10000 1 350 06:46 27.03.2020
5810 Clouds -10 1004 61 10000 1 350 06:27 27.03.2020
5811 Clouds -13 1005 65 10000 3 250 04:21 27.03.2020
5812 Snow -15 1006 71 10000 3 230 02:25 27.03.2020
5813 Clouds -16 1006 71 10000 4 260 01:23 27.03.2020
5814 Clouds -16 1006 71 10000 4 260 00:48 27.03.2020
5815 Snow -16 1005 71 10000 4 270 00:23 27.03.2020
5816 Snow -16 1005 77 10000 4 270 23:42 26.03.2020
5817 Snow -16 1005 77 10000 5 270 23:21 26.03.2020
5818 Snow -16 1005 77 10000 5 270 22:58 26.03.2020
5819 Snow -16 1005 77 5000 5 270 22:37 26.03.2020
5820 Snow -16 1005 77 5000 5 270 22:19 26.03.2020
5821 Snow -15 1005 77 3200 5 270 21:55 26.03.2020
5822 Snow -15 1005 77 5000 5 260 21:36 26.03.2020
5823 Snow -15 1005 77 5000 5 260 21:18 26.03.2020
5824 Snow -15 1004 84 5000 5 270 20:41 26.03.2020
5825 Snow -15 1004 84 5000 5 270 20:23 26.03.2020
5826 Snow -15 1004 84 5000 5 270 20:23 26.03.2020
5827 Snow -15 1004 84 2400 6 280 19:58 26.03.2020
5828 Snow -15 1004 84 1500 5 280 19:40 26.03.2020
5829 Snow -15 1004 84 1500 5 280 19:22 26.03.2020
5830 Snow -15 1004 84 2100 6 280 18:59 26.03.2020
5831 Snow -14 1004 84 2400 5 290 18:41 26.03.2020
5832 Snow -14 1004 84 2400 5 290 18:23 26.03.2020
5833 Snow -13 1003 84 2400 5 300 17:45 26.03.2020
5834 Snow -13 1003 84 2400 6 300 17:20 26.03.2020
5835 Snow -13 1003 84 2400 6 300 17:20 26.03.2020
5836 Snow -13 1003 84 2400 6 300 16:59 26.03.2020
5837 Snow -13 1004 84 2400 6 300 16:38 26.03.2020
5838 Snow -13 1004 84 2400 6 300 16:20 26.03.2020
5839 Snow -13 1004 84 3200 5 300 15:56 26.03.2020
5840 Snow -13 1004 84 10000 5 310 15:38 26.03.2020
5841 Snow -13 1004 84 10000 5 310 15:19 26.03.2020
5842 Snow -13 1003 84 10000 4 310 14:43 26.03.2020
5843 Snow -13 1004 92 3200 4 310 14:25 26.03.2020
5844 Snow -13 1004 92 3200 4 310 14:25 26.03.2020
5845 Snow -12 1004 85 3200 4 310 13:58 26.03.2020
5846 Snow -12 1004 85 3200 4 310 13:40 26.03.2020
5847 Snow -12 1004 92 3200 5 320 13:21 26.03.2020
5848 Snow -12 1004 85 3200 5 330 12:39 26.03.2020
5849 Snow -13 1004 92 5000 5 330 12:21 26.03.2020
5850 Snow -13 1004 92 5000 5 330 11:56 26.03.2020
5851 Snow -13 1004 92 5000 5 330 11:56 26.03.2020
5852 Snow -13 1005 84 2400 5 340 11:37 26.03.2020
5853 Snow -13 1005 84 2400 5 340 11:19 26.03.2020
5854 Snow -13 1005 84 2000 6 360 10:42 26.03.2020
5855 Snow -13 1005 84 2000 6 360 10:20 26.03.2020
5856 Snow -13 1005 84 2000 6 360 09:46 26.03.2020
5857 Snow -13 1006 84 1400 6 360 09:24 26.03.2020
5858 Snow -14 1006 92 900 6 360 08:58 26.03.2020
5859 Snow -14 1007 84 1500 7 360 08:40 26.03.2020
5860 Snow -14 1007 84 1500 7 360 08:22 26.03.2020
5861 Snow -14 1007 84 2000 7 360 07:47 26.03.2020
5862 Snow -14 1008 84 1800 7 360 07:24 26.03.2020
5863 Snow -14 1008 84 900 8 10 06:59 26.03.2020
5864 Snow -14 1009 71 1200 9 360 06:32 26.03.2020
5865 Snow -14 1011 65 10000 9 360 05:47 26.03.2020
5866 Clouds -15 1013 77 10000 8 10 03:46 26.03.2020
5867 Clouds -16 1015 77 10000 7 10 02:58 26.03.2020
5868 Clouds -18 1016 77 10000 6 360 01:51 26.03.2020
5869 Clouds -18 1017 77 10000 6 10 01:18 26.03.2020
5870 Clouds -18 1018 77 10000 4 10 00:30 26.03.2020
5871 Clouds -19 1019 77 10000 3 350 23:42 25.03.2020
5872 Clouds -19 1019 77 10000 3 350 23:24 25.03.2020
5873 Clouds -19 1019 70 10000 3 360 22:42 25.03.2020
5874 Clouds -20 1020 76 10000 3 350 22:22 25.03.2020
5875 Clouds -20 1020 70 10000 3 350 21:59 25.03.2020
5876 Clouds -20 1020 70 10000 3 350 21:41 25.03.2020
5877 Clouds -20 1021 70 10000 3 350 21:23 25.03.2020
5878 Clouds -20 1021 70 10000 3 360 20:57 25.03.2020
5879 Clouds -20 1021 70 10000 3 350 20:38 25.03.2020
5880 Clouds -20 1021 70 10000 3 350 20:38 25.03.2020
5881 Clouds -20 1021 70 10000 3 350 20:18 25.03.2020
5882 Clouds -20 1022 70 10000 3 350 19:43 25.03.2020
5883 Clouds -20 1022 70 10000 3 350 19:43 25.03.2020
5884 Clouds -19 1022 64 10000 3 350 19:24 25.03.2020
5885 Clouds -19 1023 64 10000 3 340 18:59 25.03.2020
5886 Clouds -19 1023 64 10000 3 350 18:41 25.03.2020
5887 Clouds -19 1023 64 10000 2 350 18:23 25.03.2020
5888 Clouds -19 1023 64 10000 2 350 17:58 25.03.2020
5889 Clouds -18 1023 59 10000 3 350 17:40 25.03.2020
5890 Clouds -19 1023 64 10000 2 330 17:21 25.03.2020
5891 Clouds -19 1023 64 10000 2 330 16:55 25.03.2020
5892 Clouds -20 1023 70 10000 1 330 16:37 25.03.2020
5893 Clouds -20 1023 70 10000 1 330 16:19 25.03.2020
5894 Clouds -20 1023 70 10000 2 320 15:42 25.03.2020
5895 Clouds -20 1024 70 10000 3 310 15:20 25.03.2020
5896 Clouds -20 1023 70 10000 2 310 14:56 25.03.2020
5897 Clouds -19 1023 64 10000 2 330 14:37 25.03.2020
5898 Clouds -19 1023 64 10000 2 330 14:19 25.03.2020
5899 Clouds -20 1023 70 10000 2 340 13:44 25.03.2020
5900 Clouds -19 1023 70 10000 2 320 13:22 25.03.2020
5901 Clouds -18 1023 70 10000 1.59 16 12:39 25.03.2020
5902 Clouds -18 1023 70 10000 1.59 16 12:20 25.03.2020
5903 Clouds -17 1023 64 10000 1.59 16 11:57 25.03.2020
5904 Clouds -17 1023 64 10000 1 150 11:39 25.03.2020
5905 -273 0 0 0 0 0 11:20 25.03.2020
5906 Clouds -13 1023 55 10000 1 150 10:57 25.03.2020
5907 Clouds -12 1023 51 10000 1 140 10:39 25.03.2020
5908 Clouds -12 1023 51 10000 1 140 10:18 25.03.2020
5909 Clouds -11 1023 47 10000 2 120 09:43 25.03.2020
5910 Clouds -11 1023 51 10000 2 140 09:25 25.03.2020
5911 Clouds -11 1023 43 10000 2 70 08:58 25.03.2020
5912 Clouds -11 1023 43 10000 2 70 08:39 25.03.2020
5913 Clouds -11 1022 47 10000 1 60 08:20 25.03.2020
5914 Clouds -10 1022 36 10000 2 310 07:55 25.03.2020
5915 Clouds -10 1022 40 10000 2 260 07:36 25.03.2020
5916 Clouds -10 1022 40 10000 2 260 07:18 25.03.2020
5917 Clouds -11 1023 43 10000 3 260 06:41 25.03.2020
5918 Clouds -11 1023 43 10000 3 260 06:22 25.03.2020
5919 Clouds -10 1022 40 10000 1 230 05:46 25.03.2020
5920 Clouds -12 1022 46 10000 4 260 04:42 25.03.2020
5921 Clouds -13 1022 50 10000 2 260 03:57 25.03.2020
5922 Clouds -14 1022 55 10000 3 270 03:30 25.03.2020
5923 Clear -15 1021 54 10000 5 260 01:40 25.03.2020
5924 Clouds -16 1020 65 10000 3 290 00:50 25.03.2020
5925 Clouds -16 1020 65 10000 3 260 00:27 25.03.2020
5926 Clouds -17 1020 70 10000 2 210 23:54 24.03.2020
5927 Clouds -17 1019 70 10000 3 260 23:28 24.03.2020
5928 Clouds -17 1019 77 10000 3 250 22:58 24.03.2020
5929 Clouds -17 1018 70 10000 2 260 22:38 24.03.2020
5930 Clouds -17 1018 70 10000 2 260 22:20 24.03.2020
5931 Clouds -17 1018 70 10000 2 260 22:20 24.03.2020
5932 Clouds -17 1018 77 10000 3 280 21:58 24.03.2020
5933 Clouds -17 1018 77 10000 3 280 21:40 24.03.2020
5934 Clouds -17 1018 77 10000 3 280 21:40 24.03.2020
5935 Clouds -17 1018 77 10000 3 250 21:18 24.03.2020
5936 Clouds -17 1018 77 10000 3 260 20:58 24.03.2020
5937 Clouds -17 1018 77 10000 3 260 20:39 24.03.2020
5938 Clouds -17 1017 77 10000 3 260 20:21 24.03.2020
5939 Clouds -17 1017 77 10000 3.84 267 19:47 24.03.2020
5940 Clouds -16 1016 71 10000 1 260 19:22 24.03.2020
5941 Clouds -16 1016 77 10000 3 270 18:58 24.03.2020
5942 Clouds -15 1015 71 10000 3 290 18:38 24.03.2020
5943 Clouds -15 1015 71 10000 2 270 18:20 24.03.2020
5944 Clouds -15 1015 71 10000 2 270 17:56 24.03.2020
5945 Clouds -15 1015 71 10000 2 270 17:56 24.03.2020
5946 Clouds -14 1015 65 10000 2 270 17:38 24.03.2020
5947 Clouds -13 1014 65 10000 2 280 17:20 24.03.2020
5948 Clouds -13 1014 65 10000 2 280 16:56 24.03.2020
5949 Clouds -12 1014 60 10000 4 290 16:37 24.03.2020
5950 Clouds -12 1014 60 10000 4 290 16:19 24.03.2020
5951 Clouds -11 1013 56 10000 6 290 15:42 24.03.2020
5952 Clouds -11 1013 61 10000 6 290 15:24 24.03.2020
5953 Clouds -10 1012 61 10000 6 300 14:44 24.03.2020
5954 Clouds -10 1012 61 10000 6 300 14:44 24.03.2020
5955 Clouds -9 1012 61 10000 6 300 14:23 24.03.2020
5956 Clouds -8 1011 61 10000 5 310 13:59 24.03.2020
5957 Clouds -6 1010 62 10000 5 290 13:41 24.03.2020
5958 Clouds -6 1010 62 10000 5 290 13:41 24.03.2020
5959 Clouds -6 1010 62 10000 5 290 13:22 24.03.2020
5960 Clouds -5 1009 57 10000 6 290 12:43 24.03.2020
5961 Clouds -5 1009 57 10000 6 290 12:25 24.03.2020
5962 Clouds -4 1008 62 10000 6 300 11:56 24.03.2020
5963 Snow -4 1007 68 10000 7 300 11:37 24.03.2020
5964 Snow -4 1007 68 10000 7 300 11:18 24.03.2020
5965 Snow -1 1005 74 10000 6 300 10:41 24.03.2020
5966 Snow -1 1005 74 10000 6 300 10:19 24.03.2020
5967 Snow -1 1005 74 10000 6 300 10:19 24.03.2020
5968 Clouds 0 1004 84 10000 4 300 09:47 24.03.2020
5969 Clouds 0 1003 84 10000 5 300 09:27 24.03.2020
5970 Clouds 0 1002 84 10000 6 300 08:58 24.03.2020
5971 Clouds 0 1002 84 10000 6 300 08:38 24.03.2020
5972 Snow -1 1002 92 3400 10 290 08:20 24.03.2020
5973 Clouds 1 1001 69 10000 7 290 07:44 24.03.2020
5974 Clouds 3 1000 55 10000 5 290 07:22 24.03.2020
5975 Clouds 1 1000 86 10000 5 260 06:42 24.03.2020
5976 Clouds 1 1000 86 10000 5 260 06:21 24.03.2020
5977 Clouds 2 999 69 10000 6 250 04:52 24.03.2020
5978 Clouds 2 998 74 10000 6 250 03:41 24.03.2020
5979 Clouds 0 998 99 10000 2 170 02:45 24.03.2020
5980 Clouds -2 998 92 10000 3 180 01:22 24.03.2020
5981 Clouds -2 997 92 10000 3 170 00:41 24.03.2020
5982 Clouds -3 998 100 10000 3 180 00:22 24.03.2020
5983 Clouds -3 997 92 10000 3 180 23:38 23.03.2020
5984 Clouds -3 997 92 10000 3 180 23:20 23.03.2020
5985 Snow -3 997 92 2100 4 170 22:45 23.03.2020
5986 Snow -4 997 100 2400 4 170 22:23 23.03.2020
5987 Snow -4 997 100 1000 4 160 21:57 23.03.2020
5988 Snow -4 997 92 900 4 150 21:38 23.03.2020
5989 Snow -4 997 92 900 4 150 21:20 23.03.2020
5990 Snow -4 998 92 900 5 150 20:56 23.03.2020
5991 Snow -4 998 92 800 5 160 20:38 23.03.2020
5992 Snow -4 998 92 800 5 160 20:19 23.03.2020
5993 Snow -4 998 92 1200 5 170 19:44 23.03.2020
5994 Snow -3 998 63 10000 3 170 19:24 23.03.2020
5995 Snow -4 998 62 10000 3 150 18:56 23.03.2020
5996 Snow -4 998 62 10000 3 130 18:38 23.03.2020
5997 Snow -4 999 62 10000 3 130 18:20 23.03.2020
5998 Snow -5 1000 67 10000 3 130 17:42 23.03.2020
5999 Snow -5 1001 67 10000 2 140 17:21 23.03.2020
6000 Clouds -5 1001 67 10000 2 140 16:57 23.03.2020
6001 Clouds -5 1001 62 10000 1 170 16:39 23.03.2020
6002 Clouds -5 1001 62 10000 1 170 16:20 23.03.2020
6003 Clouds -5 1002 62 10000 2 160 15:41 23.03.2020
6004 Clouds -5 1002 62 10000 4 130 15:19 23.03.2020
6005 Clouds -5 1003 62 10000 3 130 14:38 23.03.2020
6006 Clouds -5 1003 62 10000 3 130 14:20 23.03.2020
6007 Clouds -5 1004 62 10000 2 160 13:59 23.03.2020
6008 Clouds -7 1004 67 10000 2 150 13:40 23.03.2020
6009 Clouds -7 1004 67 10000 2 150 13:20 23.03.2020
6010 Clouds -13 1004 71 10000 1 300 12:44 23.03.2020
6011 Clouds -12 1005 66 10000 1 350 12:25 23.03.2020
6012 Clouds -12 1005 66 10000 1 340 11:59 23.03.2020
6013 Clouds -12 1005 66 10000 1 340 11:59 23.03.2020
6014 Clouds -11 1005 66 10000 2 10 11:40 23.03.2020
6015 Clouds -10 1006 61 10000 1 340 11:19 23.03.2020
6016 Clouds -10 1006 61 10000 1 340 10:57 23.03.2020
6017 Clouds -9 1006 61 10000 2 350 10:38 23.03.2020
6018 Clouds -9 1006 61 10000 2 350 10:20 23.03.2020
6019 Clouds -9 1006 61 10000 2 350 09:44 23.03.2020
6020 Clouds -9 1007 56 10000 2 360 09:21 23.03.2020
6021 Clouds -9 1007 56 10000 2 360 08:57 23.03.2020
6022 Clouds -9 1008 56 10000 2 360 08:36 23.03.2020
6023 Clouds -9 1008 56 10000 2 360 08:18 23.03.2020
6024 Clouds -9 1008 56 10000 2 10 07:42 23.03.2020
6025 Clouds -9 1009 56 10000 2 20 07:23 23.03.2020
6026 Clouds -9 1009 52 10000 2 20 06:50 23.03.2020
6027 Clouds -10 1010 51 10000 1 30 05:54 23.03.2020
6028 Clouds -10 1010 51 10000 1 30 05:29 23.03.2020
6029 Clear -13 1011 50 10000 0.85 153 03:29 23.03.2020
6030 Clear -16 1012 71 10000 0.15 160 01:51 23.03.2020
6031 Clear -16 1012 71 10000 0.15 160 01:33 23.03.2020
6032 Clear -22 1012 83 10000 2 300 00:39 23.03.2020
6033 Clear -23 1012 83 10000 4 290 23:47 22.03.2020
6034 Clear -23 1012 83 10000 4 290 23:26 22.03.2020
6035 Clear -22 1012 83 10000 4 290 22:45 22.03.2020
6036 Clear -22 1012 83 10000 4 290 22:26 22.03.2020
6037 Clear -21 1012 83 10000 3 300 21:56 22.03.2020
6038 Clear -21 1012 83 10000 2 280 21:37 22.03.2020
6039 Clear -21 1012 83 10000 2 280 21:19 22.03.2020
6040 Clear -20 1012 91 10000 3 290 20:46 22.03.2020
6041 Clear -19 1012 91 10000 2 290 20:26 22.03.2020
6042 Snow -22 1012 83 10000 1 280 19:59 22.03.2020
6043 Snow -22 1012 83 10000 1 280 19:40 22.03.2020
6044 Snow -16 1012 77 10000 2 320 19:21 22.03.2020
6045 Snow -15 1012 77 10000 3 310 18:59 22.03.2020
6046 Snow -15 1012 84 10000 2 310 18:41 22.03.2020
6047 Snow -15 1012 84 10000 2 310 18:22 22.03.2020
6048 Snow -14 1011 77 10000 2 340 17:59 22.03.2020
6049 Clouds -13 1011 78 10000 3 340 17:39 22.03.2020
6050 Clouds -13 1011 78 10000 3 340 17:21 22.03.2020
6051 Clouds -13 1011 78 10000 3 340 17:21 22.03.2020
6052 Clouds -11 1011 72 10000 4 350 16:59 22.03.2020
6053 Clouds -11 1011 72 10000 4 350 16:59 22.03.2020
6054 Clouds -11 1011 72 10000 4 350 16:41 22.03.2020
6055 Snow -11 1011 92 10000 2 340 16:22 22.03.2020
6056 Snow -11 1011 85 10000 2 350 15:58 22.03.2020
6057 Snow -11 1011 85 10000 2 350 15:39 22.03.2020
6058 Snow -10 1010 92 10000 2 330 14:47 22.03.2020
6059 Clouds -8 1010 78 10000 3 320 14:19 22.03.2020
6060 Clouds -8 1010 85 10000 3 310 13:57 22.03.2020
6061 Clouds -8 1010 85 10000 3 310 13:39 22.03.2020
6062 Clouds -8 1010 85 10000 3 300 13:19 22.03.2020
6063 Clouds -8 1010 85 10000 2 330 12:44 22.03.2020
6064 Clouds -10 1009 78 10000 3 290 12:21 22.03.2020
6065 Clouds -11 1009 78 10000 2 290 11:57 22.03.2020
6066 Clouds -9 1009 72 10000 1 310 11:39 22.03.2020
6067 Clouds -9 1009 72 10000 1 310 11:20 22.03.2020
6068 Clouds -7 1009 73 10000 1 110 10:43 22.03.2020
6069 Clouds -6 1009 62 10000 1.41 248 10:24 22.03.2020
6070 Clouds -5 1009 62 10000 1.41 248 09:49 22.03.2020
6071 Clouds -5 1008 62 10000 2 90 09:30 22.03.2020
6072 Clouds -6 1009 62 10000 1 30 08:55 22.03.2020
6073 Clouds -3 1008 45 10000 1 170 08:37 22.03.2020
6074 Clouds -3 1008 45 10000 1 170 08:18 22.03.2020
6075 Clouds -4 1008 45 10000 2 190 07:49 22.03.2020
6076 Clouds -4 1008 45 10000 2 170 07:19 22.03.2020
6077 Clouds -5 1008 45 10000 3 170 05:56 22.03.2020
6078 Clouds -7 1009 48 10000 2 170 04:58 22.03.2020
6079 Clouds -12 1009 60 10000 1 170 02:50 22.03.2020
6080 Clouds -20 1009 76 10000 2.03 190 01:22 22.03.2020
6081 Clouds -21 1009 76 10000 2.03 190 00:39 22.03.2020
6082 Clouds -21 1009 76 10000 2.03 190 00:21 22.03.2020
6083 Clouds -22 1009 76 10000 1 300 23:41 21.03.2020
6084 Clouds -22 1009 76 10000 1 300 23:41 21.03.2020
6085 Clouds -22 1009 76 10000 1 300 23:19 21.03.2020
6086 Clouds -25 1009 75 10000 1.85 175 22:38 21.03.2020
6087 Clouds -25 1009 75 10000 1.85 175 22:20 21.03.2020
6088 Clouds -23 1009 83 10000 1 290 21:59 21.03.2020
6089 Clouds -23 1009 83 10000 1 290 21:40 21.03.2020
6090 Clouds -24 1009 76 10000 1 300 21:22 21.03.2020
6091 Clouds -25 1009 83 10000 1 280 20:46 21.03.2020
6092 Clouds -24 1009 83 10000 1 260 20:23 21.03.2020
6093 Clouds -24 1009 83 10000 1.93 172 19:58 21.03.2020
6094 Clouds -22 1009 76 10000 1 280 19:39 21.03.2020
6095 Clouds -22 1009 76 10000 1 280 19:21 21.03.2020
6096 Clouds -22 1009 83 10000 2 290 18:55 21.03.2020
6097 Clouds -20 1009 83 10000 2 290 18:37 21.03.2020
6098 Clouds -20 1009 83 10000 2 290 18:19 21.03.2020
6099 Clouds -19 1010 84 10000 2 290 17:43 21.03.2020
6100 Clouds -19 1010 84 10000 2 290 17:43 21.03.2020
6101 Clouds -19 1010 84 10000 2 290 17:24 21.03.2020
6102 Clouds -19 1010 84 10000 2 290 16:57 21.03.2020
6103 Clouds -18 1010 77 10000 2 300 16:39 21.03.2020
6104 Clouds -18 1010 77 10000 2 300 16:19 21.03.2020
6105 Clouds -17 1010 70 10000 2 310 15:55 21.03.2020
6106 Clouds -18 1010 77 10000 2 310 15:36 21.03.2020
6107 Clouds -18 1010 77 10000 2 310 15:18 21.03.2020
6108 Clouds -16 1010 77 10000 2 310 14:54 21.03.2020
6109 Clouds -16 1010 77 10000 2 320 14:36 21.03.2020
6110 Clouds -16 1010 77 10000 2 320 14:36 21.03.2020
6111 Clear -16 1010 77 10000 2 320 14:18 21.03.2020
6112 Clear -14 1010 71 10000 1 240 13:54 21.03.2020
6113 Clear -14 1010 65 10000 1 200 13:36 21.03.2020
6114 Clear -14 1010 65 10000 1 200 13:18 21.03.2020
6115 Clear -13 1010 65 10000 2 190 12:39 21.03.2020
6116 Clear -13 1010 65 10000 2 190 12:19 21.03.2020
6117 Clear -14 1010 65 10000 2 170 11:57 21.03.2020
6118 Clear -10 1010 61 10000 2 160 11:38 21.03.2020
6119 Clear -10 1010 61 10000 2 160 11:38 21.03.2020
6120 Clear -6 1010 48 10000 2 170 11:19 21.03.2020
6121 Clear -6 1010 48 10000 2 170 10:57 21.03.2020
6122 Clear -4 1010 38 10000 3 180 10:39 21.03.2020
6123 Clear -4 1010 38 10000 3 180 10:20 21.03.2020
6124 Clear -3 1010 38 10000 2 180 09:57 21.03.2020
6125 Clear -3 1010 35 10000 3 160 09:37 21.03.2020
6126 Clear -3 1010 35 10000 3 160 09:19 21.03.2020
6127 Clear -3 1010 35 10000 3 160 09:19 21.03.2020
6128 Clear -3 1009 38 10000 3 170 08:44 21.03.2020
6129 Clear -3 1009 38 10000 3 170 08:25 21.03.2020
6130 Clear -3 1009 38 10000 3 170 07:52 21.03.2020
6131 Clear -3 1010 38 10000 4 170 07:32 21.03.2020
6132 Clear -3 1010 38 10000 3 170 06:49 21.03.2020
6133 Clear -4 1010 41 10000 3 180 06:29 21.03.2020
6134 Clear -5 1010 45 10000 4 180 05:48 21.03.2020
6135 Clear -6 1010 48 10000 3 180 05:23 21.03.2020
6136 Clouds -12 1011 66 10000 3 180 03:32 21.03.2020
6137 Clouds -14 1011 65 10000 3 180 02:35 21.03.2020
6138 Clouds -15 1011 65 10000 3 170 01:40 21.03.2020
6139 Clouds -17 1011 70 10000 1 210 01:20 21.03.2020
6140 Clouds -22 1011 76 10000 2.4 192 00:38 21.03.2020
6141 Clouds -23 1010 83 10000 2.4 192 23:59 20.03.2020
6142 Clouds -23 1010 83 10000 1 180 23:40 20.03.2020
6143 Clouds -23 1010 83 10000 1 180 23:18 20.03.2020
6144 Clouds -24 1010 83 10000 1 200 22:42 20.03.2020
6145 Clouds -23 1010 83 10000 2 210 22:24 20.03.2020
6146 Clouds -24 1009 83 10000 1 210 21:57 20.03.2020
6147 Clouds -23 1009 83 10000 2 200 21:39 20.03.2020
6148 Clouds -23 1009 83 10000 2 200 21:18 20.03.2020
6149 Clouds -24 1009 83 10000 2 200 20:57 20.03.2020
6150 Clouds -23 1009 76 10000 1 190 20:39 20.03.2020
6151 Clouds -23 1009 76 10000 1 190 20:18 20.03.2020
6152 Clouds -23 1009 83 10000 1 170 19:46 20.03.2020
6153 Clouds -23 1009 83 10000 1 200 19:19 20.03.2020
6154 Clouds -23 1009 76 10000 1 210 18:56 20.03.2020
6155 Clouds -24 1009 83 10000 1 200 18:37 20.03.2020
6156 Clouds -24 1009 83 10000 1 200 18:19 20.03.2020
6157 Clouds -23 1008 83 10000 2.08 190 17:40 20.03.2020
6158 Clouds -23 1008 83 10000 2.08 190 17:21 20.03.2020
6159 Clouds -23 1008 83 10000 1.41 210 16:59 20.03.2020
6160 Clouds -21 1008 83 10000 1 280 16:41 20.03.2020
6161 Clouds -21 1008 83 10000 1 280 16:20 20.03.2020
6162 Clouds -19 1008 84 10000 1 260 15:43 20.03.2020
6163 Clouds -19 1008 84 10000 2 280 15:22 20.03.2020
6164 Clouds -18 1007 77 10000 1 240 14:57 20.03.2020
6165 Clouds -18 1007 77 10000 1 240 14:38 20.03.2020
6166 Clouds -18 1007 77 10000 1 240 14:19 20.03.2020
6167 Clouds -17 1007 77 10000 2 260 13:46 20.03.2020
6168 Clouds -17 1007 84 10000 2 220 13:20 20.03.2020
6169 Clouds -18 1007 77 10000 1 190 12:54 20.03.2020
6170 Clouds -16 1006 77 10000 1 220 12:36 20.03.2020
6171 Clouds -16 1006 71 10000 1 230 12:18 20.03.2020
6172 Clouds -12 1006 60 10000 1 250 11:39 20.03.2020
6173 Clouds -10 1005 51 10000 2 250 11:20 20.03.2020
6174 Clouds -10 1005 51 10000 2 250 10:54 20.03.2020
6175 Clouds -7 1005 48 10000 3 260 10:36 20.03.2020
6176 Clouds -7 1005 48 10000 3 260 10:18 20.03.2020
6177 Clouds -6 1005 44 10000 3 240 09:43 20.03.2020
6178 Clouds -5 1004 45 10000 4 270 09:20 20.03.2020
6179 Clouds -5 1004 41 10000 5 260 08:43 20.03.2020
6180 Clouds -4 1004 38 10000 3 270 08:22 20.03.2020
6181 Clouds -5 1003 41 10000 4 270 07:57 20.03.2020
6182 Clouds -5 1003 41 10000 6 270 07:38 20.03.2020
6183 Clouds -5 1003 41 10000 6 270 07:19 20.03.2020
6184 Clouds -5 1003 45 10000 5 280 06:42 20.03.2020
6185 Clouds -4 1001 53 10000 3 300 04:57 20.03.2020
6186 Clouds -5 1001 57 10000 4 310 04:27 20.03.2020
6187 Clouds -8 1000 85 10000 3 360 02:43 20.03.2020
6188 Snow -11 999 85 3200 1 300 01:50 20.03.2020
6189 Clouds -15 998 77 10000 1 270 00:38 20.03.2020
6190 Clouds -15 997 77 10000 4.18 292 23:58 19.03.2020
6191 Snow -16 997 84 10000 1 270 23:40 19.03.2020
6192 Snow -15 997 77 5000 1.97 218 23:19 19.03.2020
6193 Snow -15 997 77 5000 1 300 22:38 19.03.2020
6194 Snow -15 997 77 5000 1 300 22:20 19.03.2020
6195 Clouds -16 997 77 10000 2 320 21:58 19.03.2020
6196 Clouds -16 996 77 10000 1 10 21:38 19.03.2020
6197 Clouds -16 996 77 10000 1 10 21:18 19.03.2020
6198 Clouds -16 996 77 10000 2 340 20:43 19.03.2020
6199 Clouds -18 996 84 10000 2 340 20:25 19.03.2020
6200 Clouds -19 996 84 10000 2 310 19:59 19.03.2020
6201 Clouds -17 996 77 10000 1 350 19:38 19.03.2020
6202 Clouds -17 996 77 10000 1 350 19:20 19.03.2020
6203 Clouds -17 996 77 10000 1 350 19:20 19.03.2020
6204 Clouds -18 996 77 10000 1 290 18:58 19.03.2020
6205 Clouds -17 996 77 10000 1.77 222 18:40 19.03.2020
6206 Clouds -17 996 70 10000 1 260 18:21 19.03.2020
6207 Clouds -17 996 70 10000 1 260 18:21 19.03.2020
6208 Clouds -15 996 71 10000 1 260 17:44 19.03.2020
6209 Clouds -15 996 71 10000 1 270 17:20 19.03.2020
6210 Clouds -15 996 71 10000 1 270 17:20 19.03.2020
6211 Clouds -15 996 71 10000 1 270 16:58 19.03.2020
6212 Clouds -14 996 71 10000 1 300 16:39 19.03.2020
6213 Clouds -14 996 71 10000 1 300 16:21 19.03.2020
6214 Clouds -13 996 65 10000 1 330 15:42 19.03.2020
6215 Clouds -13 996 65 10000 2 320 15:23 19.03.2020
6216 Clouds -13 996 65 10000 2 330 14:43 19.03.2020
6217 Snow -13 996 65 10000 1 330 14:23 19.03.2020
6218 Clouds -15 996 65 10000 1 330 13:57 19.03.2020
6219 Clouds -15 996 60 10000 2 330 13:37 19.03.2020
6220 Clouds -15 996 60 10000 2 330 13:18 19.03.2020
6221 Clouds -14 996 60 10000 2 330 12:41 19.03.2020
6222 Clouds -14 996 60 10000 2 330 12:23 19.03.2020
6223 Clouds -13 997 60 10000 2 330 11:58 19.03.2020
6224 Clouds -13 997 60 10000 1 340 11:40 19.03.2020
6225 Clouds -13 997 60 10000 1 320 11:22 19.03.2020
6226 Clouds -13 998 60 10000 1 340 10:42 19.03.2020
6227 Clouds -13 998 60 10000 1 340 10:21 19.03.2020
6228 Clouds -13 998 55 10000 2 340 09:58 19.03.2020
6229 Clouds -13 998 55 10000 2 340 09:39 19.03.2020
6230 Clouds -13 998 55 10000 2 350 09:19 19.03.2020
6231 Clouds -13 998 60 10000 2 350 08:46 19.03.2020
6232 Clouds -13 999 60 10000 1 340 08:22 19.03.2020
6233 Clouds -13 999 55 10000 1 30 07:47 19.03.2020
6234 Clouds -14 1000 55 10000 2 30 07:29 19.03.2020
6235 Clouds -13 1000 50 10000 2 20 06:51 19.03.2020
6236 Clouds -14 1001 42 10000 1 20 05:52 19.03.2020
6237 Clouds -14 1002 38 10000 1 30 05:22 19.03.2020
6238 Clouds -14 1003 35 10000 1 200 04:41 19.03.2020
6239 Clouds -18 1004 40 10000 3 140 03:36 19.03.2020
6240 Clear -24 1006 57 10000 2 140 01:27 19.03.2020
6241 Clear -25 1006 69 10000 1 240 00:38 19.03.2020
6242 Clear -28 1007 68 10000 1.07 166 23:58 18.03.2020
6243 Clear -29 1007 68 10000 1 290 23:39 18.03.2020
6244 Clear -29 1007 68 10000 1 290 23:18 18.03.2020
6245 Clear -28 1007 68 10000 1 200 22:42 18.03.2020
6246 Clear -28 1007 68 10000 1 200 22:22 18.03.2020
6247 Clear -27 1008 68 10000 2 200 21:54 18.03.2020
6248 Clear -26 1008 62 10000 2 240 21:36 18.03.2020
6249 Clear -26 1008 62 10000 2 240 21:18 18.03.2020
6250 Clear -24 1008 57 10000 3 250 20:41 18.03.2020
6251 Clear -25 1008 62 10000 3 240 20:21 18.03.2020
6252 Clear -26 1008 62 10000 2 260 19:59 18.03.2020
6253 Clear -26 1008 62 10000 1 290 19:40 18.03.2020
6254 Clear -26 1008 62 10000 1 290 19:21 18.03.2020
6255 Clear -25 1008 69 10000 2 290 18:56 18.03.2020
6256 Clear -25 1008 62 10000 1 270 18:37 18.03.2020
6257 Clear -24 1008 52 10000 1 350 18:18 18.03.2020
6258 Clear -24 1008 52 10000 1 350 17:54 18.03.2020
6259 Clear -22 1008 48 10000 1.51 284 17:36 18.03.2020
6260 Clear -20 1008 44 10000 3 290 17:18 18.03.2020
6261 Clear -19 1008 44 10000 2 300 16:42 18.03.2020
6262 Clear -19 1008 44 10000 2 300 16:20 18.03.2020
6263 Clear -19 1008 44 10000 2 310 15:56 18.03.2020
6264 Clear -18 1008 40 10000 1 310 15:37 18.03.2020
6265 Clear -18 1008 40 10000 1 310 15:19 18.03.2020
6266 Clear -17 1008 41 10000 2 310 14:42 18.03.2020
6267 Clear -17 1008 45 10000 2 330 14:21 18.03.2020
6268 Clouds -15 1007 45 10000 5 300 13:41 18.03.2020
6269 Clouds -15 1007 45 10000 5 300 13:19 18.03.2020
6270 Clouds -15 1007 45 10000 5 290 12:54 18.03.2020
6271 Clouds -14 1007 42 10000 4 290 12:36 18.03.2020
6272 Clouds -13 1007 42 10000 5 290 12:18 18.03.2020
6273 Clouds -13 1007 42 10000 5 290 12:18 18.03.2020
6274 Clouds -13 1007 46 10000 4 290 11:38 18.03.2020
6275 Clouds -13 1007 46 10000 4 290 11:19 18.03.2020
6276 Clouds -13 1007 46 10000 4 290 10:56 18.03.2020
6277 Clouds -12 1007 46 10000 5 280 10:37 18.03.2020
6278 Clouds -12 1007 46 10000 5 280 10:18 18.03.2020
6279 Clouds -12 1007 46 10000 5 280 10:18 18.03.2020
6280 Clouds -12 1007 46 10000 5 280 10:18 18.03.2020
6281 Clouds -12 1007 51 10000 3 290 09:42 18.03.2020
6282 Clouds -12 1006 51 10000 4 290 09:23 18.03.2020
6283 Clouds -11 1006 51 10000 4 300 08:55 18.03.2020
6284 Clouds -11 1006 51 10000 4 300 08:55 18.03.2020
6285 Clouds -11 1006 51 10000 4 290 08:36 18.03.2020
6286 Clouds -11 1006 51 10000 4 290 08:18 18.03.2020
6287 Clouds -11 1005 56 10000 4 320 07:40 18.03.2020
6288 Clouds -11 1005 56 10000 4 320 07:22 18.03.2020
6289 Clouds -12 1005 60 10000 5 290 06:42 18.03.2020
6290 Clouds -12 1005 66 10000 5 300 05:47 18.03.2020
6291 Clouds -12 1004 66 10000 2 90 05:18 18.03.2020
6292 Clouds -13 1004 71 10000 2 50 03:53 18.03.2020
6293 Clouds -14 1004 77 10000 3 20 02:37 18.03.2020
6294 Clouds -14 1004 77 10000 3 20 02:37 18.03.2020
6295 Clouds -14 1003 77 10000 1 30 01:46 18.03.2020
6296 Clouds -14 1003 77 10000 2 330 01:20 18.03.2020
6297 Clouds -14 1003 77 10000 4 310 00:23 18.03.2020
6298 Clouds -14 1003 84 10000 4 320 23:43 17.03.2020
6299 Clouds -13 1002 84 10000 3 310 23:23 17.03.2020
6300 Snow -12 1002 85 10000 3 320 22:47 17.03.2020
6301 Snow -12 1002 85 10000 3 320 22:28 17.03.2020
6302 Snow -11 1001 85 10000 3 320 21:57 17.03.2020
6303 Snow -11 1001 85 10000 2 320 21:37 17.03.2020
6304 Snow -11 1001 85 10000 2 320 21:19 17.03.2020
6305 Snow -11 1000 85 10000 2 340 20:38 17.03.2020
6306 Snow -11 1000 85 10000 2 340 20:20 17.03.2020
6307 Snow -11 1000 85 10000 2 330 19:54 17.03.2020
6308 Snow -11 1000 85 10000 2 330 19:36 17.03.2020
6309 Snow -11 999 85 10000 2 330 19:18 17.03.2020
6310 Snow -11 999 85 10000 2 330 18:54 17.03.2020
6311 Snow -10 999 78 10000 2 330 18:36 17.03.2020
6312 Snow -10 999 78 10000 2 330 18:36 17.03.2020
6313 Snow -10 999 78 10000 2 320 18:18 17.03.2020
6314 Snow -10 999 78 10000 3 320 17:39 17.03.2020
6315 Snow -10 999 78 10000 3 320 17:20 17.03.2020
6316 Snow -10 999 78 10000 3 320 16:44 17.03.2020
6317 Snow -10 999 78 10000 2 330 16:20 17.03.2020
6318 Clouds -10 999 85 10000 3 340 15:56 17.03.2020
6319 Clouds -10 998 85 10000 2 320 15:38 17.03.2020
6320 Clouds -10 998 85 10000 2 320 15:18 17.03.2020
6321 Clouds -10 998 85 10000 2 320 14:41 17.03.2020
6322 Clouds -10 998 85 10000 3 340 14:18 17.03.2020
6323 Clouds -10 998 85 10000 2 340 13:41 17.03.2020
6324 Clouds -10 997 85 10000 1 320 13:22 17.03.2020
6325 Clouds -10 997 85 10000 2 330 12:48 17.03.2020
6326 Clouds -10 997 85 10000 2 360 12:26 17.03.2020
6327 Snow -10 997 92 10000 2 20 11:59 17.03.2020
6328 Snow -9 997 85 10000 2 30 11:39 17.03.2020
6329 Snow -9 997 92 10000 2 20 11:21 17.03.2020
6330 Snow -9 997 92 10000 2 20 10:55 17.03.2020
6331 Snow -8 996 85 5000 2 360 10:36 17.03.2020
6332 Snow -8 996 85 5000 2 360 10:18 17.03.2020
6333 Snow -8 996 85 10000 3 350 09:45 17.03.2020
6334 Snow -8 996 78 10000 2 350 09:20 17.03.2020
6335 Snow -8 995 78 10000 2 340 08:58 17.03.2020
6336 Snow -8 995 78 10000 2 340 08:58 17.03.2020
6337 Snow -8 995 78 10000 2 350 08:40 17.03.2020
6338 Snow -8 995 78 10000 2 350 08:18 17.03.2020
6339 Snow -9 995 85 10000 2 20 07:49 17.03.2020
6340 Snow -9 995 78 10000 3 360 07:20 17.03.2020
6341 Snow -9 995 72 10000 2 350 06:49 17.03.2020
6342 Snow -9 995 72 10000 2 350 06:25 17.03.2020
6343 Snow -9 995 72 10000 1 330 05:26 17.03.2020
6344 Snow -12 995 85 10000 2 360 03:31 17.03.2020
6345 Snow -13 995 84 10000 2 20 02:31 17.03.2020
6346 Snow -13 995 84 10000 3 320 01:38 17.03.2020
6347 Snow -13 995 84 10000 2 360 00:53 17.03.2020
6348 Snow -14 996 84 10000 2 360 00:18 17.03.2020
6349 Snow -14 996 84 10000 3 360 23:38 16.03.2020
6350 Snow -14 996 84 10000 3 360 23:19 16.03.2020
6351 Snow -14 996 84 10000 3 10 22:38 16.03.2020
6352 Snow -14 996 84 10000 3 10 22:20 16.03.2020
6353 Snow -14 996 84 10000 2 20 21:45 16.03.2020
6354 Snow -14 996 84 10000 2 360 21:26 16.03.2020
6355 Snow -14 996 84 10000 2 50 20:59 16.03.2020
6356 Snow -13 996 78 10000 3 60 20:39 16.03.2020
6357 Snow -13 996 78 10000 3 60 20:20 16.03.2020
6358 Snow -14 996 92 10000 2 20 19:46 16.03.2020
6359 Snow -14 997 84 10000 2 20 19:24 16.03.2020
6360 Snow -14 997 84 2400 2 360 18:59 16.03.2020
6361 Snow -14 997 77 5000 2 30 18:39 16.03.2020
6362 Snow -15 997 77 10000 2 20 18:19 16.03.2020
6363 Snow -15 998 77 10000 2 40 17:46 16.03.2020
6364 Snow -15 998 77 10000 2 40 17:25 16.03.2020
6365 Snow -14 998 71 10000 2 40 16:56 16.03.2020
6366 Snow -13 998 71 10000 2 60 16:37 16.03.2020
6367 Snow -13 998 71 10000 2 60 16:19 16.03.2020
6368 Clouds -13 999 65 10000 2 70 15:42 16.03.2020
6369 Clouds -12 999 60 10000 2 70 15:23 16.03.2020
6370 Clouds -12 999 60 10000 2 70 15:23 16.03.2020
6371 Clouds -13 999 71 10000 2 70 14:45 16.03.2020
6372 Clouds -13 1000 71 10000 2 10 14:20 16.03.2020
6373 Clouds -13 1000 71 10000 2 360 13:47 16.03.2020
6374 Clouds -13 1000 71 10000 2 10 13:27 16.03.2020
6375 Clouds -13 1001 65 10000 2 30 12:57 16.03.2020
6376 Clouds -14 1001 71 10000 2 30 12:38 16.03.2020
6377 Clouds -14 1001 71 10000 2 30 12:20 16.03.2020
6378 Clouds -13 1001 60 10000 2 10 11:43 16.03.2020
6379 Clouds -13 1001 60 10000 2 10 11:23 16.03.2020
6380 Clouds -13 1001 65 10000 3 350 10:44 16.03.2020
6381 Clouds -13 1001 60 10000 2 350 10:24 16.03.2020
6382 Clouds -13 1001 60 10000 2 340 09:49 16.03.2020
6383 Clouds -12 1001 55 10000 2 350 09:30 16.03.2020
6384 Clouds -11 1002 51 10000 2 340 08:59 16.03.2020
6385 Clouds -11 1002 51 10000 3 340 08:39 16.03.2020
6386 Clouds -11 1002 51 10000 3 340 08:20 16.03.2020
6387 Clouds -11 1002 51 10000 3 340 07:41 16.03.2020
6388 Clouds -12 1002 51 10000 3 350 07:18 16.03.2020
6389 Clouds -13 1003 55 10000 3 330 06:28 16.03.2020
6390 Clouds -14 1003 55 10000 3 350 05:55 16.03.2020
6391 Clouds -18 1004 64 10000 3 350 03:54 16.03.2020
6392 Clouds -21 1005 70 10000 3 340 01:46 16.03.2020
6393 Clouds -23 1006 69 10000 3 350 00:44 16.03.2020
6394 Clouds -24 1006 76 10000 3 350 00:25 16.03.2020
6395 Clouds -25 1006 75 10000 3 340 23:39 15.03.2020
6396 Clouds -25 1006 75 10000 3 340 23:18 15.03.2020
6397 Clouds -25 1006 75 10000 3 360 22:42 15.03.2020
6398 Clouds -25 1006 75 10000 3 350 22:20 15.03.2020
6399 Clouds -25 1006 69 10000 3 360 21:39 15.03.2020
6400 Clouds -25 1006 75 10000 3 350 21:21 15.03.2020
6401 Clouds -25 1006 75 10000 3 360 20:55 15.03.2020
6402 Clouds -25 1006 75 10000 3 10 20:36 15.03.2020
6403 Clouds -25 1006 75 10000 3 10 20:18 15.03.2020
6404 Clouds -25 1006 75 10000 3 360 19:43 15.03.2020
6405 Clouds -24 1006 76 10000 3 350 19:25 15.03.2020
6406 Clouds -24 1006 69 10000 3 350 18:59 15.03.2020
6407 Clouds -24 1006 76 10000 3 350 18:40 15.03.2020
6408 Clouds -24 1006 76 10000 3 350 18:22 15.03.2020
6409 Clouds -23 1006 69 10000 3 340 17:57 15.03.2020
6410 Clouds -23 1006 69 10000 3 360 17:38 15.03.2020
6411 Snow -22 1006 69 10000 3 330 17:19 15.03.2020
6412 Snow -22 1006 69 10000 3 330 16:44 15.03.2020
6413 Snow -22 1006 76 10000 3 340 16:26 15.03.2020
6414 Clouds -22 1006 76 10000 3 340 15:59 15.03.2020
6415 Clouds -22 1006 76 10000 3 340 15:41 15.03.2020
6416 Clouds -21 1006 70 10000 2 360 15:20 15.03.2020
6417 Clouds -21 1006 70 10000 2 350 14:46 15.03.2020
6418 Clouds -21 1006 70 10000 2 10 14:25 15.03.2020
6419 Clouds -18 1006 59 10000 1 40 13:59 15.03.2020
6420 Clouds -18 1006 59 10000 1 40 13:59 15.03.2020
6421 Clouds -17 1007 59 10000 2 40 13:38 15.03.2020
6422 Clouds -17 1007 59 10000 2 40 13:20 15.03.2020
6423 Clouds -18 1007 64 10000 3 20 12:44 15.03.2020
6424 Clouds -16 1007 54 10000 2 10 12:26 15.03.2020
6425 Clouds -16 1007 59 10000 1 20 11:59 15.03.2020
6426 Clouds -15 1007 54 10000 2 60 11:40 15.03.2020
6427 Clouds -15 1007 54 10000 2 60 11:22 15.03.2020
6428 Snow -15 1007 50 10000 2 60 10:56 15.03.2020
6429 Snow -16 1006 54 10000 2 40 10:36 15.03.2020
6430 Snow -16 1006 54 10000 2 40 10:18 15.03.2020
6431 Snow -16 1007 54 10000 2 20 09:40 15.03.2020
6432 Snow -15 1006 50 10000 1 30 09:21 15.03.2020
6433 Snow -16 1006 59 10000 2 360 08:42 15.03.2020
6434 Snow -15 1006 54 10000 2 360 08:21 15.03.2020
6435 Clouds -16 1006 54 10000 2 10 07:51 15.03.2020
6436 Clouds -17 1007 59 10000 2 360 07:31 15.03.2020
6437 Clouds -18 1007 64 10000 2 360 06:53 15.03.2020
6438 Clouds -19 1007 64 10000 2 350 06:18 15.03.2020
6439 Clouds -20 1008 64 10000 1 340 05:19 15.03.2020
6440 Clouds -21 1008 63 10000 2 330 04:43 15.03.2020
6441 Clouds -22 1008 63 10000 2 330 04:24 15.03.2020
6442 Clouds -24 1009 69 10000 2 320 03:54 15.03.2020
6443 Clouds -26 1010 75 10000 2 10 02:44 15.03.2020
6444 Clouds -29 1011 75 10000 1 20 01:35 15.03.2020
6445 Clouds -29 1011 75 10000 1.86 161 00:46 15.03.2020
6446 Mist -30 1011 74 5000 1.86 161 00:27 15.03.2020
6447 Mist -31 1011 74 2000 1 10 23:55 14.03.2020
6448 Clouds -31 1011 74 10000 1 30 23:37 14.03.2020
6449 Clouds -31 1011 74 10000 1 30 23:18 14.03.2020
6450 Clouds -31 1012 82 10000 1.93 187 22:42 14.03.2020
6451 Clouds -30 1012 74 10000 1.93 187 22:23 14.03.2020
6452 Clouds -31 1012 74 10000 2 170 21:56 14.03.2020
6453 Clouds -32 1013 74 10000 1 120 21:36 14.03.2020
6454 Clouds -32 1013 74 10000 1 120 21:18 14.03.2020
6455 Clouds -30 1013 74 10000 1 310 20:59 14.03.2020
6456 Clouds -30 1013 74 10000 1 310 20:40 14.03.2020
6457 Clouds -31 1013 74 10000 1.66 224 20:19 14.03.2020
6458 Clouds -30 1013 74 10000 1.78 221 19:44 14.03.2020
6459 Clouds -29 1013 75 10000 1 270 19:25 14.03.2020
6460 Clouds -30 1013 82 10000 1 240 18:56 14.03.2020
6461 Clouds -30 1013 74 10000 1 170 18:37 14.03.2020
6462 Clouds -28 1013 75 10000 1 160 18:19 14.03.2020
6463 Clouds -26 1014 75 10000 1 170 17:39 14.03.2020
6464 Clouds -26 1014 83 10000 1 220 17:20 14.03.2020
6465 Clouds -24 1014 69 10000 3 280 16:41 14.03.2020
6466 Clouds -24 1014 69 10000 3 280 16:23 14.03.2020
6467 Clouds -24 1014 69 10000 3 280 16:23 14.03.2020
6468 Clouds -24 1014 76 10000 3 290 15:58 14.03.2020
6469 Clouds -25 1014 83 10000 3 270 15:27 14.03.2020
6470 Clouds -24 1015 83 10000 3 240 14:59 14.03.2020
6471 Clouds -23 1015 76 10000 2 230 14:37 14.03.2020
6472 Clouds -23 1015 76 10000 2 230 14:19 14.03.2020
6473 Clouds -20 1015 70 10000 3 260 13:44 14.03.2020
6474 Clouds -20 1015 70 10000 3 260 13:24 14.03.2020
6475 Clouds -19 1015 70 10000 3 280 12:58 14.03.2020
6476 Clouds -19 1015 70 10000 3 280 12:38 14.03.2020
6477 Clouds -19 1015 64 10000 3 260 12:20 14.03.2020
6478 Clouds -18 1015 70 10000 4 270 11:42 14.03.2020
6479 Clouds -17 1014 64 10000 3 260 11:24 14.03.2020
6480 Snow -17 1014 70 10000 3 260 10:47 14.03.2020
6481 Snow -17 1014 70 10000 3 260 10:27 14.03.2020
6482 Snow -16 1014 59 10000 4 270 09:59 14.03.2020
6483 Snow -16 1014 59 10000 4 270 09:40 14.03.2020
6484 Snow -16 1014 59 10000 4 270 09:20 14.03.2020
6485 Snow -16 1014 59 10000 5 280 08:46 14.03.2020
6486 Snow -16 1014 65 10000 4 270 08:24 14.03.2020
6487 Clouds -16 1013 59 10000 5 280 07:40 14.03.2020
6488 Clouds -16 1013 59 10000 5 280 07:21 14.03.2020
6489 Clouds -16 1013 59 10000 4 260 06:41 14.03.2020
6490 Clouds -16 1013 59 10000 4 250 05:58 14.03.2020
6491 Clouds -18 1013 64 10000 2 140 04:52 14.03.2020
6492 Clouds -20 1013 64 10000 2 140 03:25 14.03.2020
6493 Clouds -20 1013 70 10000 2 270 02:43 14.03.2020
6494 Clouds -23 1012 76 10000 3 290 01:42 14.03.2020
6495 Clouds -25 1011 75 10000 4 300 00:23 14.03.2020
6496 Clouds -26 1010 75 10000 3 300 23:42 13.03.2020
6497 Clouds -26 1010 75 10000 3 300 23:22 13.03.2020
6498 Snow -25 1009 75 10000 3 310 22:41 13.03.2020
6499 Snow -25 1009 75 10000 3 310 22:22 13.03.2020
6500 Snow -25 1009 75 10000 3 310 21:40 13.03.2020
6501 Snow -25 1008 75 10000 4 300 21:19 13.03.2020
6502 Snow -27 1008 82 10000 3 290 20:42 13.03.2020
6503 Clouds -26 1007 75 10000 3 300 20:22 13.03.2020
6504 Snow -26 1007 75 10000 4 290 19:57 13.03.2020
6505 Snow -25 1007 75 10000 3 300 19:39 13.03.2020
6506 Snow -25 1007 75 10000 3 300 19:18 13.03.2020
6507 Snow -24 1006 69 10000 2 310 18:40 13.03.2020
6508 Snow -24 1006 69 10000 2 310 18:22 13.03.2020
6509 Snow -22 1005 69 10000 3 340 17:42 13.03.2020
6510 Snow -22 1005 69 10000 3 340 17:21 13.03.2020
6511 Clouds -22 1005 69 10000 3 340 16:56 13.03.2020
6512 Clouds -22 1005 63 10000 3 350 16:38 13.03.2020
6513 Clouds -22 1005 63 10000 3 350 16:20 13.03.2020
6514 Snow -21 1004 63 10000 3 340 15:43 13.03.2020
6515 Snow -20 1004 64 10000 3 340 15:22 13.03.2020
6516 Clouds -20 1004 64 10000 3 340 14:57 13.03.2020
6517 Clouds -19 1003 58 10000 3 340 14:38 13.03.2020
6518 Snow -19 1003 58 10000 3 340 14:18 13.03.2020
6519 Snow -20 1003 64 10000 3 340 13:42 13.03.2020
6520 Clouds -20 1003 64 10000 2 340 13:22 13.03.2020
6521 Clouds -19 1002 64 10000 2 350 12:58 13.03.2020
6522 Clouds -19 1002 58 10000 2 350 12:38 13.03.2020
6523 Clouds -18 1001 54 10000 3 350 12:19 13.03.2020
6524 Clouds -18 1001 54 10000 3 350 11:55 13.03.2020
6525 Clouds -18 1001 59 10000 1 350 11:36 13.03.2020
6526 Snow -17 1001 54 10000 2 20 11:18 13.03.2020
6527 Snow -17 1001 54 10000 2 20 10:46 13.03.2020
6528 Snow -17 1000 54 10000 3 350 10:25 13.03.2020
6529 Snow -17 1000 54 10000 3 350 09:48 13.03.2020
6530 Snow -17 999 59 10000 3 360 09:28 13.03.2020
6531 Snow -17 999 49 10000 3 350 08:59 13.03.2020
6532 Snow -18 999 54 10000 2 340 08:38 13.03.2020
6533 Clouds -18 999 54 10000 2 340 08:20 13.03.2020
6534 Clouds -19 998 53 10000 3 330 07:44 13.03.2020
6535 Clouds -19 998 53 10000 3 330 07:25 13.03.2020
6536 Clouds -19 998 53 10000 3 330 06:46 13.03.2020
6537 Clouds -19 998 53 10000 3 330 06:23 13.03.2020
6538 Clouds -22 998 57 10000 2 350 05:46 13.03.2020
6539 Clouds -23 998 63 10000 3 350 04:57 13.03.2020
6540 Clouds -25 998 69 10000 3 330 04:26 13.03.2020
6541 Clouds -28 999 68 10000 2 10 02:43 13.03.2020
6542 Mist -32 1000 74 5000 2 10 01:39 13.03.2020
6543 Mist -32 1000 74 5000 2 10 01:18 13.03.2020
6544 Mist -34 1000 73 2400 1 10 00:42 13.03.2020
6545 Mist -35 1000 73 2000 1 360 00:19 13.03.2020
6546 Mist -36 1000 73 3200 1 10 23:40 12.03.2020
6547 Mist -36 1000 73 3200 1 10 23:22 12.03.2020
6548 Mist -36 1000 73 3200 2 360 22:47 12.03.2020
6549 Mist -36 1000 66 5000 2 350 22:29 12.03.2020
6550 Mist -36 1000 66 5000 1 330 21:59 12.03.2020
6551 Mist -36 1000 66 5000 1 330 21:40 12.03.2020
6552 Mist -36 1001 73 5000 1 360 21:21 12.03.2020
6553 Mist -36 1001 66 5000 1 350 20:55 12.03.2020
6554 Clouds -36 1001 66 10000 1 330 20:36 12.03.2020
6555 Clear -36 1001 66 10000 1 330 20:18 12.03.2020
6556 Clear -36 1002 66 10000 1 320 19:39 12.03.2020
6557 Clear -36 1002 66 10000 1 320 19:19 12.03.2020
6558 Clear -35 1003 66 10000 2 310 18:42 12.03.2020
6559 Clear -35 1003 66 10000 1 310 18:23 12.03.2020
6560 Clear -35 1003 66 10000 1 310 17:56 12.03.2020
6561 Clear -35 1003 73 10000 1 330 17:37 12.03.2020
6562 Clear -34 1004 73 10000 2 300 17:18 12.03.2020
6563 Clear -33 1004 74 10000 1 310 16:43 12.03.2020
6564 Clear -33 1004 74 10000 1 310 16:23 12.03.2020
6565 Clear -32 1005 74 10000 1 300 15:59 12.03.2020
6566 Clear -33 1005 74 10000 1 330 15:39 12.03.2020
6567 Clear -33 1005 74 10000 1 330 15:21 12.03.2020
6568 Clear -32 1005 74 10000 1 190 14:38 12.03.2020
6569 Clear -32 1005 74 10000 1 190 14:19 12.03.2020
6570 Clear -31 1006 67 10000 2 210 13:40 12.03.2020
6571 Clouds -28 1006 75 10000 1 200 13:21 12.03.2020
6572 Clouds -29 1006 75 10000 2 200 12:55 12.03.2020
6573 Clouds -28 1007 68 10000 1 190 12:37 12.03.2020
6574 Clouds -26 1007 62 10000 2 200 12:18 12.03.2020
6575 Clouds -26 1007 62 10000 2 200 11:56 12.03.2020
6576 Clouds -24 1007 63 10000 3 170 11:37 12.03.2020
6577 Clouds -23 1008 57 10000 3 160 11:19 12.03.2020
6578 Clouds -23 1008 57 10000 3 160 10:55 12.03.2020
6579 Clouds -23 1008 57 10000 3 160 10:55 12.03.2020
6580 Clouds -22 1008 52 10000 3 220 10:37 12.03.2020
6581 Clouds -22 1008 52 10000 3 220 10:18 12.03.2020
6582 Clouds -21 1008 53 10000 4 220 09:42 12.03.2020
6583 Clouds -19 1008 44 10000 5 230 09:23 12.03.2020
6584 Clouds -19 1009 44 10000 6 220 08:40 12.03.2020
6585 Clouds -19 1009 44 10000 5 240 08:19 12.03.2020
6586 Clouds -19 1010 44 10000 4 230 07:52 12.03.2020
6587 Clouds -19 1010 44 10000 5 230 07:23 12.03.2020
6588 Clouds -20 1011 48 10000 6 230 06:38 12.03.2020
6589 Clouds -21 1012 48 10000 5 230 05:40 12.03.2020
6590 Clouds -23 1014 57 10000 5 240 03:54 12.03.2020
6591 Clouds -25 1016 57 10000 3 240 02:21 12.03.2020
6592 Clouds -27 1016 62 10000 5 270 01:29 12.03.2020
6593 Clouds -27 1016 62 10000 4 250 00:42 12.03.2020
6594 Clouds -27 1016 62 10000 3 270 23:59 11.03.2020
6595 Clouds -27 1016 62 10000 3 260 23:37 11.03.2020
6596 Clouds -27 1016 68 10000 5 270 23:18 11.03.2020
6597 Clouds -27 1017 68 10000 2 290 22:42 11.03.2020
6598 Clouds -27 1017 68 10000 2 290 22:23 11.03.2020
6599 Clouds -28 1017 75 10000 3 290 21:58 11.03.2020
6600 Clouds -28 1017 75 10000 3 290 21:40 11.03.2020
6601 Clouds -28 1017 75 10000 2 300 21:22 11.03.2020
6602 Clouds -28 1017 75 10000 3 290 20:57 11.03.2020
6603 Clouds -28 1017 75 10000 3 290 20:57 11.03.2020
6604 Clouds -28 1017 75 10000 3 280 20:37 11.03.2020
6605 Snow -28 1017 75 10000 3 280 20:19 11.03.2020
6606 Snow -27 1017 68 10000 3 280 19:42 11.03.2020
6607 Snow -27 1017 68 10000 3 270 19:24 11.03.2020
6608 Snow -26 1018 68 10000 3 280 18:57 11.03.2020
6609 Snow -26 1018 68 10000 5 280 18:38 11.03.2020
6610 Snow -26 1018 68 10000 5 280 18:38 11.03.2020
6611 Snow -26 1018 68 10000 5 280 18:19 11.03.2020
6612 Snow -25 1017 69 10000 4 290 17:55 11.03.2020
6613 Snow -25 1017 69 10000 5 290 17:37 11.03.2020
6614 Snow -25 1017 69 10000 4 310 17:19 11.03.2020
6615 Snow -25 1017 69 10000 4 310 16:44 11.03.2020
6616 Snow -24 1017 69 10000 5 300 16:20 11.03.2020
6617 Snow -23 1017 69 10000 7 290 15:43 11.03.2020
6618 Snow -22 1017 69 10000 6 290 15:23 11.03.2020
6619 Snow -21 1017 70 10000 6 290 14:56 11.03.2020
6620 Snow -20 1017 70 10000 5 300 14:37 11.03.2020
6621 Snow -20 1017 70 10000 5 300 14:18 11.03.2020
6622 Snow -19 1016 70 10000 6 300 13:42 11.03.2020
6623 Snow -19 1016 70 10000 5 310 13:24 11.03.2020
6624 Snow -19 1016 77 10000 4 310 12:57 11.03.2020
6625 Snow -19 1015 77 10000 5 310 12:39 11.03.2020
6626 Snow -19 1015 77 10000 5 310 12:19 11.03.2020
6627 Snow -18 1015 77 10000 4 290 11:41 11.03.2020
6628 Snow -18 1015 77 10000 4 290 11:22 11.03.2020
6629 Snow -18 1014 77 10000 3 300 10:49 11.03.2020
6630 Snow -17 1014 70 10000 3 320 10:21 11.03.2020
6631 Snow -18 1014 77 10000 2 330 10:00 11.03.2020
6632 Snow -18 1014 77 10000 2 330 09:41 11.03.2020
6633 Snow -18 1013 77 10000 2 350 09:22 11.03.2020
6634 Snow -18 1013 77 10000 2 350 09:22 11.03.2020
6635 Snow -18 1013 77 10000 2 360 08:44 11.03.2020
6636 Snow -18 1013 84 5000 3 360 08:26 11.03.2020
6637 Snow -18 1013 77 3200 3 10 07:48 11.03.2020
6638 Snow -18 1013 77 3200 2 20 07:22 11.03.2020
6639 Snow -18 1012 77 3200 3 30 06:53 11.03.2020
6640 Snow -18 1012 77 3200 1 20 06:33 11.03.2020
6641 Snow -20 1012 83 10000 1 60 05:33 11.03.2020
6642 Clouds -22 1012 76 10000 1 70 03:34 11.03.2020
6643 Clouds -24 1011 83 10000 1 300 01:56 11.03.2020
6644 Clouds -25 1011 83 10000 0.94 317 01:25 11.03.2020
6645 Clouds -28 1011 75 10000 0.91 320 00:44 11.03.2020
6646 Mist -28 1010 75 5000 1 40 23:50 10.03.2020
6647 Mist -28 1010 82 5000 1 300 23:28 10.03.2020
6648 Mist -32 1009 74 5000 1 110 22:59 10.03.2020
6649 Clouds -30 1009 74 10000 1 70 22:38 10.03.2020
6650 Clouds -30 1009 74 10000 1 70 22:19 10.03.2020
6651 Clouds -30 1009 74 10000 1 70 22:19 10.03.2020
6652 Clouds -29 1009 82 10000 1.21 254 21:56 10.03.2020
6653 Clouds -26 1009 83 10000 2 170 21:38 10.03.2020
6654 Clouds -26 1009 83 10000 2 170 21:38 10.03.2020
6655 Clouds -26 1009 83 10000 2 170 21:19 10.03.2020
6656 Clouds -24 1009 83 10000 3 240 20:56 10.03.2020
6657 Clouds -24 1008 83 10000 2 220 20:38 10.03.2020
6658 Clouds -24 1008 83 10000 2 220 20:18 10.03.2020
6659 Clouds -24 1008 83 10000 3 230 19:55 10.03.2020
6660 Clouds -23 1008 83 10000 3 200 19:36 10.03.2020
6661 Clouds -23 1008 83 10000 3 200 19:18 10.03.2020
6662 Clouds -21 1007 83 10000 5 250 18:42 10.03.2020
6663 Clouds -21 1007 83 10000 5 250 18:23 10.03.2020
6664 Clouds -20 1007 83 10000 3 250 17:56 10.03.2020
6665 Clouds -20 1007 83 10000 5 280 17:37 10.03.2020
6666 Clouds -20 1007 83 10000 5 280 17:19 10.03.2020
6667 Clouds -18 1006 84 10000 5 280 16:38 10.03.2020
6668 Clouds -18 1006 84 10000 5 280 16:18 10.03.2020
6669 Clouds -17 1006 84 10000 4 280 15:44 10.03.2020
6670 Clouds -18 1006 84 10000 3 240 15:20 10.03.2020
6671 Clouds -20 1005 91 10000 2 240 14:59 10.03.2020
6672 Clouds -20 1005 91 10000 2 240 14:40 10.03.2020
6673 Snow -19 1005 84 10000 2 260 14:19 10.03.2020
6674 Snow -19 1005 84 10000 2 250 13:45 10.03.2020
6675 Snow -18 1004 91 10000 3 240 13:27 10.03.2020
6676 Clouds -18 1004 84 10000 2 260 12:59 10.03.2020
6677 Snow -16 1004 84 10000 2 200 12:39 10.03.2020
6678 Snow -16 1004 84 10000 2 200 12:18 10.03.2020
6679 Snow -14 1004 84 5000 1 220 11:43 10.03.2020
6680 Snow -14 1004 84 5000 1 220 11:24 10.03.2020
6681 Snow -12 1003 92 5000 1 220 10:58 10.03.2020
6682 Snow -11 1003 85 5000 2.27 90 10:40 10.03.2020
6683 Snow -11 1003 85 5000 2.27 90 10:21 10.03.2020
6684 Snow -11 1003 92 1800 2 110 09:56 10.03.2020
6685 Snow -11 1002 85 2100 3 90 09:37 10.03.2020
6686 Snow -11 1002 85 2100 3 90 09:18 10.03.2020
6687 Snow -11 1002 85 3200 3 100 08:43 10.03.2020
6688 Snow -10 1002 66 10000 3 110 08:25 10.03.2020
6689 Snow -10 1002 51 10000 3 110 07:46 10.03.2020
6690 Snow -10 1002 51 10000 2 100 07:28 10.03.2020
6691 Snow -11 1002 51 10000 3 80 06:42 10.03.2020
6692 Snow -11 1002 51 10000 3 80 06:23 10.03.2020
6693 Snow -11 1002 51 10000 2 80 05:38 10.03.2020
6694 Clouds -13 1003 55 10000 2 80 04:34 10.03.2020
6695 Clouds -13 1003 55 10000 3 110 03:34 10.03.2020
6696 Snow -16 1004 71 10000 3 120 01:55 10.03.2020
6697 Snow -16 1004 71 10000 3 110 00:53 10.03.2020
6698 Snow -18 1004 84 5000 2 100 00:30 10.03.2020
6699 Snow -18 1004 77 5000 1 90 23:56 09.03.2020
6700 Snow -18 1004 77 5000 2 80 23:37 09.03.2020
6701 Snow -20 1005 83 10000 2 60 23:19 09.03.2020
6702 Snow -20 1005 76 10000 1 50 22:40 09.03.2020
6703 Snow -20 1005 76 10000 1 50 22:21 09.03.2020
6704 Snow -19 1005 77 10000 1 20 21:57 09.03.2020
6705 Snow -19 1005 77 10000 2 60 21:38 09.03.2020
6706 Snow -19 1005 77 10000 2 60 21:20 09.03.2020
6707 Snow -19 1005 77 10000 2 50 20:55 09.03.2020
6708 Snow -20 1006 76 10000 2 20 20:36 09.03.2020
6709 Snow -20 1006 76 10000 2 20 20:18 09.03.2020
6710 Snow -20 1006 76 10000 2 10 19:42 09.03.2020
6711 Snow -20 1006 76 10000 2 360 19:20 09.03.2020
6712 Snow -21 1007 76 10000 3 360 18:57 09.03.2020
6713 Snow -21 1007 76 10000 2 360 18:38 09.03.2020
6714 Snow -21 1007 76 10000 2 360 18:19 09.03.2020
6715 Snow -21 1007 76 10000 3 360 17:56 09.03.2020
6716 Snow -21 1008 76 10000 3 350 17:37 09.03.2020
6717 Snow -22 1008 83 10000 3 340 17:19 09.03.2020
6718 Snow -22 1008 83 10000 3 340 16:56 09.03.2020
6719 Snow -22 1009 83 10000 3 330 16:38 09.03.2020
6720 Snow -22 1009 83 10000 3 330 16:20 09.03.2020
6721 Snow -22 1009 83 10000 3 330 15:57 09.03.2020
6722 Snow -22 1009 76 10000 3 340 15:38 09.03.2020
6723 Snow -22 1009 76 10000 3 340 15:19 09.03.2020
6724 Snow -22 1010 76 10000 3 340 14:41 09.03.2020
6725 Clouds -22 1010 76 10000 3 340 14:23 09.03.2020
6726 Clouds -22 1011 76 10000 3 340 13:59 09.03.2020
6727 Clouds -22 1011 76 10000 3 340 13:59 09.03.2020
6728 Clouds -22 1011 69 10000 3 340 13:40 09.03.2020
6729 Clouds -22 1011 69 10000 3 340 13:21 09.03.2020
6730 Clouds -22 1011 69 10000 3 340 12:59 09.03.2020
6731 Clouds -22 1012 69 10000 3 340 12:40 09.03.2020
6732 Clouds -22 1012 69 10000 3 340 12:20 09.03.2020
6733 Clouds -23 1012 63 10000 2 350 11:40 09.03.2020
6734 Clouds -23 1012 63 10000 2 350 11:40 09.03.2020
6735 Clouds -23 1012 63 10000 2 350 11:20 09.03.2020
6736 Clouds -22 1012 63 10000 2 350 10:58 09.03.2020
6737 Clouds -22 1012 63 10000 2 360 10:40 09.03.2020
6738 Clouds -22 1012 63 10000 2 360 10:40 09.03.2020
6739 Clouds -22 1012 63 10000 2 360 10:19 09.03.2020
6740 Clouds -22 1012 63 10000 2 360 10:19 09.03.2020
6741 Clouds -22 1012 63 10000 2 350 09:43 09.03.2020
6742 Clouds -22 1013 63 10000 2 350 09:24 09.03.2020
6743 Clouds -21 1013 63 10000 2 340 08:55 09.03.2020
6744 Clouds -21 1013 63 10000 2 10 08:37 09.03.2020
6745 Clouds -21 1013 63 10000 2 10 08:18 09.03.2020
6746 Clouds -22 1014 63 10000 2 10 07:39 09.03.2020
6747 Clouds -22 1014 63 10000 2 10 07:21 09.03.2020
6748 Clouds -22 1014 63 10000 2 20 06:43 09.03.2020
6749 Clouds -23 1014 69 10000 1 30 06:23 09.03.2020
6750 Clouds -23 1015 63 10000